<?xml version="1.0" encoding="UTF-8" standalone="no" ?>
<gpx xmlns="http://www.topografix.com/GPX/1/1" xmlns:xsi="http://www.w3.org/2001/XMLSchema-instance" xsi:schemaLocation="http://www.topografix.com/GPX/1/1 http://www.topografix.com/GPX/1/1/gpx.xsd" version="1.1" creator="VisuGPX - https://www.visugpx.com">
  <metadata>
    <name>Le Salève depuis Cruseilles</name>
    <desc><![CDATA[LaMuraz, Chez Le Tournier, Le Sappey, Cruseilles, La Croisette, Monnetier, LaMuraz]]></desc>
  </metadata>
  <trk>
    <name><![CDATA[LaMuraz-Tournier-Cruseilles-Monnetier-LaMuraz]]></name>
    <trkseg>
      <trkpt lat="46.12376" lon="6.20515">
        <ele>639</ele>
        <time>2019-04-18T09:28:23.000Z</time>
      </trkpt>
      <trkpt lat="46.124" lon="6.20552">
        <ele>635.59997558594</ele>
        <time>2019-04-18T09:28:28.000Z</time>
      </trkpt>
      <trkpt lat="46.12372" lon="6.20394">
        <ele>649</ele>
        <time>2019-04-18T09:28:35.000Z</time>
      </trkpt>
      <trkpt lat="46.12374" lon="6.20337">
        <ele>653.59997558594</ele>
        <time>2019-04-18T09:28:42.000Z</time>
      </trkpt>
      <trkpt lat="46.12379" lon="6.20307">
        <ele>656.20001220703</ele>
        <time>2019-04-18T09:28:50.000Z</time>
      </trkpt>
      <trkpt lat="46.12388" lon="6.20288">
        <ele>657.20001220703</ele>
        <time>2019-04-18T09:28:57.000Z</time>
      </trkpt>
      <trkpt lat="46.12394" lon="6.20272">
        <ele>658.40002441406</ele>
        <time>2019-04-18T09:29:03.000Z</time>
      </trkpt>
      <trkpt lat="46.12397" lon="6.20261">
        <ele>659.40002441406</ele>
        <time>2019-04-18T09:29:08.000Z</time>
      </trkpt>
      <trkpt lat="46.124" lon="6.20251">
        <ele>660.20001220703</ele>
        <time>2019-04-18T09:29:13.000Z</time>
      </trkpt>
      <trkpt lat="46.12401" lon="6.20236">
        <ele>661.20001220703</ele>
        <time>2019-04-18T09:29:18.000Z</time>
      </trkpt>
      <trkpt lat="46.12401" lon="6.20231">
        <ele>661.79998779297</ele>
        <time>2019-04-18T09:29:20.000Z</time>
      </trkpt>
      <trkpt lat="46.12402" lon="6.20226">
        <ele>662.40002441406</ele>
        <time>2019-04-18T09:29:22.000Z</time>
      </trkpt>
      <trkpt lat="46.12402" lon="6.2022">
        <ele>663</ele>
        <time>2019-04-18T09:29:24.000Z</time>
      </trkpt>
      <trkpt lat="46.12402" lon="6.20214">
        <ele>663.59997558594</ele>
        <time>2019-04-18T09:29:26.000Z</time>
      </trkpt>
      <trkpt lat="46.12402" lon="6.20211">
        <ele>664</ele>
        <time>2019-04-18T09:29:27.000Z</time>
      </trkpt>
      <trkpt lat="46.12403" lon="6.20198">
        <ele>665.20001220703</ele>
        <time>2019-04-18T09:29:31.000Z</time>
      </trkpt>
      <trkpt lat="46.12402" lon="6.20175">
        <ele>667.40002441406</ele>
        <time>2019-04-18T09:29:36.000Z</time>
      </trkpt>
      <trkpt lat="46.12394" lon="6.20163">
        <ele>667.40002441406</ele>
        <time>2019-04-18T09:29:41.000Z</time>
      </trkpt>
      <trkpt lat="46.12383" lon="6.20145">
        <ele>668.59997558594</ele>
        <time>2019-04-18T09:29:48.000Z</time>
      </trkpt>
      <trkpt lat="46.12378" lon="6.2013">
        <ele>669.59997558594</ele>
        <time>2019-04-18T09:29:54.000Z</time>
      </trkpt>
      <trkpt lat="46.12379" lon="6.20105">
        <ele>671</ele>
        <time>2019-04-18T09:30:02.000Z</time>
      </trkpt>
      <trkpt lat="46.12389" lon="6.20079">
        <ele>672.79998779297</ele>
        <time>2019-04-18T09:30:11.000Z</time>
      </trkpt>
      <trkpt lat="46.12391" lon="6.20074">
        <ele>673.20001220703</ele>
        <time>2019-04-18T09:30:13.000Z</time>
      </trkpt>
      <trkpt lat="46.12394" lon="6.20069">
        <ele>673.59997558594</ele>
        <time>2019-04-18T09:30:15.000Z</time>
      </trkpt>
      <trkpt lat="46.12408" lon="6.20058">
        <ele>677.40002441406</ele>
        <time>2019-04-18T09:30:22.000Z</time>
      </trkpt>
      <trkpt lat="46.12422" lon="6.20059">
        <ele>680.20001220703</ele>
        <time>2019-04-18T09:30:29.000Z</time>
      </trkpt>
      <trkpt lat="46.12429" lon="6.20065">
        <ele>681.40002441406</ele>
        <time>2019-04-18T09:30:35.000Z</time>
      </trkpt>
      <trkpt lat="46.12442" lon="6.20076">
        <ele>683.20001220703</ele>
        <time>2019-04-18T09:30:42.000Z</time>
      </trkpt>
      <trkpt lat="46.1245" lon="6.20095">
        <ele>683.40002441406</ele>
        <time>2019-04-18T09:30:49.000Z</time>
      </trkpt>
      <trkpt lat="46.12457" lon="6.20113">
        <ele>683.40002441406</ele>
        <time>2019-04-18T09:30:55.000Z</time>
      </trkpt>
      <trkpt lat="46.12466" lon="6.20136">
        <ele>683.40002441406</ele>
        <time>2019-04-18T09:31:03.000Z</time>
      </trkpt>
      <trkpt lat="46.12474" lon="6.20158">
        <ele>682.59997558594</ele>
        <time>2019-04-18T09:31:11.000Z</time>
      </trkpt>
      <trkpt lat="46.1249" lon="6.2018">
        <ele>682.40002441406</ele>
        <time>2019-04-18T09:31:20.000Z</time>
      </trkpt>
      <trkpt lat="46.12504" lon="6.20198">
        <ele>682.20001220703</ele>
        <time>2019-04-18T09:31:28.000Z</time>
      </trkpt>
      <trkpt lat="46.1252" lon="6.20217">
        <ele>682.20001220703</ele>
        <time>2019-04-18T09:31:37.000Z</time>
      </trkpt>
      <trkpt lat="46.12537" lon="6.20238">
        <ele>682.20001220703</ele>
        <time>2019-04-18T09:31:47.000Z</time>
      </trkpt>
      <trkpt lat="46.12551" lon="6.20256">
        <ele>682.20001220703</ele>
        <time>2019-04-18T09:31:56.000Z</time>
      </trkpt>
      <trkpt lat="46.12573" lon="6.20263">
        <ele>682.20001220703</ele>
        <time>2019-04-18T09:32:05.000Z</time>
      </trkpt>
      <trkpt lat="46.12595" lon="6.2026">
        <ele>681.59997558594</ele>
        <time>2019-04-18T09:32:13.000Z</time>
      </trkpt>
      <trkpt lat="46.12615" lon="6.20249">
        <ele>683.59997558594</ele>
        <time>2019-04-18T09:32:22.000Z</time>
      </trkpt>
      <trkpt lat="46.12631" lon="6.20239">
        <ele>685.20001220703</ele>
        <time>2019-04-18T09:32:29.000Z</time>
      </trkpt>
      <trkpt lat="46.12644" lon="6.20224">
        <ele>687.59997558594</ele>
        <time>2019-04-18T09:32:36.000Z</time>
      </trkpt>
      <trkpt lat="46.12646" lon="6.20205">
        <ele>690.79998779297</ele>
        <time>2019-04-18T09:32:41.000Z</time>
      </trkpt>
      <trkpt lat="46.12637" lon="6.20189">
        <ele>693.40002441406</ele>
        <time>2019-04-18T09:32:47.000Z</time>
      </trkpt>
      <trkpt lat="46.12622" lon="6.2018">
        <ele>694.79998779297</ele>
        <time>2019-04-18T09:32:54.000Z</time>
      </trkpt>
      <trkpt lat="46.12602" lon="6.20168">
        <ele>696.59997558594</ele>
        <time>2019-04-18T09:33:03.000Z</time>
      </trkpt>
      <trkpt lat="46.12589" lon="6.20153">
        <ele>699</ele>
        <time>2019-04-18T09:33:10.000Z</time>
      </trkpt>
      <trkpt lat="46.12577" lon="6.20133">
        <ele>701</ele>
        <time>2019-04-18T09:33:18.000Z</time>
      </trkpt>
      <trkpt lat="46.12563" lon="6.20107">
        <ele>702.79998779297</ele>
        <time>2019-04-18T09:33:28.000Z</time>
      </trkpt>
      <trkpt lat="46.12552" lon="6.20087">
        <ele>702.79998779297</ele>
        <time>2019-04-18T09:33:35.000Z</time>
      </trkpt>
      <trkpt lat="46.12542" lon="6.20056">
        <ele>703.20001220703</ele>
        <time>2019-04-18T09:33:45.000Z</time>
      </trkpt>
      <trkpt lat="46.1254" lon="6.20034">
        <ele>704.59997558594</ele>
        <time>2019-04-18T09:33:52.000Z</time>
      </trkpt>
      <trkpt lat="46.12546" lon="6.20007">
        <ele>708.79998779297</ele>
        <time>2019-04-18T09:34:00.000Z</time>
      </trkpt>
      <trkpt lat="46.12553" lon="6.19977">
        <ele>713.40002441406</ele>
        <time>2019-04-18T09:34:09.000Z</time>
      </trkpt>
      <trkpt lat="46.12561" lon="6.19954">
        <ele>715</ele>
        <time>2019-04-18T09:34:16.000Z</time>
      </trkpt>
      <trkpt lat="46.12573" lon="6.19951">
        <ele>716</ele>
        <time>2019-04-18T09:34:20.000Z</time>
      </trkpt>
      <trkpt lat="46.12588" lon="6.19954">
        <ele>717</ele>
        <time>2019-04-18T09:34:26.000Z</time>
      </trkpt>
      <trkpt lat="46.1259" lon="6.19954">
        <ele>717.20001220703</ele>
        <time>2019-04-18T09:34:27.000Z</time>
      </trkpt>
      <trkpt lat="46.12596" lon="6.19952">
        <ele>717.59997558594</ele>
        <time>2019-04-18T09:34:30.000Z</time>
      </trkpt>
      <trkpt lat="46.12605" lon="6.19938">
        <ele>718.40002441406</ele>
        <time>2019-04-18T09:34:36.000Z</time>
      </trkpt>
      <trkpt lat="46.12609" lon="6.19911">
        <ele>723.20001220703</ele>
        <time>2019-04-18T09:34:43.000Z</time>
      </trkpt>
      <trkpt lat="46.12614" lon="6.19884">
        <ele>727</ele>
        <time>2019-04-18T09:34:51.000Z</time>
      </trkpt>
      <trkpt lat="46.12618" lon="6.19858">
        <ele>729.40002441406</ele>
        <time>2019-04-18T09:34:59.000Z</time>
      </trkpt>
      <trkpt lat="46.12622" lon="6.19831">
        <ele>732</ele>
        <time>2019-04-18T09:35:07.000Z</time>
      </trkpt>
      <trkpt lat="46.12626" lon="6.1981">
        <ele>734.20001220703</ele>
        <time>2019-04-18T09:35:14.000Z</time>
      </trkpt>
      <trkpt lat="46.1262" lon="6.19788">
        <ele>737.20001220703</ele>
        <time>2019-04-18T09:35:21.000Z</time>
      </trkpt>
      <trkpt lat="46.12613" lon="6.1977">
        <ele>738.40002441406</ele>
        <time>2019-04-18T09:35:28.000Z</time>
      </trkpt>
      <trkpt lat="46.12594" lon="6.19755">
        <ele>737.20001220703</ele>
        <time>2019-04-18T09:35:37.000Z</time>
      </trkpt>
      <trkpt lat="46.12577" lon="6.19741">
        <ele>736.20001220703</ele>
        <time>2019-04-18T09:35:45.000Z</time>
      </trkpt>
      <trkpt lat="46.12567" lon="6.19732">
        <ele>735.59997558594</ele>
        <time>2019-04-18T09:35:50.000Z</time>
      </trkpt>
      <trkpt lat="46.12558" lon="6.19721">
        <ele>736.59997558594</ele>
        <time>2019-04-18T09:35:55.000Z</time>
      </trkpt>
      <trkpt lat="46.12547" lon="6.19706">
        <ele>738.40002441406</ele>
        <time>2019-04-18T09:36:02.000Z</time>
      </trkpt>
      <trkpt lat="46.12536" lon="6.19691">
        <ele>740</ele>
        <time>2019-04-18T09:36:08.000Z</time>
      </trkpt>
      <trkpt lat="46.12523" lon="6.19673">
        <ele>742</ele>
        <time>2019-04-18T09:36:16.000Z</time>
      </trkpt>
      <trkpt lat="46.12511" lon="6.19656">
        <ele>744</ele>
        <time>2019-04-18T09:36:23.000Z</time>
      </trkpt>
      <trkpt lat="46.12498" lon="6.19628">
        <ele>747.79998779297</ele>
        <time>2019-04-18T09:36:32.000Z</time>
      </trkpt>
      <trkpt lat="46.12488" lon="6.19597">
        <ele>752.20001220703</ele>
        <time>2019-04-18T09:36:42.000Z</time>
      </trkpt>
      <trkpt lat="46.12479" lon="6.19566">
        <ele>756.59997558594</ele>
        <time>2019-04-18T09:36:52.000Z</time>
      </trkpt>
      <trkpt lat="46.12468" lon="6.19545">
        <ele>758.59997558594</ele>
        <time>2019-04-18T09:37:00.000Z</time>
      </trkpt>
      <trkpt lat="46.12459" lon="6.19535">
        <ele>758.40002441406</ele>
        <time>2019-04-18T09:37:06.000Z</time>
      </trkpt>
      <trkpt lat="46.12446" lon="6.19523">
        <ele>757.59997558594</ele>
        <time>2019-04-18T09:37:13.000Z</time>
      </trkpt>
      <trkpt lat="46.12433" lon="6.19512">
        <ele>756.79998779297</ele>
        <time>2019-04-18T09:37:20.000Z</time>
      </trkpt>
      <trkpt lat="46.12414" lon="6.195">
        <ele>754.59997558594</ele>
        <time>2019-04-18T09:37:27.000Z</time>
      </trkpt>
      <trkpt lat="46.12391" lon="6.19486">
        <ele>752.59997558594</ele>
        <time>2019-04-18T09:37:37.000Z</time>
      </trkpt>
      <trkpt lat="46.12375" lon="6.19475">
        <ele>753.79998779297</ele>
        <time>2019-04-18T09:37:45.000Z</time>
      </trkpt>
      <trkpt lat="46.1237" lon="6.19459">
        <ele>755.59997558594</ele>
        <time>2019-04-18T09:37:51.000Z</time>
      </trkpt>
      <trkpt lat="46.12369" lon="6.19448">
        <ele>757.20001220703</ele>
        <time>2019-04-18T09:37:55.000Z</time>
      </trkpt>
      <trkpt lat="46.12377" lon="6.19435">
        <ele>760.20001220703</ele>
        <time>2019-04-18T09:38:00.000Z</time>
      </trkpt>
      <trkpt lat="46.12388" lon="6.19431">
        <ele>762</ele>
        <time>2019-04-18T09:38:05.000Z</time>
      </trkpt>
      <trkpt lat="46.12401" lon="6.1944">
        <ele>763</ele>
        <time>2019-04-18T09:38:11.000Z</time>
      </trkpt>
      <trkpt lat="46.1242" lon="6.19461">
        <ele>764.20001220703</ele>
        <time>2019-04-18T09:38:19.000Z</time>
      </trkpt>
      <trkpt lat="46.12432" lon="6.19464">
        <ele>767.20001220703</ele>
        <time>2019-04-18T09:38:25.000Z</time>
      </trkpt>
      <trkpt lat="46.12441" lon="6.19454">
        <ele>771.40002441406</ele>
        <time>2019-04-18T09:38:31.000Z</time>
      </trkpt>
      <trkpt lat="46.12442" lon="6.19434">
        <ele>775.40002441406</ele>
        <time>2019-04-18T09:38:37.000Z</time>
      </trkpt>
      <trkpt lat="46.12433" lon="6.19414">
        <ele>776.20001220703</ele>
        <time>2019-04-18T09:38:44.000Z</time>
      </trkpt>
      <trkpt lat="46.12421" lon="6.19391">
        <ele>777</ele>
        <time>2019-04-18T09:38:52.000Z</time>
      </trkpt>
      <trkpt lat="46.12411" lon="6.1937">
        <ele>776.79998779297</ele>
        <time>2019-04-18T09:38:59.000Z</time>
      </trkpt>
      <trkpt lat="46.124" lon="6.19349">
        <ele>776.40002441406</ele>
        <time>2019-04-18T09:39:07.000Z</time>
      </trkpt>
      <trkpt lat="46.1239" lon="6.19327">
        <ele>776.79998779297</ele>
        <time>2019-04-18T09:39:15.000Z</time>
      </trkpt>
      <trkpt lat="46.12375" lon="6.19311">
        <ele>777</ele>
        <time>2019-04-18T09:39:23.000Z</time>
      </trkpt>
      <trkpt lat="46.12362" lon="6.19297">
        <ele>777.20001220703</ele>
        <time>2019-04-18T09:39:30.000Z</time>
      </trkpt>
      <trkpt lat="46.12349" lon="6.19278">
        <ele>778.20001220703</ele>
        <time>2019-04-18T09:39:38.000Z</time>
      </trkpt>
      <trkpt lat="46.12345" lon="6.19258">
        <ele>780.40002441406</ele>
        <time>2019-04-18T09:39:44.000Z</time>
      </trkpt>
      <trkpt lat="46.12341" lon="6.19234">
        <ele>784.20001220703</ele>
        <time>2019-04-18T09:39:51.000Z</time>
      </trkpt>
      <trkpt lat="46.12324" lon="6.19214">
        <ele>784.59997558594</ele>
        <time>2019-04-18T09:39:58.000Z</time>
      </trkpt>
      <trkpt lat="46.12312" lon="6.19213">
        <ele>782.79998779297</ele>
        <time>2019-04-18T09:40:04.000Z</time>
      </trkpt>
      <trkpt lat="46.12293" lon="6.19218">
        <ele>786.79998779297</ele>
        <time>2019-04-18T09:40:11.000Z</time>
      </trkpt>
      <trkpt lat="46.12281" lon="6.19231">
        <ele>787.40002441406</ele>
        <time>2019-04-18T09:40:18.000Z</time>
      </trkpt>
      <trkpt lat="46.12269" lon="6.19246">
        <ele>788.79998779297</ele>
        <time>2019-04-18T09:40:25.000Z</time>
      </trkpt>
      <trkpt lat="46.12257" lon="6.19261">
        <ele>789.79998779297</ele>
        <time>2019-04-18T09:40:32.000Z</time>
      </trkpt>
      <trkpt lat="46.12245" lon="6.19275">
        <ele>788.40002441406</ele>
        <time>2019-04-18T09:40:39.000Z</time>
      </trkpt>
      <trkpt lat="46.12231" lon="6.19293">
        <ele>786.59997558594</ele>
        <time>2019-04-18T09:40:47.000Z</time>
      </trkpt>
      <trkpt lat="46.12219" lon="6.19308">
        <ele>785.59997558594</ele>
        <time>2019-04-18T09:40:53.000Z</time>
      </trkpt>
      <trkpt lat="46.12205" lon="6.19325">
        <ele>787.40002441406</ele>
        <time>2019-04-18T09:41:01.000Z</time>
      </trkpt>
      <trkpt lat="46.12192" lon="6.19331">
        <ele>790.40002441406</ele>
        <time>2019-04-18T09:41:06.000Z</time>
      </trkpt>
      <trkpt lat="46.12175" lon="6.19335">
        <ele>794.59997558594</ele>
        <time>2019-04-18T09:41:13.000Z</time>
      </trkpt>
      <trkpt lat="46.12161" lon="6.19338">
        <ele>797.79998779297</ele>
        <time>2019-04-18T09:41:19.000Z</time>
      </trkpt>
      <trkpt lat="46.1215" lon="6.19344">
        <ele>800.40002441406</ele>
        <time>2019-04-18T09:41:24.000Z</time>
      </trkpt>
      <trkpt lat="46.12146" lon="6.19357">
        <ele>800.79998779297</ele>
        <time>2019-04-18T09:41:28.000Z</time>
      </trkpt>
      <trkpt lat="46.12145" lon="6.1936">
        <ele>800.79998779297</ele>
        <time>2019-04-18T09:41:29.000Z</time>
      </trkpt>
      <trkpt lat="46.12141" lon="6.19388">
        <ele>799.79998779297</ele>
        <time>2019-04-18T09:41:36.000Z</time>
      </trkpt>
      <trkpt lat="46.12139" lon="6.19416">
        <ele>799.40002441406</ele>
        <time>2019-04-18T09:41:44.000Z</time>
      </trkpt>
      <trkpt lat="46.12138" lon="6.19449">
        <ele>799.59997558594</ele>
        <time>2019-04-18T09:41:53.000Z</time>
      </trkpt>
      <trkpt lat="46.12136" lon="6.19473">
        <ele>799.59997558594</ele>
        <time>2019-04-18T09:42:00.000Z</time>
      </trkpt>
      <trkpt lat="46.12132" lon="6.19499">
        <ele>798.59997558594</ele>
        <time>2019-04-18T09:42:08.000Z</time>
      </trkpt>
      <trkpt lat="46.12119" lon="6.19516">
        <ele>798.40002441406</ele>
        <time>2019-04-18T09:42:14.000Z</time>
      </trkpt>
      <trkpt lat="46.12106" lon="6.19516">
        <ele>799</ele>
        <time>2019-04-18T09:42:19.000Z</time>
      </trkpt>
      <trkpt lat="46.1208" lon="6.19508">
        <ele>799.79998779297</ele>
        <time>2019-04-18T09:42:28.000Z</time>
      </trkpt>
      <trkpt lat="46.12057" lon="6.19499">
        <ele>800.59997558594</ele>
        <time>2019-04-18T09:42:36.000Z</time>
      </trkpt>
      <trkpt lat="46.12036" lon="6.19487">
        <ele>803.20001220703</ele>
        <time>2019-04-18T09:42:44.000Z</time>
      </trkpt>
      <trkpt lat="46.12016" lon="6.19472">
        <ele>806.20001220703</ele>
        <time>2019-04-18T09:42:52.000Z</time>
      </trkpt>
      <trkpt lat="46.11996" lon="6.19468">
        <ele>807.59997558594</ele>
        <time>2019-04-18T09:42:59.000Z</time>
      </trkpt>
      <trkpt lat="46.11977" lon="6.19473">
        <ele>807.79998779297</ele>
        <time>2019-04-18T09:43:06.000Z</time>
      </trkpt>
      <trkpt lat="46.11958" lon="6.19488">
        <ele>809.59997558594</ele>
        <time>2019-04-18T09:43:14.000Z</time>
      </trkpt>
      <trkpt lat="46.11944" lon="6.19509">
        <ele>809.59997558594</ele>
        <time>2019-04-18T09:43:21.000Z</time>
      </trkpt>
      <trkpt lat="46.11932" lon="6.1953">
        <ele>809</ele>
        <time>2019-04-18T09:43:28.000Z</time>
      </trkpt>
      <trkpt lat="46.11918" lon="6.19552">
        <ele>807.59997558594</ele>
        <time>2019-04-18T09:43:35.000Z</time>
      </trkpt>
      <trkpt lat="46.119" lon="6.1958">
        <ele>806.59997558594</ele>
        <time>2019-04-18T09:43:44.000Z</time>
      </trkpt>
      <trkpt lat="46.11881" lon="6.196">
        <ele>806.20001220703</ele>
        <time>2019-04-18T09:43:52.000Z</time>
      </trkpt>
      <trkpt lat="46.11862" lon="6.19605">
        <ele>807.20001220703</ele>
        <time>2019-04-18T09:43:58.000Z</time>
      </trkpt>
      <trkpt lat="46.1184" lon="6.19605">
        <ele>808.20001220703</ele>
        <time>2019-04-18T09:44:05.000Z</time>
      </trkpt>
      <trkpt lat="46.1181" lon="6.19592">
        <ele>811</ele>
        <time>2019-04-18T09:44:15.000Z</time>
      </trkpt>
      <trkpt lat="46.11787" lon="6.19582">
        <ele>813.20001220703</ele>
        <time>2019-04-18T09:44:23.000Z</time>
      </trkpt>
      <trkpt lat="46.1176" lon="6.19571">
        <ele>816</ele>
        <time>2019-04-18T09:44:32.000Z</time>
      </trkpt>
      <trkpt lat="46.11739" lon="6.19562">
        <ele>817.79998779297</ele>
        <time>2019-04-18T09:44:39.000Z</time>
      </trkpt>
      <trkpt lat="46.11716" lon="6.19552">
        <ele>819</ele>
        <time>2019-04-18T09:44:47.000Z</time>
      </trkpt>
      <trkpt lat="46.1169" lon="6.19536">
        <ele>820.40002441406</ele>
        <time>2019-04-18T09:44:57.000Z</time>
      </trkpt>
      <trkpt lat="46.11674" lon="6.1952">
        <ele>822.20001220703</ele>
        <time>2019-04-18T09:45:04.000Z</time>
      </trkpt>
      <trkpt lat="46.11659" lon="6.19499">
        <ele>825.20001220703</ele>
        <time>2019-04-18T09:45:13.000Z</time>
      </trkpt>
      <trkpt lat="46.11642" lon="6.19476">
        <ele>828.20001220703</ele>
        <time>2019-04-18T09:45:22.000Z</time>
      </trkpt>
      <trkpt lat="46.11625" lon="6.19452">
        <ele>831.59997558594</ele>
        <time>2019-04-18T09:45:32.000Z</time>
      </trkpt>
      <trkpt lat="46.1161" lon="6.19433">
        <ele>834.40002441406</ele>
        <time>2019-04-18T09:45:40.000Z</time>
      </trkpt>
      <trkpt lat="46.11592" lon="6.19414">
        <ele>836.40002441406</ele>
        <time>2019-04-18T09:45:49.000Z</time>
      </trkpt>
      <trkpt lat="46.11574" lon="6.194">
        <ele>837.40002441406</ele>
        <time>2019-04-18T09:45:57.000Z</time>
      </trkpt>
      <trkpt lat="46.11554" lon="6.19391">
        <ele>837.79998779297</ele>
        <time>2019-04-18T09:46:05.000Z</time>
      </trkpt>
      <trkpt lat="46.11538" lon="6.19384">
        <ele>839.20001220703</ele>
        <time>2019-04-18T09:46:12.000Z</time>
      </trkpt>
      <trkpt lat="46.11524" lon="6.19377">
        <ele>840.40002441406</ele>
        <time>2019-04-18T09:46:18.000Z</time>
      </trkpt>
      <trkpt lat="46.11509" lon="6.1937">
        <ele>841.79998779297</ele>
        <time>2019-04-18T09:46:24.000Z</time>
      </trkpt>
      <trkpt lat="46.11487" lon="6.1936">
        <ele>843.79998779297</ele>
        <time>2019-04-18T09:46:33.000Z</time>
      </trkpt>
      <trkpt lat="46.11475" lon="6.19359">
        <ele>844</ele>
        <time>2019-04-18T09:46:38.000Z</time>
      </trkpt>
      <trkpt lat="46.11459" lon="6.19362">
        <ele>845.40002441406</ele>
        <time>2019-04-18T09:46:45.000Z</time>
      </trkpt>
      <trkpt lat="46.11443" lon="6.19371">
        <ele>845.79998779297</ele>
        <time>2019-04-18T09:46:52.000Z</time>
      </trkpt>
      <trkpt lat="46.11428" lon="6.1938">
        <ele>846.20001220703</ele>
        <time>2019-04-18T09:46:59.000Z</time>
      </trkpt>
      <trkpt lat="46.11414" lon="6.19377">
        <ele>848.59997558594</ele>
        <time>2019-04-18T09:47:05.000Z</time>
      </trkpt>
      <trkpt lat="46.11409" lon="6.19374">
        <ele>850</ele>
        <time>2019-04-18T09:47:08.000Z</time>
      </trkpt>
      <trkpt lat="46.11409" lon="6.19373">
        <ele>850.20001220703</ele>
        <time>2019-04-18T09:47:09.000Z</time>
      </trkpt>
      <trkpt lat="46.11407" lon="6.19359">
        <ele>853.20001220703</ele>
        <time>2019-04-18T09:47:13.000Z</time>
      </trkpt>
      <trkpt lat="46.11409" lon="6.19353">
        <ele>854.40002441406</ele>
        <time>2019-04-18T09:47:15.000Z</time>
      </trkpt>
      <trkpt lat="46.11414" lon="6.19344">
        <ele>855.59997558594</ele>
        <time>2019-04-18T09:47:18.000Z</time>
      </trkpt>
      <trkpt lat="46.11423" lon="6.19339">
        <ele>855</ele>
        <time>2019-04-18T09:47:22.000Z</time>
      </trkpt>
      <trkpt lat="46.11426" lon="6.19338">
        <ele>855</ele>
        <time>2019-04-18T09:47:23.000Z</time>
      </trkpt>
      <trkpt lat="46.1144" lon="6.19331">
        <ele>854.59997558594</ele>
        <time>2019-04-18T09:47:29.000Z</time>
      </trkpt>
      <trkpt lat="46.1146" lon="6.1932">
        <ele>854.40002441406</ele>
        <time>2019-04-18T09:47:38.000Z</time>
      </trkpt>
      <trkpt lat="46.11476" lon="6.19305">
        <ele>855.59997558594</ele>
        <time>2019-04-18T09:47:46.000Z</time>
      </trkpt>
      <trkpt lat="46.11492" lon="6.1929">
        <ele>859</ele>
        <time>2019-04-18T09:47:54.000Z</time>
      </trkpt>
      <trkpt lat="46.11503" lon="6.19281">
        <ele>861.20001220703</ele>
        <time>2019-04-18T09:47:59.000Z</time>
      </trkpt>
      <trkpt lat="46.11518" lon="6.19273">
        <ele>863.40002441406</ele>
        <time>2019-04-18T09:48:06.000Z</time>
      </trkpt>
      <trkpt lat="46.11535" lon="6.1927">
        <ele>864</ele>
        <time>2019-04-18T09:48:13.000Z</time>
      </trkpt>
      <trkpt lat="46.11549" lon="6.19272">
        <ele>863.40002441406</ele>
        <time>2019-04-18T09:48:19.000Z</time>
      </trkpt>
      <trkpt lat="46.11565" lon="6.19275">
        <ele>863.79998779297</ele>
        <time>2019-04-18T09:48:26.000Z</time>
      </trkpt>
      <trkpt lat="46.11575" lon="6.19267">
        <ele>867.20001220703</ele>
        <time>2019-04-18T09:48:32.000Z</time>
      </trkpt>
      <trkpt lat="46.11578" lon="6.19261">
        <ele>869</ele>
        <time>2019-04-18T09:48:34.000Z</time>
      </trkpt>
      <trkpt lat="46.11579" lon="6.19258">
        <ele>869.79998779297</ele>
        <time>2019-04-18T09:48:35.000Z</time>
      </trkpt>
      <trkpt lat="46.11578" lon="6.19245">
        <ele>872.40002441406</ele>
        <time>2019-04-18T09:48:40.000Z</time>
      </trkpt>
      <trkpt lat="46.11577" lon="6.19243">
        <ele>872.79998779297</ele>
        <time>2019-04-18T09:48:41.000Z</time>
      </trkpt>
      <trkpt lat="46.11574" lon="6.19234">
        <ele>874</ele>
        <time>2019-04-18T09:48:44.000Z</time>
      </trkpt>
      <trkpt lat="46.11564" lon="6.1923">
        <ele>873.20001220703</ele>
        <time>2019-04-18T09:48:49.000Z</time>
      </trkpt>
      <trkpt lat="46.11546" lon="6.19227">
        <ele>873.40002441406</ele>
        <time>2019-04-18T09:48:56.000Z</time>
      </trkpt>
      <trkpt lat="46.11531" lon="6.19224">
        <ele>874</ele>
        <time>2019-04-18T09:49:02.000Z</time>
      </trkpt>
      <trkpt lat="46.11512" lon="6.1922">
        <ele>874.79998779297</ele>
        <time>2019-04-18T09:49:10.000Z</time>
      </trkpt>
      <trkpt lat="46.11496" lon="6.19217">
        <ele>875.40002441406</ele>
        <time>2019-04-18T09:49:17.000Z</time>
      </trkpt>
      <trkpt lat="46.11472" lon="6.19213">
        <ele>876.40002441406</ele>
        <time>2019-04-18T09:49:27.000Z</time>
      </trkpt>
      <trkpt lat="46.11452" lon="6.19209">
        <ele>877.20001220703</ele>
        <time>2019-04-18T09:49:35.000Z</time>
      </trkpt>
      <trkpt lat="46.11436" lon="6.19206">
        <ele>878.79998779297</ele>
        <time>2019-04-18T09:49:42.000Z</time>
      </trkpt>
      <trkpt lat="46.11417" lon="6.19208">
        <ele>879.59997558594</ele>
        <time>2019-04-18T09:49:50.000Z</time>
      </trkpt>
      <trkpt lat="46.114" lon="6.19213">
        <ele>879.79998779297</ele>
        <time>2019-04-18T09:49:58.000Z</time>
      </trkpt>
      <trkpt lat="46.11388" lon="6.19222">
        <ele>878.79998779297</ele>
        <time>2019-04-18T09:50:04.000Z</time>
      </trkpt>
      <trkpt lat="46.11375" lon="6.19233">
        <ele>879.20001220703</ele>
        <time>2019-04-18T09:50:11.000Z</time>
      </trkpt>
      <trkpt lat="46.11358" lon="6.19246">
        <ele>879.20001220703</ele>
        <time>2019-04-18T09:50:19.000Z</time>
      </trkpt>
      <trkpt lat="46.1134" lon="6.19246">
        <ele>881</ele>
        <time>2019-04-18T09:50:27.000Z</time>
      </trkpt>
      <trkpt lat="46.11328" lon="6.19232">
        <ele>884.40002441406</ele>
        <time>2019-04-18T09:50:33.000Z</time>
      </trkpt>
      <trkpt lat="46.11321" lon="6.19211">
        <ele>886.40002441406</ele>
        <time>2019-04-18T09:50:40.000Z</time>
      </trkpt>
      <trkpt lat="46.11321" lon="6.19183">
        <ele>887</ele>
        <time>2019-04-18T09:50:46.000Z</time>
      </trkpt>
      <trkpt lat="46.11332" lon="6.19169">
        <ele>886</ele>
        <time>2019-04-18T09:50:50.000Z</time>
      </trkpt>
      <trkpt lat="46.11351" lon="6.19155">
        <ele>888</ele>
        <time>2019-04-18T09:50:56.000Z</time>
      </trkpt>
      <trkpt lat="46.11375" lon="6.19142">
        <ele>889.59997558594</ele>
        <time>2019-04-18T09:51:03.000Z</time>
      </trkpt>
      <trkpt lat="46.11402" lon="6.19127">
        <ele>890.79998779297</ele>
        <time>2019-04-18T09:51:11.000Z</time>
      </trkpt>
      <trkpt lat="46.11424" lon="6.19115">
        <ele>891.40002441406</ele>
        <time>2019-04-18T09:51:18.000Z</time>
      </trkpt>
      <trkpt lat="46.1145" lon="6.19101">
        <ele>893.59997558594</ele>
        <time>2019-04-18T09:51:27.000Z</time>
      </trkpt>
      <trkpt lat="46.11469" lon="6.19083">
        <ele>897.59997558594</ele>
        <time>2019-04-18T09:51:35.000Z</time>
      </trkpt>
      <trkpt lat="46.11487" lon="6.19063">
        <ele>901.20001220703</ele>
        <time>2019-04-18T09:51:43.000Z</time>
      </trkpt>
      <trkpt lat="46.11504" lon="6.19044">
        <ele>901</ele>
        <time>2019-04-18T09:51:51.000Z</time>
      </trkpt>
      <trkpt lat="46.11515" lon="6.19031">
        <ele>900.59997558594</ele>
        <time>2019-04-18T09:51:57.000Z</time>
      </trkpt>
      <trkpt lat="46.11528" lon="6.19017">
        <ele>901.40002441406</ele>
        <time>2019-04-18T09:52:04.000Z</time>
      </trkpt>
      <trkpt lat="46.11547" lon="6.18996">
        <ele>904.59997558594</ele>
        <time>2019-04-18T09:52:14.000Z</time>
      </trkpt>
      <trkpt lat="46.11566" lon="6.18974">
        <ele>907.59997558594</ele>
        <time>2019-04-18T09:52:24.000Z</time>
      </trkpt>
      <trkpt lat="46.1158" lon="6.18956">
        <ele>909.59997558594</ele>
        <time>2019-04-18T09:52:32.000Z</time>
      </trkpt>
      <trkpt lat="46.11597" lon="6.18931">
        <ele>912</ele>
        <time>2019-04-18T09:52:42.000Z</time>
      </trkpt>
      <trkpt lat="46.11611" lon="6.18908">
        <ele>914.20001220703</ele>
        <time>2019-04-18T09:52:51.000Z</time>
      </trkpt>
      <trkpt lat="46.11628" lon="6.18884">
        <ele>916.20001220703</ele>
        <time>2019-04-18T09:53:01.000Z</time>
      </trkpt>
      <trkpt lat="46.11643" lon="6.18861">
        <ele>918.59997558594</ele>
        <time>2019-04-18T09:53:10.000Z</time>
      </trkpt>
      <trkpt lat="46.11653" lon="6.18845">
        <ele>920.20001220703</ele>
        <time>2019-04-18T09:53:17.000Z</time>
      </trkpt>
      <trkpt lat="46.11667" lon="6.18825">
        <ele>921.79998779297</ele>
        <time>2019-04-18T09:53:25.000Z</time>
      </trkpt>
      <trkpt lat="46.11677" lon="6.18795">
        <ele>923.40002441406</ele>
        <time>2019-04-18T09:53:34.000Z</time>
      </trkpt>
      <trkpt lat="46.11682" lon="6.18767">
        <ele>924.79998779297</ele>
        <time>2019-04-18T09:53:42.000Z</time>
      </trkpt>
      <trkpt lat="46.11683" lon="6.18733">
        <ele>926.59997558594</ele>
        <time>2019-04-18T09:53:51.000Z</time>
      </trkpt>
      <trkpt lat="46.11685" lon="6.18699">
        <ele>928</ele>
        <time>2019-04-18T09:54:01.000Z</time>
      </trkpt>
      <trkpt lat="46.11679" lon="6.18667">
        <ele>929.20001220703</ele>
        <time>2019-04-18T09:54:09.000Z</time>
      </trkpt>
      <trkpt lat="46.1167" lon="6.18637">
        <ele>930</ele>
        <time>2019-04-18T09:54:16.000Z</time>
      </trkpt>
      <trkpt lat="46.11654" lon="6.18604">
        <ele>929.40002441406</ele>
        <time>2019-04-18T09:54:24.000Z</time>
      </trkpt>
      <trkpt lat="46.11634" lon="6.18564">
        <ele>928.20001220703</ele>
        <time>2019-04-18T09:54:33.000Z</time>
      </trkpt>
      <trkpt lat="46.11623" lon="6.18529">
        <ele>929.59997558594</ele>
        <time>2019-04-18T09:54:40.000Z</time>
      </trkpt>
      <trkpt lat="46.11621" lon="6.18502">
        <ele>931.40002441406</ele>
        <time>2019-04-18T09:54:45.000Z</time>
      </trkpt>
      <trkpt lat="46.11623" lon="6.1847">
        <ele>934.20001220703</ele>
        <time>2019-04-18T09:54:51.000Z</time>
      </trkpt>
      <trkpt lat="46.11628" lon="6.18423">
        <ele>937.40002441406</ele>
        <time>2019-04-18T09:55:00.000Z</time>
      </trkpt>
      <trkpt lat="46.11628" lon="6.18397">
        <ele>938.79998779297</ele>
        <time>2019-04-18T09:55:06.000Z</time>
      </trkpt>
      <trkpt lat="46.11625" lon="6.1838">
        <ele>940.79998779297</ele>
        <time>2019-04-18T09:55:12.000Z</time>
      </trkpt>
      <trkpt lat="46.11612" lon="6.18364">
        <ele>942.20001220703</ele>
        <time>2019-04-18T09:55:17.000Z</time>
      </trkpt>
      <trkpt lat="46.11598" lon="6.18353">
        <ele>942.79998779297</ele>
        <time>2019-04-18T09:55:24.000Z</time>
      </trkpt>
      <trkpt lat="46.11582" lon="6.1835">
        <ele>942</ele>
        <time>2019-04-18T09:55:30.000Z</time>
      </trkpt>
      <trkpt lat="46.11558" lon="6.18359">
        <ele>939.20001220703</ele>
        <time>2019-04-18T09:55:38.000Z</time>
      </trkpt>
      <trkpt lat="46.11539" lon="6.18373">
        <ele>938.40002441406</ele>
        <time>2019-04-18T09:55:43.000Z</time>
      </trkpt>
      <trkpt lat="46.1151" lon="6.18389">
        <ele>936.20001220703</ele>
        <time>2019-04-18T09:55:49.000Z</time>
      </trkpt>
      <trkpt lat="46.11505" lon="6.1839">
        <ele>936.20001220703</ele>
        <time>2019-04-18T09:55:50.000Z</time>
      </trkpt>
      <trkpt lat="46.11464" lon="6.18395">
        <ele>935.40002441406</ele>
        <time>2019-04-18T09:55:57.000Z</time>
      </trkpt>
      <trkpt lat="46.11417" lon="6.18399">
        <ele>932.40002441406</ele>
        <time>2019-04-18T09:56:04.000Z</time>
      </trkpt>
      <trkpt lat="46.11376" lon="6.18398">
        <ele>930.40002441406</ele>
        <time>2019-04-18T09:56:09.000Z</time>
      </trkpt>
      <trkpt lat="46.11324" lon="6.18387">
        <ele>928.20001220703</ele>
        <time>2019-04-18T09:56:15.000Z</time>
      </trkpt>
      <trkpt lat="46.11262" lon="6.18375">
        <ele>925</ele>
        <time>2019-04-18T09:56:22.000Z</time>
      </trkpt>
      <trkpt lat="46.11253" lon="6.18373">
        <ele>924.59997558594</ele>
        <time>2019-04-18T09:56:23.000Z</time>
      </trkpt>
      <trkpt lat="46.11198" lon="6.18355">
        <ele>921.59997558594</ele>
        <time>2019-04-18T09:56:29.000Z</time>
      </trkpt>
      <trkpt lat="46.11148" lon="6.18328">
        <ele>919.40002441406</ele>
        <time>2019-04-18T09:56:35.000Z</time>
      </trkpt>
      <trkpt lat="46.11091" lon="6.18312">
        <ele>917.79998779297</ele>
        <time>2019-04-18T09:56:42.000Z</time>
      </trkpt>
      <trkpt lat="46.11068" lon="6.18305">
        <ele>917.20001220703</ele>
        <time>2019-04-18T09:56:45.000Z</time>
      </trkpt>
      <trkpt lat="46.11054" lon="6.18296">
        <ele>916.79998779297</ele>
        <time>2019-04-18T09:56:47.000Z</time>
      </trkpt>
      <trkpt lat="46.1104" lon="6.18283">
        <ele>916.20001220703</ele>
        <time>2019-04-18T09:56:49.000Z</time>
      </trkpt>
      <trkpt lat="46.11034" lon="6.18276">
        <ele>916</ele>
        <time>2019-04-18T09:56:50.000Z</time>
      </trkpt>
      <trkpt lat="46.11" lon="6.18218">
        <ele>917.20001220703</ele>
        <time>2019-04-18T09:56:57.000Z</time>
      </trkpt>
      <trkpt lat="46.10966" lon="6.18184">
        <ele>915.59997558594</ele>
        <time>2019-04-18T09:57:02.000Z</time>
      </trkpt>
      <trkpt lat="46.10913" lon="6.18144">
        <ele>912</ele>
        <time>2019-04-18T09:57:09.000Z</time>
      </trkpt>
      <trkpt lat="46.10897" lon="6.18132">
        <ele>912.40002441406</ele>
        <time>2019-04-18T09:57:11.000Z</time>
      </trkpt>
      <trkpt lat="46.10879" lon="6.18136">
        <ele>912.79998779297</ele>
        <time>2019-04-18T09:57:13.000Z</time>
      </trkpt>
      <trkpt lat="46.10864" lon="6.18139">
        <ele>912.79998779297</ele>
        <time>2019-04-18T09:57:15.000Z</time>
      </trkpt>
      <trkpt lat="46.10857" lon="6.18145">
        <ele>911.59997558594</ele>
        <time>2019-04-18T09:57:16.000Z</time>
      </trkpt>
      <trkpt lat="46.10845" lon="6.18156">
        <ele>911.20001220703</ele>
        <time>2019-04-18T09:57:18.000Z</time>
      </trkpt>
      <trkpt lat="46.10833" lon="6.18165">
        <ele>911.20001220703</ele>
        <time>2019-04-18T09:57:20.000Z</time>
      </trkpt>
      <trkpt lat="46.10803" lon="6.18174">
        <ele>908.20001220703</ele>
        <time>2019-04-18T09:57:24.000Z</time>
      </trkpt>
      <trkpt lat="46.10779" lon="6.1818">
        <ele>910.20001220703</ele>
        <time>2019-04-18T09:57:27.000Z</time>
      </trkpt>
      <trkpt lat="46.10763" lon="6.18184">
        <ele>911.40002441406</ele>
        <time>2019-04-18T09:57:29.000Z</time>
      </trkpt>
      <trkpt lat="46.10757" lon="6.18189">
        <ele>911</ele>
        <time>2019-04-18T09:57:30.000Z</time>
      </trkpt>
      <trkpt lat="46.10741" lon="6.18203">
        <ele>909.20001220703</ele>
        <time>2019-04-18T09:57:33.000Z</time>
      </trkpt>
      <trkpt lat="46.10715" lon="6.18211">
        <ele>909.20001220703</ele>
        <time>2019-04-18T09:57:38.000Z</time>
      </trkpt>
      <trkpt lat="46.10685" lon="6.18219">
        <ele>906.59997558594</ele>
        <time>2019-04-18T09:57:44.000Z</time>
      </trkpt>
      <trkpt lat="46.10642" lon="6.18206">
        <ele>910</ele>
        <time>2019-04-18T09:57:53.000Z</time>
      </trkpt>
      <trkpt lat="46.10605" lon="6.18194">
        <ele>909.20001220703</ele>
        <time>2019-04-18T09:58:01.000Z</time>
      </trkpt>
      <trkpt lat="46.10575" lon="6.18184">
        <ele>909.79998779297</ele>
        <time>2019-04-18T09:58:10.000Z</time>
      </trkpt>
      <trkpt lat="46.10545" lon="6.1817">
        <ele>910.79998779297</ele>
        <time>2019-04-18T09:58:19.000Z</time>
      </trkpt>
      <trkpt lat="46.10514" lon="6.18149">
        <ele>913.40002441406</ele>
        <time>2019-04-18T09:58:27.000Z</time>
      </trkpt>
      <trkpt lat="46.10485" lon="6.1812">
        <ele>915</ele>
        <time>2019-04-18T09:58:34.000Z</time>
      </trkpt>
      <trkpt lat="46.10445" lon="6.18077">
        <ele>914.59997558594</ele>
        <time>2019-04-18T09:58:42.000Z</time>
      </trkpt>
      <trkpt lat="46.10399" lon="6.18027">
        <ele>913.79998779297</ele>
        <time>2019-04-18T09:58:50.000Z</time>
      </trkpt>
      <trkpt lat="46.10355" lon="6.17982">
        <ele>912</ele>
        <time>2019-04-18T09:58:57.000Z</time>
      </trkpt>
      <trkpt lat="46.10348" lon="6.17979">
        <ele>911.20001220703</ele>
        <time>2019-04-18T09:58:58.000Z</time>
      </trkpt>
      <trkpt lat="46.10341" lon="6.17976">
        <ele>910.40002441406</ele>
        <time>2019-04-18T09:58:59.000Z</time>
      </trkpt>
      <trkpt lat="46.10318" lon="6.17965">
        <ele>907.79998779297</ele>
        <time>2019-04-18T09:59:02.000Z</time>
      </trkpt>
      <trkpt lat="46.10263" lon="6.17941">
        <ele>904.40002441406</ele>
        <time>2019-04-18T09:59:09.000Z</time>
      </trkpt>
      <trkpt lat="46.10205" lon="6.17916">
        <ele>902.40002441406</ele>
        <time>2019-04-18T09:59:16.000Z</time>
      </trkpt>
      <trkpt lat="46.10197" lon="6.17912">
        <ele>902</ele>
        <time>2019-04-18T09:59:17.000Z</time>
      </trkpt>
      <trkpt lat="46.10182" lon="6.17903">
        <ele>901.59997558594</ele>
        <time>2019-04-18T09:59:19.000Z</time>
      </trkpt>
      <trkpt lat="46.1017" lon="6.17887">
        <ele>902.20001220703</ele>
        <time>2019-04-18T09:59:21.000Z</time>
      </trkpt>
      <trkpt lat="46.10127" lon="6.17832">
        <ele>903</ele>
        <time>2019-04-18T09:59:28.000Z</time>
      </trkpt>
      <trkpt lat="46.10115" lon="6.17816">
        <ele>902.79998779297</ele>
        <time>2019-04-18T09:59:30.000Z</time>
      </trkpt>
      <trkpt lat="46.10075" lon="6.17763">
        <ele>903.79998779297</ele>
        <time>2019-04-18T09:59:37.000Z</time>
      </trkpt>
      <trkpt lat="46.10064" lon="6.17748">
        <ele>904</ele>
        <time>2019-04-18T09:59:39.000Z</time>
      </trkpt>
      <trkpt lat="46.10036" lon="6.17708">
        <ele>906.40002441406</ele>
        <time>2019-04-18T09:59:45.000Z</time>
      </trkpt>
      <trkpt lat="46.10011" lon="6.17671">
        <ele>908.79998779297</ele>
        <time>2019-04-18T09:59:52.000Z</time>
      </trkpt>
      <trkpt lat="46.09983" lon="6.1763">
        <ele>910.79998779297</ele>
        <time>2019-04-18T10:00:01.000Z</time>
      </trkpt>
      <trkpt lat="46.0995" lon="6.1758">
        <ele>911.40002441406</ele>
        <time>2019-04-18T10:00:12.000Z</time>
      </trkpt>
      <trkpt lat="46.09921" lon="6.17537">
        <ele>913</ele>
        <time>2019-04-18T10:00:21.000Z</time>
      </trkpt>
      <trkpt lat="46.09896" lon="6.17499">
        <ele>914.79998779297</ele>
        <time>2019-04-18T10:00:28.000Z</time>
      </trkpt>
      <trkpt lat="46.09864" lon="6.17459">
        <ele>916.20001220703</ele>
        <time>2019-04-18T10:00:36.000Z</time>
      </trkpt>
      <trkpt lat="46.09834" lon="6.17413">
        <ele>918.40002441406</ele>
        <time>2019-04-18T10:00:45.000Z</time>
      </trkpt>
      <trkpt lat="46.09802" lon="6.17355">
        <ele>921.20001220703</ele>
        <time>2019-04-18T10:00:55.000Z</time>
      </trkpt>
      <trkpt lat="46.0979" lon="6.17333">
        <ele>922</ele>
        <time>2019-04-18T10:00:59.000Z</time>
      </trkpt>
      <trkpt lat="46.09781" lon="6.17315">
        <ele>922.59997558594</ele>
        <time>2019-04-18T10:01:02.000Z</time>
      </trkpt>
      <trkpt lat="46.09761" lon="6.17278">
        <ele>922.20001220703</ele>
        <time>2019-04-18T10:01:08.000Z</time>
      </trkpt>
      <trkpt lat="46.09737" lon="6.17231">
        <ele>921.79998779297</ele>
        <time>2019-04-18T10:01:15.000Z</time>
      </trkpt>
      <trkpt lat="46.09719" lon="6.17177">
        <ele>921.59997558594</ele>
        <time>2019-04-18T10:01:21.000Z</time>
      </trkpt>
      <trkpt lat="46.09693" lon="6.17128">
        <ele>920.59997558594</ele>
        <time>2019-04-18T10:01:27.000Z</time>
      </trkpt>
      <trkpt lat="46.09658" lon="6.17071">
        <ele>921.79998779297</ele>
        <time>2019-04-18T10:01:35.000Z</time>
      </trkpt>
      <trkpt lat="46.09643" lon="6.17048">
        <ele>922.40002441406</ele>
        <time>2019-04-18T10:01:38.000Z</time>
      </trkpt>
      <trkpt lat="46.09631" lon="6.17031">
        <ele>923.20001220703</ele>
        <time>2019-04-18T10:01:40.000Z</time>
      </trkpt>
      <trkpt lat="46.09616" lon="6.17023">
        <ele>922</ele>
        <time>2019-04-18T10:01:42.000Z</time>
      </trkpt>
      <trkpt lat="46.09601" lon="6.17015">
        <ele>920.59997558594</ele>
        <time>2019-04-18T10:01:44.000Z</time>
      </trkpt>
      <trkpt lat="46.09571" lon="6.16999">
        <ele>918.79998779297</ele>
        <time>2019-04-18T10:01:48.000Z</time>
      </trkpt>
      <trkpt lat="46.09556" lon="6.16991">
        <ele>918</ele>
        <time>2019-04-18T10:01:50.000Z</time>
      </trkpt>
      <trkpt lat="46.09512" lon="6.16955">
        <ele>915.79998779297</ele>
        <time>2019-04-18T10:01:56.000Z</time>
      </trkpt>
      <trkpt lat="46.09461" lon="6.16913">
        <ele>913.79998779297</ele>
        <time>2019-04-18T10:02:03.000Z</time>
      </trkpt>
      <trkpt lat="46.0941" lon="6.16871">
        <ele>912.20001220703</ele>
        <time>2019-04-18T10:02:11.000Z</time>
      </trkpt>
      <trkpt lat="46.09364" lon="6.16831">
        <ele>910</ele>
        <time>2019-04-18T10:02:18.000Z</time>
      </trkpt>
      <trkpt lat="46.09332" lon="6.1678">
        <ele>910.20001220703</ele>
        <time>2019-04-18T10:02:24.000Z</time>
      </trkpt>
      <trkpt lat="46.09315" lon="6.16754">
        <ele>910.40002441406</ele>
        <time>2019-04-18T10:02:27.000Z</time>
      </trkpt>
      <trkpt lat="46.09301" lon="6.16743">
        <ele>909.79998779297</ele>
        <time>2019-04-18T10:02:29.000Z</time>
      </trkpt>
      <trkpt lat="46.09269" lon="6.16727">
        <ele>908.20001220703</ele>
        <time>2019-04-18T10:02:33.000Z</time>
      </trkpt>
      <trkpt lat="46.09213" lon="6.16696">
        <ele>906.20001220703</ele>
        <time>2019-04-18T10:02:40.000Z</time>
      </trkpt>
      <trkpt lat="46.09182" lon="6.16674">
        <ele>904.20001220703</ele>
        <time>2019-04-18T10:02:44.000Z</time>
      </trkpt>
      <trkpt lat="46.0916" lon="6.16663">
        <ele>902.20001220703</ele>
        <time>2019-04-18T10:02:47.000Z</time>
      </trkpt>
      <trkpt lat="46.09151" lon="6.16661">
        <ele>901.40002441406</ele>
        <time>2019-04-18T10:02:48.000Z</time>
      </trkpt>
      <trkpt lat="46.09092" lon="6.16645">
        <ele>899.40002441406</ele>
        <time>2019-04-18T10:02:55.000Z</time>
      </trkpt>
      <trkpt lat="46.09084" lon="6.16643">
        <ele>899.20001220703</ele>
        <time>2019-04-18T10:02:56.000Z</time>
      </trkpt>
      <trkpt lat="46.09076" lon="6.16641">
        <ele>899.20001220703</ele>
        <time>2019-04-18T10:02:57.000Z</time>
      </trkpt>
      <trkpt lat="46.09042" lon="6.16632">
        <ele>899</ele>
        <time>2019-04-18T10:03:02.000Z</time>
      </trkpt>
      <trkpt lat="46.09011" lon="6.16625">
        <ele>899.79998779297</ele>
        <time>2019-04-18T10:03:07.000Z</time>
      </trkpt>
      <trkpt lat="46.09006" lon="6.16624">
        <ele>899.79998779297</ele>
        <time>2019-04-18T10:03:08.000Z</time>
      </trkpt>
      <trkpt lat="46.08969" lon="6.16624">
        <ele>900.40002441406</ele>
        <time>2019-04-18T10:03:14.000Z</time>
      </trkpt>
      <trkpt lat="46.08924" lon="6.16631">
        <ele>900.20001220703</ele>
        <time>2019-04-18T10:03:21.000Z</time>
      </trkpt>
      <trkpt lat="46.08906" lon="6.16634">
        <ele>899.79998779297</ele>
        <time>2019-04-18T10:03:24.000Z</time>
      </trkpt>
      <trkpt lat="46.08893" lon="6.16629">
        <ele>900.20001220703</ele>
        <time>2019-04-18T10:03:26.000Z</time>
      </trkpt>
      <trkpt lat="46.08888" lon="6.16625">
        <ele>900.40002441406</ele>
        <time>2019-04-18T10:03:27.000Z</time>
      </trkpt>
      <trkpt lat="46.08883" lon="6.1662">
        <ele>900.40002441406</ele>
        <time>2019-04-18T10:03:28.000Z</time>
      </trkpt>
      <trkpt lat="46.08865" lon="6.16598">
        <ele>901.20001220703</ele>
        <time>2019-04-18T10:03:32.000Z</time>
      </trkpt>
      <trkpt lat="46.08857" lon="6.16586">
        <ele>901.79998779297</ele>
        <time>2019-04-18T10:03:34.000Z</time>
      </trkpt>
      <trkpt lat="46.08843" lon="6.16561">
        <ele>903</ele>
        <time>2019-04-18T10:03:38.000Z</time>
      </trkpt>
      <trkpt lat="46.08834" lon="6.16547">
        <ele>903.20001220703</ele>
        <time>2019-04-18T10:03:40.000Z</time>
      </trkpt>
      <trkpt lat="46.08822" lon="6.16537">
        <ele>902.79998779297</ele>
        <time>2019-04-18T10:03:42.000Z</time>
      </trkpt>
      <trkpt lat="46.0878" lon="6.16503">
        <ele>899.40002441406</ele>
        <time>2019-04-18T10:03:48.000Z</time>
      </trkpt>
      <trkpt lat="46.0873" lon="6.16462">
        <ele>895.40002441406</ele>
        <time>2019-04-18T10:03:55.000Z</time>
      </trkpt>
      <trkpt lat="46.08678" lon="6.1642">
        <ele>890</ele>
        <time>2019-04-18T10:04:02.000Z</time>
      </trkpt>
      <trkpt lat="46.08663" lon="6.16408">
        <ele>888.40002441406</ele>
        <time>2019-04-18T10:04:04.000Z</time>
      </trkpt>
      <trkpt lat="46.08628" lon="6.16372">
        <ele>884.40002441406</ele>
        <time>2019-04-18T10:04:09.000Z</time>
      </trkpt>
      <trkpt lat="46.08601" lon="6.16325">
        <ele>882.40002441406</ele>
        <time>2019-04-18T10:04:14.000Z</time>
      </trkpt>
      <trkpt lat="46.08567" lon="6.16253">
        <ele>877.79998779297</ele>
        <time>2019-04-18T10:04:21.000Z</time>
      </trkpt>
      <trkpt lat="46.08534" lon="6.16182">
        <ele>873</ele>
        <time>2019-04-18T10:04:28.000Z</time>
      </trkpt>
      <trkpt lat="46.08502" lon="6.16115">
        <ele>870.40002441406</ele>
        <time>2019-04-18T10:04:35.000Z</time>
      </trkpt>
      <trkpt lat="46.08468" lon="6.16042">
        <ele>871.20001220703</ele>
        <time>2019-04-18T10:04:43.000Z</time>
      </trkpt>
      <trkpt lat="46.08458" lon="6.16027">
        <ele>871.40002441406</ele>
        <time>2019-04-18T10:04:45.000Z</time>
      </trkpt>
      <trkpt lat="46.08442" lon="6.16003">
        <ele>870.79998779297</ele>
        <time>2019-04-18T10:04:48.000Z</time>
      </trkpt>
      <trkpt lat="46.08411" lon="6.15961">
        <ele>869</ele>
        <time>2019-04-18T10:04:53.000Z</time>
      </trkpt>
      <trkpt lat="46.08386" lon="6.15934">
        <ele>865</ele>
        <time>2019-04-18T10:04:57.000Z</time>
      </trkpt>
      <trkpt lat="46.0838" lon="6.15928">
        <ele>864.20001220703</ele>
        <time>2019-04-18T10:04:58.000Z</time>
      </trkpt>
      <trkpt lat="46.08366" lon="6.1591">
        <ele>862.40002441406</ele>
        <time>2019-04-18T10:05:01.000Z</time>
      </trkpt>
      <trkpt lat="46.08361" lon="6.15912">
        <ele>860.40002441406</ele>
        <time>2019-04-18T10:05:02.000Z</time>
      </trkpt>
      <trkpt lat="46.08349" lon="6.15906">
        <ele>857.20001220703</ele>
        <time>2019-04-18T10:05:05.000Z</time>
      </trkpt>
      <trkpt lat="46.08346" lon="6.15902">
        <ele>856.79998779297</ele>
        <time>2019-04-18T10:05:06.000Z</time>
      </trkpt>
      <trkpt lat="46.08331" lon="6.15885">
        <ele>855.59997558594</ele>
        <time>2019-04-18T10:05:10.000Z</time>
      </trkpt>
      <trkpt lat="46.08306" lon="6.15854">
        <ele>855.40002441406</ele>
        <time>2019-04-18T10:05:16.000Z</time>
      </trkpt>
      <trkpt lat="46.08303" lon="6.15847">
        <ele>856.20001220703</ele>
        <time>2019-04-18T10:05:17.000Z</time>
      </trkpt>
      <trkpt lat="46.08298" lon="6.15832">
        <ele>858.40002441406</ele>
        <time>2019-04-18T10:05:19.000Z</time>
      </trkpt>
      <trkpt lat="46.0829" lon="6.1581">
        <ele>861.79998779297</ele>
        <time>2019-04-18T10:05:22.000Z</time>
      </trkpt>
      <trkpt lat="46.08284" lon="6.15797">
        <ele>862</ele>
        <time>2019-04-18T10:05:24.000Z</time>
      </trkpt>
      <trkpt lat="46.08275" lon="6.15787">
        <ele>860.20001220703</ele>
        <time>2019-04-18T10:05:26.000Z</time>
      </trkpt>
      <trkpt lat="46.0827" lon="6.15782">
        <ele>859.20001220703</ele>
        <time>2019-04-18T10:05:27.000Z</time>
      </trkpt>
      <trkpt lat="46.0825" lon="6.15762">
        <ele>855</ele>
        <time>2019-04-18T10:05:31.000Z</time>
      </trkpt>
      <trkpt lat="46.08243" lon="6.15745">
        <ele>855.40002441406</ele>
        <time>2019-04-18T10:05:33.000Z</time>
      </trkpt>
      <trkpt lat="46.08231" lon="6.15703">
        <ele>857.20001220703</ele>
        <time>2019-04-18T10:05:38.000Z</time>
      </trkpt>
      <trkpt lat="46.08209" lon="6.15634">
        <ele>859.79998779297</ele>
        <time>2019-04-18T10:05:46.000Z</time>
      </trkpt>
      <trkpt lat="46.08206" lon="6.15626">
        <ele>860.59997558594</ele>
        <time>2019-04-18T10:05:47.000Z</time>
      </trkpt>
      <trkpt lat="46.08198" lon="6.15611">
        <ele>861.79998779297</ele>
        <time>2019-04-18T10:05:49.000Z</time>
      </trkpt>
      <trkpt lat="46.0818" lon="6.15602">
        <ele>859</ele>
        <time>2019-04-18T10:05:52.000Z</time>
      </trkpt>
      <trkpt lat="46.08174" lon="6.156">
        <ele>858</ele>
        <time>2019-04-18T10:05:53.000Z</time>
      </trkpt>
      <trkpt lat="46.08127" lon="6.15583">
        <ele>852</ele>
        <time>2019-04-18T10:06:01.000Z</time>
      </trkpt>
      <trkpt lat="46.08109" lon="6.15587">
        <ele>849.20001220703</ele>
        <time>2019-04-18T10:06:04.000Z</time>
      </trkpt>
      <trkpt lat="46.08092" lon="6.1559">
        <ele>846.59997558594</ele>
        <time>2019-04-18T10:06:07.000Z</time>
      </trkpt>
      <trkpt lat="46.08055" lon="6.15596">
        <ele>844.79998779297</ele>
        <time>2019-04-18T10:06:14.000Z</time>
      </trkpt>
      <trkpt lat="46.08049" lon="6.15596">
        <ele>845</ele>
        <time>2019-04-18T10:06:15.000Z</time>
      </trkpt>
      <trkpt lat="46.08029" lon="6.15596">
        <ele>845.40002441406</ele>
        <time>2019-04-18T10:06:19.000Z</time>
      </trkpt>
      <trkpt lat="46.07995" lon="6.15579">
        <ele>849.20001220703</ele>
        <time>2019-04-18T10:06:26.000Z</time>
      </trkpt>
      <trkpt lat="46.07965" lon="6.15558">
        <ele>852.79998779297</ele>
        <time>2019-04-18T10:06:33.000Z</time>
      </trkpt>
      <trkpt lat="46.07933" lon="6.15536">
        <ele>854</ele>
        <time>2019-04-18T10:06:41.000Z</time>
      </trkpt>
      <trkpt lat="46.07903" lon="6.15524">
        <ele>854</ele>
        <time>2019-04-18T10:06:48.000Z</time>
      </trkpt>
      <trkpt lat="46.0787" lon="6.15518">
        <ele>853.40002441406</ele>
        <time>2019-04-18T10:06:55.000Z</time>
      </trkpt>
      <trkpt lat="46.07839" lon="6.15513">
        <ele>853.20001220703</ele>
        <time>2019-04-18T10:07:02.000Z</time>
      </trkpt>
      <trkpt lat="46.07808" lon="6.15508">
        <ele>854.40002441406</ele>
        <time>2019-04-18T10:07:09.000Z</time>
      </trkpt>
      <trkpt lat="46.07768" lon="6.15497">
        <ele>855.40002441406</ele>
        <time>2019-04-18T10:07:18.000Z</time>
      </trkpt>
      <trkpt lat="46.07731" lon="6.15478">
        <ele>857</ele>
        <time>2019-04-18T10:07:26.000Z</time>
      </trkpt>
      <trkpt lat="46.07693" lon="6.15458">
        <ele>857.20001220703</ele>
        <time>2019-04-18T10:07:34.000Z</time>
      </trkpt>
      <trkpt lat="46.07659" lon="6.1544">
        <ele>857</ele>
        <time>2019-04-18T10:07:41.000Z</time>
      </trkpt>
      <trkpt lat="46.07621" lon="6.15405">
        <ele>858.79998779297</ele>
        <time>2019-04-18T10:07:49.000Z</time>
      </trkpt>
      <trkpt lat="46.07594" lon="6.15365">
        <ele>859.40002441406</ele>
        <time>2019-04-18T10:07:56.000Z</time>
      </trkpt>
      <trkpt lat="46.07562" lon="6.15309">
        <ele>859.40002441406</ele>
        <time>2019-04-18T10:08:05.000Z</time>
      </trkpt>
      <trkpt lat="46.07539" lon="6.15251">
        <ele>860</ele>
        <time>2019-04-18T10:08:13.000Z</time>
      </trkpt>
      <trkpt lat="46.07513" lon="6.15182">
        <ele>862</ele>
        <time>2019-04-18T10:08:22.000Z</time>
      </trkpt>
      <trkpt lat="46.07507" lon="6.15166">
        <ele>862.20001220703</ele>
        <time>2019-04-18T10:08:24.000Z</time>
      </trkpt>
      <trkpt lat="46.07493" lon="6.15116">
        <ele>862.79998779297</ele>
        <time>2019-04-18T10:08:30.000Z</time>
      </trkpt>
      <trkpt lat="46.07491" lon="6.15107">
        <ele>863</ele>
        <time>2019-04-18T10:08:31.000Z</time>
      </trkpt>
      <trkpt lat="46.07493" lon="6.15053">
        <ele>865.79998779297</ele>
        <time>2019-04-18T10:08:37.000Z</time>
      </trkpt>
      <trkpt lat="46.07493" lon="6.15017">
        <ele>865.79998779297</ele>
        <time>2019-04-18T10:08:41.000Z</time>
      </trkpt>
      <trkpt lat="46.0749" lon="6.14999">
        <ele>865.40002441406</ele>
        <time>2019-04-18T10:08:43.000Z</time>
      </trkpt>
      <trkpt lat="46.0748" lon="6.14935">
        <ele>865.79998779297</ele>
        <time>2019-04-18T10:08:50.000Z</time>
      </trkpt>
      <trkpt lat="46.07471" lon="6.14879">
        <ele>866.59997558594</ele>
        <time>2019-04-18T10:08:56.000Z</time>
      </trkpt>
      <trkpt lat="46.07471" lon="6.1487">
        <ele>866.79998779297</ele>
        <time>2019-04-18T10:08:57.000Z</time>
      </trkpt>
      <trkpt lat="46.07473" lon="6.14862">
        <ele>867.59997558594</ele>
        <time>2019-04-18T10:08:58.000Z</time>
      </trkpt>
      <trkpt lat="46.07479" lon="6.14845">
        <ele>869.40002441406</ele>
        <time>2019-04-18T10:09:00.000Z</time>
      </trkpt>
      <trkpt lat="46.07481" lon="6.14836">
        <ele>870.40002441406</ele>
        <time>2019-04-18T10:09:01.000Z</time>
      </trkpt>
      <trkpt lat="46.07502" lon="6.14768">
        <ele>874.79998779297</ele>
        <time>2019-04-18T10:09:09.000Z</time>
      </trkpt>
      <trkpt lat="46.07516" lon="6.14718">
        <ele>877.79998779297</ele>
        <time>2019-04-18T10:09:15.000Z</time>
      </trkpt>
      <trkpt lat="46.0752" lon="6.14671">
        <ele>882.20001220703</ele>
        <time>2019-04-18T10:09:20.000Z</time>
      </trkpt>
      <trkpt lat="46.07517" lon="6.14663">
        <ele>882.20001220703</ele>
        <time>2019-04-18T10:09:21.000Z</time>
      </trkpt>
      <trkpt lat="46.07515" lon="6.14655">
        <ele>882.20001220703</ele>
        <time>2019-04-18T10:09:22.000Z</time>
      </trkpt>
      <trkpt lat="46.07507" lon="6.14641">
        <ele>881.40002441406</ele>
        <time>2019-04-18T10:09:24.000Z</time>
      </trkpt>
      <trkpt lat="46.07497" lon="6.14633">
        <ele>879.59997558594</ele>
        <time>2019-04-18T10:09:26.000Z</time>
      </trkpt>
      <trkpt lat="46.07491" lon="6.1463">
        <ele>878.20001220703</ele>
        <time>2019-04-18T10:09:27.000Z</time>
      </trkpt>
      <trkpt lat="46.07485" lon="6.1463">
        <ele>876.20001220703</ele>
        <time>2019-04-18T10:09:28.000Z</time>
      </trkpt>
      <trkpt lat="46.07459" lon="6.14628">
        <ele>872.59997558594</ele>
        <time>2019-04-18T10:09:32.000Z</time>
      </trkpt>
      <trkpt lat="46.07401" lon="6.14623">
        <ele>868.79998779297</ele>
        <time>2019-04-18T10:09:41.000Z</time>
      </trkpt>
      <trkpt lat="46.07395" lon="6.14622">
        <ele>868.40002441406</ele>
        <time>2019-04-18T10:09:42.000Z</time>
      </trkpt>
      <trkpt lat="46.07376" lon="6.14623">
        <ele>869.20001220703</ele>
        <time>2019-04-18T10:09:45.000Z</time>
      </trkpt>
      <trkpt lat="46.07365" lon="6.14628">
        <ele>869.40002441406</ele>
        <time>2019-04-18T10:09:47.000Z</time>
      </trkpt>
      <trkpt lat="46.07346" lon="6.14649">
        <ele>867.79998779297</ele>
        <time>2019-04-18T10:09:51.000Z</time>
      </trkpt>
      <trkpt lat="46.07334" lon="6.14663">
        <ele>868.40002441406</ele>
        <time>2019-04-18T10:09:54.000Z</time>
      </trkpt>
      <trkpt lat="46.07331" lon="6.14667">
        <ele>868.40002441406</ele>
        <time>2019-04-18T10:09:55.000Z</time>
      </trkpt>
      <trkpt lat="46.07328" lon="6.14671">
        <ele>867.59997558594</ele>
        <time>2019-04-18T10:09:56.000Z</time>
      </trkpt>
      <trkpt lat="46.07318" lon="6.14675">
        <ele>866.40002441406</ele>
        <time>2019-04-18T10:09:58.000Z</time>
      </trkpt>
      <trkpt lat="46.07314" lon="6.14677">
        <ele>866</ele>
        <time>2019-04-18T10:09:59.000Z</time>
      </trkpt>
      <trkpt lat="46.07305" lon="6.14676">
        <ele>866</ele>
        <time>2019-04-18T10:10:01.000Z</time>
      </trkpt>
      <trkpt lat="46.07298" lon="6.14672">
        <ele>866.59997558594</ele>
        <time>2019-04-18T10:10:03.000Z</time>
      </trkpt>
      <trkpt lat="46.07272" lon="6.1466">
        <ele>869</ele>
        <time>2019-04-18T10:10:10.000Z</time>
      </trkpt>
      <trkpt lat="46.07251" lon="6.1465">
        <ele>870.79998779297</ele>
        <time>2019-04-18T10:10:16.000Z</time>
      </trkpt>
      <trkpt lat="46.0723" lon="6.1464">
        <ele>872.59997558594</ele>
        <time>2019-04-18T10:10:22.000Z</time>
      </trkpt>
      <trkpt lat="46.07207" lon="6.14641">
        <ele>872.59997558594</ele>
        <time>2019-04-18T10:10:28.000Z</time>
      </trkpt>
      <trkpt lat="46.07185" lon="6.14656">
        <ele>870.59997558594</ele>
        <time>2019-04-18T10:10:34.000Z</time>
      </trkpt>
      <trkpt lat="46.07158" lon="6.1467">
        <ele>869.20001220703</ele>
        <time>2019-04-18T10:10:42.000Z</time>
      </trkpt>
      <trkpt lat="46.07133" lon="6.14673">
        <ele>869.79998779297</ele>
        <time>2019-04-18T10:10:49.000Z</time>
      </trkpt>
      <trkpt lat="46.0711" lon="6.14667">
        <ele>871</ele>
        <time>2019-04-18T10:10:56.000Z</time>
      </trkpt>
      <trkpt lat="46.07084" lon="6.14649">
        <ele>873.79998779297</ele>
        <time>2019-04-18T10:11:04.000Z</time>
      </trkpt>
      <trkpt lat="46.07058" lon="6.14622">
        <ele>876</ele>
        <time>2019-04-18T10:11:12.000Z</time>
      </trkpt>
      <trkpt lat="46.07026" lon="6.14588">
        <ele>877.20001220703</ele>
        <time>2019-04-18T10:11:20.000Z</time>
      </trkpt>
      <trkpt lat="46.06989" lon="6.14549">
        <ele>878.40002441406</ele>
        <time>2019-04-18T10:11:29.000Z</time>
      </trkpt>
      <trkpt lat="46.06946" lon="6.14501">
        <ele>878.40002441406</ele>
        <time>2019-04-18T10:11:39.000Z</time>
      </trkpt>
      <trkpt lat="46.06915" lon="6.14453">
        <ele>878.40002441406</ele>
        <time>2019-04-18T10:11:47.000Z</time>
      </trkpt>
      <trkpt lat="46.06881" lon="6.144">
        <ele>878.40002441406</ele>
        <time>2019-04-18T10:11:56.000Z</time>
      </trkpt>
      <trkpt lat="46.06848" lon="6.14359">
        <ele>879</ele>
        <time>2019-04-18T10:12:04.000Z</time>
      </trkpt>
      <trkpt lat="46.06822" lon="6.14337">
        <ele>879.20001220703</ele>
        <time>2019-04-18T10:12:10.000Z</time>
      </trkpt>
      <trkpt lat="46.06784" lon="6.14309">
        <ele>878.20001220703</ele>
        <time>2019-04-18T10:12:18.000Z</time>
      </trkpt>
      <trkpt lat="46.06757" lon="6.1428">
        <ele>878.20001220703</ele>
        <time>2019-04-18T10:12:24.000Z</time>
      </trkpt>
      <trkpt lat="46.06736" lon="6.14238">
        <ele>879</ele>
        <time>2019-04-18T10:12:30.000Z</time>
      </trkpt>
      <trkpt lat="46.06717" lon="6.14184">
        <ele>879.20001220703</ele>
        <time>2019-04-18T10:12:37.000Z</time>
      </trkpt>
      <trkpt lat="46.06715" lon="6.14176">
        <ele>879.20001220703</ele>
        <time>2019-04-18T10:12:38.000Z</time>
      </trkpt>
      <trkpt lat="46.06708" lon="6.14153">
        <ele>879.20001220703</ele>
        <time>2019-04-18T10:12:41.000Z</time>
      </trkpt>
      <trkpt lat="46.06708" lon="6.14146">
        <ele>879.40002441406</ele>
        <time>2019-04-18T10:12:42.000Z</time>
      </trkpt>
      <trkpt lat="46.06706" lon="6.14128">
        <ele>879.79998779297</ele>
        <time>2019-04-18T10:12:44.000Z</time>
      </trkpt>
      <trkpt lat="46.06698" lon="6.14081">
        <ele>880.40002441406</ele>
        <time>2019-04-18T10:12:50.000Z</time>
      </trkpt>
      <trkpt lat="46.06691" lon="6.14067">
        <ele>880.40002441406</ele>
        <time>2019-04-18T10:12:52.000Z</time>
      </trkpt>
      <trkpt lat="46.06685" lon="6.14053">
        <ele>880.79998779297</ele>
        <time>2019-04-18T10:12:54.000Z</time>
      </trkpt>
      <trkpt lat="46.06675" lon="6.14042">
        <ele>881.40002441406</ele>
        <time>2019-04-18T10:12:56.000Z</time>
      </trkpt>
      <trkpt lat="46.06664" lon="6.14035">
        <ele>881.40002441406</ele>
        <time>2019-04-18T10:12:58.000Z</time>
      </trkpt>
      <trkpt lat="46.06658" lon="6.14031">
        <ele>881.40002441406</ele>
        <time>2019-04-18T10:12:59.000Z</time>
      </trkpt>
      <trkpt lat="46.06652" lon="6.14029">
        <ele>881.20001220703</ele>
        <time>2019-04-18T10:13:00.000Z</time>
      </trkpt>
      <trkpt lat="46.06627" lon="6.14024">
        <ele>880</ele>
        <time>2019-04-18T10:13:04.000Z</time>
      </trkpt>
      <trkpt lat="46.06584" lon="6.14016">
        <ele>878.79998779297</ele>
        <time>2019-04-18T10:13:11.000Z</time>
      </trkpt>
      <trkpt lat="46.06578" lon="6.14014">
        <ele>878.79998779297</ele>
        <time>2019-04-18T10:13:12.000Z</time>
      </trkpt>
      <trkpt lat="46.06557" lon="6.13992">
        <ele>879.59997558594</ele>
        <time>2019-04-18T10:13:16.000Z</time>
      </trkpt>
      <trkpt lat="46.06552" lon="6.13987">
        <ele>879.40002441406</ele>
        <time>2019-04-18T10:13:17.000Z</time>
      </trkpt>
      <trkpt lat="46.06538" lon="6.13971">
        <ele>878.79998779297</ele>
        <time>2019-04-18T10:13:20.000Z</time>
      </trkpt>
      <trkpt lat="46.06525" lon="6.13931">
        <ele>880.20001220703</ele>
        <time>2019-04-18T10:13:25.000Z</time>
      </trkpt>
      <trkpt lat="46.06515" lon="6.13899">
        <ele>880.59997558594</ele>
        <time>2019-04-18T10:13:29.000Z</time>
      </trkpt>
      <trkpt lat="46.0651" lon="6.13883">
        <ele>880.59997558594</ele>
        <time>2019-04-18T10:13:31.000Z</time>
      </trkpt>
      <trkpt lat="46.06489" lon="6.13841">
        <ele>880.20001220703</ele>
        <time>2019-04-18T10:13:37.000Z</time>
      </trkpt>
      <trkpt lat="46.06449" lon="6.1378">
        <ele>879.40002441406</ele>
        <time>2019-04-18T10:13:46.000Z</time>
      </trkpt>
      <trkpt lat="46.06426" lon="6.13746">
        <ele>879.59997558594</ele>
        <time>2019-04-18T10:13:51.000Z</time>
      </trkpt>
      <trkpt lat="46.06413" lon="6.13724">
        <ele>879.59997558594</ele>
        <time>2019-04-18T10:13:54.000Z</time>
      </trkpt>
      <trkpt lat="46.06406" lon="6.13697">
        <ele>879.40002441406</ele>
        <time>2019-04-18T10:13:57.000Z</time>
      </trkpt>
      <trkpt lat="46.06405" lon="6.13678">
        <ele>879.40002441406</ele>
        <time>2019-04-18T10:13:59.000Z</time>
      </trkpt>
      <trkpt lat="46.06405" lon="6.1365">
        <ele>880</ele>
        <time>2019-04-18T10:14:02.000Z</time>
      </trkpt>
      <trkpt lat="46.06408" lon="6.13633">
        <ele>880.20001220703</ele>
        <time>2019-04-18T10:14:04.000Z</time>
      </trkpt>
      <trkpt lat="46.06418" lon="6.13578">
        <ele>880.20001220703</ele>
        <time>2019-04-18T10:14:10.000Z</time>
      </trkpt>
      <trkpt lat="46.06419" lon="6.13569">
        <ele>880.59997558594</ele>
        <time>2019-04-18T10:14:11.000Z</time>
      </trkpt>
      <trkpt lat="46.06417" lon="6.1355">
        <ele>880.59997558594</ele>
        <time>2019-04-18T10:14:13.000Z</time>
      </trkpt>
      <trkpt lat="46.06417" lon="6.13541">
        <ele>880.40002441406</ele>
        <time>2019-04-18T10:14:14.000Z</time>
      </trkpt>
      <trkpt lat="46.06416" lon="6.13531">
        <ele>880.40002441406</ele>
        <time>2019-04-18T10:14:15.000Z</time>
      </trkpt>
      <trkpt lat="46.06412" lon="6.13516">
        <ele>879.59997558594</ele>
        <time>2019-04-18T10:14:17.000Z</time>
      </trkpt>
      <trkpt lat="46.06408" lon="6.13508">
        <ele>879.20001220703</ele>
        <time>2019-04-18T10:14:18.000Z</time>
      </trkpt>
      <trkpt lat="46.06404" lon="6.135">
        <ele>878.59997558594</ele>
        <time>2019-04-18T10:14:19.000Z</time>
      </trkpt>
      <trkpt lat="46.06391" lon="6.13478">
        <ele>876.79998779297</ele>
        <time>2019-04-18T10:14:22.000Z</time>
      </trkpt>
      <trkpt lat="46.06385" lon="6.13472">
        <ele>876.79998779297</ele>
        <time>2019-04-18T10:14:23.000Z</time>
      </trkpt>
      <trkpt lat="46.06346" lon="6.13432">
        <ele>876.79998779297</ele>
        <time>2019-04-18T10:14:30.000Z</time>
      </trkpt>
      <trkpt lat="46.0633" lon="6.13415">
        <ele>877</ele>
        <time>2019-04-18T10:14:33.000Z</time>
      </trkpt>
      <trkpt lat="46.06326" lon="6.13397">
        <ele>879</ele>
        <time>2019-04-18T10:14:35.000Z</time>
      </trkpt>
      <trkpt lat="46.06321" lon="6.1338">
        <ele>880</ele>
        <time>2019-04-18T10:14:37.000Z</time>
      </trkpt>
      <trkpt lat="46.06317" lon="6.13362">
        <ele>880.59997558594</ele>
        <time>2019-04-18T10:14:39.000Z</time>
      </trkpt>
      <trkpt lat="46.06315" lon="6.13354">
        <ele>880.79998779297</ele>
        <time>2019-04-18T10:14:40.000Z</time>
      </trkpt>
      <trkpt lat="46.06311" lon="6.1334">
        <ele>881</ele>
        <time>2019-04-18T10:14:42.000Z</time>
      </trkpt>
      <trkpt lat="46.06303" lon="6.13326">
        <ele>881</ele>
        <time>2019-04-18T10:14:44.000Z</time>
      </trkpt>
      <trkpt lat="46.063" lon="6.13319">
        <ele>880.79998779297</ele>
        <time>2019-04-18T10:14:45.000Z</time>
      </trkpt>
      <trkpt lat="46.06291" lon="6.1331">
        <ele>880.20001220703</ele>
        <time>2019-04-18T10:14:47.000Z</time>
      </trkpt>
      <trkpt lat="46.06285" lon="6.13307">
        <ele>880</ele>
        <time>2019-04-18T10:14:48.000Z</time>
      </trkpt>
      <trkpt lat="46.0625" lon="6.13287">
        <ele>879.20001220703</ele>
        <time>2019-04-18T10:14:54.000Z</time>
      </trkpt>
      <trkpt lat="46.06227" lon="6.13273">
        <ele>878.79998779297</ele>
        <time>2019-04-18T10:14:58.000Z</time>
      </trkpt>
      <trkpt lat="46.06216" lon="6.13266">
        <ele>878</ele>
        <time>2019-04-18T10:15:00.000Z</time>
      </trkpt>
      <trkpt lat="46.06211" lon="6.1326">
        <ele>878.40002441406</ele>
        <time>2019-04-18T10:15:01.000Z</time>
      </trkpt>
      <trkpt lat="46.06199" lon="6.13239">
        <ele>880.79998779297</ele>
        <time>2019-04-18T10:15:04.000Z</time>
      </trkpt>
      <trkpt lat="46.06184" lon="6.13198">
        <ele>885.40002441406</ele>
        <time>2019-04-18T10:15:09.000Z</time>
      </trkpt>
      <trkpt lat="46.06169" lon="6.13172">
        <ele>886.59997558594</ele>
        <time>2019-04-18T10:15:13.000Z</time>
      </trkpt>
      <trkpt lat="46.06158" lon="6.13161">
        <ele>886.20001220703</ele>
        <time>2019-04-18T10:15:15.000Z</time>
      </trkpt>
      <trkpt lat="46.06147" lon="6.13154">
        <ele>885.40002441406</ele>
        <time>2019-04-18T10:15:17.000Z</time>
      </trkpt>
      <trkpt lat="46.06135" lon="6.13153">
        <ele>884.20001220703</ele>
        <time>2019-04-18T10:15:19.000Z</time>
      </trkpt>
      <trkpt lat="46.06115" lon="6.13153">
        <ele>883.79998779297</ele>
        <time>2019-04-18T10:15:22.000Z</time>
      </trkpt>
      <trkpt lat="46.06102" lon="6.13153">
        <ele>883.40002441406</ele>
        <time>2019-04-18T10:15:24.000Z</time>
      </trkpt>
      <trkpt lat="46.0609" lon="6.13153">
        <ele>883.20001220703</ele>
        <time>2019-04-18T10:15:26.000Z</time>
      </trkpt>
      <trkpt lat="46.06086" lon="6.13155">
        <ele>882.79998779297</ele>
        <time>2019-04-18T10:15:27.000Z</time>
      </trkpt>
      <trkpt lat="46.06066" lon="6.13167">
        <ele>879.40002441406</ele>
        <time>2019-04-18T10:15:30.000Z</time>
      </trkpt>
      <trkpt lat="46.06031" lon="6.13186">
        <ele>876.79998779297</ele>
        <time>2019-04-18T10:15:35.000Z</time>
      </trkpt>
      <trkpt lat="46.06024" lon="6.13188">
        <ele>877</ele>
        <time>2019-04-18T10:15:36.000Z</time>
      </trkpt>
      <trkpt lat="46.06016" lon="6.1319">
        <ele>877.20001220703</ele>
        <time>2019-04-18T10:15:37.000Z</time>
      </trkpt>
      <trkpt lat="46.06002" lon="6.13184">
        <ele>879.79998779297</ele>
        <time>2019-04-18T10:15:39.000Z</time>
      </trkpt>
      <trkpt lat="46.05995" lon="6.13181">
        <ele>881.20001220703</ele>
        <time>2019-04-18T10:15:40.000Z</time>
      </trkpt>
      <trkpt lat="46.05957" lon="6.13166">
        <ele>884.79998779297</ele>
        <time>2019-04-18T10:15:45.000Z</time>
      </trkpt>
      <trkpt lat="46.0592" lon="6.1315">
        <ele>884.40002441406</ele>
        <time>2019-04-18T10:15:50.000Z</time>
      </trkpt>
      <trkpt lat="46.05913" lon="6.13147">
        <ele>884.20001220703</ele>
        <time>2019-04-18T10:15:51.000Z</time>
      </trkpt>
      <trkpt lat="46.05906" lon="6.13145">
        <ele>884.20001220703</ele>
        <time>2019-04-18T10:15:52.000Z</time>
      </trkpt>
      <trkpt lat="46.0589" lon="6.13148">
        <ele>882.20001220703</ele>
        <time>2019-04-18T10:15:54.000Z</time>
      </trkpt>
      <trkpt lat="46.05859" lon="6.13154">
        <ele>878.79998779297</ele>
        <time>2019-04-18T10:15:58.000Z</time>
      </trkpt>
      <trkpt lat="46.05851" lon="6.13149">
        <ele>878.79998779297</ele>
        <time>2019-04-18T10:15:59.000Z</time>
      </trkpt>
      <trkpt lat="46.05844" lon="6.13145">
        <ele>878.79998779297</ele>
        <time>2019-04-18T10:16:00.000Z</time>
      </trkpt>
      <trkpt lat="46.05828" lon="6.13136">
        <ele>879</ele>
        <time>2019-04-18T10:16:02.000Z</time>
      </trkpt>
      <trkpt lat="46.05822" lon="6.13133">
        <ele>879</ele>
        <time>2019-04-18T10:16:03.000Z</time>
      </trkpt>
      <trkpt lat="46.05817" lon="6.13124">
        <ele>880.20001220703</ele>
        <time>2019-04-18T10:16:04.000Z</time>
      </trkpt>
      <trkpt lat="46.05805" lon="6.13106">
        <ele>881.40002441406</ele>
        <time>2019-04-18T10:16:06.000Z</time>
      </trkpt>
      <trkpt lat="46.05795" lon="6.13086">
        <ele>881.59997558594</ele>
        <time>2019-04-18T10:16:08.000Z</time>
      </trkpt>
      <trkpt lat="46.05788" lon="6.13061">
        <ele>883.79998779297</ele>
        <time>2019-04-18T10:16:10.000Z</time>
      </trkpt>
      <trkpt lat="46.05774" lon="6.13012">
        <ele>887.79998779297</ele>
        <time>2019-04-18T10:16:14.000Z</time>
      </trkpt>
      <trkpt lat="46.05769" lon="6.13002">
        <ele>888</ele>
        <time>2019-04-18T10:16:15.000Z</time>
      </trkpt>
      <trkpt lat="46.05764" lon="6.12995">
        <ele>887.40002441406</ele>
        <time>2019-04-18T10:16:16.000Z</time>
      </trkpt>
      <trkpt lat="46.0575" lon="6.12986">
        <ele>884</ele>
        <time>2019-04-18T10:16:18.000Z</time>
      </trkpt>
      <trkpt lat="46.05732" lon="6.12985">
        <ele>877.79998779297</ele>
        <time>2019-04-18T10:16:20.000Z</time>
      </trkpt>
      <trkpt lat="46.05674" lon="6.12993">
        <ele>868</ele>
        <time>2019-04-18T10:16:26.000Z</time>
      </trkpt>
      <trkpt lat="46.05665" lon="6.12992">
        <ele>867.20001220703</ele>
        <time>2019-04-18T10:16:27.000Z</time>
      </trkpt>
      <trkpt lat="46.05648" lon="6.12987">
        <ele>865.79998779297</ele>
        <time>2019-04-18T10:16:29.000Z</time>
      </trkpt>
      <trkpt lat="46.0563" lon="6.12982">
        <ele>864.20001220703</ele>
        <time>2019-04-18T10:16:31.000Z</time>
      </trkpt>
      <trkpt lat="46.05573" lon="6.12956">
        <ele>863.40002441406</ele>
        <time>2019-04-18T10:16:38.000Z</time>
      </trkpt>
      <trkpt lat="46.05515" lon="6.12928">
        <ele>862.40002441406</ele>
        <time>2019-04-18T10:16:46.000Z</time>
      </trkpt>
      <trkpt lat="46.05471" lon="6.12901">
        <ele>863.20001220703</ele>
        <time>2019-04-18T10:16:52.000Z</time>
      </trkpt>
      <trkpt lat="46.05438" lon="6.12861">
        <ele>863.79998779297</ele>
        <time>2019-04-18T10:16:57.000Z</time>
      </trkpt>
      <trkpt lat="46.05407" lon="6.12814">
        <ele>867</ele>
        <time>2019-04-18T10:17:02.000Z</time>
      </trkpt>
      <trkpt lat="46.054" lon="6.12806">
        <ele>866.59997558594</ele>
        <time>2019-04-18T10:17:03.000Z</time>
      </trkpt>
      <trkpt lat="46.05392" lon="6.12799">
        <ele>865.40002441406</ele>
        <time>2019-04-18T10:17:04.000Z</time>
      </trkpt>
      <trkpt lat="46.05366" lon="6.12779">
        <ele>863.40002441406</ele>
        <time>2019-04-18T10:17:07.000Z</time>
      </trkpt>
      <trkpt lat="46.05313" lon="6.12741">
        <ele>858.79998779297</ele>
        <time>2019-04-18T10:17:13.000Z</time>
      </trkpt>
      <trkpt lat="46.05304" lon="6.12735">
        <ele>858.20001220703</ele>
        <time>2019-04-18T10:17:14.000Z</time>
      </trkpt>
      <trkpt lat="46.05252" lon="6.12701">
        <ele>855.59997558594</ele>
        <time>2019-04-18T10:17:20.000Z</time>
      </trkpt>
      <trkpt lat="46.05204" lon="6.12668">
        <ele>854.20001220703</ele>
        <time>2019-04-18T10:17:26.000Z</time>
      </trkpt>
      <trkpt lat="46.05154" lon="6.12629">
        <ele>853.40002441406</ele>
        <time>2019-04-18T10:17:33.000Z</time>
      </trkpt>
      <trkpt lat="46.0511" lon="6.12585">
        <ele>855.40002441406</ele>
        <time>2019-04-18T10:17:40.000Z</time>
      </trkpt>
      <trkpt lat="46.05064" lon="6.12543">
        <ele>857.79998779297</ele>
        <time>2019-04-18T10:17:47.000Z</time>
      </trkpt>
      <trkpt lat="46.05057" lon="6.12539">
        <ele>857.59997558594</ele>
        <time>2019-04-18T10:17:48.000Z</time>
      </trkpt>
      <trkpt lat="46.05034" lon="6.12526">
        <ele>854.40002441406</ele>
        <time>2019-04-18T10:17:51.000Z</time>
      </trkpt>
      <trkpt lat="46.05018" lon="6.12518">
        <ele>852.20001220703</ele>
        <time>2019-04-18T10:17:53.000Z</time>
      </trkpt>
      <trkpt lat="46.04981" lon="6.12516">
        <ele>847.79998779297</ele>
        <time>2019-04-18T10:17:57.000Z</time>
      </trkpt>
      <trkpt lat="46.04933" lon="6.12527">
        <ele>841.40002441406</ele>
        <time>2019-04-18T10:18:02.000Z</time>
      </trkpt>
      <trkpt lat="46.0488" lon="6.12546">
        <ele>833.59997558594</ele>
        <time>2019-04-18T10:18:08.000Z</time>
      </trkpt>
      <trkpt lat="46.04871" lon="6.12551">
        <ele>832.79998779297</ele>
        <time>2019-04-18T10:18:09.000Z</time>
      </trkpt>
      <trkpt lat="46.04818" lon="6.1258">
        <ele>828.79998779297</ele>
        <time>2019-04-18T10:18:15.000Z</time>
      </trkpt>
      <trkpt lat="46.04801" lon="6.1259">
        <ele>829.40002441406</ele>
        <time>2019-04-18T10:18:17.000Z</time>
      </trkpt>
      <trkpt lat="46.04754" lon="6.12599">
        <ele>830.20001220703</ele>
        <time>2019-04-18T10:18:22.000Z</time>
      </trkpt>
      <trkpt lat="46.04697" lon="6.12599">
        <ele>826.20001220703</ele>
        <time>2019-04-18T10:18:28.000Z</time>
      </trkpt>
      <trkpt lat="46.0467" lon="6.12592">
        <ele>825.79998779297</ele>
        <time>2019-04-18T10:18:31.000Z</time>
      </trkpt>
      <trkpt lat="46.04661" lon="6.12587">
        <ele>826</ele>
        <time>2019-04-18T10:18:32.000Z</time>
      </trkpt>
      <trkpt lat="46.04625" lon="6.12565">
        <ele>825.20001220703</ele>
        <time>2019-04-18T10:18:36.000Z</time>
      </trkpt>
      <trkpt lat="46.04597" lon="6.12527">
        <ele>823.20001220703</ele>
        <time>2019-04-18T10:18:40.000Z</time>
      </trkpt>
      <trkpt lat="46.04563" lon="6.12476">
        <ele>820.40002441406</ele>
        <time>2019-04-18T10:18:45.000Z</time>
      </trkpt>
      <trkpt lat="46.04525" lon="6.12412">
        <ele>816.40002441406</ele>
        <time>2019-04-18T10:18:51.000Z</time>
      </trkpt>
      <trkpt lat="46.04518" lon="6.12406">
        <ele>815.59997558594</ele>
        <time>2019-04-18T10:18:52.000Z</time>
      </trkpt>
      <trkpt lat="46.04501" lon="6.12393">
        <ele>813.79998779297</ele>
        <time>2019-04-18T10:18:54.000Z</time>
      </trkpt>
      <trkpt lat="46.04493" lon="6.12387">
        <ele>813.40002441406</ele>
        <time>2019-04-18T10:18:55.000Z</time>
      </trkpt>
      <trkpt lat="46.04484" lon="6.12385">
        <ele>812.59997558594</ele>
        <time>2019-04-18T10:18:56.000Z</time>
      </trkpt>
      <trkpt lat="46.04456" lon="6.12381">
        <ele>810.59997558594</ele>
        <time>2019-04-18T10:18:59.000Z</time>
      </trkpt>
      <trkpt lat="46.04402" lon="6.12373">
        <ele>807.20001220703</ele>
        <time>2019-04-18T10:19:05.000Z</time>
      </trkpt>
      <trkpt lat="46.04376" lon="6.12369">
        <ele>806.59997558594</ele>
        <time>2019-04-18T10:19:08.000Z</time>
      </trkpt>
      <trkpt lat="46.04324" lon="6.12371">
        <ele>803.20001220703</ele>
        <time>2019-04-18T10:19:14.000Z</time>
      </trkpt>
      <trkpt lat="46.0427" lon="6.12378">
        <ele>800.79998779297</ele>
        <time>2019-04-18T10:19:20.000Z</time>
      </trkpt>
      <trkpt lat="46.04233" lon="6.12383">
        <ele>800.20001220703</ele>
        <time>2019-04-18T10:19:24.000Z</time>
      </trkpt>
      <trkpt lat="46.04223" lon="6.12381">
        <ele>800</ele>
        <time>2019-04-18T10:19:25.000Z</time>
      </trkpt>
      <trkpt lat="46.04214" lon="6.12378">
        <ele>798.79998779297</ele>
        <time>2019-04-18T10:19:26.000Z</time>
      </trkpt>
      <trkpt lat="46.04196" lon="6.12367">
        <ele>797.20001220703</ele>
        <time>2019-04-18T10:19:28.000Z</time>
      </trkpt>
      <trkpt lat="46.04182" lon="6.1235">
        <ele>796.40002441406</ele>
        <time>2019-04-18T10:19:30.000Z</time>
      </trkpt>
      <trkpt lat="46.04176" lon="6.12339">
        <ele>796.59997558594</ele>
        <time>2019-04-18T10:19:31.000Z</time>
      </trkpt>
      <trkpt lat="46.0417" lon="6.12327">
        <ele>797</ele>
        <time>2019-04-18T10:19:32.000Z</time>
      </trkpt>
      <trkpt lat="46.04161" lon="6.12303">
        <ele>797.20001220703</ele>
        <time>2019-04-18T10:19:34.000Z</time>
      </trkpt>
      <trkpt lat="46.04151" lon="6.1225">
        <ele>795.59997558594</ele>
        <time>2019-04-18T10:19:38.000Z</time>
      </trkpt>
      <trkpt lat="46.04141" lon="6.12203">
        <ele>795.20001220703</ele>
        <time>2019-04-18T10:19:42.000Z</time>
      </trkpt>
      <trkpt lat="46.04137" lon="6.12193">
        <ele>795.40002441406</ele>
        <time>2019-04-18T10:19:43.000Z</time>
      </trkpt>
      <trkpt lat="46.04128" lon="6.12174">
        <ele>795.59997558594</ele>
        <time>2019-04-18T10:19:45.000Z</time>
      </trkpt>
      <trkpt lat="46.04116" lon="6.1216">
        <ele>795.20001220703</ele>
        <time>2019-04-18T10:19:47.000Z</time>
      </trkpt>
      <trkpt lat="46.04104" lon="6.12149">
        <ele>794.59997558594</ele>
        <time>2019-04-18T10:19:49.000Z</time>
      </trkpt>
      <trkpt lat="46.04091" lon="6.12143">
        <ele>793.59997558594</ele>
        <time>2019-04-18T10:19:51.000Z</time>
      </trkpt>
      <trkpt lat="46.04064" lon="6.12131">
        <ele>792.40002441406</ele>
        <time>2019-04-18T10:19:55.000Z</time>
      </trkpt>
      <trkpt lat="46.04057" lon="6.12129">
        <ele>791.79998779297</ele>
        <time>2019-04-18T10:19:56.000Z</time>
      </trkpt>
      <trkpt lat="46.0401" lon="6.12112">
        <ele>786.59997558594</ele>
        <time>2019-04-18T10:20:02.000Z</time>
      </trkpt>
      <trkpt lat="46.03954" lon="6.12091">
        <ele>784.79998779297</ele>
        <time>2019-04-18T10:20:09.000Z</time>
      </trkpt>
      <trkpt lat="46.03938" lon="6.12084">
        <ele>785.40002441406</ele>
        <time>2019-04-18T10:20:11.000Z</time>
      </trkpt>
      <trkpt lat="46.03889" lon="6.12053">
        <ele>787.20001220703</ele>
        <time>2019-04-18T10:20:18.000Z</time>
      </trkpt>
      <trkpt lat="46.03839" lon="6.12004">
        <ele>784.79998779297</ele>
        <time>2019-04-18T10:20:26.000Z</time>
      </trkpt>
      <trkpt lat="46.038" lon="6.11965">
        <ele>783</ele>
        <time>2019-04-18T10:20:33.000Z</time>
      </trkpt>
      <trkpt lat="46.03771" lon="6.11914">
        <ele>783.59997558594</ele>
        <time>2019-04-18T10:20:40.000Z</time>
      </trkpt>
      <trkpt lat="46.03765" lon="6.11903">
        <ele>784</ele>
        <time>2019-04-18T10:20:42.000Z</time>
      </trkpt>
      <trkpt lat="46.03764" lon="6.11899">
        <ele>784</ele>
        <time>2019-04-18T10:20:43.000Z</time>
      </trkpt>
      <trkpt lat="46.03761" lon="6.11895">
        <ele>784.20001220703</ele>
        <time>2019-04-18T10:20:45.000Z</time>
      </trkpt>
      <trkpt lat="46.03758" lon="6.11888">
        <ele>784.20001220703</ele>
        <time>2019-04-18T10:20:47.000Z</time>
      </trkpt>
      <trkpt lat="46.03742" lon="6.1185">
        <ele>784.59997558594</ele>
        <time>2019-04-18T10:20:54.000Z</time>
      </trkpt>
      <trkpt lat="46.03719" lon="6.11797">
        <ele>785.40002441406</ele>
        <time>2019-04-18T10:21:02.000Z</time>
      </trkpt>
      <trkpt lat="46.03713" lon="6.11783">
        <ele>786</ele>
        <time>2019-04-18T10:21:04.000Z</time>
      </trkpt>
      <trkpt lat="46.03697" lon="6.11737">
        <ele>788.40002441406</ele>
        <time>2019-04-18T10:21:11.000Z</time>
      </trkpt>
      <trkpt lat="46.0368" lon="6.11677">
        <ele>787.40002441406</ele>
        <time>2019-04-18T10:21:19.000Z</time>
      </trkpt>
      <trkpt lat="46.03665" lon="6.11626">
        <ele>784.59997558594</ele>
        <time>2019-04-18T10:21:26.000Z</time>
      </trkpt>
      <trkpt lat="46.03652" lon="6.11583">
        <ele>781.79998779297</ele>
        <time>2019-04-18T10:21:32.000Z</time>
      </trkpt>
      <trkpt lat="46.03642" lon="6.1155">
        <ele>780</ele>
        <time>2019-04-18T10:21:37.000Z</time>
      </trkpt>
      <trkpt lat="46.03637" lon="6.11529">
        <ele>781.40002441406</ele>
        <time>2019-04-18T10:21:40.000Z</time>
      </trkpt>
      <trkpt lat="46.03633" lon="6.11517">
        <ele>782.20001220703</ele>
        <time>2019-04-18T10:21:42.000Z</time>
      </trkpt>
      <trkpt lat="46.03625" lon="6.11491">
        <ele>783.79998779297</ele>
        <time>2019-04-18T10:21:46.000Z</time>
      </trkpt>
      <trkpt lat="46.03615" lon="6.11447">
        <ele>783.40002441406</ele>
        <time>2019-04-18T10:21:53.000Z</time>
      </trkpt>
      <trkpt lat="46.03607" lon="6.11415">
        <ele>784.20001220703</ele>
        <time>2019-04-18T10:21:58.000Z</time>
      </trkpt>
      <trkpt lat="46.03602" lon="6.11397">
        <ele>784.79998779297</ele>
        <time>2019-04-18T10:22:01.000Z</time>
      </trkpt>
      <trkpt lat="46.03598" lon="6.11379">
        <ele>783.79998779297</ele>
        <time>2019-04-18T10:22:04.000Z</time>
      </trkpt>
      <trkpt lat="46.03594" lon="6.11361">
        <ele>782.59997558594</ele>
        <time>2019-04-18T10:22:07.000Z</time>
      </trkpt>
      <trkpt lat="46.0359" lon="6.11343">
        <ele>781.40002441406</ele>
        <time>2019-04-18T10:22:10.000Z</time>
      </trkpt>
      <trkpt lat="46.03583" lon="6.11314">
        <ele>782.59997558594</ele>
        <time>2019-04-18T10:22:15.000Z</time>
      </trkpt>
      <trkpt lat="46.0358" lon="6.11303">
        <ele>782.20001220703</ele>
        <time>2019-04-18T10:22:17.000Z</time>
      </trkpt>
      <trkpt lat="46.03578" lon="6.11297">
        <ele>781.79998779297</ele>
        <time>2019-04-18T10:22:18.000Z</time>
      </trkpt>
      <trkpt lat="46.03576" lon="6.11286">
        <ele>781.20001220703</ele>
        <time>2019-04-18T10:22:20.000Z</time>
      </trkpt>
      <trkpt lat="46.03573" lon="6.11276">
        <ele>780.40002441406</ele>
        <time>2019-04-18T10:22:22.000Z</time>
      </trkpt>
      <trkpt lat="46.03568" lon="6.11255">
        <ele>779</ele>
        <time>2019-04-18T10:22:26.000Z</time>
      </trkpt>
      <trkpt lat="46.0356" lon="6.11229">
        <ele>777.20001220703</ele>
        <time>2019-04-18T10:22:31.000Z</time>
      </trkpt>
      <trkpt lat="46.03553" lon="6.11204">
        <ele>777.40002441406</ele>
        <time>2019-04-18T10:22:37.000Z</time>
      </trkpt>
      <trkpt lat="46.03548" lon="6.11186">
        <ele>778</ele>
        <time>2019-04-18T10:22:41.000Z</time>
      </trkpt>
      <trkpt lat="46.03546" lon="6.11179">
        <ele>778.20001220703</ele>
        <time>2019-04-18T10:22:42.000Z</time>
      </trkpt>
      <trkpt lat="46.03534" lon="6.11139">
        <ele>778.79998779297</ele>
        <time>2019-04-18T10:22:48.000Z</time>
      </trkpt>
      <trkpt lat="46.03532" lon="6.11133">
        <ele>778.40002441406</ele>
        <time>2019-04-18T10:22:49.000Z</time>
      </trkpt>
      <trkpt lat="46.0353" lon="6.11126">
        <ele>778.20001220703</ele>
        <time>2019-04-18T10:22:50.000Z</time>
      </trkpt>
      <trkpt lat="46.03523" lon="6.11101">
        <ele>777.59997558594</ele>
        <time>2019-04-18T10:22:54.000Z</time>
      </trkpt>
      <trkpt lat="46.03521" lon="6.11096">
        <ele>777.79998779297</ele>
        <time>2019-04-18T10:22:55.000Z</time>
      </trkpt>
      <trkpt lat="46.03527" lon="6.11081">
        <ele>778.40002441406</ele>
        <time>2019-04-18T10:22:57.000Z</time>
      </trkpt>
      <trkpt lat="46.03538" lon="6.11077">
        <ele>778.79998779297</ele>
        <time>2019-04-18T10:23:00.000Z</time>
      </trkpt>
      <trkpt lat="46.03556" lon="6.11071">
        <ele>779.59997558594</ele>
        <time>2019-04-18T10:23:05.000Z</time>
      </trkpt>
      <trkpt lat="46.0357" lon="6.11056">
        <ele>783.40002441406</ele>
        <time>2019-04-18T10:23:11.000Z</time>
      </trkpt>
      <trkpt lat="46.03574" lon="6.11049">
        <ele>785</ele>
        <time>2019-04-18T10:23:14.000Z</time>
      </trkpt>
      <trkpt lat="46.03578" lon="6.11044">
        <ele>786.20001220703</ele>
        <time>2019-04-18T10:23:16.000Z</time>
      </trkpt>
      <trkpt lat="46.03581" lon="6.11021">
        <ele>788.20001220703</ele>
        <time>2019-04-18T10:23:22.000Z</time>
      </trkpt>
      <trkpt lat="46.03585" lon="6.10986">
        <ele>791.79998779297</ele>
        <time>2019-04-18T10:23:31.000Z</time>
      </trkpt>
      <trkpt lat="46.03589" lon="6.10955">
        <ele>793</ele>
        <time>2019-04-18T10:23:39.000Z</time>
      </trkpt>
      <trkpt lat="46.03598" lon="6.10933">
        <ele>795</ele>
        <time>2019-04-18T10:23:46.000Z</time>
      </trkpt>
      <trkpt lat="46.03609" lon="6.10912">
        <ele>797.20001220703</ele>
        <time>2019-04-18T10:23:53.000Z</time>
      </trkpt>
      <trkpt lat="46.03623" lon="6.10888">
        <ele>800.20001220703</ele>
        <time>2019-04-18T10:24:01.000Z</time>
      </trkpt>
      <trkpt lat="46.03639" lon="6.1086">
        <ele>800.20001220703</ele>
        <time>2019-04-18T10:24:09.000Z</time>
      </trkpt>
      <trkpt lat="46.03653" lon="6.10833">
        <ele>800</ele>
        <time>2019-04-18T10:24:16.000Z</time>
      </trkpt>
      <trkpt lat="46.03672" lon="6.10799">
        <ele>803.20001220703</ele>
        <time>2019-04-18T10:24:24.000Z</time>
      </trkpt>
      <trkpt lat="46.03675" lon="6.10794">
        <ele>803.40002441406</ele>
        <time>2019-04-18T10:24:25.000Z</time>
      </trkpt>
      <trkpt lat="46.03687" lon="6.10775">
        <ele>805.40002441406</ele>
        <time>2019-04-18T10:24:29.000Z</time>
      </trkpt>
      <trkpt lat="46.03691" lon="6.10771">
        <ele>805.40002441406</ele>
        <time>2019-04-18T10:24:30.000Z</time>
      </trkpt>
      <trkpt lat="46.03694" lon="6.10768">
        <ele>805.20001220703</ele>
        <time>2019-04-18T10:24:31.000Z</time>
      </trkpt>
      <trkpt lat="46.03704" lon="6.10757">
        <ele>804.40002441406</ele>
        <time>2019-04-18T10:24:34.000Z</time>
      </trkpt>
      <trkpt lat="46.03733" lon="6.10728">
        <ele>802.20001220703</ele>
        <time>2019-04-18T10:24:42.000Z</time>
      </trkpt>
      <trkpt lat="46.03754" lon="6.10705">
        <ele>803.59997558594</ele>
        <time>2019-04-18T10:24:49.000Z</time>
      </trkpt>
      <trkpt lat="46.03769" lon="6.10686">
        <ele>803.59997558594</ele>
        <time>2019-04-18T10:24:55.000Z</time>
      </trkpt>
      <trkpt lat="46.03782" lon="6.10669">
        <ele>803.40002441406</ele>
        <time>2019-04-18T10:25:01.000Z</time>
      </trkpt>
      <trkpt lat="46.038" lon="6.10645">
        <ele>803</ele>
        <time>2019-04-18T10:25:09.000Z</time>
      </trkpt>
      <trkpt lat="46.0382" lon="6.10618">
        <ele>804.20001220703</ele>
        <time>2019-04-18T10:25:18.000Z</time>
      </trkpt>
      <trkpt lat="46.0384" lon="6.10592">
        <ele>805</ele>
        <time>2019-04-18T10:25:27.000Z</time>
      </trkpt>
      <trkpt lat="46.03857" lon="6.10563">
        <ele>806.59997558594</ele>
        <time>2019-04-18T10:25:36.000Z</time>
      </trkpt>
      <trkpt lat="46.03867" lon="6.10537">
        <ele>804.59997558594</ele>
        <time>2019-04-18T10:25:44.000Z</time>
      </trkpt>
      <trkpt lat="46.03875" lon="6.10514">
        <ele>806</ele>
        <time>2019-04-18T10:25:50.000Z</time>
      </trkpt>
      <trkpt lat="46.03877" lon="6.1049">
        <ele>805.59997558594</ele>
        <time>2019-04-18T10:25:56.000Z</time>
      </trkpt>
      <trkpt lat="46.03879" lon="6.10459">
        <ele>803.59997558594</ele>
        <time>2019-04-18T10:26:03.000Z</time>
      </trkpt>
      <trkpt lat="46.03884" lon="6.10425">
        <ele>801.59997558594</ele>
        <time>2019-04-18T10:26:11.000Z</time>
      </trkpt>
      <trkpt lat="46.03896" lon="6.10418">
        <ele>804.40002441406</ele>
        <time>2019-04-18T10:26:16.000Z</time>
      </trkpt>
      <trkpt lat="46.03911" lon="6.10414">
        <ele>807</ele>
        <time>2019-04-18T10:26:21.000Z</time>
      </trkpt>
      <trkpt lat="46.0393" lon="6.10427">
        <ele>812.20001220703</ele>
        <time>2019-04-18T10:26:28.000Z</time>
      </trkpt>
      <trkpt lat="46.0395" lon="6.10444">
        <ele>818</ele>
        <time>2019-04-18T10:26:37.000Z</time>
      </trkpt>
      <trkpt lat="46.03963" lon="6.10453">
        <ele>821.59997558594</ele>
        <time>2019-04-18T10:26:43.000Z</time>
      </trkpt>
      <trkpt lat="46.03979" lon="6.10442">
        <ele>822.79998779297</ele>
        <time>2019-04-18T10:26:50.000Z</time>
      </trkpt>
      <trkpt lat="46.03997" lon="6.10429">
        <ele>823.79998779297</ele>
        <time>2019-04-18T10:26:58.000Z</time>
      </trkpt>
      <trkpt lat="46.04016" lon="6.10416">
        <ele>824.20001220703</ele>
        <time>2019-04-18T10:27:06.000Z</time>
      </trkpt>
      <trkpt lat="46.04034" lon="6.10403">
        <ele>824.40002441406</ele>
        <time>2019-04-18T10:27:14.000Z</time>
      </trkpt>
      <trkpt lat="46.04052" lon="6.10398">
        <ele>825.79998779297</ele>
        <time>2019-04-18T10:27:21.000Z</time>
      </trkpt>
      <trkpt lat="46.04074" lon="6.10396">
        <ele>826.59997558594</ele>
        <time>2019-04-18T10:27:29.000Z</time>
      </trkpt>
      <trkpt lat="46.04091" lon="6.10399">
        <ele>827.40002441406</ele>
        <time>2019-04-18T10:27:36.000Z</time>
      </trkpt>
      <trkpt lat="46.04111" lon="6.10403">
        <ele>828.20001220703</ele>
        <time>2019-04-18T10:27:43.000Z</time>
      </trkpt>
      <trkpt lat="46.04136" lon="6.10407">
        <ele>829.40002441406</ele>
        <time>2019-04-18T10:27:52.000Z</time>
      </trkpt>
      <trkpt lat="46.04156" lon="6.10411">
        <ele>831.20001220703</ele>
        <time>2019-04-18T10:27:59.000Z</time>
      </trkpt>
      <trkpt lat="46.04178" lon="6.10415">
        <ele>832.79998779297</ele>
        <time>2019-04-18T10:28:07.000Z</time>
      </trkpt>
      <trkpt lat="46.04199" lon="6.10419">
        <ele>834.20001220703</ele>
        <time>2019-04-18T10:28:15.000Z</time>
      </trkpt>
      <trkpt lat="46.04223" lon="6.10423">
        <ele>835.79998779297</ele>
        <time>2019-04-18T10:28:24.000Z</time>
      </trkpt>
      <trkpt lat="46.0424" lon="6.10427">
        <ele>836.79998779297</ele>
        <time>2019-04-18T10:28:30.000Z</time>
      </trkpt>
      <trkpt lat="46.04253" lon="6.10427">
        <ele>837</ele>
        <time>2019-04-18T10:28:35.000Z</time>
      </trkpt>
      <trkpt lat="46.04266" lon="6.10425">
        <ele>836.79998779297</ele>
        <time>2019-04-18T10:28:39.000Z</time>
      </trkpt>
      <trkpt lat="46.04287" lon="6.10421">
        <ele>836.79998779297</ele>
        <time>2019-04-18T10:28:46.000Z</time>
      </trkpt>
      <trkpt lat="46.043" lon="6.10425">
        <ele>838.20001220703</ele>
        <time>2019-04-18T10:28:51.000Z</time>
      </trkpt>
      <trkpt lat="46.04307" lon="6.10436">
        <ele>840.59997558594</ele>
        <time>2019-04-18T10:28:55.000Z</time>
      </trkpt>
      <trkpt lat="46.04309" lon="6.10455">
        <ele>844.59997558594</ele>
        <time>2019-04-18T10:29:00.000Z</time>
      </trkpt>
      <trkpt lat="46.04299" lon="6.10477">
        <ele>848.79998779297</ele>
        <time>2019-04-18T10:29:05.000Z</time>
      </trkpt>
      <trkpt lat="46.04283" lon="6.10478">
        <ele>848.79998779297</ele>
        <time>2019-04-18T10:29:11.000Z</time>
      </trkpt>
      <trkpt lat="46.04265" lon="6.10479">
        <ele>848.79998779297</ele>
        <time>2019-04-18T10:29:17.000Z</time>
      </trkpt>
      <trkpt lat="46.04245" lon="6.1048">
        <ele>848.79998779297</ele>
        <time>2019-04-18T10:29:24.000Z</time>
      </trkpt>
      <trkpt lat="46.04227" lon="6.10482">
        <ele>848.79998779297</ele>
        <time>2019-04-18T10:29:30.000Z</time>
      </trkpt>
      <trkpt lat="46.04223" lon="6.10486">
        <ele>849.20001220703</ele>
        <time>2019-04-18T10:29:32.000Z</time>
      </trkpt>
      <trkpt lat="46.04215" lon="6.10495">
        <ele>850</ele>
        <time>2019-04-18T10:29:35.000Z</time>
      </trkpt>
      <trkpt lat="46.04202" lon="6.1051">
        <ele>851.59997558594</ele>
        <time>2019-04-18T10:29:41.000Z</time>
      </trkpt>
      <trkpt lat="46.04186" lon="6.10527">
        <ele>852.59997558594</ele>
        <time>2019-04-18T10:29:48.000Z</time>
      </trkpt>
      <trkpt lat="46.04167" lon="6.10541">
        <ele>852.40002441406</ele>
        <time>2019-04-18T10:29:55.000Z</time>
      </trkpt>
      <trkpt lat="46.04149" lon="6.10554">
        <ele>852</ele>
        <time>2019-04-18T10:30:02.000Z</time>
      </trkpt>
      <trkpt lat="46.04137" lon="6.10565">
        <ele>851.20001220703</ele>
        <time>2019-04-18T10:30:07.000Z</time>
      </trkpt>
      <trkpt lat="46.04136" lon="6.10588">
        <ele>851</ele>
        <time>2019-04-18T10:30:13.000Z</time>
      </trkpt>
      <trkpt lat="46.0414" lon="6.10609">
        <ele>851.59997558594</ele>
        <time>2019-04-18T10:30:19.000Z</time>
      </trkpt>
      <trkpt lat="46.04151" lon="6.10634">
        <ele>853</ele>
        <time>2019-04-18T10:30:26.000Z</time>
      </trkpt>
      <trkpt lat="46.04163" lon="6.10657">
        <ele>854.40002441406</ele>
        <time>2019-04-18T10:30:33.000Z</time>
      </trkpt>
      <trkpt lat="46.04174" lon="6.10681">
        <ele>855.79998779297</ele>
        <time>2019-04-18T10:30:40.000Z</time>
      </trkpt>
      <trkpt lat="46.04182" lon="6.10697">
        <ele>856.79998779297</ele>
        <time>2019-04-18T10:30:45.000Z</time>
      </trkpt>
      <trkpt lat="46.04191" lon="6.10724">
        <ele>858.20001220703</ele>
        <time>2019-04-18T10:30:53.000Z</time>
      </trkpt>
      <trkpt lat="46.04193" lon="6.10743">
        <ele>858.59997558594</ele>
        <time>2019-04-18T10:30:58.000Z</time>
      </trkpt>
      <trkpt lat="46.04194" lon="6.10764">
        <ele>859</ele>
        <time>2019-04-18T10:31:04.000Z</time>
      </trkpt>
      <trkpt lat="46.04196" lon="6.10787">
        <ele>859.59997558594</ele>
        <time>2019-04-18T10:31:10.000Z</time>
      </trkpt>
      <trkpt lat="46.04204" lon="6.10796">
        <ele>860.59997558594</ele>
        <time>2019-04-18T10:31:15.000Z</time>
      </trkpt>
      <trkpt lat="46.04214" lon="6.10801">
        <ele>861.59997558594</ele>
        <time>2019-04-18T10:31:20.000Z</time>
      </trkpt>
      <trkpt lat="46.04226" lon="6.10796">
        <ele>862.79998779297</ele>
        <time>2019-04-18T10:31:26.000Z</time>
      </trkpt>
      <trkpt lat="46.04238" lon="6.10784">
        <ele>863.59997558594</ele>
        <time>2019-04-18T10:31:31.000Z</time>
      </trkpt>
      <trkpt lat="46.04255" lon="6.10765">
        <ele>864.59997558594</ele>
        <time>2019-04-18T10:31:39.000Z</time>
      </trkpt>
      <trkpt lat="46.04268" lon="6.10751">
        <ele>865.59997558594</ele>
        <time>2019-04-18T10:31:46.000Z</time>
      </trkpt>
      <trkpt lat="46.04284" lon="6.10739">
        <ele>867</ele>
        <time>2019-04-18T10:31:53.000Z</time>
      </trkpt>
      <trkpt lat="46.04301" lon="6.10743">
        <ele>868.40002441406</ele>
        <time>2019-04-18T10:31:59.000Z</time>
      </trkpt>
      <trkpt lat="46.04314" lon="6.10749">
        <ele>869.20001220703</ele>
        <time>2019-04-18T10:32:05.000Z</time>
      </trkpt>
      <trkpt lat="46.04329" lon="6.10755">
        <ele>869.40002441406</ele>
        <time>2019-04-18T10:32:11.000Z</time>
      </trkpt>
      <trkpt lat="46.04344" lon="6.10761">
        <ele>869.79998779297</ele>
        <time>2019-04-18T10:32:17.000Z</time>
      </trkpt>
      <trkpt lat="46.04367" lon="6.1077">
        <ele>870.59997558594</ele>
        <time>2019-04-18T10:32:25.000Z</time>
      </trkpt>
      <trkpt lat="46.04386" lon="6.10777">
        <ele>871.20001220703</ele>
        <time>2019-04-18T10:32:31.000Z</time>
      </trkpt>
      <trkpt lat="46.04401" lon="6.10781">
        <ele>871.59997558594</ele>
        <time>2019-04-18T10:32:36.000Z</time>
      </trkpt>
      <trkpt lat="46.04417" lon="6.10785">
        <ele>872.20001220703</ele>
        <time>2019-04-18T10:32:41.000Z</time>
      </trkpt>
      <trkpt lat="46.04432" lon="6.10789">
        <ele>872.59997558594</ele>
        <time>2019-04-18T10:32:45.000Z</time>
      </trkpt>
      <trkpt lat="46.04458" lon="6.10796">
        <ele>873.59997558594</ele>
        <time>2019-04-18T10:32:52.000Z</time>
      </trkpt>
      <trkpt lat="46.04478" lon="6.10801">
        <ele>874.20001220703</ele>
        <time>2019-04-18T10:32:58.000Z</time>
      </trkpt>
      <trkpt lat="46.04496" lon="6.10806">
        <ele>875.59997558594</ele>
        <time>2019-04-18T10:33:04.000Z</time>
      </trkpt>
      <trkpt lat="46.04513" lon="6.10824">
        <ele>876.20001220703</ele>
        <time>2019-04-18T10:33:10.000Z</time>
      </trkpt>
      <trkpt lat="46.04529" lon="6.10847">
        <ele>876.59997558594</ele>
        <time>2019-04-18T10:33:17.000Z</time>
      </trkpt>
      <trkpt lat="46.04545" lon="6.10871">
        <ele>876.79998779297</ele>
        <time>2019-04-18T10:33:24.000Z</time>
      </trkpt>
      <trkpt lat="46.04564" lon="6.10876">
        <ele>878.20001220703</ele>
        <time>2019-04-18T10:33:30.000Z</time>
      </trkpt>
      <trkpt lat="46.04588" lon="6.10882">
        <ele>880.20001220703</ele>
        <time>2019-04-18T10:33:37.000Z</time>
      </trkpt>
      <trkpt lat="46.04605" lon="6.10895">
        <ele>881.40002441406</ele>
        <time>2019-04-18T10:33:42.000Z</time>
      </trkpt>
      <trkpt lat="46.04618" lon="6.10919">
        <ele>882</ele>
        <time>2019-04-18T10:33:48.000Z</time>
      </trkpt>
      <trkpt lat="46.04629" lon="6.10941">
        <ele>882.59997558594</ele>
        <time>2019-04-18T10:33:53.000Z</time>
      </trkpt>
      <trkpt lat="46.04639" lon="6.10959">
        <ele>883</ele>
        <time>2019-04-18T10:33:57.000Z</time>
      </trkpt>
      <trkpt lat="46.04646" lon="6.10973">
        <ele>883.79998779297</ele>
        <time>2019-04-18T10:34:00.000Z</time>
      </trkpt>
      <trkpt lat="46.04654" lon="6.11005">
        <ele>888</ele>
        <time>2019-04-18T10:34:07.000Z</time>
      </trkpt>
      <trkpt lat="46.04653" lon="6.11028">
        <ele>889.79998779297</ele>
        <time>2019-04-18T10:34:13.000Z</time>
      </trkpt>
      <trkpt lat="46.0465" lon="6.11052">
        <ele>891</ele>
        <time>2019-04-18T10:34:19.000Z</time>
      </trkpt>
      <trkpt lat="46.04653" lon="6.11075">
        <ele>894</ele>
        <time>2019-04-18T10:34:25.000Z</time>
      </trkpt>
      <trkpt lat="46.04659" lon="6.11102">
        <ele>898.59997558594</ele>
        <time>2019-04-18T10:34:32.000Z</time>
      </trkpt>
      <trkpt lat="46.04657" lon="6.11125">
        <ele>901</ele>
        <time>2019-04-18T10:34:38.000Z</time>
      </trkpt>
      <trkpt lat="46.04652" lon="6.11141">
        <ele>901.79998779297</ele>
        <time>2019-04-18T10:34:43.000Z</time>
      </trkpt>
      <trkpt lat="46.04647" lon="6.11151">
        <ele>901.59997558594</ele>
        <time>2019-04-18T10:34:47.000Z</time>
      </trkpt>
      <trkpt lat="46.04638" lon="6.11169">
        <ele>901.40002441406</ele>
        <time>2019-04-18T10:34:52.000Z</time>
      </trkpt>
      <trkpt lat="46.04635" lon="6.11175">
        <ele>901.20001220703</ele>
        <time>2019-04-18T10:34:54.000Z</time>
      </trkpt>
      <trkpt lat="46.04632" lon="6.1118">
        <ele>901.20001220703</ele>
        <time>2019-04-18T10:34:56.000Z</time>
      </trkpt>
      <trkpt lat="46.04631" lon="6.11183">
        <ele>901.20001220703</ele>
        <time>2019-04-18T10:34:57.000Z</time>
      </trkpt>
      <trkpt lat="46.04629" lon="6.11189">
        <ele>901.40002441406</ele>
        <time>2019-04-18T10:34:59.000Z</time>
      </trkpt>
      <trkpt lat="46.04625" lon="6.11211">
        <ele>902.59997558594</ele>
        <time>2019-04-18T10:35:04.000Z</time>
      </trkpt>
      <trkpt lat="46.04621" lon="6.11232">
        <ele>902.79998779297</ele>
        <time>2019-04-18T10:35:09.000Z</time>
      </trkpt>
      <trkpt lat="46.04619" lon="6.11243">
        <ele>902.40002441406</ele>
        <time>2019-04-18T10:35:12.000Z</time>
      </trkpt>
      <trkpt lat="46.04616" lon="6.11266">
        <ele>902.20001220703</ele>
        <time>2019-04-18T10:35:17.000Z</time>
      </trkpt>
      <trkpt lat="46.0462" lon="6.11285">
        <ele>903.79998779297</ele>
        <time>2019-04-18T10:35:22.000Z</time>
      </trkpt>
      <trkpt lat="46.04625" lon="6.11304">
        <ele>905.40002441406</ele>
        <time>2019-04-18T10:35:27.000Z</time>
      </trkpt>
      <trkpt lat="46.04629" lon="6.11322">
        <ele>906.59997558594</ele>
        <time>2019-04-18T10:35:32.000Z</time>
      </trkpt>
      <trkpt lat="46.04633" lon="6.11341">
        <ele>907.59997558594</ele>
        <time>2019-04-18T10:35:37.000Z</time>
      </trkpt>
      <trkpt lat="46.04634" lon="6.11362">
        <ele>907.79998779297</ele>
        <time>2019-04-18T10:35:43.000Z</time>
      </trkpt>
      <trkpt lat="46.04632" lon="6.11389">
        <ele>907.79998779297</ele>
        <time>2019-04-18T10:35:49.000Z</time>
      </trkpt>
      <trkpt lat="46.0463" lon="6.11412">
        <ele>908.20001220703</ele>
        <time>2019-04-18T10:35:55.000Z</time>
      </trkpt>
      <trkpt lat="46.04633" lon="6.11439">
        <ele>909.20001220703</ele>
        <time>2019-04-18T10:36:02.000Z</time>
      </trkpt>
      <trkpt lat="46.04639" lon="6.11457">
        <ele>910.79998779297</ele>
        <time>2019-04-18T10:36:07.000Z</time>
      </trkpt>
      <trkpt lat="46.0465" lon="6.11462">
        <ele>913.40002441406</ele>
        <time>2019-04-18T10:36:12.000Z</time>
      </trkpt>
      <trkpt lat="46.04664" lon="6.11453">
        <ele>916.40002441406</ele>
        <time>2019-04-18T10:36:17.000Z</time>
      </trkpt>
      <trkpt lat="46.04675" lon="6.11441">
        <ele>919</ele>
        <time>2019-04-18T10:36:21.000Z</time>
      </trkpt>
      <trkpt lat="46.04674" lon="6.11412">
        <ele>918.59997558594</ele>
        <time>2019-04-18T10:36:27.000Z</time>
      </trkpt>
      <trkpt lat="46.04668" lon="6.1138">
        <ele>917.40002441406</ele>
        <time>2019-04-18T10:36:33.000Z</time>
      </trkpt>
      <trkpt lat="46.04662" lon="6.1135">
        <ele>915.59997558594</ele>
        <time>2019-04-18T10:36:39.000Z</time>
      </trkpt>
      <trkpt lat="46.04657" lon="6.11321">
        <ele>914.20001220703</ele>
        <time>2019-04-18T10:36:44.000Z</time>
      </trkpt>
      <trkpt lat="46.0466" lon="6.11286">
        <ele>914.79998779297</ele>
        <time>2019-04-18T10:36:51.000Z</time>
      </trkpt>
      <trkpt lat="46.04667" lon="6.11267">
        <ele>916.20001220703</ele>
        <time>2019-04-18T10:36:56.000Z</time>
      </trkpt>
      <trkpt lat="46.04675" lon="6.11254">
        <ele>918</ele>
        <time>2019-04-18T10:37:00.000Z</time>
      </trkpt>
      <trkpt lat="46.04695" lon="6.11237">
        <ele>921</ele>
        <time>2019-04-18T10:37:06.000Z</time>
      </trkpt>
      <trkpt lat="46.0471" lon="6.11215">
        <ele>922.20001220703</ele>
        <time>2019-04-18T10:37:12.000Z</time>
      </trkpt>
      <trkpt lat="46.04719" lon="6.11196">
        <ele>922.20001220703</ele>
        <time>2019-04-18T10:37:16.000Z</time>
      </trkpt>
      <trkpt lat="46.04727" lon="6.11179">
        <ele>922</ele>
        <time>2019-04-18T10:37:21.000Z</time>
      </trkpt>
      <trkpt lat="46.04734" lon="6.11163">
        <ele>922.20001220703</ele>
        <time>2019-04-18T10:37:26.000Z</time>
      </trkpt>
      <trkpt lat="46.04742" lon="6.11155">
        <ele>923.20001220703</ele>
        <time>2019-04-18T10:37:30.000Z</time>
      </trkpt>
      <trkpt lat="46.04757" lon="6.11143">
        <ele>925</ele>
        <time>2019-04-18T10:37:36.000Z</time>
      </trkpt>
      <trkpt lat="46.04776" lon="6.11127">
        <ele>927.79998779297</ele>
        <time>2019-04-18T10:37:43.000Z</time>
      </trkpt>
      <trkpt lat="46.04789" lon="6.1111">
        <ele>929.20001220703</ele>
        <time>2019-04-18T10:37:49.000Z</time>
      </trkpt>
      <trkpt lat="46.04802" lon="6.11086">
        <ele>929.79998779297</ele>
        <time>2019-04-18T10:37:55.000Z</time>
      </trkpt>
      <trkpt lat="46.0481" lon="6.1107">
        <ele>930</ele>
        <time>2019-04-18T10:38:00.000Z</time>
      </trkpt>
      <trkpt lat="46.04816" lon="6.11058">
        <ele>930.40002441406</ele>
        <time>2019-04-18T10:38:05.000Z</time>
      </trkpt>
      <trkpt lat="46.04824" lon="6.11042">
        <ele>931.20001220703</ele>
        <time>2019-04-18T10:38:11.000Z</time>
      </trkpt>
      <trkpt lat="46.04837" lon="6.11028">
        <ele>933.20001220703</ele>
        <time>2019-04-18T10:38:17.000Z</time>
      </trkpt>
      <trkpt lat="46.0485" lon="6.11015">
        <ele>935.40002441406</ele>
        <time>2019-04-18T10:38:23.000Z</time>
      </trkpt>
      <trkpt lat="46.0486" lon="6.11005">
        <ele>936.40002441406</ele>
        <time>2019-04-18T10:38:28.000Z</time>
      </trkpt>
      <trkpt lat="46.04875" lon="6.10985">
        <ele>937.20001220703</ele>
        <time>2019-04-18T10:38:35.000Z</time>
      </trkpt>
      <trkpt lat="46.04891" lon="6.10962">
        <ele>938</ele>
        <time>2019-04-18T10:38:43.000Z</time>
      </trkpt>
      <trkpt lat="46.04902" lon="6.10948">
        <ele>937.20001220703</ele>
        <time>2019-04-18T10:38:48.000Z</time>
      </trkpt>
      <trkpt lat="46.04918" lon="6.10939">
        <ele>937.20001220703</ele>
        <time>2019-04-18T10:38:55.000Z</time>
      </trkpt>
      <trkpt lat="46.04925" lon="6.1094">
        <ele>938</ele>
        <time>2019-04-18T10:38:59.000Z</time>
      </trkpt>
      <trkpt lat="46.04928" lon="6.1094">
        <ele>938</ele>
        <time>2019-04-18T10:39:00.000Z</time>
      </trkpt>
      <trkpt lat="46.0493" lon="6.1094">
        <ele>938.40002441406</ele>
        <time>2019-04-18T10:39:01.000Z</time>
      </trkpt>
      <trkpt lat="46.04939" lon="6.10941">
        <ele>939</ele>
        <time>2019-04-18T10:39:04.000Z</time>
      </trkpt>
      <trkpt lat="46.04949" lon="6.10948">
        <ele>940.59997558594</ele>
        <time>2019-04-18T10:39:08.000Z</time>
      </trkpt>
      <trkpt lat="46.04952" lon="6.1095">
        <ele>941.20001220703</ele>
        <time>2019-04-18T10:39:10.000Z</time>
      </trkpt>
      <trkpt lat="46.04965" lon="6.10958">
        <ele>943.40002441406</ele>
        <time>2019-04-18T10:39:15.000Z</time>
      </trkpt>
      <trkpt lat="46.04973" lon="6.10963">
        <ele>944.59997558594</ele>
        <time>2019-04-18T10:39:18.000Z</time>
      </trkpt>
      <trkpt lat="46.04979" lon="6.10967">
        <ele>945.40002441406</ele>
        <time>2019-04-18T10:39:20.000Z</time>
      </trkpt>
      <trkpt lat="46.04983" lon="6.1097">
        <ele>946</ele>
        <time>2019-04-18T10:39:22.000Z</time>
      </trkpt>
      <trkpt lat="46.04987" lon="6.10972">
        <ele>946.20001220703</ele>
        <time>2019-04-18T10:39:24.000Z</time>
      </trkpt>
      <trkpt lat="46.05" lon="6.10981">
        <ele>948</ele>
        <time>2019-04-18T10:39:29.000Z</time>
      </trkpt>
      <trkpt lat="46.05013" lon="6.10989">
        <ele>950.20001220703</ele>
        <time>2019-04-18T10:39:36.000Z</time>
      </trkpt>
      <trkpt lat="46.05029" lon="6.10996">
        <ele>952.20001220703</ele>
        <time>2019-04-18T10:39:42.000Z</time>
      </trkpt>
      <trkpt lat="46.05043" lon="6.1099">
        <ele>952</ele>
        <time>2019-04-18T10:39:46.000Z</time>
      </trkpt>
      <trkpt lat="46.05045" lon="6.10986">
        <ele>951.40002441406</ele>
        <time>2019-04-18T10:39:47.000Z</time>
      </trkpt>
      <trkpt lat="46.05046" lon="6.10975">
        <ele>950.20001220703</ele>
        <time>2019-04-18T10:39:49.000Z</time>
      </trkpt>
      <trkpt lat="46.05051" lon="6.10947">
        <ele>950.20001220703</ele>
        <time>2019-04-18T10:39:55.000Z</time>
      </trkpt>
      <trkpt lat="46.05048" lon="6.10939">
        <ele>949.79998779297</ele>
        <time>2019-04-18T10:40:00.000Z</time>
      </trkpt>
      <trkpt lat="46.05044" lon="6.10933">
        <ele>949.40002441406</ele>
        <time>2019-04-18T10:40:02.000Z</time>
      </trkpt>
      <trkpt lat="46.05039" lon="6.10926">
        <ele>948.59997558594</ele>
        <time>2019-04-18T10:40:04.000Z</time>
      </trkpt>
      <trkpt lat="46.05018" lon="6.10896">
        <ele>946</ele>
        <time>2019-04-18T10:40:12.000Z</time>
      </trkpt>
      <trkpt lat="46.05018" lon="6.10873">
        <ele>946.59997558594</ele>
        <time>2019-04-18T10:40:18.000Z</time>
      </trkpt>
      <trkpt lat="46.05025" lon="6.1084">
        <ele>948.20001220703</ele>
        <time>2019-04-18T10:40:26.000Z</time>
      </trkpt>
      <trkpt lat="46.05032" lon="6.10823">
        <ele>949.20001220703</ele>
        <time>2019-04-18T10:40:31.000Z</time>
      </trkpt>
      <trkpt lat="46.05046" lon="6.10812">
        <ele>951.20001220703</ele>
        <time>2019-04-18T10:40:37.000Z</time>
      </trkpt>
      <trkpt lat="46.05068" lon="6.10805">
        <ele>953.79998779297</ele>
        <time>2019-04-18T10:40:45.000Z</time>
      </trkpt>
      <trkpt lat="46.05089" lon="6.10797">
        <ele>956</ele>
        <time>2019-04-18T10:40:53.000Z</time>
      </trkpt>
      <trkpt lat="46.05104" lon="6.1079">
        <ele>957.20001220703</ele>
        <time>2019-04-18T10:40:59.000Z</time>
      </trkpt>
      <trkpt lat="46.05112" lon="6.10768">
        <ele>958</ele>
        <time>2019-04-18T10:41:05.000Z</time>
      </trkpt>
      <trkpt lat="46.05112" lon="6.10743">
        <ele>958</ele>
        <time>2019-04-18T10:41:11.000Z</time>
      </trkpt>
      <trkpt lat="46.05111" lon="6.1072">
        <ele>958</ele>
        <time>2019-04-18T10:41:16.000Z</time>
      </trkpt>
      <trkpt lat="46.05109" lon="6.10694">
        <ele>958.40002441406</ele>
        <time>2019-04-18T10:41:22.000Z</time>
      </trkpt>
      <trkpt lat="46.0511" lon="6.10662">
        <ele>960.79998779297</ele>
        <time>2019-04-18T10:41:29.000Z</time>
      </trkpt>
      <trkpt lat="46.05121" lon="6.10635">
        <ele>963.79998779297</ele>
        <time>2019-04-18T10:41:36.000Z</time>
      </trkpt>
      <trkpt lat="46.05136" lon="6.10606">
        <ele>968.20001220703</ele>
        <time>2019-04-18T10:41:45.000Z</time>
      </trkpt>
      <trkpt lat="46.05137" lon="6.10587">
        <ele>969.40002441406</ele>
        <time>2019-04-18T10:41:50.000Z</time>
      </trkpt>
      <trkpt lat="46.05134" lon="6.10565">
        <ele>969.79998779297</ele>
        <time>2019-04-18T10:41:56.000Z</time>
      </trkpt>
      <trkpt lat="46.05131" lon="6.10534">
        <ele>970</ele>
        <time>2019-04-18T10:42:03.000Z</time>
      </trkpt>
      <trkpt lat="46.05127" lon="6.10504">
        <ele>970.20001220703</ele>
        <time>2019-04-18T10:42:10.000Z</time>
      </trkpt>
      <trkpt lat="46.05125" lon="6.10484">
        <ele>970.40002441406</ele>
        <time>2019-04-18T10:42:15.000Z</time>
      </trkpt>
      <trkpt lat="46.05121" lon="6.10457">
        <ele>971.20001220703</ele>
        <time>2019-04-18T10:42:22.000Z</time>
      </trkpt>
      <trkpt lat="46.05116" lon="6.1042">
        <ele>970.40002441406</ele>
        <time>2019-04-18T10:42:31.000Z</time>
      </trkpt>
      <trkpt lat="46.05124" lon="6.10406">
        <ele>971.79998779297</ele>
        <time>2019-04-18T10:42:36.000Z</time>
      </trkpt>
      <trkpt lat="46.05137" lon="6.10399">
        <ele>974</ele>
        <time>2019-04-18T10:42:41.000Z</time>
      </trkpt>
      <trkpt lat="46.05155" lon="6.10401">
        <ele>977.79998779297</ele>
        <time>2019-04-18T10:42:47.000Z</time>
      </trkpt>
      <trkpt lat="46.05165" lon="6.10422">
        <ele>979.79998779297</ele>
        <time>2019-04-18T10:42:53.000Z</time>
      </trkpt>
      <trkpt lat="46.0517" lon="6.1045">
        <ele>980.79998779297</ele>
        <time>2019-04-18T10:43:01.000Z</time>
      </trkpt>
      <trkpt lat="46.05174" lon="6.10472">
        <ele>981.59997558594</ele>
        <time>2019-04-18T10:43:07.000Z</time>
      </trkpt>
      <trkpt lat="46.05178" lon="6.10496">
        <ele>982.20001220703</ele>
        <time>2019-04-18T10:43:13.000Z</time>
      </trkpt>
      <trkpt lat="46.05185" lon="6.10516">
        <ele>983.20001220703</ele>
        <time>2019-04-18T10:43:18.000Z</time>
      </trkpt>
      <trkpt lat="46.05193" lon="6.10539">
        <ele>984.40002441406</ele>
        <time>2019-04-18T10:43:24.000Z</time>
      </trkpt>
      <trkpt lat="46.05206" lon="6.10563">
        <ele>986.20001220703</ele>
        <time>2019-04-18T10:43:31.000Z</time>
      </trkpt>
      <trkpt lat="46.05219" lon="6.10582">
        <ele>987.40002441406</ele>
        <time>2019-04-18T10:43:38.000Z</time>
      </trkpt>
      <trkpt lat="46.05232" lon="6.10597">
        <ele>988.79998779297</ele>
        <time>2019-04-18T10:43:44.000Z</time>
      </trkpt>
      <trkpt lat="46.0525" lon="6.10612">
        <ele>990.20001220703</ele>
        <time>2019-04-18T10:43:52.000Z</time>
      </trkpt>
      <trkpt lat="46.05263" lon="6.10623">
        <ele>991.20001220703</ele>
        <time>2019-04-18T10:43:58.000Z</time>
      </trkpt>
      <trkpt lat="46.05275" lon="6.10632">
        <ele>992</ele>
        <time>2019-04-18T10:44:04.000Z</time>
      </trkpt>
      <trkpt lat="46.05289" lon="6.10643">
        <ele>993</ele>
        <time>2019-04-18T10:44:10.000Z</time>
      </trkpt>
      <trkpt lat="46.05304" lon="6.10655">
        <ele>995</ele>
        <time>2019-04-18T10:44:16.000Z</time>
      </trkpt>
      <trkpt lat="46.05323" lon="6.10674">
        <ele>997.79998779297</ele>
        <time>2019-04-18T10:44:24.000Z</time>
      </trkpt>
      <trkpt lat="46.05329" lon="6.10695">
        <ele>998.40002441406</ele>
        <time>2019-04-18T10:44:29.000Z</time>
      </trkpt>
      <trkpt lat="46.05329" lon="6.10715">
        <ele>998.20001220703</ele>
        <time>2019-04-18T10:44:34.000Z</time>
      </trkpt>
      <trkpt lat="46.05329" lon="6.10739">
        <ele>997.79998779297</ele>
        <time>2019-04-18T10:44:40.000Z</time>
      </trkpt>
      <trkpt lat="46.0533" lon="6.10763">
        <ele>998</ele>
        <time>2019-04-18T10:44:46.000Z</time>
      </trkpt>
      <trkpt lat="46.0533" lon="6.10789">
        <ele>998.79998779297</ele>
        <time>2019-04-18T10:44:53.000Z</time>
      </trkpt>
      <trkpt lat="46.05331" lon="6.10813">
        <ele>999.20001220703</ele>
        <time>2019-04-18T10:44:59.000Z</time>
      </trkpt>
      <trkpt lat="46.05335" lon="6.10842">
        <ele>998.59997558594</ele>
        <time>2019-04-18T10:45:05.000Z</time>
      </trkpt>
      <trkpt lat="46.05349" lon="6.10857">
        <ele>999.59997558594</ele>
        <time>2019-04-18T10:45:10.000Z</time>
      </trkpt>
      <trkpt lat="46.05365" lon="6.10857">
        <ele>1001.4000244141</ele>
        <time>2019-04-18T10:45:16.000Z</time>
      </trkpt>
      <trkpt lat="46.05385" lon="6.10851">
        <ele>1003.5999755859</ele>
        <time>2019-04-18T10:45:23.000Z</time>
      </trkpt>
      <trkpt lat="46.05408" lon="6.10838">
        <ele>1006.4000244141</ele>
        <time>2019-04-18T10:45:31.000Z</time>
      </trkpt>
      <trkpt lat="46.05424" lon="6.10831">
        <ele>1007.5999755859</ele>
        <time>2019-04-18T10:45:36.000Z</time>
      </trkpt>
      <trkpt lat="46.0544" lon="6.10826">
        <ele>1008.5999755859</ele>
        <time>2019-04-18T10:45:41.000Z</time>
      </trkpt>
      <trkpt lat="46.05461" lon="6.10818">
        <ele>1010</ele>
        <time>2019-04-18T10:45:48.000Z</time>
      </trkpt>
      <trkpt lat="46.05476" lon="6.10816">
        <ele>1011</ele>
        <time>2019-04-18T10:45:54.000Z</time>
      </trkpt>
      <trkpt lat="46.05488" lon="6.10821">
        <ele>1013.4000244141</ele>
        <time>2019-04-18T10:45:59.000Z</time>
      </trkpt>
      <trkpt lat="46.0549" lon="6.10822">
        <ele>1013.799987793</ele>
        <time>2019-04-18T10:46:00.000Z</time>
      </trkpt>
      <trkpt lat="46.05499" lon="6.10831">
        <ele>1015.4000244141</ele>
        <time>2019-04-18T10:46:03.000Z</time>
      </trkpt>
      <trkpt lat="46.05514" lon="6.10861">
        <ele>1018.200012207</ele>
        <time>2019-04-18T10:46:11.000Z</time>
      </trkpt>
      <trkpt lat="46.05516" lon="6.10875">
        <ele>1018.4000244141</ele>
        <time>2019-04-18T10:46:15.000Z</time>
      </trkpt>
      <trkpt lat="46.05518" lon="6.10883">
        <ele>1018.5999755859</ele>
        <time>2019-04-18T10:46:17.000Z</time>
      </trkpt>
      <trkpt lat="46.05519" lon="6.1089">
        <ele>1018.799987793</ele>
        <time>2019-04-18T10:46:19.000Z</time>
      </trkpt>
      <trkpt lat="46.05522" lon="6.1091">
        <ele>1019.4000244141</ele>
        <time>2019-04-18T10:46:24.000Z</time>
      </trkpt>
      <trkpt lat="46.05525" lon="6.1093">
        <ele>1020</ele>
        <time>2019-04-18T10:46:30.000Z</time>
      </trkpt>
      <trkpt lat="46.05529" lon="6.10951">
        <ele>1020.799987793</ele>
        <time>2019-04-18T10:46:35.000Z</time>
      </trkpt>
      <trkpt lat="46.05536" lon="6.10976">
        <ele>1022.4000244141</ele>
        <time>2019-04-18T10:46:41.000Z</time>
      </trkpt>
      <trkpt lat="46.0554" lon="6.10986">
        <ele>1022.5999755859</ele>
        <time>2019-04-18T10:46:46.000Z</time>
      </trkpt>
      <trkpt lat="46.05545" lon="6.10989">
        <ele>1023.5999755859</ele>
        <time>2019-04-18T10:46:47.000Z</time>
      </trkpt>
      <trkpt lat="46.05553" lon="6.10994">
        <ele>1024.5999755859</ele>
        <time>2019-04-18T10:46:50.000Z</time>
      </trkpt>
      <trkpt lat="46.05567" lon="6.10992">
        <ele>1027.5999755859</ele>
        <time>2019-04-18T10:46:55.000Z</time>
      </trkpt>
      <trkpt lat="46.05578" lon="6.1098">
        <ele>1029.4000244141</ele>
        <time>2019-04-18T10:47:00.000Z</time>
      </trkpt>
      <trkpt lat="46.05583" lon="6.10958">
        <ele>1029.8000488281</ele>
        <time>2019-04-18T10:47:05.000Z</time>
      </trkpt>
      <trkpt lat="46.05584" lon="6.10937">
        <ele>1030</ele>
        <time>2019-04-18T10:47:10.000Z</time>
      </trkpt>
      <trkpt lat="46.05591" lon="6.10922">
        <ele>1030.8000488281</ele>
        <time>2019-04-18T10:47:15.000Z</time>
      </trkpt>
      <trkpt lat="46.05602" lon="6.10914">
        <ele>1032.5999755859</ele>
        <time>2019-04-18T10:47:20.000Z</time>
      </trkpt>
      <trkpt lat="46.05611" lon="6.10906">
        <ele>1034.1999511719</ele>
        <time>2019-04-18T10:47:25.000Z</time>
      </trkpt>
      <trkpt lat="46.05615" lon="6.10903">
        <ele>1034.8000488281</ele>
        <time>2019-04-18T10:47:27.000Z</time>
      </trkpt>
      <trkpt lat="46.05615" lon="6.10903">
        <ele>1034.8000488281</ele>
        <time>2019-04-18T10:47:29.000Z</time>
      </trkpt>
      <trkpt lat="46.05622" lon="6.10908">
        <ele>1035.5999755859</ele>
        <time>2019-04-18T10:47:31.000Z</time>
      </trkpt>
      <trkpt lat="46.05629" lon="6.10912">
        <ele>1036.5999755859</ele>
        <time>2019-04-18T10:47:33.000Z</time>
      </trkpt>
      <trkpt lat="46.05645" lon="6.10922">
        <ele>1038.8000488281</ele>
        <time>2019-04-18T10:47:39.000Z</time>
      </trkpt>
      <trkpt lat="46.05648" lon="6.10925">
        <ele>1039.4000244141</ele>
        <time>2019-04-18T10:47:41.000Z</time>
      </trkpt>
      <trkpt lat="46.05653" lon="6.10924">
        <ele>1040.1999511719</ele>
        <time>2019-04-18T10:47:43.000Z</time>
      </trkpt>
      <trkpt lat="46.05656" lon="6.10923">
        <ele>1040.8000488281</ele>
        <time>2019-04-18T10:47:44.000Z</time>
      </trkpt>
      <trkpt lat="46.05668" lon="6.10916">
        <ele>1043.1999511719</ele>
        <time>2019-04-18T10:47:48.000Z</time>
      </trkpt>
      <trkpt lat="46.05672" lon="6.10891">
        <ele>1043.8000488281</ele>
        <time>2019-04-18T10:47:54.000Z</time>
      </trkpt>
      <trkpt lat="46.05675" lon="6.10873">
        <ele>1046</ele>
        <time>2019-04-18T10:47:58.000Z</time>
      </trkpt>
      <trkpt lat="46.05685" lon="6.10858">
        <ele>1049</ele>
        <time>2019-04-18T10:48:02.000Z</time>
      </trkpt>
      <trkpt lat="46.05691" lon="6.1085">
        <ele>1050.5999755859</ele>
        <time>2019-04-18T10:48:08.000Z</time>
      </trkpt>
      <trkpt lat="46.05693" lon="6.1085">
        <ele>1051</ele>
        <time>2019-04-18T10:48:09.000Z</time>
      </trkpt>
      <trkpt lat="46.05698" lon="6.10849">
        <ele>1051.5999755859</ele>
        <time>2019-04-18T10:48:11.000Z</time>
      </trkpt>
      <trkpt lat="46.057" lon="6.10849">
        <ele>1052</ele>
        <time>2019-04-18T10:48:12.000Z</time>
      </trkpt>
      <trkpt lat="46.05711" lon="6.10852">
        <ele>1053.1999511719</ele>
        <time>2019-04-18T10:48:16.000Z</time>
      </trkpt>
      <trkpt lat="46.05719" lon="6.1087">
        <ele>1053</ele>
        <time>2019-04-18T10:48:22.000Z</time>
      </trkpt>
      <trkpt lat="46.05719" lon="6.10895">
        <ele>1051</ele>
        <time>2019-04-18T10:48:29.000Z</time>
      </trkpt>
      <trkpt lat="46.05719" lon="6.10926">
        <ele>1051.1999511719</ele>
        <time>2019-04-18T10:48:36.000Z</time>
      </trkpt>
      <trkpt lat="46.05718" lon="6.1095">
        <ele>1051.5999755859</ele>
        <time>2019-04-18T10:48:42.000Z</time>
      </trkpt>
      <trkpt lat="46.05722" lon="6.10972">
        <ele>1052.4000244141</ele>
        <time>2019-04-18T10:48:48.000Z</time>
      </trkpt>
      <trkpt lat="46.05728" lon="6.1098">
        <ele>1053.4000244141</ele>
        <time>2019-04-18T10:48:52.000Z</time>
      </trkpt>
      <trkpt lat="46.05729" lon="6.10982">
        <ele>1053.8000488281</ele>
        <time>2019-04-18T10:48:53.000Z</time>
      </trkpt>
      <trkpt lat="46.05732" lon="6.10986">
        <ele>1054.4000244141</ele>
        <time>2019-04-18T10:48:55.000Z</time>
      </trkpt>
      <trkpt lat="46.05739" lon="6.1099">
        <ele>1056.1999511719</ele>
        <time>2019-04-18T10:48:58.000Z</time>
      </trkpt>
      <trkpt lat="46.05744" lon="6.1099">
        <ele>1057.5999755859</ele>
        <time>2019-04-18T10:49:00.000Z</time>
      </trkpt>
      <trkpt lat="46.05746" lon="6.1099">
        <ele>1058</ele>
        <time>2019-04-18T10:49:01.000Z</time>
      </trkpt>
      <trkpt lat="46.05759" lon="6.10982">
        <ele>1062.1999511719</ele>
        <time>2019-04-18T10:49:05.000Z</time>
      </trkpt>
      <trkpt lat="46.05763" lon="6.10979">
        <ele>1063.4000244141</ele>
        <time>2019-04-18T10:49:09.000Z</time>
      </trkpt>
      <trkpt lat="46.05763" lon="6.10964">
        <ele>1063.5999755859</ele>
        <time>2019-04-18T10:49:11.000Z</time>
      </trkpt>
      <trkpt lat="46.05763" lon="6.10956">
        <ele>1063.5999755859</ele>
        <time>2019-04-18T10:49:13.000Z</time>
      </trkpt>
      <trkpt lat="46.05764" lon="6.10935">
        <ele>1063.4000244141</ele>
        <time>2019-04-18T10:49:18.000Z</time>
      </trkpt>
      <trkpt lat="46.05765" lon="6.10915">
        <ele>1063.5999755859</ele>
        <time>2019-04-18T10:49:23.000Z</time>
      </trkpt>
      <trkpt lat="46.05765" lon="6.10894">
        <ele>1063.8000488281</ele>
        <time>2019-04-18T10:49:28.000Z</time>
      </trkpt>
      <trkpt lat="46.05766" lon="6.10872">
        <ele>1065.8000488281</ele>
        <time>2019-04-18T10:49:34.000Z</time>
      </trkpt>
      <trkpt lat="46.05762" lon="6.10857">
        <ele>1065.8000488281</ele>
        <time>2019-04-18T10:49:40.000Z</time>
      </trkpt>
      <trkpt lat="46.05755" lon="6.10839">
        <ele>1065.4000244141</ele>
        <time>2019-04-18T10:49:45.000Z</time>
      </trkpt>
      <trkpt lat="46.05746" lon="6.10814">
        <ele>1064</ele>
        <time>2019-04-18T10:49:50.000Z</time>
      </trkpt>
      <trkpt lat="46.05745" lon="6.1081">
        <ele>1063.8000488281</ele>
        <time>2019-04-18T10:49:51.000Z</time>
      </trkpt>
      <trkpt lat="46.0574" lon="6.10796">
        <ele>1063.8000488281</ele>
        <time>2019-04-18T10:49:55.000Z</time>
      </trkpt>
      <trkpt lat="46.05738" lon="6.10775">
        <ele>1065.1999511719</ele>
        <time>2019-04-18T10:50:01.000Z</time>
      </trkpt>
      <trkpt lat="46.05737" lon="6.10756">
        <ele>1066.1999511719</ele>
        <time>2019-04-18T10:50:06.000Z</time>
      </trkpt>
      <trkpt lat="46.05735" lon="6.10728">
        <ele>1067.8000488281</ele>
        <time>2019-04-18T10:50:13.000Z</time>
      </trkpt>
      <trkpt lat="46.05733" lon="6.10714">
        <ele>1068.1999511719</ele>
        <time>2019-04-18T10:50:16.000Z</time>
      </trkpt>
      <trkpt lat="46.05733" lon="6.10711">
        <ele>1068.1999511719</ele>
        <time>2019-04-18T10:50:17.000Z</time>
      </trkpt>
      <trkpt lat="46.05733" lon="6.10704">
        <ele>1068.4000244141</ele>
        <time>2019-04-18T10:50:19.000Z</time>
      </trkpt>
      <trkpt lat="46.05732" lon="6.10694">
        <ele>1068.8000488281</ele>
        <time>2019-04-18T10:50:22.000Z</time>
      </trkpt>
      <trkpt lat="46.05732" lon="6.10692">
        <ele>1068.8000488281</ele>
        <time>2019-04-18T10:50:26.000Z</time>
      </trkpt>
      <trkpt lat="46.05725" lon="6.10677">
        <ele>1068.1999511719</ele>
        <time>2019-04-18T10:50:27.000Z</time>
      </trkpt>
      <trkpt lat="46.05722" lon="6.1067">
        <ele>1068</ele>
        <time>2019-04-18T10:50:29.000Z</time>
      </trkpt>
      <trkpt lat="46.0572" lon="6.10667">
        <ele>1067.8000488281</ele>
        <time>2019-04-18T10:50:30.000Z</time>
      </trkpt>
      <trkpt lat="46.05713" lon="6.10648">
        <ele>1067.4000244141</ele>
        <time>2019-04-18T10:50:35.000Z</time>
      </trkpt>
      <trkpt lat="46.05711" lon="6.10636">
        <ele>1067.5999755859</ele>
        <time>2019-04-18T10:50:38.000Z</time>
      </trkpt>
      <trkpt lat="46.05711" lon="6.10633">
        <ele>1067.5999755859</ele>
        <time>2019-04-18T10:50:39.000Z</time>
      </trkpt>
      <trkpt lat="46.05717" lon="6.10616">
        <ele>1069.4000244141</ele>
        <time>2019-04-18T10:50:43.000Z</time>
      </trkpt>
      <trkpt lat="46.05725" lon="6.10606">
        <ele>1071.5999755859</ele>
        <time>2019-04-18T10:50:47.000Z</time>
      </trkpt>
      <trkpt lat="46.0573" lon="6.10604">
        <ele>1072.8000488281</ele>
        <time>2019-04-18T10:50:52.000Z</time>
      </trkpt>
      <trkpt lat="46.05738" lon="6.10603">
        <ele>1074.4000244141</ele>
        <time>2019-04-18T10:50:56.000Z</time>
      </trkpt>
      <trkpt lat="46.0575" lon="6.10609">
        <ele>1076.4000244141</ele>
        <time>2019-04-18T10:51:00.000Z</time>
      </trkpt>
      <trkpt lat="46.05755" lon="6.10614">
        <ele>1077.4000244141</ele>
        <time>2019-04-18T10:51:01.000Z</time>
      </trkpt>
      <trkpt lat="46.05763" lon="6.10626">
        <ele>1078.4000244141</ele>
        <time>2019-04-18T10:51:05.000Z</time>
      </trkpt>
      <trkpt lat="46.05765" lon="6.10629">
        <ele>1078.5999755859</ele>
        <time>2019-04-18T10:51:06.000Z</time>
      </trkpt>
      <trkpt lat="46.05776" lon="6.10646">
        <ele>1080.1999511719</ele>
        <time>2019-04-18T10:51:12.000Z</time>
      </trkpt>
      <trkpt lat="46.05791" lon="6.10669">
        <ele>1082</ele>
        <time>2019-04-18T10:51:19.000Z</time>
      </trkpt>
      <trkpt lat="46.05798" lon="6.10687">
        <ele>1082.5999755859</ele>
        <time>2019-04-18T10:51:24.000Z</time>
      </trkpt>
      <trkpt lat="46.05801" lon="6.10693">
        <ele>1083</ele>
        <time>2019-04-18T10:51:26.000Z</time>
      </trkpt>
      <trkpt lat="46.05802" lon="6.10695">
        <ele>1083</ele>
        <time>2019-04-18T10:51:27.000Z</time>
      </trkpt>
      <trkpt lat="46.05805" lon="6.10703">
        <ele>1083.4000244141</ele>
        <time>2019-04-18T10:51:30.000Z</time>
      </trkpt>
      <trkpt lat="46.05806" lon="6.10707">
        <ele>1083.1999511719</ele>
        <time>2019-04-18T10:51:31.000Z</time>
      </trkpt>
      <trkpt lat="46.05809" lon="6.1073">
        <ele>1082.8000488281</ele>
        <time>2019-04-18T10:51:37.000Z</time>
      </trkpt>
      <trkpt lat="46.05812" lon="6.10749">
        <ele>1082.8000488281</ele>
        <time>2019-04-18T10:51:42.000Z</time>
      </trkpt>
      <trkpt lat="46.05814" lon="6.10767">
        <ele>1082.8000488281</ele>
        <time>2019-04-18T10:51:47.000Z</time>
      </trkpt>
      <trkpt lat="46.05815" lon="6.10774">
        <ele>1082.8000488281</ele>
        <time>2019-04-18T10:51:49.000Z</time>
      </trkpt>
      <trkpt lat="46.05817" lon="6.10784">
        <ele>1082.8000488281</ele>
        <time>2019-04-18T10:51:52.000Z</time>
      </trkpt>
      <trkpt lat="46.05824" lon="6.10804">
        <ele>1083.8000488281</ele>
        <time>2019-04-18T10:51:57.000Z</time>
      </trkpt>
      <trkpt lat="46.05826" lon="6.10808">
        <ele>1084</ele>
        <time>2019-04-18T10:51:58.000Z</time>
      </trkpt>
      <trkpt lat="46.05828" lon="6.10813">
        <ele>1084.4000244141</ele>
        <time>2019-04-18T10:52:00.000Z</time>
      </trkpt>
      <trkpt lat="46.05828" lon="6.10815">
        <ele>1084.4000244141</ele>
        <time>2019-04-18T10:52:01.000Z</time>
      </trkpt>
      <trkpt lat="46.0583" lon="6.10818">
        <ele>1084.5999755859</ele>
        <time>2019-04-18T10:52:02.000Z</time>
      </trkpt>
      <trkpt lat="46.05834" lon="6.10829">
        <ele>1085.1999511719</ele>
        <time>2019-04-18T10:52:05.000Z</time>
      </trkpt>
      <trkpt lat="46.05841" lon="6.10847">
        <ele>1086.4000244141</ele>
        <time>2019-04-18T10:52:11.000Z</time>
      </trkpt>
      <trkpt lat="46.05842" lon="6.10849">
        <ele>1086.4000244141</ele>
        <time>2019-04-18T10:52:12.000Z</time>
      </trkpt>
      <trkpt lat="46.05843" lon="6.10853">
        <ele>1086.5999755859</ele>
        <time>2019-04-18T10:52:14.000Z</time>
      </trkpt>
      <trkpt lat="46.05849" lon="6.10867">
        <ele>1087.4000244141</ele>
        <time>2019-04-18T10:52:18.000Z</time>
      </trkpt>
      <trkpt lat="46.0585" lon="6.10869">
        <ele>1087.5999755859</ele>
        <time>2019-04-18T10:52:19.000Z</time>
      </trkpt>
      <trkpt lat="46.05855" lon="6.10881">
        <ele>1088.4000244141</ele>
        <time>2019-04-18T10:52:22.000Z</time>
      </trkpt>
      <trkpt lat="46.05863" lon="6.10898">
        <ele>1089.5999755859</ele>
        <time>2019-04-18T10:52:26.000Z</time>
      </trkpt>
      <trkpt lat="46.05873" lon="6.10922">
        <ele>1091.1999511719</ele>
        <time>2019-04-18T10:52:32.000Z</time>
      </trkpt>
      <trkpt lat="46.05881" lon="6.10941">
        <ele>1092.4000244141</ele>
        <time>2019-04-18T10:52:38.000Z</time>
      </trkpt>
      <trkpt lat="46.05886" lon="6.10952">
        <ele>1093.1999511719</ele>
        <time>2019-04-18T10:52:42.000Z</time>
      </trkpt>
      <trkpt lat="46.05887" lon="6.10955">
        <ele>1093.4000244141</ele>
        <time>2019-04-18T10:52:43.000Z</time>
      </trkpt>
      <trkpt lat="46.05889" lon="6.1096">
        <ele>1093.8000488281</ele>
        <time>2019-04-18T10:52:45.000Z</time>
      </trkpt>
      <trkpt lat="46.0589" lon="6.10963">
        <ele>1094</ele>
        <time>2019-04-18T10:52:47.000Z</time>
      </trkpt>
      <trkpt lat="46.05918" lon="6.10971">
        <ele>1098.1999511719</ele>
        <time>2019-04-18T10:52:52.000Z</time>
      </trkpt>
      <trkpt lat="46.05924" lon="6.10937">
        <ele>1100.4000244141</ele>
        <time>2019-04-18T10:52:59.000Z</time>
      </trkpt>
      <trkpt lat="46.05923" lon="6.10915">
        <ele>1101</ele>
        <time>2019-04-18T10:53:04.000Z</time>
      </trkpt>
      <trkpt lat="46.05919" lon="6.10897">
        <ele>1101.4000244141</ele>
        <time>2019-04-18T10:53:08.000Z</time>
      </trkpt>
      <trkpt lat="46.05912" lon="6.10867">
        <ele>1101.1999511719</ele>
        <time>2019-04-18T10:53:15.000Z</time>
      </trkpt>
      <trkpt lat="46.05909" lon="6.10855">
        <ele>1101.1999511719</ele>
        <time>2019-04-18T10:53:18.000Z</time>
      </trkpt>
      <trkpt lat="46.05908" lon="6.10852">
        <ele>1101.1999511719</ele>
        <time>2019-04-18T10:53:19.000Z</time>
      </trkpt>
      <trkpt lat="46.05906" lon="6.10833">
        <ele>1101.4000244141</ele>
        <time>2019-04-18T10:53:23.000Z</time>
      </trkpt>
      <trkpt lat="46.05907" lon="6.10829">
        <ele>1101.5999755859</ele>
        <time>2019-04-18T10:53:24.000Z</time>
      </trkpt>
      <trkpt lat="46.05908" lon="6.10802">
        <ele>1103.1999511719</ele>
        <time>2019-04-18T10:53:30.000Z</time>
      </trkpt>
      <trkpt lat="46.0591" lon="6.10777">
        <ele>1104.1999511719</ele>
        <time>2019-04-18T10:53:36.000Z</time>
      </trkpt>
      <trkpt lat="46.05912" lon="6.10747">
        <ele>1105.8000488281</ele>
        <time>2019-04-18T10:53:43.000Z</time>
      </trkpt>
      <trkpt lat="46.05913" lon="6.10724">
        <ele>1106.8000488281</ele>
        <time>2019-04-18T10:53:49.000Z</time>
      </trkpt>
      <trkpt lat="46.05915" lon="6.10698">
        <ele>1108.4000244141</ele>
        <time>2019-04-18T10:53:55.000Z</time>
      </trkpt>
      <trkpt lat="46.05915" lon="6.10678">
        <ele>1109.4000244141</ele>
        <time>2019-04-18T10:54:00.000Z</time>
      </trkpt>
      <trkpt lat="46.05914" lon="6.10674">
        <ele>1109.4000244141</ele>
        <time>2019-04-18T10:54:01.000Z</time>
      </trkpt>
      <trkpt lat="46.05911" lon="6.10646">
        <ele>1110.1999511719</ele>
        <time>2019-04-18T10:54:08.000Z</time>
      </trkpt>
      <trkpt lat="46.05904" lon="6.10626">
        <ele>1109.1999511719</ele>
        <time>2019-04-18T10:54:13.000Z</time>
      </trkpt>
      <trkpt lat="46.05899" lon="6.10601">
        <ele>1108.5999755859</ele>
        <time>2019-04-18T10:54:19.000Z</time>
      </trkpt>
      <trkpt lat="46.05898" lon="6.10586">
        <ele>1108.8000488281</ele>
        <time>2019-04-18T10:54:24.000Z</time>
      </trkpt>
      <trkpt lat="46.05907" lon="6.10573">
        <ele>1110.4000244141</ele>
        <time>2019-04-18T10:54:30.000Z</time>
      </trkpt>
      <trkpt lat="46.05915" lon="6.10563">
        <ele>1110.1999511719</ele>
        <time>2019-04-18T10:54:34.000Z</time>
      </trkpt>
      <trkpt lat="46.05935" lon="6.10558">
        <ele>1112.1999511719</ele>
        <time>2019-04-18T10:54:39.000Z</time>
      </trkpt>
      <trkpt lat="46.05945" lon="6.10567">
        <ele>1113.4000244141</ele>
        <time>2019-04-18T10:54:45.000Z</time>
      </trkpt>
      <trkpt lat="46.05956" lon="6.10603">
        <ele>1117.1999511719</ele>
        <time>2019-04-18T10:54:51.000Z</time>
      </trkpt>
      <trkpt lat="46.05959" lon="6.10628">
        <ele>1119</ele>
        <time>2019-04-18T10:54:58.000Z</time>
      </trkpt>
      <trkpt lat="46.05961" lon="6.10648">
        <ele>1119</ele>
        <time>2019-04-18T10:55:04.000Z</time>
      </trkpt>
      <trkpt lat="46.05968" lon="6.10667">
        <ele>1119.4000244141</ele>
        <time>2019-04-18T10:55:09.000Z</time>
      </trkpt>
      <trkpt lat="46.05969" lon="6.1067">
        <ele>1119.4000244141</ele>
        <time>2019-04-18T10:55:10.000Z</time>
      </trkpt>
      <trkpt lat="46.05975" lon="6.10679">
        <ele>1120.1999511719</ele>
        <time>2019-04-18T10:55:12.000Z</time>
      </trkpt>
      <trkpt lat="46.05985" lon="6.10687">
        <ele>1120.8000488281</ele>
        <time>2019-04-18T10:55:17.000Z</time>
      </trkpt>
      <trkpt lat="46.05995" lon="6.10695">
        <ele>1121.5999755859</ele>
        <time>2019-04-18T10:55:22.000Z</time>
      </trkpt>
      <trkpt lat="46.06006" lon="6.10704">
        <ele>1122.1999511719</ele>
        <time>2019-04-18T10:55:27.000Z</time>
      </trkpt>
      <trkpt lat="46.06019" lon="6.10716">
        <ele>1123.1999511719</ele>
        <time>2019-04-18T10:55:33.000Z</time>
      </trkpt>
      <trkpt lat="46.06033" lon="6.10727">
        <ele>1124.1999511719</ele>
        <time>2019-04-18T10:55:38.000Z</time>
      </trkpt>
      <trkpt lat="46.06044" lon="6.10736">
        <ele>1125</ele>
        <time>2019-04-18T10:55:43.000Z</time>
      </trkpt>
      <trkpt lat="46.06056" lon="6.10746">
        <ele>1126.1999511719</ele>
        <time>2019-04-18T10:55:49.000Z</time>
      </trkpt>
      <trkpt lat="46.06069" lon="6.10757">
        <ele>1127</ele>
        <time>2019-04-18T10:55:54.000Z</time>
      </trkpt>
      <trkpt lat="46.06081" lon="6.10766">
        <ele>1127.5999755859</ele>
        <time>2019-04-18T10:56:00.000Z</time>
      </trkpt>
      <trkpt lat="46.06097" lon="6.10774">
        <ele>1128.5999755859</ele>
        <time>2019-04-18T10:56:06.000Z</time>
      </trkpt>
      <trkpt lat="46.06109" lon="6.1078">
        <ele>1129.1999511719</ele>
        <time>2019-04-18T10:56:11.000Z</time>
      </trkpt>
      <trkpt lat="46.06115" lon="6.10783">
        <ele>1129.5999755859</ele>
        <time>2019-04-18T10:56:14.000Z</time>
      </trkpt>
      <trkpt lat="46.06122" lon="6.10786">
        <ele>1130</ele>
        <time>2019-04-18T10:56:16.000Z</time>
      </trkpt>
      <trkpt lat="46.06131" lon="6.1079">
        <ele>1130.1999511719</ele>
        <time>2019-04-18T10:56:19.000Z</time>
      </trkpt>
      <trkpt lat="46.06132" lon="6.10791">
        <ele>1130.1999511719</ele>
        <time>2019-04-18T10:56:20.000Z</time>
      </trkpt>
      <trkpt lat="46.06147" lon="6.10798">
        <ele>1131.1999511719</ele>
        <time>2019-04-18T10:56:25.000Z</time>
      </trkpt>
      <trkpt lat="46.06157" lon="6.10814">
        <ele>1132.8000488281</ele>
        <time>2019-04-18T10:56:30.000Z</time>
      </trkpt>
      <trkpt lat="46.06159" lon="6.10817">
        <ele>1133</ele>
        <time>2019-04-18T10:56:31.000Z</time>
      </trkpt>
      <trkpt lat="46.06164" lon="6.10826">
        <ele>1133.8000488281</ele>
        <time>2019-04-18T10:56:34.000Z</time>
      </trkpt>
      <trkpt lat="46.06173" lon="6.10843">
        <ele>1135</ele>
        <time>2019-04-18T10:56:39.000Z</time>
      </trkpt>
      <trkpt lat="46.06179" lon="6.10852">
        <ele>1135.5999755859</ele>
        <time>2019-04-18T10:56:42.000Z</time>
      </trkpt>
      <trkpt lat="46.06181" lon="6.10855">
        <ele>1135.8000488281</ele>
        <time>2019-04-18T10:56:43.000Z</time>
      </trkpt>
      <trkpt lat="46.06193" lon="6.10878">
        <ele>1137.1999511719</ele>
        <time>2019-04-18T10:56:50.000Z</time>
      </trkpt>
      <trkpt lat="46.06203" lon="6.10895">
        <ele>1138.1999511719</ele>
        <time>2019-04-18T10:56:56.000Z</time>
      </trkpt>
      <trkpt lat="46.06212" lon="6.10912">
        <ele>1139</ele>
        <time>2019-04-18T10:57:02.000Z</time>
      </trkpt>
      <trkpt lat="46.06229" lon="6.1093">
        <ele>1140.5999755859</ele>
        <time>2019-04-18T10:57:09.000Z</time>
      </trkpt>
      <trkpt lat="46.06242" lon="6.10943">
        <ele>1142</ele>
        <time>2019-04-18T10:57:14.000Z</time>
      </trkpt>
      <trkpt lat="46.06252" lon="6.10957">
        <ele>1142.5999755859</ele>
        <time>2019-04-18T10:57:19.000Z</time>
      </trkpt>
      <trkpt lat="46.06261" lon="6.10977">
        <ele>1143</ele>
        <time>2019-04-18T10:57:25.000Z</time>
      </trkpt>
      <trkpt lat="46.06268" lon="6.10997">
        <ele>1143</ele>
        <time>2019-04-18T10:57:31.000Z</time>
      </trkpt>
      <trkpt lat="46.06269" lon="6.11">
        <ele>1143</ele>
        <time>2019-04-18T10:57:32.000Z</time>
      </trkpt>
      <trkpt lat="46.06276" lon="6.11019">
        <ele>1143.1999511719</ele>
        <time>2019-04-18T10:57:38.000Z</time>
      </trkpt>
      <trkpt lat="46.06281" lon="6.11034">
        <ele>1143.1999511719</ele>
        <time>2019-04-18T10:57:42.000Z</time>
      </trkpt>
      <trkpt lat="46.06285" lon="6.11044">
        <ele>1143.4000244141</ele>
        <time>2019-04-18T10:57:45.000Z</time>
      </trkpt>
      <trkpt lat="46.06286" lon="6.11046">
        <ele>1143.5999755859</ele>
        <time>2019-04-18T10:57:46.000Z</time>
      </trkpt>
      <trkpt lat="46.06287" lon="6.1105">
        <ele>1143.5999755859</ele>
        <time>2019-04-18T10:57:47.000Z</time>
      </trkpt>
      <trkpt lat="46.06291" lon="6.11061">
        <ele>1143.8000488281</ele>
        <time>2019-04-18T10:57:50.000Z</time>
      </trkpt>
      <trkpt lat="46.06303" lon="6.11076">
        <ele>1145.1999511719</ele>
        <time>2019-04-18T10:57:56.000Z</time>
      </trkpt>
      <trkpt lat="46.06318" lon="6.11087">
        <ele>1146.5999755859</ele>
        <time>2019-04-18T10:58:03.000Z</time>
      </trkpt>
      <trkpt lat="46.06336" lon="6.11099">
        <ele>1147.8000488281</ele>
        <time>2019-04-18T10:58:10.000Z</time>
      </trkpt>
      <trkpt lat="46.06347" lon="6.11107">
        <ele>1148.8000488281</ele>
        <time>2019-04-18T10:58:16.000Z</time>
      </trkpt>
      <trkpt lat="46.06356" lon="6.11113">
        <ele>1149.4000244141</ele>
        <time>2019-04-18T10:58:20.000Z</time>
      </trkpt>
      <trkpt lat="46.06371" lon="6.11124">
        <ele>1150.4000244141</ele>
        <time>2019-04-18T10:58:26.000Z</time>
      </trkpt>
      <trkpt lat="46.06381" lon="6.1113">
        <ele>1151.1999511719</ele>
        <time>2019-04-18T10:58:30.000Z</time>
      </trkpt>
      <trkpt lat="46.06386" lon="6.11134">
        <ele>1151.5999755859</ele>
        <time>2019-04-18T10:58:32.000Z</time>
      </trkpt>
      <trkpt lat="46.06403" lon="6.11146">
        <ele>1154.1999511719</ele>
        <time>2019-04-18T10:58:38.000Z</time>
      </trkpt>
      <trkpt lat="46.06408" lon="6.11161">
        <ele>1156.1999511719</ele>
        <time>2019-04-18T10:58:42.000Z</time>
      </trkpt>
      <trkpt lat="46.06409" lon="6.1118">
        <ele>1157.8000488281</ele>
        <time>2019-04-18T10:58:47.000Z</time>
      </trkpt>
      <trkpt lat="46.0641" lon="6.11194">
        <ele>1159</ele>
        <time>2019-04-18T10:58:51.000Z</time>
      </trkpt>
      <trkpt lat="46.06411" lon="6.11197">
        <ele>1159.1999511719</ele>
        <time>2019-04-18T10:58:52.000Z</time>
      </trkpt>
      <trkpt lat="46.06411" lon="6.11205">
        <ele>1160</ele>
        <time>2019-04-18T10:58:55.000Z</time>
      </trkpt>
      <trkpt lat="46.06411" lon="6.11209">
        <ele>1160.1999511719</ele>
        <time>2019-04-18T10:58:56.000Z</time>
      </trkpt>
      <trkpt lat="46.06412" lon="6.11224">
        <ele>1161.4000244141</ele>
        <time>2019-04-18T10:59:00.000Z</time>
      </trkpt>
      <trkpt lat="46.06412" lon="6.11228">
        <ele>1161.8000488281</ele>
        <time>2019-04-18T10:59:01.000Z</time>
      </trkpt>
      <trkpt lat="46.06418" lon="6.11252">
        <ele>1164.1999511719</ele>
        <time>2019-04-18T10:59:07.000Z</time>
      </trkpt>
      <trkpt lat="46.06425" lon="6.11272">
        <ele>1166.1999511719</ele>
        <time>2019-04-18T10:59:12.000Z</time>
      </trkpt>
      <trkpt lat="46.06432" lon="6.11291">
        <ele>1168.1999511719</ele>
        <time>2019-04-18T10:59:17.000Z</time>
      </trkpt>
      <trkpt lat="46.06437" lon="6.11307">
        <ele>1169.8000488281</ele>
        <time>2019-04-18T10:59:21.000Z</time>
      </trkpt>
      <trkpt lat="46.06438" lon="6.1131">
        <ele>1170.1999511719</ele>
        <time>2019-04-18T10:59:22.000Z</time>
      </trkpt>
      <trkpt lat="46.06443" lon="6.11326">
        <ele>1170.1999511719</ele>
        <time>2019-04-18T10:59:27.000Z</time>
      </trkpt>
      <trkpt lat="46.06449" lon="6.11344">
        <ele>1170</ele>
        <time>2019-04-18T10:59:32.000Z</time>
      </trkpt>
      <trkpt lat="46.06455" lon="6.1137">
        <ele>1169.4000244141</ele>
        <time>2019-04-18T10:59:39.000Z</time>
      </trkpt>
      <trkpt lat="46.06461" lon="6.11392">
        <ele>1169.1999511719</ele>
        <time>2019-04-18T10:59:45.000Z</time>
      </trkpt>
      <trkpt lat="46.06469" lon="6.11425">
        <ele>1169.8000488281</ele>
        <time>2019-04-18T10:59:54.000Z</time>
      </trkpt>
      <trkpt lat="46.06476" lon="6.11453">
        <ele>1170.4000244141</ele>
        <time>2019-04-18T11:00:02.000Z</time>
      </trkpt>
      <trkpt lat="46.06483" lon="6.11482">
        <ele>1171</ele>
        <time>2019-04-18T11:00:10.000Z</time>
      </trkpt>
      <trkpt lat="46.06489" lon="6.11508">
        <ele>1171.4000244141</ele>
        <time>2019-04-18T11:00:17.000Z</time>
      </trkpt>
      <trkpt lat="46.06494" lon="6.11528">
        <ele>1172</ele>
        <time>2019-04-18T11:00:23.000Z</time>
      </trkpt>
      <trkpt lat="46.06504" lon="6.11559">
        <ele>1173</ele>
        <time>2019-04-18T11:00:31.000Z</time>
      </trkpt>
      <trkpt lat="46.06507" lon="6.1157">
        <ele>1173.5999755859</ele>
        <time>2019-04-18T11:00:34.000Z</time>
      </trkpt>
      <trkpt lat="46.0651" lon="6.11577">
        <ele>1173.8000488281</ele>
        <time>2019-04-18T11:00:36.000Z</time>
      </trkpt>
      <trkpt lat="46.06511" lon="6.1158">
        <ele>1174</ele>
        <time>2019-04-18T11:00:37.000Z</time>
      </trkpt>
      <trkpt lat="46.06514" lon="6.11588">
        <ele>1174.4000244141</ele>
        <time>2019-04-18T11:00:39.000Z</time>
      </trkpt>
      <trkpt lat="46.06523" lon="6.11613">
        <ele>1175.8000488281</ele>
        <time>2019-04-18T11:00:46.000Z</time>
      </trkpt>
      <trkpt lat="46.06531" lon="6.11633">
        <ele>1176.8000488281</ele>
        <time>2019-04-18T11:00:52.000Z</time>
      </trkpt>
      <trkpt lat="46.06539" lon="6.11655">
        <ele>1178.4000244141</ele>
        <time>2019-04-18T11:00:59.000Z</time>
      </trkpt>
      <trkpt lat="46.06544" lon="6.11671">
        <ele>1179.4000244141</ele>
        <time>2019-04-18T11:01:04.000Z</time>
      </trkpt>
      <trkpt lat="46.0655" lon="6.11685">
        <ele>1180.5999755859</ele>
        <time>2019-04-18T11:01:08.000Z</time>
      </trkpt>
      <trkpt lat="46.06551" lon="6.11689">
        <ele>1180.8000488281</ele>
        <time>2019-04-18T11:01:09.000Z</time>
      </trkpt>
      <trkpt lat="46.06554" lon="6.11696">
        <ele>1181.4000244141</ele>
        <time>2019-04-18T11:01:11.000Z</time>
      </trkpt>
      <trkpt lat="46.06557" lon="6.11705">
        <ele>1182</ele>
        <time>2019-04-18T11:01:14.000Z</time>
      </trkpt>
      <trkpt lat="46.0656" lon="6.11713">
        <ele>1182.8000488281</ele>
        <time>2019-04-18T11:01:16.000Z</time>
      </trkpt>
      <trkpt lat="46.06562" lon="6.11716">
        <ele>1182.8000488281</ele>
        <time>2019-04-18T11:01:17.000Z</time>
      </trkpt>
      <trkpt lat="46.06567" lon="6.11724">
        <ele>1183.4000244141</ele>
        <time>2019-04-18T11:01:20.000Z</time>
      </trkpt>
      <trkpt lat="46.06569" lon="6.11728">
        <ele>1183.5999755859</ele>
        <time>2019-04-18T11:01:21.000Z</time>
      </trkpt>
      <trkpt lat="46.06572" lon="6.11734">
        <ele>1183.1999511719</ele>
        <time>2019-04-18T11:01:23.000Z</time>
      </trkpt>
      <trkpt lat="46.06574" lon="6.11738">
        <ele>1183.1999511719</ele>
        <time>2019-04-18T11:01:24.000Z</time>
      </trkpt>
      <trkpt lat="46.06579" lon="6.11746">
        <ele>1182.8000488281</ele>
        <time>2019-04-18T11:01:27.000Z</time>
      </trkpt>
      <trkpt lat="46.06587" lon="6.1176">
        <ele>1182.1999511719</ele>
        <time>2019-04-18T11:01:32.000Z</time>
      </trkpt>
      <trkpt lat="46.06593" lon="6.11763">
        <ele>1182.4000244141</ele>
        <time>2019-04-18T11:01:35.000Z</time>
      </trkpt>
      <trkpt lat="46.06598" lon="6.11765">
        <ele>1182.5999755859</ele>
        <time>2019-04-18T11:01:37.000Z</time>
      </trkpt>
      <trkpt lat="46.06612" lon="6.11764">
        <ele>1183.5999755859</ele>
        <time>2019-04-18T11:01:42.000Z</time>
      </trkpt>
      <trkpt lat="46.06614" lon="6.11762">
        <ele>1183.8000488281</ele>
        <time>2019-04-18T11:01:43.000Z</time>
      </trkpt>
      <trkpt lat="46.06619" lon="6.11759">
        <ele>1184.1999511719</ele>
        <time>2019-04-18T11:01:45.000Z</time>
      </trkpt>
      <trkpt lat="46.06638" lon="6.11747">
        <ele>1186.1999511719</ele>
        <time>2019-04-18T11:01:52.000Z</time>
      </trkpt>
      <trkpt lat="46.06652" lon="6.11739">
        <ele>1188.5999755859</ele>
        <time>2019-04-18T11:01:58.000Z</time>
      </trkpt>
      <trkpt lat="46.0667" lon="6.11733">
        <ele>1189.8000488281</ele>
        <time>2019-04-18T11:02:05.000Z</time>
      </trkpt>
      <trkpt lat="46.06679" lon="6.1173">
        <ele>1190.1999511719</ele>
        <time>2019-04-18T11:02:09.000Z</time>
      </trkpt>
      <trkpt lat="46.06692" lon="6.11726">
        <ele>1191</ele>
        <time>2019-04-18T11:02:16.000Z</time>
      </trkpt>
      <trkpt lat="46.06702" lon="6.11723">
        <ele>1191.8000488281</ele>
        <time>2019-04-18T11:02:20.000Z</time>
      </trkpt>
      <trkpt lat="46.06704" lon="6.11723">
        <ele>1192</ele>
        <time>2019-04-18T11:02:21.000Z</time>
      </trkpt>
      <trkpt lat="46.06718" lon="6.11719">
        <ele>1193</ele>
        <time>2019-04-18T11:02:26.000Z</time>
      </trkpt>
      <trkpt lat="46.06729" lon="6.11715">
        <ele>1193.8000488281</ele>
        <time>2019-04-18T11:02:31.000Z</time>
      </trkpt>
      <trkpt lat="46.06749" lon="6.1171">
        <ele>1196</ele>
        <time>2019-04-18T11:02:38.000Z</time>
      </trkpt>
      <trkpt lat="46.06765" lon="6.11705">
        <ele>1197.8000488281</ele>
        <time>2019-04-18T11:02:44.000Z</time>
      </trkpt>
      <trkpt lat="46.06784" lon="6.11697">
        <ele>1199.8000488281</ele>
        <time>2019-04-18T11:02:51.000Z</time>
      </trkpt>
      <trkpt lat="46.06795" lon="6.11693">
        <ele>1200</ele>
        <time>2019-04-18T11:02:55.000Z</time>
      </trkpt>
      <trkpt lat="46.06807" lon="6.11687">
        <ele>1200.4000244141</ele>
        <time>2019-04-18T11:03:00.000Z</time>
      </trkpt>
      <trkpt lat="46.06821" lon="6.11681">
        <ele>1201.4000244141</ele>
        <time>2019-04-18T11:03:05.000Z</time>
      </trkpt>
      <trkpt lat="46.06836" lon="6.11674">
        <ele>1202.1999511719</ele>
        <time>2019-04-18T11:03:10.000Z</time>
      </trkpt>
      <trkpt lat="46.06855" lon="6.11675">
        <ele>1204.1999511719</ele>
        <time>2019-04-18T11:03:16.000Z</time>
      </trkpt>
      <trkpt lat="46.06872" lon="6.11678">
        <ele>1206.1999511719</ele>
        <time>2019-04-18T11:03:23.000Z</time>
      </trkpt>
      <trkpt lat="46.06888" lon="6.11681">
        <ele>1208</ele>
        <time>2019-04-18T11:03:30.000Z</time>
      </trkpt>
      <trkpt lat="46.06905" lon="6.11684">
        <ele>1210.1999511719</ele>
        <time>2019-04-18T11:03:37.000Z</time>
      </trkpt>
      <trkpt lat="46.06912" lon="6.11689">
        <ele>1211</ele>
        <time>2019-04-18T11:03:41.000Z</time>
      </trkpt>
      <trkpt lat="46.06921" lon="6.11707">
        <ele>1211.4000244141</ele>
        <time>2019-04-18T11:03:47.000Z</time>
      </trkpt>
      <trkpt lat="46.06926" lon="6.11728">
        <ele>1211.4000244141</ele>
        <time>2019-04-18T11:03:53.000Z</time>
      </trkpt>
      <trkpt lat="46.06927" lon="6.11732">
        <ele>1211.5999755859</ele>
        <time>2019-04-18T11:03:54.000Z</time>
      </trkpt>
      <trkpt lat="46.0693" lon="6.11744">
        <ele>1212</ele>
        <time>2019-04-18T11:03:58.000Z</time>
      </trkpt>
      <trkpt lat="46.0693" lon="6.11746">
        <ele>1212.1999511719</ele>
        <time>2019-04-18T11:03:59.000Z</time>
      </trkpt>
      <trkpt lat="46.06932" lon="6.11753">
        <ele>1212.4000244141</ele>
        <time>2019-04-18T11:04:02.000Z</time>
      </trkpt>
      <trkpt lat="46.06933" lon="6.11771">
        <ele>1213</ele>
        <time>2019-04-18T11:04:05.000Z</time>
      </trkpt>
      <trkpt lat="46.06929" lon="6.11783">
        <ele>1213.1999511719</ele>
        <time>2019-04-18T11:04:08.000Z</time>
      </trkpt>
      <trkpt lat="46.06918" lon="6.11802">
        <ele>1213</ele>
        <time>2019-04-18T11:04:13.000Z</time>
      </trkpt>
      <trkpt lat="46.0691" lon="6.1181">
        <ele>1212.5999755859</ele>
        <time>2019-04-18T11:04:18.000Z</time>
      </trkpt>
      <trkpt lat="46.069" lon="6.11819">
        <ele>1212.4000244141</ele>
        <time>2019-04-18T11:04:23.000Z</time>
      </trkpt>
      <trkpt lat="46.06892" lon="6.11826">
        <ele>1212.4000244141</ele>
        <time>2019-04-18T11:04:28.000Z</time>
      </trkpt>
      <trkpt lat="46.06883" lon="6.1184">
        <ele>1213</ele>
        <time>2019-04-18T11:04:33.000Z</time>
      </trkpt>
      <trkpt lat="46.06875" lon="6.11852">
        <ele>1213.5999755859</ele>
        <time>2019-04-18T11:04:37.000Z</time>
      </trkpt>
      <trkpt lat="46.06869" lon="6.11863">
        <ele>1214.1999511719</ele>
        <time>2019-04-18T11:04:41.000Z</time>
      </trkpt>
      <trkpt lat="46.06868" lon="6.11879">
        <ele>1214.5999755859</ele>
        <time>2019-04-18T11:04:45.000Z</time>
      </trkpt>
      <trkpt lat="46.06868" lon="6.11898">
        <ele>1214.8000488281</ele>
        <time>2019-04-18T11:04:50.000Z</time>
      </trkpt>
      <trkpt lat="46.06869" lon="6.11919">
        <ele>1216.1999511719</ele>
        <time>2019-04-18T11:04:56.000Z</time>
      </trkpt>
      <trkpt lat="46.06869" lon="6.11933">
        <ele>1217.4000244141</ele>
        <time>2019-04-18T11:05:00.000Z</time>
      </trkpt>
      <trkpt lat="46.06869" lon="6.11947">
        <ele>1218.4000244141</ele>
        <time>2019-04-18T11:05:04.000Z</time>
      </trkpt>
      <trkpt lat="46.06869" lon="6.1195">
        <ele>1218.5999755859</ele>
        <time>2019-04-18T11:05:05.000Z</time>
      </trkpt>
      <trkpt lat="46.06869" lon="6.11969">
        <ele>1219.4000244141</ele>
        <time>2019-04-18T11:05:10.000Z</time>
      </trkpt>
      <trkpt lat="46.06867" lon="6.11997">
        <ele>1220.5999755859</ele>
        <time>2019-04-18T11:05:16.000Z</time>
      </trkpt>
      <trkpt lat="46.06861" lon="6.12019">
        <ele>1220.8000488281</ele>
        <time>2019-04-18T11:05:22.000Z</time>
      </trkpt>
      <trkpt lat="46.06836" lon="6.12028">
        <ele>1217.4000244141</ele>
        <time>2019-04-18T11:05:29.000Z</time>
      </trkpt>
      <trkpt lat="46.06829" lon="6.12043">
        <ele>1217.5999755859</ele>
        <time>2019-04-18T11:05:34.000Z</time>
      </trkpt>
      <trkpt lat="46.06821" lon="6.12057">
        <ele>1217.5999755859</ele>
        <time>2019-04-18T11:05:39.000Z</time>
      </trkpt>
      <trkpt lat="46.06816" lon="6.12067">
        <ele>1217.4000244141</ele>
        <time>2019-04-18T11:05:42.000Z</time>
      </trkpt>
      <trkpt lat="46.06814" lon="6.12072">
        <ele>1217.4000244141</ele>
        <time>2019-04-18T11:05:44.000Z</time>
      </trkpt>
      <trkpt lat="46.06807" lon="6.12085">
        <ele>1217.8000488281</ele>
        <time>2019-04-18T11:05:49.000Z</time>
      </trkpt>
      <trkpt lat="46.06804" lon="6.12091">
        <ele>1217.8000488281</ele>
        <time>2019-04-18T11:05:51.000Z</time>
      </trkpt>
      <trkpt lat="46.06801" lon="6.12097">
        <ele>1218</ele>
        <time>2019-04-18T11:05:53.000Z</time>
      </trkpt>
      <trkpt lat="46.06791" lon="6.12115">
        <ele>1218.4000244141</ele>
        <time>2019-04-18T11:05:59.000Z</time>
      </trkpt>
      <trkpt lat="46.06783" lon="6.12132">
        <ele>1218.8000488281</ele>
        <time>2019-04-18T11:06:05.000Z</time>
      </trkpt>
      <trkpt lat="46.0677" lon="6.12148">
        <ele>1218.4000244141</ele>
        <time>2019-04-18T11:06:13.000Z</time>
      </trkpt>
      <trkpt lat="46.06792" lon="6.12206">
        <ele>1223.8000488281</ele>
        <time>2019-04-18T11:06:19.000Z</time>
      </trkpt>
      <trkpt lat="46.06816" lon="6.12227">
        <ele>1227</ele>
        <time>2019-04-18T11:06:25.000Z</time>
      </trkpt>
      <trkpt lat="46.06821" lon="6.12248">
        <ele>1221.4000244141</ele>
        <time>2019-04-18T11:06:30.000Z</time>
      </trkpt>
      <trkpt lat="46.06833" lon="6.12258">
        <ele>1218.5999755859</ele>
        <time>2019-04-18T11:06:35.000Z</time>
      </trkpt>
      <trkpt lat="46.0684" lon="6.12262">
        <ele>1217.5999755859</ele>
        <time>2019-04-18T11:06:39.000Z</time>
      </trkpt>
      <trkpt lat="46.06849" lon="6.12259">
        <ele>1218.4000244141</ele>
        <time>2019-04-18T11:06:43.000Z</time>
      </trkpt>
      <trkpt lat="46.06859" lon="6.12255">
        <ele>1219.4000244141</ele>
        <time>2019-04-18T11:06:47.000Z</time>
      </trkpt>
      <trkpt lat="46.06873" lon="6.12251">
        <ele>1221</ele>
        <time>2019-04-18T11:06:52.000Z</time>
      </trkpt>
      <trkpt lat="46.06885" lon="6.12247">
        <ele>1222.1999511719</ele>
        <time>2019-04-18T11:06:57.000Z</time>
      </trkpt>
      <trkpt lat="46.06891" lon="6.12245">
        <ele>1223</ele>
        <time>2019-04-18T11:07:00.000Z</time>
      </trkpt>
      <trkpt lat="46.06901" lon="6.12241">
        <ele>1224.4000244141</ele>
        <time>2019-04-18T11:07:05.000Z</time>
      </trkpt>
      <trkpt lat="46.06913" lon="6.12237">
        <ele>1226</ele>
        <time>2019-04-18T11:07:09.000Z</time>
      </trkpt>
      <trkpt lat="46.06928" lon="6.12233">
        <ele>1227.8000488281</ele>
        <time>2019-04-18T11:07:15.000Z</time>
      </trkpt>
      <trkpt lat="46.06935" lon="6.12231">
        <ele>1228.4000244141</ele>
        <time>2019-04-18T11:07:18.000Z</time>
      </trkpt>
      <trkpt lat="46.06946" lon="6.12229">
        <ele>1229.4000244141</ele>
        <time>2019-04-18T11:07:22.000Z</time>
      </trkpt>
      <trkpt lat="46.06964" lon="6.12226">
        <ele>1230.5999755859</ele>
        <time>2019-04-18T11:07:28.000Z</time>
      </trkpt>
      <trkpt lat="46.06982" lon="6.12222">
        <ele>1231.8000488281</ele>
        <time>2019-04-18T11:07:33.000Z</time>
      </trkpt>
      <trkpt lat="46.06995" lon="6.12219">
        <ele>1233</ele>
        <time>2019-04-18T11:07:38.000Z</time>
      </trkpt>
      <trkpt lat="46.07012" lon="6.12216">
        <ele>1234.5999755859</ele>
        <time>2019-04-18T11:07:43.000Z</time>
      </trkpt>
      <trkpt lat="46.07028" lon="6.12212">
        <ele>1236</ele>
        <time>2019-04-18T11:07:49.000Z</time>
      </trkpt>
      <trkpt lat="46.07032" lon="6.12212">
        <ele>1236.4000244141</ele>
        <time>2019-04-18T11:07:51.000Z</time>
      </trkpt>
      <trkpt lat="46.07038" lon="6.1221">
        <ele>1237</ele>
        <time>2019-04-18T11:07:54.000Z</time>
      </trkpt>
      <trkpt lat="46.0705" lon="6.12216">
        <ele>1237.8000488281</ele>
        <time>2019-04-18T11:07:59.000Z</time>
      </trkpt>
      <trkpt lat="46.07058" lon="6.12221">
        <ele>1238.1999511719</ele>
        <time>2019-04-18T11:08:03.000Z</time>
      </trkpt>
      <trkpt lat="46.07067" lon="6.12226">
        <ele>1239.1999511719</ele>
        <time>2019-04-18T11:08:07.000Z</time>
      </trkpt>
      <trkpt lat="46.07078" lon="6.12233">
        <ele>1240.1999511719</ele>
        <time>2019-04-18T11:08:11.000Z</time>
      </trkpt>
      <trkpt lat="46.0709" lon="6.12243">
        <ele>1241</ele>
        <time>2019-04-18T11:08:15.000Z</time>
      </trkpt>
      <trkpt lat="46.07099" lon="6.12251">
        <ele>1241.5999755859</ele>
        <time>2019-04-18T11:08:20.000Z</time>
      </trkpt>
      <trkpt lat="46.07111" lon="6.12261">
        <ele>1242.4000244141</ele>
        <time>2019-04-18T11:08:27.000Z</time>
      </trkpt>
      <trkpt lat="46.07119" lon="6.12268">
        <ele>1243</ele>
        <time>2019-04-18T11:08:32.000Z</time>
      </trkpt>
      <trkpt lat="46.07129" lon="6.12276">
        <ele>1243.5999755859</ele>
        <time>2019-04-18T11:08:37.000Z</time>
      </trkpt>
      <trkpt lat="46.07143" lon="6.12288">
        <ele>1244.5999755859</ele>
        <time>2019-04-18T11:08:43.000Z</time>
      </trkpt>
      <trkpt lat="46.07157" lon="6.12303">
        <ele>1246.8000488281</ele>
        <time>2019-04-18T11:08:50.000Z</time>
      </trkpt>
      <trkpt lat="46.07172" lon="6.12321">
        <ele>1247</ele>
        <time>2019-04-18T11:08:57.000Z</time>
      </trkpt>
      <trkpt lat="46.07184" lon="6.12335">
        <ele>1246.4000244141</ele>
        <time>2019-04-18T11:09:03.000Z</time>
      </trkpt>
      <trkpt lat="46.07193" lon="6.12345">
        <ele>1245.8000488281</ele>
        <time>2019-04-18T11:09:08.000Z</time>
      </trkpt>
      <trkpt lat="46.07206" lon="6.12352">
        <ele>1247.5999755859</ele>
        <time>2019-04-18T11:09:13.000Z</time>
      </trkpt>
      <trkpt lat="46.07219" lon="6.12358">
        <ele>1249.1999511719</ele>
        <time>2019-04-18T11:09:18.000Z</time>
      </trkpt>
      <trkpt lat="46.07234" lon="6.12365">
        <ele>1251.5999755859</ele>
        <time>2019-04-18T11:09:24.000Z</time>
      </trkpt>
      <trkpt lat="46.07247" lon="6.12371">
        <ele>1254.1999511719</ele>
        <time>2019-04-18T11:09:29.000Z</time>
      </trkpt>
      <trkpt lat="46.07259" lon="6.12374">
        <ele>1256.8000488281</ele>
        <time>2019-04-18T11:09:33.000Z</time>
      </trkpt>
      <trkpt lat="46.07272" lon="6.12378">
        <ele>1259.8000488281</ele>
        <time>2019-04-18T11:09:38.000Z</time>
      </trkpt>
      <trkpt lat="46.07284" lon="6.12381">
        <ele>1262.5999755859</ele>
        <time>2019-04-18T11:09:43.000Z</time>
      </trkpt>
      <trkpt lat="46.07292" lon="6.12383">
        <ele>1264.5999755859</ele>
        <time>2019-04-18T11:09:47.000Z</time>
      </trkpt>
      <trkpt lat="46.07302" lon="6.12386">
        <ele>1266.8000488281</ele>
        <time>2019-04-18T11:09:52.000Z</time>
      </trkpt>
      <trkpt lat="46.07314" lon="6.12395">
        <ele>1268</ele>
        <time>2019-04-18T11:09:57.000Z</time>
      </trkpt>
      <trkpt lat="46.07321" lon="6.12401">
        <ele>1268.5999755859</ele>
        <time>2019-04-18T11:09:59.000Z</time>
      </trkpt>
      <trkpt lat="46.07328" lon="6.12407">
        <ele>1269.4000244141</ele>
        <time>2019-04-18T11:10:02.000Z</time>
      </trkpt>
      <trkpt lat="46.07337" lon="6.12415">
        <ele>1270.4000244141</ele>
        <time>2019-04-18T11:10:07.000Z</time>
      </trkpt>
      <trkpt lat="46.07344" lon="6.1242">
        <ele>1271</ele>
        <time>2019-04-18T11:10:10.000Z</time>
      </trkpt>
      <trkpt lat="46.07356" lon="6.12431">
        <ele>1272.1999511719</ele>
        <time>2019-04-18T11:10:15.000Z</time>
      </trkpt>
      <trkpt lat="46.07361" lon="6.12435">
        <ele>1272.8000488281</ele>
        <time>2019-04-18T11:10:17.000Z</time>
      </trkpt>
      <trkpt lat="46.07366" lon="6.12439">
        <ele>1273.1999511719</ele>
        <time>2019-04-18T11:10:19.000Z</time>
      </trkpt>
      <trkpt lat="46.07374" lon="6.12447">
        <ele>1273.8000488281</ele>
        <time>2019-04-18T11:10:22.000Z</time>
      </trkpt>
      <trkpt lat="46.07375" lon="6.12449">
        <ele>1273.8000488281</ele>
        <time>2019-04-18T11:10:23.000Z</time>
      </trkpt>
      <trkpt lat="46.07383" lon="6.12462">
        <ele>1273.4000244141</ele>
        <time>2019-04-18T11:10:27.000Z</time>
      </trkpt>
      <trkpt lat="46.0739" lon="6.12472">
        <ele>1273</ele>
        <time>2019-04-18T11:10:31.000Z</time>
      </trkpt>
      <trkpt lat="46.07391" lon="6.12491">
        <ele>1271.8000488281</ele>
        <time>2019-04-18T11:10:37.000Z</time>
      </trkpt>
      <trkpt lat="46.07389" lon="6.12508">
        <ele>1270.4000244141</ele>
        <time>2019-04-18T11:10:42.000Z</time>
      </trkpt>
      <trkpt lat="46.07386" lon="6.12527">
        <ele>1268.8000488281</ele>
        <time>2019-04-18T11:10:47.000Z</time>
      </trkpt>
      <trkpt lat="46.07382" lon="6.12555">
        <ele>1266.8000488281</ele>
        <time>2019-04-18T11:10:54.000Z</time>
      </trkpt>
      <trkpt lat="46.07382" lon="6.12585">
        <ele>1264.1999511719</ele>
        <time>2019-04-18T11:11:02.000Z</time>
      </trkpt>
      <trkpt lat="46.07385" lon="6.12599">
        <ele>1263.1999511719</ele>
        <time>2019-04-18T11:11:06.000Z</time>
      </trkpt>
      <trkpt lat="46.07392" lon="6.1261">
        <ele>1263.5999755859</ele>
        <time>2019-04-18T11:11:11.000Z</time>
      </trkpt>
      <trkpt lat="46.07402" lon="6.12618">
        <ele>1264.1999511719</ele>
        <time>2019-04-18T11:11:16.000Z</time>
      </trkpt>
      <trkpt lat="46.07416" lon="6.12619">
        <ele>1265.8000488281</ele>
        <time>2019-04-18T11:11:22.000Z</time>
      </trkpt>
      <trkpt lat="46.07426" lon="6.12617">
        <ele>1267.1999511719</ele>
        <time>2019-04-18T11:11:26.000Z</time>
      </trkpt>
      <trkpt lat="46.07444" lon="6.12615">
        <ele>1269.5999755859</ele>
        <time>2019-04-18T11:11:33.000Z</time>
      </trkpt>
      <trkpt lat="46.07454" lon="6.12616">
        <ele>1271.4000244141</ele>
        <time>2019-04-18T11:11:37.000Z</time>
      </trkpt>
      <trkpt lat="46.0747" lon="6.1262">
        <ele>1274.1999511719</ele>
        <time>2019-04-18T11:11:43.000Z</time>
      </trkpt>
      <trkpt lat="46.07486" lon="6.12624">
        <ele>1278</ele>
        <time>2019-04-18T11:11:50.000Z</time>
      </trkpt>
      <trkpt lat="46.07503" lon="6.12629">
        <ele>1282.8000488281</ele>
        <time>2019-04-18T11:11:57.000Z</time>
      </trkpt>
      <trkpt lat="46.07519" lon="6.12633">
        <ele>1287</ele>
        <time>2019-04-18T11:12:04.000Z</time>
      </trkpt>
      <trkpt lat="46.07535" lon="6.12653">
        <ele>1288</ele>
        <time>2019-04-18T11:12:11.000Z</time>
      </trkpt>
      <trkpt lat="46.07544" lon="6.12681">
        <ele>1286.4000244141</ele>
        <time>2019-04-18T11:12:19.000Z</time>
      </trkpt>
      <trkpt lat="46.0755" lon="6.12701">
        <ele>1285.1999511719</ele>
        <time>2019-04-18T11:12:25.000Z</time>
      </trkpt>
      <trkpt lat="46.07557" lon="6.12722">
        <ele>1284</ele>
        <time>2019-04-18T11:12:31.000Z</time>
      </trkpt>
      <trkpt lat="46.07566" lon="6.12745">
        <ele>1283.1999511719</ele>
        <time>2019-04-18T11:12:38.000Z</time>
      </trkpt>
      <trkpt lat="46.07579" lon="6.12772">
        <ele>1283.1999511719</ele>
        <time>2019-04-18T11:12:46.000Z</time>
      </trkpt>
      <trkpt lat="46.07591" lon="6.12795">
        <ele>1283.1999511719</ele>
        <time>2019-04-18T11:12:53.000Z</time>
      </trkpt>
      <trkpt lat="46.07605" lon="6.12816">
        <ele>1283.8000488281</ele>
        <time>2019-04-18T11:13:00.000Z</time>
      </trkpt>
      <trkpt lat="46.07624" lon="6.12839">
        <ele>1284.5999755859</ele>
        <time>2019-04-18T11:13:09.000Z</time>
      </trkpt>
      <trkpt lat="46.07639" lon="6.12856">
        <ele>1285.1999511719</ele>
        <time>2019-04-18T11:13:16.000Z</time>
      </trkpt>
      <trkpt lat="46.07659" lon="6.12871">
        <ele>1285</ele>
        <time>2019-04-18T11:13:24.000Z</time>
      </trkpt>
      <trkpt lat="46.07679" lon="6.12884">
        <ele>1284.5999755859</ele>
        <time>2019-04-18T11:13:32.000Z</time>
      </trkpt>
      <trkpt lat="46.07702" lon="6.1289">
        <ele>1285.8000488281</ele>
        <time>2019-04-18T11:13:40.000Z</time>
      </trkpt>
      <trkpt lat="46.07721" lon="6.12888">
        <ele>1288.5999755859</ele>
        <time>2019-04-18T11:13:47.000Z</time>
      </trkpt>
      <trkpt lat="46.07739" lon="6.12874">
        <ele>1291.1999511719</ele>
        <time>2019-04-18T11:13:55.000Z</time>
      </trkpt>
      <trkpt lat="46.07753" lon="6.12863">
        <ele>1292.1999511719</ele>
        <time>2019-04-18T11:14:01.000Z</time>
      </trkpt>
      <trkpt lat="46.07768" lon="6.12846">
        <ele>1293.5999755859</ele>
        <time>2019-04-18T11:14:08.000Z</time>
      </trkpt>
      <trkpt lat="46.07778" lon="6.12834">
        <ele>1293.4000244141</ele>
        <time>2019-04-18T11:14:13.000Z</time>
      </trkpt>
      <trkpt lat="46.0779" lon="6.12817">
        <ele>1293</ele>
        <time>2019-04-18T11:14:19.000Z</time>
      </trkpt>
      <trkpt lat="46.078" lon="6.12804">
        <ele>1293.1999511719</ele>
        <time>2019-04-18T11:14:24.000Z</time>
      </trkpt>
      <trkpt lat="46.07807" lon="6.12791">
        <ele>1293.1999511719</ele>
        <time>2019-04-18T11:14:28.000Z</time>
      </trkpt>
      <trkpt lat="46.07812" lon="6.1278">
        <ele>1293.8000488281</ele>
        <time>2019-04-18T11:14:32.000Z</time>
      </trkpt>
      <trkpt lat="46.0782" lon="6.12763">
        <ele>1296</ele>
        <time>2019-04-18T11:14:36.000Z</time>
      </trkpt>
      <trkpt lat="46.07833" lon="6.12736">
        <ele>1298.5999755859</ele>
        <time>2019-04-18T11:14:43.000Z</time>
      </trkpt>
      <trkpt lat="46.07841" lon="6.1272">
        <ele>1299.8000488281</ele>
        <time>2019-04-18T11:14:48.000Z</time>
      </trkpt>
      <trkpt lat="46.07861" lon="6.12694">
        <ele>1302.4000244141</ele>
        <time>2019-04-18T11:14:56.000Z</time>
      </trkpt>
      <trkpt lat="46.07879" lon="6.12679">
        <ele>1303</ele>
        <time>2019-04-18T11:15:02.000Z</time>
      </trkpt>
      <trkpt lat="46.07906" lon="6.12655">
        <ele>1305.8000488281</ele>
        <time>2019-04-18T11:15:11.000Z</time>
      </trkpt>
      <trkpt lat="46.07929" lon="6.12636">
        <ele>1307.4000244141</ele>
        <time>2019-04-18T11:15:18.000Z</time>
      </trkpt>
      <trkpt lat="46.07946" lon="6.12625">
        <ele>1308.1999511719</ele>
        <time>2019-04-18T11:15:23.000Z</time>
      </trkpt>
      <trkpt lat="46.07961" lon="6.12615">
        <ele>1308.1999511719</ele>
        <time>2019-04-18T11:15:27.000Z</time>
      </trkpt>
      <trkpt lat="46.07965" lon="6.12613">
        <ele>1308</ele>
        <time>2019-04-18T11:15:28.000Z</time>
      </trkpt>
      <trkpt lat="46.07977" lon="6.12605">
        <ele>1307.5999755859</ele>
        <time>2019-04-18T11:15:31.000Z</time>
      </trkpt>
      <trkpt lat="46.07997" lon="6.12591">
        <ele>1308</ele>
        <time>2019-04-18T11:15:36.000Z</time>
      </trkpt>
      <trkpt lat="46.08008" lon="6.12583">
        <ele>1308.5999755859</ele>
        <time>2019-04-18T11:15:40.000Z</time>
      </trkpt>
      <trkpt lat="46.08011" lon="6.12581">
        <ele>1308.8000488281</ele>
        <time>2019-04-18T11:15:41.000Z</time>
      </trkpt>
      <trkpt lat="46.0802" lon="6.12573">
        <ele>1309.1999511719</ele>
        <time>2019-04-18T11:15:43.000Z</time>
      </trkpt>
      <trkpt lat="46.08022" lon="6.12568">
        <ele>1309.4000244141</ele>
        <time>2019-04-18T11:15:44.000Z</time>
      </trkpt>
      <trkpt lat="46.08027" lon="6.12557">
        <ele>1309.1999511719</ele>
        <time>2019-04-18T11:15:46.000Z</time>
      </trkpt>
      <trkpt lat="46.08036" lon="6.12538">
        <ele>1307</ele>
        <time>2019-04-18T11:15:49.000Z</time>
      </trkpt>
      <trkpt lat="46.08054" lon="6.12498">
        <ele>1305.4000244141</ele>
        <time>2019-04-18T11:15:54.000Z</time>
      </trkpt>
      <trkpt lat="46.08057" lon="6.1249">
        <ele>1305</ele>
        <time>2019-04-18T11:15:55.000Z</time>
      </trkpt>
      <trkpt lat="46.08065" lon="6.1248">
        <ele>1304</ele>
        <time>2019-04-18T11:15:57.000Z</time>
      </trkpt>
      <trkpt lat="46.08076" lon="6.12479">
        <ele>1303.5999755859</ele>
        <time>2019-04-18T11:15:59.000Z</time>
      </trkpt>
      <trkpt lat="46.08082" lon="6.12481">
        <ele>1303.5999755859</ele>
        <time>2019-04-18T11:16:00.000Z</time>
      </trkpt>
      <trkpt lat="46.08089" lon="6.12484">
        <ele>1303.5999755859</ele>
        <time>2019-04-18T11:16:01.000Z</time>
      </trkpt>
      <trkpt lat="46.08103" lon="6.1249">
        <ele>1303.4000244141</ele>
        <time>2019-04-18T11:16:03.000Z</time>
      </trkpt>
      <trkpt lat="46.08135" lon="6.12516">
        <ele>1303.5999755859</ele>
        <time>2019-04-18T11:16:08.000Z</time>
      </trkpt>
      <trkpt lat="46.08154" lon="6.12531">
        <ele>1303.1999511719</ele>
        <time>2019-04-18T11:16:11.000Z</time>
      </trkpt>
      <trkpt lat="46.08165" lon="6.12548">
        <ele>1303.1999511719</ele>
        <time>2019-04-18T11:16:13.000Z</time>
      </trkpt>
      <trkpt lat="46.08169" lon="6.12555">
        <ele>1303.1999511719</ele>
        <time>2019-04-18T11:16:14.000Z</time>
      </trkpt>
      <trkpt lat="46.08179" lon="6.12579">
        <ele>1305</ele>
        <time>2019-04-18T11:16:17.000Z</time>
      </trkpt>
      <trkpt lat="46.08186" lon="6.126">
        <ele>1307.1999511719</ele>
        <time>2019-04-18T11:16:21.000Z</time>
      </trkpt>
      <trkpt lat="46.08191" lon="6.12617">
        <ele>1308.1999511719</ele>
        <time>2019-04-18T11:16:26.000Z</time>
      </trkpt>
      <trkpt lat="46.08191" lon="6.1262">
        <ele>1308.4000244141</ele>
        <time>2019-04-18T11:16:27.000Z</time>
      </trkpt>
      <trkpt lat="46.08194" lon="6.12629">
        <ele>1308.5999755859</ele>
        <time>2019-04-18T11:16:29.000Z</time>
      </trkpt>
      <trkpt lat="46.08202" lon="6.12648">
        <ele>1309.8000488281</ele>
        <time>2019-04-18T11:16:35.000Z</time>
      </trkpt>
      <trkpt lat="46.08215" lon="6.1266">
        <ele>1311.1999511719</ele>
        <time>2019-04-18T11:16:40.000Z</time>
      </trkpt>
      <trkpt lat="46.08224" lon="6.12668">
        <ele>1312.1999511719</ele>
        <time>2019-04-18T11:16:44.000Z</time>
      </trkpt>
      <trkpt lat="46.08236" lon="6.12679">
        <ele>1313.1999511719</ele>
        <time>2019-04-18T11:16:50.000Z</time>
      </trkpt>
      <trkpt lat="46.08238" lon="6.12681">
        <ele>1313.4000244141</ele>
        <time>2019-04-18T11:16:53.000Z</time>
      </trkpt>
      <trkpt lat="46.08241" lon="6.12683">
        <ele>1313.5999755859</ele>
        <time>2019-04-18T11:16:54.000Z</time>
      </trkpt>
      <trkpt lat="46.08245" lon="6.12687">
        <ele>1314</ele>
        <time>2019-04-18T11:16:57.000Z</time>
      </trkpt>
      <trkpt lat="46.08258" lon="6.12699">
        <ele>1315</ele>
        <time>2019-04-18T11:17:02.000Z</time>
      </trkpt>
      <trkpt lat="46.08264" lon="6.12704">
        <ele>1315.4000244141</ele>
        <time>2019-04-18T11:17:05.000Z</time>
      </trkpt>
      <trkpt lat="46.08278" lon="6.12717">
        <ele>1316.4000244141</ele>
        <time>2019-04-18T11:17:10.000Z</time>
      </trkpt>
      <trkpt lat="46.08294" lon="6.12731">
        <ele>1317.4000244141</ele>
        <time>2019-04-18T11:17:16.000Z</time>
      </trkpt>
      <trkpt lat="46.08305" lon="6.12741">
        <ele>1318</ele>
        <time>2019-04-18T11:17:21.000Z</time>
      </trkpt>
      <trkpt lat="46.0832" lon="6.12754">
        <ele>1319</ele>
        <time>2019-04-18T11:17:26.000Z</time>
      </trkpt>
      <trkpt lat="46.08334" lon="6.12767">
        <ele>1319.8000488281</ele>
        <time>2019-04-18T11:17:31.000Z</time>
      </trkpt>
      <trkpt lat="46.08351" lon="6.12784">
        <ele>1321</ele>
        <time>2019-04-18T11:17:38.000Z</time>
      </trkpt>
      <trkpt lat="46.08363" lon="6.12801">
        <ele>1322.1999511719</ele>
        <time>2019-04-18T11:17:44.000Z</time>
      </trkpt>
      <trkpt lat="46.08376" lon="6.12821">
        <ele>1323.1999511719</ele>
        <time>2019-04-18T11:17:49.000Z</time>
      </trkpt>
      <trkpt lat="46.08384" lon="6.12835">
        <ele>1323.5999755859</ele>
        <time>2019-04-18T11:17:52.000Z</time>
      </trkpt>
      <trkpt lat="46.08389" lon="6.12844">
        <ele>1323.8000488281</ele>
        <time>2019-04-18T11:17:54.000Z</time>
      </trkpt>
      <trkpt lat="46.08395" lon="6.12855">
        <ele>1324</ele>
        <time>2019-04-18T11:17:56.000Z</time>
      </trkpt>
      <trkpt lat="46.08404" lon="6.1287">
        <ele>1323.8000488281</ele>
        <time>2019-04-18T11:17:59.000Z</time>
      </trkpt>
      <trkpt lat="46.0841" lon="6.12882">
        <ele>1323.5999755859</ele>
        <time>2019-04-18T11:18:01.000Z</time>
      </trkpt>
      <trkpt lat="46.08419" lon="6.12897">
        <ele>1323.5999755859</ele>
        <time>2019-04-18T11:18:04.000Z</time>
      </trkpt>
      <trkpt lat="46.08424" lon="6.12905">
        <ele>1323.8000488281</ele>
        <time>2019-04-18T11:18:06.000Z</time>
      </trkpt>
      <trkpt lat="46.0843" lon="6.12916">
        <ele>1324.1999511719</ele>
        <time>2019-04-18T11:18:08.000Z</time>
      </trkpt>
      <trkpt lat="46.08437" lon="6.12928">
        <ele>1324.4000244141</ele>
        <time>2019-04-18T11:18:10.000Z</time>
      </trkpt>
      <trkpt lat="46.08439" lon="6.12935">
        <ele>1324.8000488281</ele>
        <time>2019-04-18T11:18:11.000Z</time>
      </trkpt>
      <trkpt lat="46.08445" lon="6.12953">
        <ele>1325</ele>
        <time>2019-04-18T11:18:14.000Z</time>
      </trkpt>
      <trkpt lat="46.08448" lon="6.12962">
        <ele>1325</ele>
        <time>2019-04-18T11:18:16.000Z</time>
      </trkpt>
      <trkpt lat="46.08451" lon="6.12973">
        <ele>1325</ele>
        <time>2019-04-18T11:18:18.000Z</time>
      </trkpt>
      <trkpt lat="46.08455" lon="6.12986">
        <ele>1325.1999511719</ele>
        <time>2019-04-18T11:18:20.000Z</time>
      </trkpt>
      <trkpt lat="46.08462" lon="6.13002">
        <ele>1325.1999511719</ele>
        <time>2019-04-18T11:18:23.000Z</time>
      </trkpt>
      <trkpt lat="46.08472" lon="6.13022">
        <ele>1325.5999755859</ele>
        <time>2019-04-18T11:18:28.000Z</time>
      </trkpt>
      <trkpt lat="46.0848" lon="6.13039">
        <ele>1325.8000488281</ele>
        <time>2019-04-18T11:18:32.000Z</time>
      </trkpt>
      <trkpt lat="46.0849" lon="6.13059">
        <ele>1326</ele>
        <time>2019-04-18T11:18:36.000Z</time>
      </trkpt>
      <trkpt lat="46.08498" lon="6.13076">
        <ele>1325.8000488281</ele>
        <time>2019-04-18T11:18:40.000Z</time>
      </trkpt>
      <trkpt lat="46.08509" lon="6.13097">
        <ele>1325.4000244141</ele>
        <time>2019-04-18T11:18:44.000Z</time>
      </trkpt>
      <trkpt lat="46.08512" lon="6.13102">
        <ele>1325.4000244141</ele>
        <time>2019-04-18T11:18:45.000Z</time>
      </trkpt>
      <trkpt lat="46.08533" lon="6.13132">
        <ele>1324.5999755859</ele>
        <time>2019-04-18T11:18:52.000Z</time>
      </trkpt>
      <trkpt lat="46.08549" lon="6.13139">
        <ele>1324.8000488281</ele>
        <time>2019-04-18T11:18:56.000Z</time>
      </trkpt>
      <trkpt lat="46.08553" lon="6.13141">
        <ele>1325</ele>
        <time>2019-04-18T11:18:57.000Z</time>
      </trkpt>
      <trkpt lat="46.08558" lon="6.13142">
        <ele>1325</ele>
        <time>2019-04-18T11:18:58.000Z</time>
      </trkpt>
      <trkpt lat="46.08565" lon="6.13145">
        <ele>1324.8000488281</ele>
        <time>2019-04-18T11:19:00.000Z</time>
      </trkpt>
      <trkpt lat="46.08569" lon="6.13146">
        <ele>1324.8000488281</ele>
        <time>2019-04-18T11:19:01.000Z</time>
      </trkpt>
      <trkpt lat="46.08578" lon="6.1315">
        <ele>1324.8000488281</ele>
        <time>2019-04-18T11:19:03.000Z</time>
      </trkpt>
      <trkpt lat="46.08597" lon="6.13157">
        <ele>1324.4000244141</ele>
        <time>2019-04-18T11:19:07.000Z</time>
      </trkpt>
      <trkpt lat="46.08602" lon="6.13159">
        <ele>1324.4000244141</ele>
        <time>2019-04-18T11:19:08.000Z</time>
      </trkpt>
      <trkpt lat="46.08629" lon="6.13176">
        <ele>1324.1999511719</ele>
        <time>2019-04-18T11:19:13.000Z</time>
      </trkpt>
      <trkpt lat="46.08655" lon="6.13193">
        <ele>1324.1999511719</ele>
        <time>2019-04-18T11:19:17.000Z</time>
      </trkpt>
      <trkpt lat="46.08661" lon="6.13197">
        <ele>1324.1999511719</ele>
        <time>2019-04-18T11:19:18.000Z</time>
      </trkpt>
      <trkpt lat="46.08667" lon="6.13202">
        <ele>1324.4000244141</ele>
        <time>2019-04-18T11:19:19.000Z</time>
      </trkpt>
      <trkpt lat="46.0868" lon="6.13211">
        <ele>1324.5999755859</ele>
        <time>2019-04-18T11:19:21.000Z</time>
      </trkpt>
      <trkpt lat="46.08697" lon="6.13221">
        <ele>1324.8000488281</ele>
        <time>2019-04-18T11:19:24.000Z</time>
      </trkpt>
      <trkpt lat="46.08702" lon="6.13225">
        <ele>1325</ele>
        <time>2019-04-18T11:19:25.000Z</time>
      </trkpt>
      <trkpt lat="46.08716" lon="6.13234">
        <ele>1325.4000244141</ele>
        <time>2019-04-18T11:19:28.000Z</time>
      </trkpt>
      <trkpt lat="46.0872" lon="6.13236">
        <ele>1325.5999755859</ele>
        <time>2019-04-18T11:19:29.000Z</time>
      </trkpt>
      <trkpt lat="46.08724" lon="6.13239">
        <ele>1325.5999755859</ele>
        <time>2019-04-18T11:19:30.000Z</time>
      </trkpt>
      <trkpt lat="46.08734" lon="6.13245">
        <ele>1326.1999511719</ele>
        <time>2019-04-18T11:19:33.000Z</time>
      </trkpt>
      <trkpt lat="46.08754" lon="6.13258">
        <ele>1327.4000244141</ele>
        <time>2019-04-18T11:19:39.000Z</time>
      </trkpt>
      <trkpt lat="46.08758" lon="6.1326">
        <ele>1327.8000488281</ele>
        <time>2019-04-18T11:19:41.000Z</time>
      </trkpt>
      <trkpt lat="46.08761" lon="6.13262">
        <ele>1327.8000488281</ele>
        <time>2019-04-18T11:19:42.000Z</time>
      </trkpt>
      <trkpt lat="46.08775" lon="6.13271">
        <ele>1328.4000244141</ele>
        <time>2019-04-18T11:19:47.000Z</time>
      </trkpt>
      <trkpt lat="46.08786" lon="6.13278">
        <ele>1328.8000488281</ele>
        <time>2019-04-18T11:19:51.000Z</time>
      </trkpt>
      <trkpt lat="46.08804" lon="6.13289">
        <ele>1329.1999511719</ele>
        <time>2019-04-18T11:19:56.000Z</time>
      </trkpt>
      <trkpt lat="46.08817" lon="6.13309">
        <ele>1330.4000244141</ele>
        <time>2019-04-18T11:20:01.000Z</time>
      </trkpt>
      <trkpt lat="46.08824" lon="6.1332">
        <ele>1330.5999755859</ele>
        <time>2019-04-18T11:20:04.000Z</time>
      </trkpt>
      <trkpt lat="46.08826" lon="6.13324">
        <ele>1331</ele>
        <time>2019-04-18T11:20:05.000Z</time>
      </trkpt>
      <trkpt lat="46.08833" lon="6.13344">
        <ele>1331.5999755859</ele>
        <time>2019-04-18T11:20:10.000Z</time>
      </trkpt>
      <trkpt lat="46.08845" lon="6.13378">
        <ele>1332.5999755859</ele>
        <time>2019-04-18T11:20:16.000Z</time>
      </trkpt>
      <trkpt lat="46.08857" lon="6.13399">
        <ele>1332.8000488281</ele>
        <time>2019-04-18T11:20:21.000Z</time>
      </trkpt>
      <trkpt lat="46.08864" lon="6.13408">
        <ele>1332.8000488281</ele>
        <time>2019-04-18T11:20:24.000Z</time>
      </trkpt>
      <trkpt lat="46.08875" lon="6.13421">
        <ele>1332.8000488281</ele>
        <time>2019-04-18T11:20:29.000Z</time>
      </trkpt>
      <trkpt lat="46.08885" lon="6.13435">
        <ele>1333</ele>
        <time>2019-04-18T11:20:33.000Z</time>
      </trkpt>
      <trkpt lat="46.08887" lon="6.13442">
        <ele>1333.4000244141</ele>
        <time>2019-04-18T11:20:35.000Z</time>
      </trkpt>
      <trkpt lat="46.08887" lon="6.13443">
        <ele>1333.4000244141</ele>
        <time>2019-04-18T11:20:36.000Z</time>
      </trkpt>
      <trkpt lat="46.08887" lon="6.13445">
        <ele>1333.5999755859</ele>
        <time>2019-04-18T11:20:37.000Z</time>
      </trkpt>
      <trkpt lat="46.0889" lon="6.13454">
        <ele>1334.1999511719</ele>
        <time>2019-04-18T11:20:39.000Z</time>
      </trkpt>
      <trkpt lat="46.08898" lon="6.13485">
        <ele>1336.5999755859</ele>
        <time>2019-04-18T11:20:45.000Z</time>
      </trkpt>
      <trkpt lat="46.08906" lon="6.13514">
        <ele>1339.1999511719</ele>
        <time>2019-04-18T11:20:52.000Z</time>
      </trkpt>
      <trkpt lat="46.08911" lon="6.13542">
        <ele>1341.5999755859</ele>
        <time>2019-04-18T11:20:59.000Z</time>
      </trkpt>
      <trkpt lat="46.08914" lon="6.13557">
        <ele>1342.8000488281</ele>
        <time>2019-04-18T11:21:03.000Z</time>
      </trkpt>
      <trkpt lat="46.08915" lon="6.13561">
        <ele>1343.1999511719</ele>
        <time>2019-04-18T11:21:04.000Z</time>
      </trkpt>
      <trkpt lat="46.08921" lon="6.13589">
        <ele>1346.4000244141</ele>
        <time>2019-04-18T11:21:12.000Z</time>
      </trkpt>
      <trkpt lat="46.08923" lon="6.13596">
        <ele>1346.8000488281</ele>
        <time>2019-04-18T11:21:14.000Z</time>
      </trkpt>
      <trkpt lat="46.08925" lon="6.13606">
        <ele>1347.4000244141</ele>
        <time>2019-04-18T11:21:17.000Z</time>
      </trkpt>
      <trkpt lat="46.0893" lon="6.13632">
        <ele>1348.8000488281</ele>
        <time>2019-04-18T11:21:24.000Z</time>
      </trkpt>
      <trkpt lat="46.08934" lon="6.13651">
        <ele>1349.4000244141</ele>
        <time>2019-04-18T11:21:29.000Z</time>
      </trkpt>
      <trkpt lat="46.08935" lon="6.13654">
        <ele>1349.1999511719</ele>
        <time>2019-04-18T11:21:30.000Z</time>
      </trkpt>
      <trkpt lat="46.08938" lon="6.13668">
        <ele>1349</ele>
        <time>2019-04-18T11:21:34.000Z</time>
      </trkpt>
      <trkpt lat="46.08938" lon="6.13671">
        <ele>1349</ele>
        <time>2019-04-18T11:21:35.000Z</time>
      </trkpt>
      <trkpt lat="46.08939" lon="6.13674">
        <ele>1349</ele>
        <time>2019-04-18T11:21:36.000Z</time>
      </trkpt>
      <trkpt lat="46.08941" lon="6.13683">
        <ele>1348.8000488281</ele>
        <time>2019-04-18T11:21:38.000Z</time>
      </trkpt>
      <trkpt lat="46.08944" lon="6.13696">
        <ele>1348.4000244141</ele>
        <time>2019-04-18T11:21:40.000Z</time>
      </trkpt>
      <trkpt lat="46.08948" lon="6.1371">
        <ele>1347.8000488281</ele>
        <time>2019-04-18T11:21:42.000Z</time>
      </trkpt>
      <trkpt lat="46.08951" lon="6.13714">
        <ele>1347.5999755859</ele>
        <time>2019-04-18T11:21:43.000Z</time>
      </trkpt>
      <trkpt lat="46.08969" lon="6.13735">
        <ele>1347.5999755859</ele>
        <time>2019-04-18T11:21:48.000Z</time>
      </trkpt>
      <trkpt lat="46.08977" lon="6.13743">
        <ele>1347.5999755859</ele>
        <time>2019-04-18T11:21:51.000Z</time>
      </trkpt>
      <trkpt lat="46.08982" lon="6.13748">
        <ele>1347.5999755859</ele>
        <time>2019-04-18T11:21:53.000Z</time>
      </trkpt>
      <trkpt lat="46.08986" lon="6.13752">
        <ele>1347.5999755859</ele>
        <time>2019-04-18T11:21:54.000Z</time>
      </trkpt>
      <trkpt lat="46.09003" lon="6.13768">
        <ele>1347.4000244141</ele>
        <time>2019-04-18T11:21:57.000Z</time>
      </trkpt>
      <trkpt lat="46.09008" lon="6.13773">
        <ele>1347.4000244141</ele>
        <time>2019-04-18T11:21:58.000Z</time>
      </trkpt>
      <trkpt lat="46.09023" lon="6.13788">
        <ele>1347.1999511719</ele>
        <time>2019-04-18T11:22:01.000Z</time>
      </trkpt>
      <trkpt lat="46.09027" lon="6.13792">
        <ele>1347.1999511719</ele>
        <time>2019-04-18T11:22:02.000Z</time>
      </trkpt>
      <trkpt lat="46.09046" lon="6.13824">
        <ele>1346.4000244141</ele>
        <time>2019-04-18T11:22:08.000Z</time>
      </trkpt>
      <trkpt lat="46.09052" lon="6.13841">
        <ele>1346.4000244141</ele>
        <time>2019-04-18T11:22:11.000Z</time>
      </trkpt>
      <trkpt lat="46.09056" lon="6.13853">
        <ele>1346.1999511719</ele>
        <time>2019-04-18T11:22:13.000Z</time>
      </trkpt>
      <trkpt lat="46.09058" lon="6.13859">
        <ele>1346.1999511719</ele>
        <time>2019-04-18T11:22:14.000Z</time>
      </trkpt>
      <trkpt lat="46.09062" lon="6.1387">
        <ele>1346</ele>
        <time>2019-04-18T11:22:16.000Z</time>
      </trkpt>
      <trkpt lat="46.0907" lon="6.13893">
        <ele>1345.8000488281</ele>
        <time>2019-04-18T11:22:20.000Z</time>
      </trkpt>
      <trkpt lat="46.09073" lon="6.139">
        <ele>1345</ele>
        <time>2019-04-18T11:22:21.000Z</time>
      </trkpt>
      <trkpt lat="46.09076" lon="6.13908">
        <ele>1344</ele>
        <time>2019-04-18T11:22:22.000Z</time>
      </trkpt>
      <trkpt lat="46.09082" lon="6.13925">
        <ele>1342.4000244141</ele>
        <time>2019-04-18T11:22:24.000Z</time>
      </trkpt>
      <trkpt lat="46.09084" lon="6.13932">
        <ele>1341.8000488281</ele>
        <time>2019-04-18T11:22:25.000Z</time>
      </trkpt>
      <trkpt lat="46.09092" lon="6.13944">
        <ele>1340.8000488281</ele>
        <time>2019-04-18T11:22:27.000Z</time>
      </trkpt>
      <trkpt lat="46.09101" lon="6.1395">
        <ele>1340.4000244141</ele>
        <time>2019-04-18T11:22:29.000Z</time>
      </trkpt>
      <trkpt lat="46.09106" lon="6.1395">
        <ele>1340.5999755859</ele>
        <time>2019-04-18T11:22:30.000Z</time>
      </trkpt>
      <trkpt lat="46.09113" lon="6.13951">
        <ele>1340.8000488281</ele>
        <time>2019-04-18T11:22:32.000Z</time>
      </trkpt>
      <trkpt lat="46.09121" lon="6.13952">
        <ele>1341</ele>
        <time>2019-04-18T11:22:34.000Z</time>
      </trkpt>
      <trkpt lat="46.09132" lon="6.13953">
        <ele>1341.8000488281</ele>
        <time>2019-04-18T11:22:36.000Z</time>
      </trkpt>
      <trkpt lat="46.09159" lon="6.13955">
        <ele>1343.4000244141</ele>
        <time>2019-04-18T11:22:40.000Z</time>
      </trkpt>
      <trkpt lat="46.09166" lon="6.13956">
        <ele>1343.8000488281</ele>
        <time>2019-04-18T11:22:41.000Z</time>
      </trkpt>
      <trkpt lat="46.09183" lon="6.13962">
        <ele>1344.1999511719</ele>
        <time>2019-04-18T11:22:43.000Z</time>
      </trkpt>
      <trkpt lat="46.09189" lon="6.13966">
        <ele>1343.8000488281</ele>
        <time>2019-04-18T11:22:44.000Z</time>
      </trkpt>
      <trkpt lat="46.09195" lon="6.13972">
        <ele>1343.5999755859</ele>
        <time>2019-04-18T11:22:45.000Z</time>
      </trkpt>
      <trkpt lat="46.09208" lon="6.13984">
        <ele>1344</ele>
        <time>2019-04-18T11:22:47.000Z</time>
      </trkpt>
      <trkpt lat="46.09211" lon="6.13991">
        <ele>1344.8000488281</ele>
        <time>2019-04-18T11:22:48.000Z</time>
      </trkpt>
      <trkpt lat="46.09218" lon="6.14006">
        <ele>1346.4000244141</ele>
        <time>2019-04-18T11:22:50.000Z</time>
      </trkpt>
      <trkpt lat="46.09223" lon="6.14021">
        <ele>1347.8000488281</ele>
        <time>2019-04-18T11:22:52.000Z</time>
      </trkpt>
      <trkpt lat="46.09224" lon="6.14028">
        <ele>1348.5999755859</ele>
        <time>2019-04-18T11:22:53.000Z</time>
      </trkpt>
      <trkpt lat="46.0923" lon="6.14052">
        <ele>1351</ele>
        <time>2019-04-18T11:22:56.000Z</time>
      </trkpt>
      <trkpt lat="46.09238" lon="6.14088">
        <ele>1352.4000244141</ele>
        <time>2019-04-18T11:23:01.000Z</time>
      </trkpt>
      <trkpt lat="46.09244" lon="6.14113">
        <ele>1353</ele>
        <time>2019-04-18T11:23:05.000Z</time>
      </trkpt>
      <trkpt lat="46.09253" lon="6.14155">
        <ele>1352.8000488281</ele>
        <time>2019-04-18T11:23:12.000Z</time>
      </trkpt>
      <trkpt lat="46.09267" lon="6.14204">
        <ele>1350.8000488281</ele>
        <time>2019-04-18T11:23:21.000Z</time>
      </trkpt>
      <trkpt lat="46.09274" lon="6.14225">
        <ele>1350.4000244141</ele>
        <time>2019-04-18T11:23:25.000Z</time>
      </trkpt>
      <trkpt lat="46.09279" lon="6.14238">
        <ele>1349</ele>
        <time>2019-04-18T11:23:27.000Z</time>
      </trkpt>
      <trkpt lat="46.09309" lon="6.14273">
        <ele>1345.1999511719</ele>
        <time>2019-04-18T11:23:35.000Z</time>
      </trkpt>
      <trkpt lat="46.09336" lon="6.14307">
        <ele>1341.1999511719</ele>
        <time>2019-04-18T11:23:42.000Z</time>
      </trkpt>
      <trkpt lat="46.09339" lon="6.14312">
        <ele>1340.5999755859</ele>
        <time>2019-04-18T11:23:43.000Z</time>
      </trkpt>
      <trkpt lat="46.09352" lon="6.14334">
        <ele>1339.5999755859</ele>
        <time>2019-04-18T11:23:47.000Z</time>
      </trkpt>
      <trkpt lat="46.09363" lon="6.14352">
        <ele>1338.8000488281</ele>
        <time>2019-04-18T11:23:50.000Z</time>
      </trkpt>
      <trkpt lat="46.09371" lon="6.14362">
        <ele>1338.4000244141</ele>
        <time>2019-04-18T11:23:52.000Z</time>
      </trkpt>
      <trkpt lat="46.094" lon="6.14382">
        <ele>1338.4000244141</ele>
        <time>2019-04-18T11:23:57.000Z</time>
      </trkpt>
      <trkpt lat="46.09432" lon="6.14397">
        <ele>1339</ele>
        <time>2019-04-18T11:24:02.000Z</time>
      </trkpt>
      <trkpt lat="46.09439" lon="6.144">
        <ele>1339.1999511719</ele>
        <time>2019-04-18T11:24:03.000Z</time>
      </trkpt>
      <trkpt lat="46.09445" lon="6.14407">
        <ele>1339</ele>
        <time>2019-04-18T11:24:04.000Z</time>
      </trkpt>
      <trkpt lat="46.09455" lon="6.14421">
        <ele>1338.4000244141</ele>
        <time>2019-04-18T11:24:06.000Z</time>
      </trkpt>
      <trkpt lat="46.09458" lon="6.1443">
        <ele>1337.8000488281</ele>
        <time>2019-04-18T11:24:07.000Z</time>
      </trkpt>
      <trkpt lat="46.09484" lon="6.14497">
        <ele>1333.5999755859</ele>
        <time>2019-04-18T11:24:14.000Z</time>
      </trkpt>
      <trkpt lat="46.09513" lon="6.1457">
        <ele>1328.5999755859</ele>
        <time>2019-04-18T11:24:21.000Z</time>
      </trkpt>
      <trkpt lat="46.09517" lon="6.1458">
        <ele>1328.1999511719</ele>
        <time>2019-04-18T11:24:22.000Z</time>
      </trkpt>
      <trkpt lat="46.09528" lon="6.14623">
        <ele>1326.4000244141</ele>
        <time>2019-04-18T11:24:26.000Z</time>
      </trkpt>
      <trkpt lat="46.09535" lon="6.14655">
        <ele>1325.4000244141</ele>
        <time>2019-04-18T11:24:29.000Z</time>
      </trkpt>
      <trkpt lat="46.09538" lon="6.14676">
        <ele>1325.4000244141</ele>
        <time>2019-04-18T11:24:31.000Z</time>
      </trkpt>
      <trkpt lat="46.09548" lon="6.14688">
        <ele>1325.8000488281</ele>
        <time>2019-04-18T11:24:33.000Z</time>
      </trkpt>
      <trkpt lat="46.09563" lon="6.14688">
        <ele>1326.4000244141</ele>
        <time>2019-04-18T11:24:35.000Z</time>
      </trkpt>
      <trkpt lat="46.09567" lon="6.14692">
        <ele>1326</ele>
        <time>2019-04-18T11:24:36.000Z</time>
      </trkpt>
      <trkpt lat="46.09575" lon="6.14699">
        <ele>1325.4000244141</ele>
        <time>2019-04-18T11:24:38.000Z</time>
      </trkpt>
      <trkpt lat="46.0958" lon="6.14698">
        <ele>1325.1999511719</ele>
        <time>2019-04-18T11:24:39.000Z</time>
      </trkpt>
      <trkpt lat="46.09585" lon="6.14697">
        <ele>1324.8000488281</ele>
        <time>2019-04-18T11:24:40.000Z</time>
      </trkpt>
      <trkpt lat="46.09613" lon="6.14692">
        <ele>1323.5999755859</ele>
        <time>2019-04-18T11:24:45.000Z</time>
      </trkpt>
      <trkpt lat="46.0965" lon="6.14684">
        <ele>1323</ele>
        <time>2019-04-18T11:24:52.000Z</time>
      </trkpt>
      <trkpt lat="46.09656" lon="6.14683">
        <ele>1322.8000488281</ele>
        <time>2019-04-18T11:24:53.000Z</time>
      </trkpt>
      <trkpt lat="46.09668" lon="6.14677">
        <ele>1322.1999511719</ele>
        <time>2019-04-18T11:24:55.000Z</time>
      </trkpt>
      <trkpt lat="46.09673" lon="6.14673">
        <ele>1322.1999511719</ele>
        <time>2019-04-18T11:24:56.000Z</time>
      </trkpt>
      <trkpt lat="46.0971" lon="6.14644">
        <ele>1321.1999511719</ele>
        <time>2019-04-18T11:25:02.000Z</time>
      </trkpt>
      <trkpt lat="46.09742" lon="6.14619">
        <ele>1321.8000488281</ele>
        <time>2019-04-18T11:25:07.000Z</time>
      </trkpt>
      <trkpt lat="46.09749" lon="6.14616">
        <ele>1322</ele>
        <time>2019-04-18T11:25:08.000Z</time>
      </trkpt>
      <trkpt lat="46.09755" lon="6.14618">
        <ele>1321.8000488281</ele>
        <time>2019-04-18T11:25:09.000Z</time>
      </trkpt>
      <trkpt lat="46.09768" lon="6.14622">
        <ele>1321.5999755859</ele>
        <time>2019-04-18T11:25:11.000Z</time>
      </trkpt>
      <trkpt lat="46.09792" lon="6.1464">
        <ele>1320.1999511719</ele>
        <time>2019-04-18T11:25:15.000Z</time>
      </trkpt>
      <trkpt lat="46.09827" lon="6.14684">
        <ele>1317.8000488281</ele>
        <time>2019-04-18T11:25:21.000Z</time>
      </trkpt>
      <trkpt lat="46.09857" lon="6.14736">
        <ele>1315.1999511719</ele>
        <time>2019-04-18T11:25:27.000Z</time>
      </trkpt>
      <trkpt lat="46.0989" lon="6.14798">
        <ele>1311.8000488281</ele>
        <time>2019-04-18T11:25:34.000Z</time>
      </trkpt>
      <trkpt lat="46.09895" lon="6.14806">
        <ele>1311.1999511719</ele>
        <time>2019-04-18T11:25:35.000Z</time>
      </trkpt>
      <trkpt lat="46.09905" lon="6.1482">
        <ele>1310.5999755859</ele>
        <time>2019-04-18T11:25:37.000Z</time>
      </trkpt>
      <trkpt lat="46.09911" lon="6.14824">
        <ele>1310.4000244141</ele>
        <time>2019-04-18T11:25:38.000Z</time>
      </trkpt>
      <trkpt lat="46.09954" lon="6.14855">
        <ele>1309.1999511719</ele>
        <time>2019-04-18T11:25:45.000Z</time>
      </trkpt>
      <trkpt lat="46.09985" lon="6.14878">
        <ele>1308.4000244141</ele>
        <time>2019-04-18T11:25:50.000Z</time>
      </trkpt>
      <trkpt lat="46.09992" lon="6.14879">
        <ele>1308.1999511719</ele>
        <time>2019-04-18T11:25:51.000Z</time>
      </trkpt>
      <trkpt lat="46.09999" lon="6.14879">
        <ele>1308.1999511719</ele>
        <time>2019-04-18T11:25:52.000Z</time>
      </trkpt>
      <trkpt lat="46.10012" lon="6.14874">
        <ele>1307.5999755859</ele>
        <time>2019-04-18T11:25:54.000Z</time>
      </trkpt>
      <trkpt lat="46.10017" lon="6.14871">
        <ele>1307.4000244141</ele>
        <time>2019-04-18T11:25:55.000Z</time>
      </trkpt>
      <trkpt lat="46.10034" lon="6.14863">
        <ele>1306.5999755859</ele>
        <time>2019-04-18T11:25:58.000Z</time>
      </trkpt>
      <trkpt lat="46.1004" lon="6.14861">
        <ele>1306</ele>
        <time>2019-04-18T11:25:59.000Z</time>
      </trkpt>
      <trkpt lat="46.10045" lon="6.14863">
        <ele>1305.5999755859</ele>
        <time>2019-04-18T11:26:00.000Z</time>
      </trkpt>
      <trkpt lat="46.10057" lon="6.14868">
        <ele>1305</ele>
        <time>2019-04-18T11:26:02.000Z</time>
      </trkpt>
      <trkpt lat="46.10062" lon="6.14871">
        <ele>1304.8000488281</ele>
        <time>2019-04-18T11:26:03.000Z</time>
      </trkpt>
      <trkpt lat="46.1009" lon="6.14911">
        <ele>1302.5999755859</ele>
        <time>2019-04-18T11:26:09.000Z</time>
      </trkpt>
      <trkpt lat="46.10129" lon="6.14968">
        <ele>1299</ele>
        <time>2019-04-18T11:26:17.000Z</time>
      </trkpt>
      <trkpt lat="46.10162" lon="6.15025">
        <ele>1297.4000244141</ele>
        <time>2019-04-18T11:26:24.000Z</time>
      </trkpt>
      <trkpt lat="46.10199" lon="6.1508">
        <ele>1295.1999511719</ele>
        <time>2019-04-18T11:26:31.000Z</time>
      </trkpt>
      <trkpt lat="46.10239" lon="6.1513">
        <ele>1292</ele>
        <time>2019-04-18T11:26:38.000Z</time>
      </trkpt>
      <trkpt lat="46.10282" lon="6.15177">
        <ele>1289.5999755859</ele>
        <time>2019-04-18T11:26:45.000Z</time>
      </trkpt>
      <trkpt lat="46.10288" lon="6.15184">
        <ele>1289.1999511719</ele>
        <time>2019-04-18T11:26:46.000Z</time>
      </trkpt>
      <trkpt lat="46.10341" lon="6.15227">
        <ele>1286</ele>
        <time>2019-04-18T11:26:54.000Z</time>
      </trkpt>
      <trkpt lat="46.10347" lon="6.15232">
        <ele>1286</ele>
        <time>2019-04-18T11:26:55.000Z</time>
      </trkpt>
      <trkpt lat="46.10393" lon="6.1527">
        <ele>1285.1999511719</ele>
        <time>2019-04-18T11:27:03.000Z</time>
      </trkpt>
      <trkpt lat="46.10425" lon="6.15296">
        <ele>1287.5999755859</ele>
        <time>2019-04-18T11:27:09.000Z</time>
      </trkpt>
      <trkpt lat="46.10465" lon="6.15314">
        <ele>1289.4000244141</ele>
        <time>2019-04-18T11:27:16.000Z</time>
      </trkpt>
      <trkpt lat="46.10509" lon="6.15328">
        <ele>1291.8000488281</ele>
        <time>2019-04-18T11:27:23.000Z</time>
      </trkpt>
      <trkpt lat="46.10515" lon="6.15327">
        <ele>1291.8000488281</ele>
        <time>2019-04-18T11:27:24.000Z</time>
      </trkpt>
      <trkpt lat="46.10534" lon="6.15323">
        <ele>1291.4000244141</ele>
        <time>2019-04-18T11:27:27.000Z</time>
      </trkpt>
      <trkpt lat="46.1056" lon="6.15319">
        <ele>1291.1999511719</ele>
        <time>2019-04-18T11:27:31.000Z</time>
      </trkpt>
      <trkpt lat="46.10566" lon="6.15319">
        <ele>1291.1999511719</ele>
        <time>2019-04-18T11:27:32.000Z</time>
      </trkpt>
      <trkpt lat="46.10611" lon="6.15328">
        <ele>1291</ele>
        <time>2019-04-18T11:27:39.000Z</time>
      </trkpt>
      <trkpt lat="46.10654" lon="6.15344">
        <ele>1291.4000244141</ele>
        <time>2019-04-18T11:27:46.000Z</time>
      </trkpt>
      <trkpt lat="46.10697" lon="6.15367">
        <ele>1290.4000244141</ele>
        <time>2019-04-18T11:27:53.000Z</time>
      </trkpt>
      <trkpt lat="46.10739" lon="6.15389">
        <ele>1288</ele>
        <time>2019-04-18T11:27:59.000Z</time>
      </trkpt>
      <trkpt lat="46.1077" lon="6.15405">
        <ele>1285.5999755859</ele>
        <time>2019-04-18T11:28:03.000Z</time>
      </trkpt>
      <trkpt lat="46.10785" lon="6.15413">
        <ele>1284.1999511719</ele>
        <time>2019-04-18T11:28:05.000Z</time>
      </trkpt>
      <trkpt lat="46.10835" lon="6.15449">
        <ele>1281.4000244141</ele>
        <time>2019-04-18T11:28:12.000Z</time>
      </trkpt>
      <trkpt lat="46.10884" lon="6.15486">
        <ele>1277.1999511719</ele>
        <time>2019-04-18T11:28:19.000Z</time>
      </trkpt>
      <trkpt lat="46.10938" lon="6.15526">
        <ele>1272.8000488281</ele>
        <time>2019-04-18T11:28:27.000Z</time>
      </trkpt>
      <trkpt lat="46.10952" lon="6.15536">
        <ele>1271.5999755859</ele>
        <time>2019-04-18T11:28:29.000Z</time>
      </trkpt>
      <trkpt lat="46.11" lon="6.15572">
        <ele>1269</ele>
        <time>2019-04-18T11:28:36.000Z</time>
      </trkpt>
      <trkpt lat="46.11015" lon="6.15583">
        <ele>1268.4000244141</ele>
        <time>2019-04-18T11:28:38.000Z</time>
      </trkpt>
      <trkpt lat="46.11066" lon="6.15621">
        <ele>1266.8000488281</ele>
        <time>2019-04-18T11:28:45.000Z</time>
      </trkpt>
      <trkpt lat="46.11073" lon="6.15626">
        <ele>1266.4000244141</ele>
        <time>2019-04-18T11:28:46.000Z</time>
      </trkpt>
      <trkpt lat="46.11119" lon="6.15671">
        <ele>1263.8000488281</ele>
        <time>2019-04-18T11:28:53.000Z</time>
      </trkpt>
      <trkpt lat="46.11126" lon="6.15678">
        <ele>1263.1999511719</ele>
        <time>2019-04-18T11:28:54.000Z</time>
      </trkpt>
      <trkpt lat="46.11168" lon="6.15719">
        <ele>1260.1999511719</ele>
        <time>2019-04-18T11:29:01.000Z</time>
      </trkpt>
      <trkpt lat="46.11205" lon="6.15755">
        <ele>1257.4000244141</ele>
        <time>2019-04-18T11:29:07.000Z</time>
      </trkpt>
      <trkpt lat="46.1125" lon="6.15798">
        <ele>1254</ele>
        <time>2019-04-18T11:29:14.000Z</time>
      </trkpt>
      <trkpt lat="46.11257" lon="6.15805">
        <ele>1253.5999755859</ele>
        <time>2019-04-18T11:29:15.000Z</time>
      </trkpt>
      <trkpt lat="46.11305" lon="6.15852">
        <ele>1248.8000488281</ele>
        <time>2019-04-18T11:29:22.000Z</time>
      </trkpt>
      <trkpt lat="46.11354" lon="6.15898">
        <ele>1245.5999755859</ele>
        <time>2019-04-18T11:29:29.000Z</time>
      </trkpt>
      <trkpt lat="46.114" lon="6.15935">
        <ele>1243</ele>
        <time>2019-04-18T11:29:36.000Z</time>
      </trkpt>
      <trkpt lat="46.1144" lon="6.1597">
        <ele>1241.4000244141</ele>
        <time>2019-04-18T11:29:42.000Z</time>
      </trkpt>
      <trkpt lat="46.11468" lon="6.16004">
        <ele>1240.1999511719</ele>
        <time>2019-04-18T11:29:47.000Z</time>
      </trkpt>
      <trkpt lat="46.11491" lon="6.16044">
        <ele>1237.8000488281</ele>
        <time>2019-04-18T11:29:52.000Z</time>
      </trkpt>
      <trkpt lat="46.11521" lon="6.16117">
        <ele>1236.4000244141</ele>
        <time>2019-04-18T11:30:00.000Z</time>
      </trkpt>
      <trkpt lat="46.11544" lon="6.16167">
        <ele>1237.1999511719</ele>
        <time>2019-04-18T11:30:06.000Z</time>
      </trkpt>
      <trkpt lat="46.11559" lon="6.16188">
        <ele>1238</ele>
        <time>2019-04-18T11:30:09.000Z</time>
      </trkpt>
      <trkpt lat="46.11573" lon="6.16197">
        <ele>1237</ele>
        <time>2019-04-18T11:30:11.000Z</time>
      </trkpt>
      <trkpt lat="46.11587" lon="6.16207">
        <ele>1235.8000488281</ele>
        <time>2019-04-18T11:30:13.000Z</time>
      </trkpt>
      <trkpt lat="46.11614" lon="6.16222">
        <ele>1233</ele>
        <time>2019-04-18T11:30:17.000Z</time>
      </trkpt>
      <trkpt lat="46.11656" lon="6.16239">
        <ele>1227.4000244141</ele>
        <time>2019-04-18T11:30:23.000Z</time>
      </trkpt>
      <trkpt lat="46.11683" lon="6.16252">
        <ele>1224.8000488281</ele>
        <time>2019-04-18T11:30:27.000Z</time>
      </trkpt>
      <trkpt lat="46.1169" lon="6.16256">
        <ele>1224.4000244141</ele>
        <time>2019-04-18T11:30:28.000Z</time>
      </trkpt>
      <trkpt lat="46.11739" lon="6.16288">
        <ele>1220.5999755859</ele>
        <time>2019-04-18T11:30:35.000Z</time>
      </trkpt>
      <trkpt lat="46.11792" lon="6.16325">
        <ele>1216.4000244141</ele>
        <time>2019-04-18T11:30:43.000Z</time>
      </trkpt>
      <trkpt lat="46.11826" lon="6.16367">
        <ele>1213</ele>
        <time>2019-04-18T11:30:49.000Z</time>
      </trkpt>
      <trkpt lat="46.11865" lon="6.16428">
        <ele>1208.8000488281</ele>
        <time>2019-04-18T11:30:56.000Z</time>
      </trkpt>
      <trkpt lat="46.11892" lon="6.16483">
        <ele>1206.5999755859</ele>
        <time>2019-04-18T11:31:02.000Z</time>
      </trkpt>
      <trkpt lat="46.11917" lon="6.1655">
        <ele>1200</ele>
        <time>2019-04-18T11:31:09.000Z</time>
      </trkpt>
      <trkpt lat="46.11928" lon="6.16606">
        <ele>1195.4000244141</ele>
        <time>2019-04-18T11:31:14.000Z</time>
      </trkpt>
      <trkpt lat="46.11931" lon="6.16665">
        <ele>1191.4000244141</ele>
        <time>2019-04-18T11:31:19.000Z</time>
      </trkpt>
      <trkpt lat="46.11933" lon="6.16709">
        <ele>1187.5999755859</ele>
        <time>2019-04-18T11:31:23.000Z</time>
      </trkpt>
      <trkpt lat="46.11927" lon="6.16762">
        <ele>1184.5999755859</ele>
        <time>2019-04-18T11:31:28.000Z</time>
      </trkpt>
      <trkpt lat="46.11921" lon="6.16818">
        <ele>1180.4000244141</ele>
        <time>2019-04-18T11:31:33.000Z</time>
      </trkpt>
      <trkpt lat="46.1192" lon="6.16829">
        <ele>1180</ele>
        <time>2019-04-18T11:31:34.000Z</time>
      </trkpt>
      <trkpt lat="46.11923" lon="6.16862">
        <ele>1177.5999755859</ele>
        <time>2019-04-18T11:31:37.000Z</time>
      </trkpt>
      <trkpt lat="46.1193" lon="6.16935">
        <ele>1173.5999755859</ele>
        <time>2019-04-18T11:31:44.000Z</time>
      </trkpt>
      <trkpt lat="46.11933" lon="6.16962">
        <ele>1171.8000488281</ele>
        <time>2019-04-18T11:31:47.000Z</time>
      </trkpt>
      <trkpt lat="46.11932" lon="6.1698">
        <ele>1171.4000244141</ele>
        <time>2019-04-18T11:31:49.000Z</time>
      </trkpt>
      <trkpt lat="46.1193" lon="6.17036">
        <ele>1173.1999511719</ele>
        <time>2019-04-18T11:31:55.000Z</time>
      </trkpt>
      <trkpt lat="46.11935" lon="6.17071">
        <ele>1172.1999511719</ele>
        <time>2019-04-18T11:31:59.000Z</time>
      </trkpt>
      <trkpt lat="46.11936" lon="6.17079">
        <ele>1172.8000488281</ele>
        <time>2019-04-18T11:32:00.000Z</time>
      </trkpt>
      <trkpt lat="46.11938" lon="6.17102">
        <ele>1174.1999511719</ele>
        <time>2019-04-18T11:32:03.000Z</time>
      </trkpt>
      <trkpt lat="46.11943" lon="6.17136">
        <ele>1172.8000488281</ele>
        <time>2019-04-18T11:32:09.000Z</time>
      </trkpt>
      <trkpt lat="46.11948" lon="6.17163">
        <ele>1172.8000488281</ele>
        <time>2019-04-18T11:32:14.000Z</time>
      </trkpt>
      <trkpt lat="46.11961" lon="6.17178">
        <ele>1173.5999755859</ele>
        <time>2019-04-18T11:32:18.000Z</time>
      </trkpt>
      <trkpt lat="46.11964" lon="6.17182">
        <ele>1173.8000488281</ele>
        <time>2019-04-18T11:32:19.000Z</time>
      </trkpt>
      <trkpt lat="46.11979" lon="6.17185">
        <ele>1174.8000488281</ele>
        <time>2019-04-18T11:32:23.000Z</time>
      </trkpt>
      <trkpt lat="46.11995" lon="6.17186">
        <ele>1176.4000244141</ele>
        <time>2019-04-18T11:32:29.000Z</time>
      </trkpt>
      <trkpt lat="46.12008" lon="6.17185">
        <ele>1177.8000488281</ele>
        <time>2019-04-18T11:32:34.000Z</time>
      </trkpt>
      <trkpt lat="46.12021" lon="6.17185">
        <ele>1179.1999511719</ele>
        <time>2019-04-18T11:32:39.000Z</time>
      </trkpt>
      <trkpt lat="46.12038" lon="6.17184">
        <ele>1181.4000244141</ele>
        <time>2019-04-18T11:32:45.000Z</time>
      </trkpt>
      <trkpt lat="46.12055" lon="6.17181">
        <ele>1183.4000244141</ele>
        <time>2019-04-18T11:32:51.000Z</time>
      </trkpt>
      <trkpt lat="46.12071" lon="6.17168">
        <ele>1185</ele>
        <time>2019-04-18T11:32:58.000Z</time>
      </trkpt>
      <trkpt lat="46.12088" lon="6.17155">
        <ele>1186.5999755859</ele>
        <time>2019-04-18T11:33:05.000Z</time>
      </trkpt>
      <trkpt lat="46.12108" lon="6.17139">
        <ele>1187.8000488281</ele>
        <time>2019-04-18T11:33:13.000Z</time>
      </trkpt>
      <trkpt lat="46.12127" lon="6.17132">
        <ele>1188.8000488281</ele>
        <time>2019-04-18T11:33:20.000Z</time>
      </trkpt>
      <trkpt lat="46.12145" lon="6.17126">
        <ele>1190.5999755859</ele>
        <time>2019-04-18T11:33:27.000Z</time>
      </trkpt>
      <trkpt lat="46.12161" lon="6.17122">
        <ele>1191.5999755859</ele>
        <time>2019-04-18T11:33:33.000Z</time>
      </trkpt>
      <trkpt lat="46.12179" lon="6.17116">
        <ele>1192.5999755859</ele>
        <time>2019-04-18T11:33:41.000Z</time>
      </trkpt>
      <trkpt lat="46.12197" lon="6.17104">
        <ele>1193.1999511719</ele>
        <time>2019-04-18T11:33:48.000Z</time>
      </trkpt>
      <trkpt lat="46.12212" lon="6.17089">
        <ele>1193.5999755859</ele>
        <time>2019-04-18T11:33:54.000Z</time>
      </trkpt>
      <trkpt lat="46.12229" lon="6.17072">
        <ele>1193.8000488281</ele>
        <time>2019-04-18T11:34:01.000Z</time>
      </trkpt>
      <trkpt lat="46.12245" lon="6.17061">
        <ele>1193.4000244141</ele>
        <time>2019-04-18T11:34:07.000Z</time>
      </trkpt>
      <trkpt lat="46.12264" lon="6.17051">
        <ele>1192.5999755859</ele>
        <time>2019-04-18T11:34:14.000Z</time>
      </trkpt>
      <trkpt lat="46.12277" lon="6.17052">
        <ele>1193</ele>
        <time>2019-04-18T11:34:20.000Z</time>
      </trkpt>
      <trkpt lat="46.12293" lon="6.17053">
        <ele>1193.4000244141</ele>
        <time>2019-04-18T11:34:26.000Z</time>
      </trkpt>
      <trkpt lat="46.12307" lon="6.17064">
        <ele>1195.1999511719</ele>
        <time>2019-04-18T11:34:32.000Z</time>
      </trkpt>
      <trkpt lat="46.12324" lon="6.17077">
        <ele>1196.8000488281</ele>
        <time>2019-04-18T11:34:40.000Z</time>
      </trkpt>
      <trkpt lat="46.12338" lon="6.17089">
        <ele>1198</ele>
        <time>2019-04-18T11:34:46.000Z</time>
      </trkpt>
      <trkpt lat="46.12354" lon="6.17101">
        <ele>1199.1999511719</ele>
        <time>2019-04-18T11:34:53.000Z</time>
      </trkpt>
      <trkpt lat="46.12373" lon="6.17116">
        <ele>1200.5999755859</ele>
        <time>2019-04-18T11:35:01.000Z</time>
      </trkpt>
      <trkpt lat="46.12393" lon="6.17129">
        <ele>1201.8000488281</ele>
        <time>2019-04-18T11:35:09.000Z</time>
      </trkpt>
      <trkpt lat="46.12413" lon="6.17138">
        <ele>1202.8000488281</ele>
        <time>2019-04-18T11:35:17.000Z</time>
      </trkpt>
      <trkpt lat="46.1243" lon="6.17147">
        <ele>1203.5999755859</ele>
        <time>2019-04-18T11:35:24.000Z</time>
      </trkpt>
      <trkpt lat="46.12452" lon="6.17159">
        <ele>1203.5999755859</ele>
        <time>2019-04-18T11:35:32.000Z</time>
      </trkpt>
      <trkpt lat="46.12475" lon="6.17175">
        <ele>1203.8000488281</ele>
        <time>2019-04-18T11:35:42.000Z</time>
      </trkpt>
      <trkpt lat="46.12493" lon="6.17189">
        <ele>1206</ele>
        <time>2019-04-18T11:35:49.000Z</time>
      </trkpt>
      <trkpt lat="46.12508" lon="6.17201">
        <ele>1208</ele>
        <time>2019-04-18T11:35:55.000Z</time>
      </trkpt>
      <trkpt lat="46.12523" lon="6.17212">
        <ele>1210</ele>
        <time>2019-04-18T11:36:01.000Z</time>
      </trkpt>
      <trkpt lat="46.1254" lon="6.17226">
        <ele>1212.4000244141</ele>
        <time>2019-04-18T11:36:08.000Z</time>
      </trkpt>
      <trkpt lat="46.12559" lon="6.17243">
        <ele>1215.4000244141</ele>
        <time>2019-04-18T11:36:16.000Z</time>
      </trkpt>
      <trkpt lat="46.12568" lon="6.17263">
        <ele>1218.1999511719</ele>
        <time>2019-04-18T11:36:22.000Z</time>
      </trkpt>
      <trkpt lat="46.12575" lon="6.17288">
        <ele>1221</ele>
        <time>2019-04-18T11:36:29.000Z</time>
      </trkpt>
      <trkpt lat="46.1258" lon="6.17309">
        <ele>1222.8000488281</ele>
        <time>2019-04-18T11:36:35.000Z</time>
      </trkpt>
      <trkpt lat="46.12585" lon="6.17332">
        <ele>1222.5999755859</ele>
        <time>2019-04-18T11:36:41.000Z</time>
      </trkpt>
      <trkpt lat="46.1259" lon="6.17356">
        <ele>1222.4000244141</ele>
        <time>2019-04-18T11:36:48.000Z</time>
      </trkpt>
      <trkpt lat="46.12603" lon="6.17382">
        <ele>1224</ele>
        <time>2019-04-18T11:36:57.000Z</time>
      </trkpt>
      <trkpt lat="46.12615" lon="6.17405">
        <ele>1225.1999511719</ele>
        <time>2019-04-18T11:37:05.000Z</time>
      </trkpt>
      <trkpt lat="46.12626" lon="6.17426">
        <ele>1225.8000488281</ele>
        <time>2019-04-18T11:37:12.000Z</time>
      </trkpt>
      <trkpt lat="46.12636" lon="6.17443">
        <ele>1226.4000244141</ele>
        <time>2019-04-18T11:37:18.000Z</time>
      </trkpt>
      <trkpt lat="46.1265" lon="6.17471">
        <ele>1226.5999755859</ele>
        <time>2019-04-18T11:37:28.000Z</time>
      </trkpt>
      <trkpt lat="46.12665" lon="6.17494">
        <ele>1225.1999511719</ele>
        <time>2019-04-18T11:37:36.000Z</time>
      </trkpt>
      <trkpt lat="46.12682" lon="6.175">
        <ele>1226.5999755859</ele>
        <time>2019-04-18T11:37:43.000Z</time>
      </trkpt>
      <trkpt lat="46.12697" lon="6.17506">
        <ele>1227.8000488281</ele>
        <time>2019-04-18T11:37:49.000Z</time>
      </trkpt>
      <trkpt lat="46.12714" lon="6.17513">
        <ele>1229.1999511719</ele>
        <time>2019-04-18T11:37:56.000Z</time>
      </trkpt>
      <trkpt lat="46.1273" lon="6.17517">
        <ele>1230.8000488281</ele>
        <time>2019-04-18T11:38:02.000Z</time>
      </trkpt>
      <trkpt lat="46.12744" lon="6.17517">
        <ele>1232</ele>
        <time>2019-04-18T11:38:07.000Z</time>
      </trkpt>
      <trkpt lat="46.12753" lon="6.17517">
        <ele>1233</ele>
        <time>2019-04-18T11:38:11.000Z</time>
      </trkpt>
      <trkpt lat="46.12772" lon="6.17517">
        <ele>1234.5999755859</ele>
        <time>2019-04-18T11:38:18.000Z</time>
      </trkpt>
      <trkpt lat="46.12788" lon="6.17517">
        <ele>1235.8000488281</ele>
        <time>2019-04-18T11:38:24.000Z</time>
      </trkpt>
      <trkpt lat="46.12806" lon="6.17517">
        <ele>1237</ele>
        <time>2019-04-18T11:38:30.000Z</time>
      </trkpt>
      <trkpt lat="46.12823" lon="6.17517">
        <ele>1238.1999511719</ele>
        <time>2019-04-18T11:38:36.000Z</time>
      </trkpt>
      <trkpt lat="46.12835" lon="6.17521">
        <ele>1238.4000244141</ele>
        <time>2019-04-18T11:38:41.000Z</time>
      </trkpt>
      <trkpt lat="46.12852" lon="6.17527">
        <ele>1238.4000244141</ele>
        <time>2019-04-18T11:38:47.000Z</time>
      </trkpt>
      <trkpt lat="46.1287" lon="6.17534">
        <ele>1238.4000244141</ele>
        <time>2019-04-18T11:38:53.000Z</time>
      </trkpt>
      <trkpt lat="46.1289" lon="6.17532">
        <ele>1241.1999511719</ele>
        <time>2019-04-18T11:39:00.000Z</time>
      </trkpt>
      <trkpt lat="46.12912" lon="6.17533">
        <ele>1243</ele>
        <time>2019-04-18T11:39:08.000Z</time>
      </trkpt>
      <trkpt lat="46.12932" lon="6.17533">
        <ele>1244.5999755859</ele>
        <time>2019-04-18T11:39:15.000Z</time>
      </trkpt>
      <trkpt lat="46.12951" lon="6.17533">
        <ele>1246.1999511719</ele>
        <time>2019-04-18T11:39:22.000Z</time>
      </trkpt>
      <trkpt lat="46.1297" lon="6.17533">
        <ele>1247.1999511719</ele>
        <time>2019-04-18T11:39:29.000Z</time>
      </trkpt>
      <trkpt lat="46.12985" lon="6.17534">
        <ele>1248.1999511719</ele>
        <time>2019-04-18T11:39:35.000Z</time>
      </trkpt>
      <trkpt lat="46.13006" lon="6.17534">
        <ele>1249.5999755859</ele>
        <time>2019-04-18T11:39:43.000Z</time>
      </trkpt>
      <trkpt lat="46.13021" lon="6.17534">
        <ele>1250.5999755859</ele>
        <time>2019-04-18T11:39:49.000Z</time>
      </trkpt>
      <trkpt lat="46.13035" lon="6.17534">
        <ele>1251.5999755859</ele>
        <time>2019-04-18T11:39:55.000Z</time>
      </trkpt>
      <trkpt lat="46.13049" lon="6.17535">
        <ele>1252</ele>
        <time>2019-04-18T11:40:01.000Z</time>
      </trkpt>
      <trkpt lat="46.13061" lon="6.17535">
        <ele>1252.5999755859</ele>
        <time>2019-04-18T11:40:06.000Z</time>
      </trkpt>
      <trkpt lat="46.13071" lon="6.17535">
        <ele>1253.8000488281</ele>
        <time>2019-04-18T11:40:10.000Z</time>
      </trkpt>
      <trkpt lat="46.13087" lon="6.17535">
        <ele>1255.8000488281</ele>
        <time>2019-04-18T11:40:16.000Z</time>
      </trkpt>
      <trkpt lat="46.13103" lon="6.17539">
        <ele>1257.1999511719</ele>
        <time>2019-04-18T11:40:22.000Z</time>
      </trkpt>
      <trkpt lat="46.13118" lon="6.17546">
        <ele>1258.1999511719</ele>
        <time>2019-04-18T11:40:28.000Z</time>
      </trkpt>
      <trkpt lat="46.13122" lon="6.17548">
        <ele>1258.4000244141</ele>
        <time>2019-04-18T11:40:30.000Z</time>
      </trkpt>
      <trkpt lat="46.13127" lon="6.1755">
        <ele>1258.5999755859</ele>
        <time>2019-04-18T11:40:32.000Z</time>
      </trkpt>
      <trkpt lat="46.13141" lon="6.17557">
        <ele>1259.4000244141</ele>
        <time>2019-04-18T11:40:38.000Z</time>
      </trkpt>
      <trkpt lat="46.13161" lon="6.17566">
        <ele>1260.4000244141</ele>
        <time>2019-04-18T11:40:46.000Z</time>
      </trkpt>
      <trkpt lat="46.13179" lon="6.17575">
        <ele>1261.4000244141</ele>
        <time>2019-04-18T11:40:53.000Z</time>
      </trkpt>
      <trkpt lat="46.13204" lon="6.17585">
        <ele>1263.1999511719</ele>
        <time>2019-04-18T11:41:02.000Z</time>
      </trkpt>
      <trkpt lat="46.1322" lon="6.17589">
        <ele>1264.5999755859</ele>
        <time>2019-04-18T11:41:08.000Z</time>
      </trkpt>
      <trkpt lat="46.13239" lon="6.17594">
        <ele>1266.8000488281</ele>
        <time>2019-04-18T11:41:15.000Z</time>
      </trkpt>
      <trkpt lat="46.13258" lon="6.17596">
        <ele>1269.8000488281</ele>
        <time>2019-04-18T11:41:22.000Z</time>
      </trkpt>
      <trkpt lat="46.13279" lon="6.17598">
        <ele>1272.5999755859</ele>
        <time>2019-04-18T11:41:30.000Z</time>
      </trkpt>
      <trkpt lat="46.13296" lon="6.17611">
        <ele>1274</ele>
        <time>2019-04-18T11:41:37.000Z</time>
      </trkpt>
      <trkpt lat="46.13301" lon="6.17629">
        <ele>1273.5999755859</ele>
        <time>2019-04-18T11:41:42.000Z</time>
      </trkpt>
      <trkpt lat="46.13308" lon="6.17651">
        <ele>1273.4000244141</ele>
        <time>2019-04-18T11:41:48.000Z</time>
      </trkpt>
      <trkpt lat="46.13315" lon="6.17672">
        <ele>1274</ele>
        <time>2019-04-18T11:41:54.000Z</time>
      </trkpt>
      <trkpt lat="46.13323" lon="6.17698">
        <ele>1274.5999755859</ele>
        <time>2019-04-18T11:42:01.000Z</time>
      </trkpt>
      <trkpt lat="46.13331" lon="6.17723">
        <ele>1275.4000244141</ele>
        <time>2019-04-18T11:42:08.000Z</time>
      </trkpt>
      <trkpt lat="46.13337" lon="6.17741">
        <ele>1276</ele>
        <time>2019-04-18T11:42:13.000Z</time>
      </trkpt>
      <trkpt lat="46.13344" lon="6.17766">
        <ele>1277.4000244141</ele>
        <time>2019-04-18T11:42:20.000Z</time>
      </trkpt>
      <trkpt lat="46.13349" lon="6.17804">
        <ele>1279.8000488281</ele>
        <time>2019-04-18T11:42:30.000Z</time>
      </trkpt>
      <trkpt lat="46.13353" lon="6.17832">
        <ele>1282</ele>
        <time>2019-04-18T11:42:37.000Z</time>
      </trkpt>
      <trkpt lat="46.13352" lon="6.17856">
        <ele>1283.5999755859</ele>
        <time>2019-04-18T11:42:43.000Z</time>
      </trkpt>
      <trkpt lat="46.13351" lon="6.17883">
        <ele>1286</ele>
        <time>2019-04-18T11:42:50.000Z</time>
      </trkpt>
      <trkpt lat="46.1335" lon="6.17915">
        <ele>1287.1999511719</ele>
        <time>2019-04-18T11:42:58.000Z</time>
      </trkpt>
      <trkpt lat="46.13349" lon="6.17945">
        <ele>1288</ele>
        <time>2019-04-18T11:43:06.000Z</time>
      </trkpt>
      <trkpt lat="46.13348" lon="6.17973">
        <ele>1289</ele>
        <time>2019-04-18T11:43:13.000Z</time>
      </trkpt>
      <trkpt lat="46.13347" lon="6.18012">
        <ele>1290.1999511719</ele>
        <time>2019-04-18T11:43:22.000Z</time>
      </trkpt>
      <trkpt lat="46.13346" lon="6.18052">
        <ele>1290.1999511719</ele>
        <time>2019-04-18T11:43:31.000Z</time>
      </trkpt>
      <trkpt lat="46.13345" lon="6.18087">
        <ele>1289.1999511719</ele>
        <time>2019-04-18T11:43:39.000Z</time>
      </trkpt>
      <trkpt lat="46.13346" lon="6.18125">
        <ele>1288.5999755859</ele>
        <time>2019-04-18T11:43:47.000Z</time>
      </trkpt>
      <trkpt lat="46.13355" lon="6.18154">
        <ele>1288.5999755859</ele>
        <time>2019-04-18T11:43:54.000Z</time>
      </trkpt>
      <trkpt lat="46.13366" lon="6.18168">
        <ele>1288.5999755859</ele>
        <time>2019-04-18T11:43:58.000Z</time>
      </trkpt>
      <trkpt lat="46.1337" lon="6.18172">
        <ele>1288.8000488281</ele>
        <time>2019-04-18T11:43:59.000Z</time>
      </trkpt>
      <trkpt lat="46.13398" lon="6.18202">
        <ele>1289</ele>
        <time>2019-04-18T11:44:07.000Z</time>
      </trkpt>
      <trkpt lat="46.1342" lon="6.18223">
        <ele>1287.5999755859</ele>
        <time>2019-04-18T11:44:13.000Z</time>
      </trkpt>
      <trkpt lat="46.13447" lon="6.18245">
        <ele>1285.1999511719</ele>
        <time>2019-04-18T11:44:21.000Z</time>
      </trkpt>
      <trkpt lat="46.13468" lon="6.18247">
        <ele>1285.1999511719</ele>
        <time>2019-04-18T11:44:27.000Z</time>
      </trkpt>
      <trkpt lat="46.13472" lon="6.18247">
        <ele>1285.1999511719</ele>
        <time>2019-04-18T11:44:28.000Z</time>
      </trkpt>
      <trkpt lat="46.13479" lon="6.18244">
        <ele>1285.8000488281</ele>
        <time>2019-04-18T11:44:30.000Z</time>
      </trkpt>
      <trkpt lat="46.13486" lon="6.18235">
        <ele>1286.5999755859</ele>
        <time>2019-04-18T11:44:32.000Z</time>
      </trkpt>
      <trkpt lat="46.13512" lon="6.18207">
        <ele>1284</ele>
        <time>2019-04-18T11:44:38.000Z</time>
      </trkpt>
      <trkpt lat="46.13521" lon="6.18197">
        <ele>1283.1999511719</ele>
        <time>2019-04-18T11:44:40.000Z</time>
      </trkpt>
      <trkpt lat="46.13532" lon="6.1819">
        <ele>1282.4000244141</ele>
        <time>2019-04-18T11:44:42.000Z</time>
      </trkpt>
      <trkpt lat="46.13538" lon="6.18189">
        <ele>1282</ele>
        <time>2019-04-18T11:44:43.000Z</time>
      </trkpt>
      <trkpt lat="46.13544" lon="6.18187">
        <ele>1281.5999755859</ele>
        <time>2019-04-18T11:44:44.000Z</time>
      </trkpt>
      <trkpt lat="46.13563" lon="6.18182">
        <ele>1280.5999755859</ele>
        <time>2019-04-18T11:44:47.000Z</time>
      </trkpt>
      <trkpt lat="46.1358" lon="6.18175">
        <ele>1283</ele>
        <time>2019-04-18T11:44:50.000Z</time>
      </trkpt>
      <trkpt lat="46.13592" lon="6.18167">
        <ele>1283.5999755859</ele>
        <time>2019-04-18T11:44:52.000Z</time>
      </trkpt>
      <trkpt lat="46.13628" lon="6.18127">
        <ele>1283</ele>
        <time>2019-04-18T11:44:59.000Z</time>
      </trkpt>
      <trkpt lat="46.13656" lon="6.18084">
        <ele>1281.5999755859</ele>
        <time>2019-04-18T11:45:05.000Z</time>
      </trkpt>
      <trkpt lat="46.13687" lon="6.1803">
        <ele>1280.4000244141</ele>
        <time>2019-04-18T11:45:12.000Z</time>
      </trkpt>
      <trkpt lat="46.13706" lon="6.18001">
        <ele>1280.4000244141</ele>
        <time>2019-04-18T11:45:16.000Z</time>
      </trkpt>
      <trkpt lat="46.13718" lon="6.17991">
        <ele>1280</ele>
        <time>2019-04-18T11:45:18.000Z</time>
      </trkpt>
      <trkpt lat="46.13731" lon="6.17981">
        <ele>1279.8000488281</ele>
        <time>2019-04-18T11:45:20.000Z</time>
      </trkpt>
      <trkpt lat="46.13744" lon="6.17978">
        <ele>1279.8000488281</ele>
        <time>2019-04-18T11:45:22.000Z</time>
      </trkpt>
      <trkpt lat="46.13751" lon="6.17978">
        <ele>1279.8000488281</ele>
        <time>2019-04-18T11:45:23.000Z</time>
      </trkpt>
      <trkpt lat="46.13766" lon="6.17978">
        <ele>1279.5999755859</ele>
        <time>2019-04-18T11:45:25.000Z</time>
      </trkpt>
      <trkpt lat="46.13773" lon="6.17979">
        <ele>1279.4000244141</ele>
        <time>2019-04-18T11:45:26.000Z</time>
      </trkpt>
      <trkpt lat="46.13794" lon="6.17985">
        <ele>1279</ele>
        <time>2019-04-18T11:45:29.000Z</time>
      </trkpt>
      <trkpt lat="46.13808" lon="6.17988">
        <ele>1278.5999755859</ele>
        <time>2019-04-18T11:45:31.000Z</time>
      </trkpt>
      <trkpt lat="46.13854" lon="6.18001">
        <ele>1278.8000488281</ele>
        <time>2019-04-18T11:45:38.000Z</time>
      </trkpt>
      <trkpt lat="46.1389" lon="6.18011">
        <ele>1278.1999511719</ele>
        <time>2019-04-18T11:45:44.000Z</time>
      </trkpt>
      <trkpt lat="46.1392" lon="6.18022">
        <ele>1271.1999511719</ele>
        <time>2019-04-18T11:45:50.000Z</time>
      </trkpt>
      <trkpt lat="46.13924" lon="6.18025">
        <ele>1270.1999511719</ele>
        <time>2019-04-18T11:45:51.000Z</time>
      </trkpt>
      <trkpt lat="46.13928" lon="6.18029">
        <ele>1269</ele>
        <time>2019-04-18T11:45:52.000Z</time>
      </trkpt>
      <trkpt lat="46.13933" lon="6.1804">
        <ele>1268</ele>
        <time>2019-04-18T11:45:54.000Z</time>
      </trkpt>
      <trkpt lat="46.13934" lon="6.18046">
        <ele>1268</ele>
        <time>2019-04-18T11:45:55.000Z</time>
      </trkpt>
      <trkpt lat="46.13936" lon="6.18052">
        <ele>1267.5999755859</ele>
        <time>2019-04-18T11:45:56.000Z</time>
      </trkpt>
      <trkpt lat="46.13938" lon="6.18067">
        <ele>1268</ele>
        <time>2019-04-18T11:45:58.000Z</time>
      </trkpt>
      <trkpt lat="46.13937" lon="6.18075">
        <ele>1269</ele>
        <time>2019-04-18T11:45:59.000Z</time>
      </trkpt>
      <trkpt lat="46.13928" lon="6.18124">
        <ele>1271.4000244141</ele>
        <time>2019-04-18T11:46:05.000Z</time>
      </trkpt>
      <trkpt lat="46.13919" lon="6.18138">
        <ele>1271.4000244141</ele>
        <time>2019-04-18T11:46:07.000Z</time>
      </trkpt>
      <trkpt lat="46.13913" lon="6.18143">
        <ele>1271.8000488281</ele>
        <time>2019-04-18T11:46:08.000Z</time>
      </trkpt>
      <trkpt lat="46.13906" lon="6.18144">
        <ele>1272.5999755859</ele>
        <time>2019-04-18T11:46:09.000Z</time>
      </trkpt>
      <trkpt lat="46.13892" lon="6.18147">
        <ele>1274</ele>
        <time>2019-04-18T11:46:11.000Z</time>
      </trkpt>
      <trkpt lat="46.13879" lon="6.18149">
        <ele>1274</ele>
        <time>2019-04-18T11:46:13.000Z</time>
      </trkpt>
      <trkpt lat="46.13867" lon="6.18158">
        <ele>1273.5999755859</ele>
        <time>2019-04-18T11:46:15.000Z</time>
      </trkpt>
      <trkpt lat="46.13863" lon="6.18172">
        <ele>1272.8000488281</ele>
        <time>2019-04-18T11:46:17.000Z</time>
      </trkpt>
      <trkpt lat="46.13861" lon="6.18181">
        <ele>1272.1999511719</ele>
        <time>2019-04-18T11:46:18.000Z</time>
      </trkpt>
      <trkpt lat="46.1386" lon="6.18188">
        <ele>1271.5999755859</ele>
        <time>2019-04-18T11:46:19.000Z</time>
      </trkpt>
      <trkpt lat="46.13869" lon="6.18203">
        <ele>1270.4000244141</ele>
        <time>2019-04-18T11:46:21.000Z</time>
      </trkpt>
      <trkpt lat="46.13879" lon="6.18214">
        <ele>1269.4000244141</ele>
        <time>2019-04-18T11:46:23.000Z</time>
      </trkpt>
      <trkpt lat="46.13885" lon="6.18219">
        <ele>1268.8000488281</ele>
        <time>2019-04-18T11:46:24.000Z</time>
      </trkpt>
      <trkpt lat="46.13898" lon="6.18229">
        <ele>1267.8000488281</ele>
        <time>2019-04-18T11:46:26.000Z</time>
      </trkpt>
      <trkpt lat="46.13911" lon="6.18241">
        <ele>1266.1999511719</ele>
        <time>2019-04-18T11:46:28.000Z</time>
      </trkpt>
      <trkpt lat="46.1392" lon="6.18261">
        <ele>1264.8000488281</ele>
        <time>2019-04-18T11:46:30.000Z</time>
      </trkpt>
      <trkpt lat="46.13927" lon="6.18282">
        <ele>1263.5999755859</ele>
        <time>2019-04-18T11:46:32.000Z</time>
      </trkpt>
      <trkpt lat="46.13937" lon="6.18338">
        <ele>1260.5999755859</ele>
        <time>2019-04-18T11:46:37.000Z</time>
      </trkpt>
      <trkpt lat="46.13953" lon="6.18424">
        <ele>1257.1999511719</ele>
        <time>2019-04-18T11:46:45.000Z</time>
      </trkpt>
      <trkpt lat="46.13963" lon="6.18476">
        <ele>1256</ele>
        <time>2019-04-18T11:46:50.000Z</time>
      </trkpt>
      <trkpt lat="46.13965" lon="6.18486">
        <ele>1256</ele>
        <time>2019-04-18T11:46:51.000Z</time>
      </trkpt>
      <trkpt lat="46.13971" lon="6.18492">
        <ele>1255.4000244141</ele>
        <time>2019-04-18T11:46:52.000Z</time>
      </trkpt>
      <trkpt lat="46.13983" lon="6.18501">
        <ele>1253.8000488281</ele>
        <time>2019-04-18T11:46:54.000Z</time>
      </trkpt>
      <trkpt lat="46.13998" lon="6.18502">
        <ele>1251.4000244141</ele>
        <time>2019-04-18T11:46:56.000Z</time>
      </trkpt>
      <trkpt lat="46.14004" lon="6.18502">
        <ele>1250.5999755859</ele>
        <time>2019-04-18T11:46:57.000Z</time>
      </trkpt>
      <trkpt lat="46.14041" lon="6.18489">
        <ele>1248.8000488281</ele>
        <time>2019-04-18T11:47:02.000Z</time>
      </trkpt>
      <trkpt lat="46.14089" lon="6.18473">
        <ele>1248.1999511719</ele>
        <time>2019-04-18T11:47:08.000Z</time>
      </trkpt>
      <trkpt lat="46.14131" lon="6.18459">
        <ele>1247.5999755859</ele>
        <time>2019-04-18T11:47:14.000Z</time>
      </trkpt>
      <trkpt lat="46.14157" lon="6.18456">
        <ele>1246.8000488281</ele>
        <time>2019-04-18T11:47:18.000Z</time>
      </trkpt>
      <trkpt lat="46.14164" lon="6.18457">
        <ele>1247</ele>
        <time>2019-04-18T11:47:19.000Z</time>
      </trkpt>
      <trkpt lat="46.14176" lon="6.18459">
        <ele>1247.1999511719</ele>
        <time>2019-04-18T11:47:21.000Z</time>
      </trkpt>
      <trkpt lat="46.14194" lon="6.1847">
        <ele>1248.1999511719</ele>
        <time>2019-04-18T11:47:24.000Z</time>
      </trkpt>
      <trkpt lat="46.14231" lon="6.18496">
        <ele>1248.4000244141</ele>
        <time>2019-04-18T11:47:30.000Z</time>
      </trkpt>
      <trkpt lat="46.14275" lon="6.18528">
        <ele>1247.1999511719</ele>
        <time>2019-04-18T11:47:37.000Z</time>
      </trkpt>
      <trkpt lat="46.14323" lon="6.18563">
        <ele>1245.1999511719</ele>
        <time>2019-04-18T11:47:45.000Z</time>
      </trkpt>
      <trkpt lat="46.14336" lon="6.18573">
        <ele>1244.5999755859</ele>
        <time>2019-04-18T11:47:47.000Z</time>
      </trkpt>
      <trkpt lat="46.14352" lon="6.18594">
        <ele>1243.5999755859</ele>
        <time>2019-04-18T11:47:50.000Z</time>
      </trkpt>
      <trkpt lat="46.14363" lon="6.18609">
        <ele>1242.8000488281</ele>
        <time>2019-04-18T11:47:52.000Z</time>
      </trkpt>
      <trkpt lat="46.14373" lon="6.18623">
        <ele>1242.1999511719</ele>
        <time>2019-04-18T11:47:54.000Z</time>
      </trkpt>
      <trkpt lat="46.14378" lon="6.18641">
        <ele>1241.5999755859</ele>
        <time>2019-04-18T11:47:56.000Z</time>
      </trkpt>
      <trkpt lat="46.1438" lon="6.1865">
        <ele>1241.4000244141</ele>
        <time>2019-04-18T11:47:57.000Z</time>
      </trkpt>
      <trkpt lat="46.14388" lon="6.18685">
        <ele>1241.1999511719</ele>
        <time>2019-04-18T11:48:01.000Z</time>
      </trkpt>
      <trkpt lat="46.14401" lon="6.18753">
        <ele>1242.1999511719</ele>
        <time>2019-04-18T11:48:08.000Z</time>
      </trkpt>
      <trkpt lat="46.14415" lon="6.18814">
        <ele>1244</ele>
        <time>2019-04-18T11:48:14.000Z</time>
      </trkpt>
      <trkpt lat="46.14437" lon="6.18866">
        <ele>1237.5999755859</ele>
        <time>2019-04-18T11:48:20.000Z</time>
      </trkpt>
      <trkpt lat="46.14457" lon="6.18908">
        <ele>1234</ele>
        <time>2019-04-18T11:48:25.000Z</time>
      </trkpt>
      <trkpt lat="46.14469" lon="6.18932">
        <ele>1230.5999755859</ele>
        <time>2019-04-18T11:48:28.000Z</time>
      </trkpt>
      <trkpt lat="46.14475" lon="6.18936">
        <ele>1230.4000244141</ele>
        <time>2019-04-18T11:48:29.000Z</time>
      </trkpt>
      <trkpt lat="46.1448" lon="6.1894">
        <ele>1229.8000488281</ele>
        <time>2019-04-18T11:48:30.000Z</time>
      </trkpt>
      <trkpt lat="46.14493" lon="6.18949">
        <ele>1227.5999755859</ele>
        <time>2019-04-18T11:48:32.000Z</time>
      </trkpt>
      <trkpt lat="46.14519" lon="6.18961">
        <ele>1224.5999755859</ele>
        <time>2019-04-18T11:48:36.000Z</time>
      </trkpt>
      <trkpt lat="46.14526" lon="6.18962">
        <ele>1224.1999511719</ele>
        <time>2019-04-18T11:48:37.000Z</time>
      </trkpt>
      <trkpt lat="46.14533" lon="6.18963">
        <ele>1223.8000488281</ele>
        <time>2019-04-18T11:48:38.000Z</time>
      </trkpt>
      <trkpt lat="46.14554" lon="6.18958">
        <ele>1223.4000244141</ele>
        <time>2019-04-18T11:48:41.000Z</time>
      </trkpt>
      <trkpt lat="46.14574" lon="6.18954">
        <ele>1222.8000488281</ele>
        <time>2019-04-18T11:48:44.000Z</time>
      </trkpt>
      <trkpt lat="46.14595" lon="6.18949">
        <ele>1222.5999755859</ele>
        <time>2019-04-18T11:48:47.000Z</time>
      </trkpt>
      <trkpt lat="46.14638" lon="6.1894">
        <ele>1219.4000244141</ele>
        <time>2019-04-18T11:48:53.000Z</time>
      </trkpt>
      <trkpt lat="46.14689" lon="6.1893">
        <ele>1215.4000244141</ele>
        <time>2019-04-18T11:49:00.000Z</time>
      </trkpt>
      <trkpt lat="46.14717" lon="6.18918">
        <ele>1213</ele>
        <time>2019-04-18T11:49:04.000Z</time>
      </trkpt>
      <trkpt lat="46.14722" lon="6.18915">
        <ele>1212.5999755859</ele>
        <time>2019-04-18T11:49:05.000Z</time>
      </trkpt>
      <trkpt lat="46.14726" lon="6.18907">
        <ele>1212.5999755859</ele>
        <time>2019-04-18T11:49:06.000Z</time>
      </trkpt>
      <trkpt lat="46.14734" lon="6.18891">
        <ele>1212.5999755859</ele>
        <time>2019-04-18T11:49:08.000Z</time>
      </trkpt>
      <trkpt lat="46.14737" lon="6.18883">
        <ele>1212.4000244141</ele>
        <time>2019-04-18T11:49:09.000Z</time>
      </trkpt>
      <trkpt lat="46.14744" lon="6.1887">
        <ele>1212</ele>
        <time>2019-04-18T11:49:11.000Z</time>
      </trkpt>
      <trkpt lat="46.14752" lon="6.18867">
        <ele>1211.4000244141</ele>
        <time>2019-04-18T11:49:12.000Z</time>
      </trkpt>
      <trkpt lat="46.14758" lon="6.18865">
        <ele>1210.8000488281</ele>
        <time>2019-04-18T11:49:13.000Z</time>
      </trkpt>
      <trkpt lat="46.14761" lon="6.18866">
        <ele>1210.4000244141</ele>
        <time>2019-04-18T11:49:14.000Z</time>
      </trkpt>
      <trkpt lat="46.14765" lon="6.18872">
        <ele>1210</ele>
        <time>2019-04-18T11:49:15.000Z</time>
      </trkpt>
      <trkpt lat="46.14771" lon="6.18886">
        <ele>1209</ele>
        <time>2019-04-18T11:49:17.000Z</time>
      </trkpt>
      <trkpt lat="46.14776" lon="6.18923">
        <ele>1209</ele>
        <time>2019-04-18T11:49:21.000Z</time>
      </trkpt>
      <trkpt lat="46.14782" lon="6.18941">
        <ele>1209</ele>
        <time>2019-04-18T11:49:23.000Z</time>
      </trkpt>
      <trkpt lat="46.1479" lon="6.18958">
        <ele>1208.4000244141</ele>
        <time>2019-04-18T11:49:25.000Z</time>
      </trkpt>
      <trkpt lat="46.14801" lon="6.18969">
        <ele>1207.5999755859</ele>
        <time>2019-04-18T11:49:27.000Z</time>
      </trkpt>
      <trkpt lat="46.14814" lon="6.18978">
        <ele>1206.8000488281</ele>
        <time>2019-04-18T11:49:29.000Z</time>
      </trkpt>
      <trkpt lat="46.14855" lon="6.19006">
        <ele>1202</ele>
        <time>2019-04-18T11:49:35.000Z</time>
      </trkpt>
      <trkpt lat="46.14897" lon="6.19036">
        <ele>1196.8000488281</ele>
        <time>2019-04-18T11:49:41.000Z</time>
      </trkpt>
      <trkpt lat="46.1494" lon="6.19056">
        <ele>1190</ele>
        <time>2019-04-18T11:49:47.000Z</time>
      </trkpt>
      <trkpt lat="46.14952" lon="6.19061">
        <ele>1188.1999511719</ele>
        <time>2019-04-18T11:49:49.000Z</time>
      </trkpt>
      <trkpt lat="46.14955" lon="6.19065">
        <ele>1187.5999755859</ele>
        <time>2019-04-18T11:49:50.000Z</time>
      </trkpt>
      <trkpt lat="46.14959" lon="6.19071">
        <ele>1187</ele>
        <time>2019-04-18T11:49:51.000Z</time>
      </trkpt>
      <trkpt lat="46.14958" lon="6.19086">
        <ele>1186.8000488281</ele>
        <time>2019-04-18T11:49:53.000Z</time>
      </trkpt>
      <trkpt lat="46.14954" lon="6.19102">
        <ele>1186.8000488281</ele>
        <time>2019-04-18T11:49:55.000Z</time>
      </trkpt>
      <trkpt lat="46.14948" lon="6.19105">
        <ele>1187.5999755859</ele>
        <time>2019-04-18T11:49:56.000Z</time>
      </trkpt>
      <trkpt lat="46.14937" lon="6.19109">
        <ele>1188.1999511719</ele>
        <time>2019-04-18T11:49:58.000Z</time>
      </trkpt>
      <trkpt lat="46.14921" lon="6.19117">
        <ele>1187.4000244141</ele>
        <time>2019-04-18T11:50:01.000Z</time>
      </trkpt>
      <trkpt lat="46.14911" lon="6.19124">
        <ele>1186.5999755859</ele>
        <time>2019-04-18T11:50:03.000Z</time>
      </trkpt>
      <trkpt lat="46.14901" lon="6.19137">
        <ele>1185</ele>
        <time>2019-04-18T11:50:05.000Z</time>
      </trkpt>
      <trkpt lat="46.14868" lon="6.1918">
        <ele>1180.8000488281</ele>
        <time>2019-04-18T11:50:11.000Z</time>
      </trkpt>
      <trkpt lat="46.14837" lon="6.1922">
        <ele>1176.5999755859</ele>
        <time>2019-04-18T11:50:16.000Z</time>
      </trkpt>
      <trkpt lat="46.14812" lon="6.19249">
        <ele>1173.8000488281</ele>
        <time>2019-04-18T11:50:20.000Z</time>
      </trkpt>
      <trkpt lat="46.14805" lon="6.19253">
        <ele>1173.5999755859</ele>
        <time>2019-04-18T11:50:21.000Z</time>
      </trkpt>
      <trkpt lat="46.14791" lon="6.19261">
        <ele>1173.5999755859</ele>
        <time>2019-04-18T11:50:23.000Z</time>
      </trkpt>
      <trkpt lat="46.14778" lon="6.19267">
        <ele>1173.8000488281</ele>
        <time>2019-04-18T11:50:25.000Z</time>
      </trkpt>
      <trkpt lat="46.14772" lon="6.1927">
        <ele>1174</ele>
        <time>2019-04-18T11:50:26.000Z</time>
      </trkpt>
      <trkpt lat="46.14765" lon="6.19281">
        <ele>1173.4000244141</ele>
        <time>2019-04-18T11:50:28.000Z</time>
      </trkpt>
      <trkpt lat="46.14763" lon="6.19298">
        <ele>1172.1999511719</ele>
        <time>2019-04-18T11:50:30.000Z</time>
      </trkpt>
      <trkpt lat="46.1477" lon="6.19312">
        <ele>1170.4000244141</ele>
        <time>2019-04-18T11:50:32.000Z</time>
      </trkpt>
      <trkpt lat="46.14774" lon="6.19315">
        <ele>1169.5999755859</ele>
        <time>2019-04-18T11:50:33.000Z</time>
      </trkpt>
      <trkpt lat="46.1478" lon="6.19316">
        <ele>1168.8000488281</ele>
        <time>2019-04-18T11:50:34.000Z</time>
      </trkpt>
      <trkpt lat="46.14793" lon="6.19317">
        <ele>1167.5999755859</ele>
        <time>2019-04-18T11:50:36.000Z</time>
      </trkpt>
      <trkpt lat="46.14807" lon="6.19321">
        <ele>1165.8000488281</ele>
        <time>2019-04-18T11:50:38.000Z</time>
      </trkpt>
      <trkpt lat="46.14823" lon="6.19328">
        <ele>1164</ele>
        <time>2019-04-18T11:50:40.000Z</time>
      </trkpt>
      <trkpt lat="46.14877" lon="6.19354">
        <ele>1159.1999511719</ele>
        <time>2019-04-18T11:50:47.000Z</time>
      </trkpt>
      <trkpt lat="46.14886" lon="6.19358">
        <ele>1158.4000244141</ele>
        <time>2019-04-18T11:50:48.000Z</time>
      </trkpt>
      <trkpt lat="46.14939" lon="6.19384">
        <ele>1151.5999755859</ele>
        <time>2019-04-18T11:50:55.000Z</time>
      </trkpt>
      <trkpt lat="46.14992" lon="6.19399">
        <ele>1146.1999511719</ele>
        <time>2019-04-18T11:51:02.000Z</time>
      </trkpt>
      <trkpt lat="46.15034" lon="6.19403">
        <ele>1142.1999511719</ele>
        <time>2019-04-18T11:51:08.000Z</time>
      </trkpt>
      <trkpt lat="46.15049" lon="6.19401">
        <ele>1141.1999511719</ele>
        <time>2019-04-18T11:51:10.000Z</time>
      </trkpt>
      <trkpt lat="46.15072" lon="6.19396">
        <ele>1139.5999755859</ele>
        <time>2019-04-18T11:51:13.000Z</time>
      </trkpt>
      <trkpt lat="46.15112" lon="6.19382">
        <ele>1137.8000488281</ele>
        <time>2019-04-18T11:51:18.000Z</time>
      </trkpt>
      <trkpt lat="46.15149" lon="6.19372">
        <ele>1135.8000488281</ele>
        <time>2019-04-18T11:51:23.000Z</time>
      </trkpt>
      <trkpt lat="46.15194" lon="6.19371">
        <ele>1132.8000488281</ele>
        <time>2019-04-18T11:51:29.000Z</time>
      </trkpt>
      <trkpt lat="46.15224" lon="6.1937">
        <ele>1129.8000488281</ele>
        <time>2019-04-18T11:51:33.000Z</time>
      </trkpt>
      <trkpt lat="46.15237" lon="6.19361">
        <ele>1128.5999755859</ele>
        <time>2019-04-18T11:51:35.000Z</time>
      </trkpt>
      <trkpt lat="46.15249" lon="6.19351">
        <ele>1128</ele>
        <time>2019-04-18T11:51:37.000Z</time>
      </trkpt>
      <trkpt lat="46.15259" lon="6.19335">
        <ele>1127.5999755859</ele>
        <time>2019-04-18T11:51:39.000Z</time>
      </trkpt>
      <trkpt lat="46.15266" lon="6.19309">
        <ele>1127.1999511719</ele>
        <time>2019-04-18T11:51:42.000Z</time>
      </trkpt>
      <trkpt lat="46.15269" lon="6.19288">
        <ele>1125.8000488281</ele>
        <time>2019-04-18T11:51:44.000Z</time>
      </trkpt>
      <trkpt lat="46.15271" lon="6.19268">
        <ele>1124.5999755859</ele>
        <time>2019-04-18T11:51:46.000Z</time>
      </trkpt>
      <trkpt lat="46.1527" lon="6.19261">
        <ele>1124.4000244141</ele>
        <time>2019-04-18T11:51:47.000Z</time>
      </trkpt>
      <trkpt lat="46.15264" lon="6.19244">
        <ele>1125.1999511719</ele>
        <time>2019-04-18T11:51:49.000Z</time>
      </trkpt>
      <trkpt lat="46.15258" lon="6.19226">
        <ele>1125.8000488281</ele>
        <time>2019-04-18T11:51:51.000Z</time>
      </trkpt>
      <trkpt lat="46.15256" lon="6.19217">
        <ele>1125</ele>
        <time>2019-04-18T11:51:52.000Z</time>
      </trkpt>
      <trkpt lat="46.15259" lon="6.19199">
        <ele>1121.1999511719</ele>
        <time>2019-04-18T11:51:54.000Z</time>
      </trkpt>
      <trkpt lat="46.1527" lon="6.19193">
        <ele>1117.4000244141</ele>
        <time>2019-04-18T11:51:56.000Z</time>
      </trkpt>
      <trkpt lat="46.1528" lon="6.192">
        <ele>1116.1999511719</ele>
        <time>2019-04-18T11:51:58.000Z</time>
      </trkpt>
      <trkpt lat="46.15286" lon="6.19216">
        <ele>1117.1999511719</ele>
        <time>2019-04-18T11:52:00.000Z</time>
      </trkpt>
      <trkpt lat="46.15289" lon="6.19223">
        <ele>1117.8000488281</ele>
        <time>2019-04-18T11:52:01.000Z</time>
      </trkpt>
      <trkpt lat="46.15302" lon="6.19256">
        <ele>1116.1999511719</ele>
        <time>2019-04-18T11:52:05.000Z</time>
      </trkpt>
      <trkpt lat="46.15305" lon="6.19265">
        <ele>1115.8000488281</ele>
        <time>2019-04-18T11:52:06.000Z</time>
      </trkpt>
      <trkpt lat="46.15321" lon="6.19305">
        <ele>1113.8000488281</ele>
        <time>2019-04-18T11:52:10.000Z</time>
      </trkpt>
      <trkpt lat="46.15324" lon="6.19316">
        <ele>1113.1999511719</ele>
        <time>2019-04-18T11:52:11.000Z</time>
      </trkpt>
      <trkpt lat="46.15328" lon="6.19338">
        <ele>1111</ele>
        <time>2019-04-18T11:52:13.000Z</time>
      </trkpt>
      <trkpt lat="46.15334" lon="6.19371">
        <ele>1108</ele>
        <time>2019-04-18T11:52:16.000Z</time>
      </trkpt>
      <trkpt lat="46.15338" lon="6.19392">
        <ele>1106</ele>
        <time>2019-04-18T11:52:18.000Z</time>
      </trkpt>
      <trkpt lat="46.15335" lon="6.19412">
        <ele>1105.4000244141</ele>
        <time>2019-04-18T11:52:20.000Z</time>
      </trkpt>
      <trkpt lat="46.15333" lon="6.19421">
        <ele>1105.1999511719</ele>
        <time>2019-04-18T11:52:21.000Z</time>
      </trkpt>
      <trkpt lat="46.15325" lon="6.1945">
        <ele>1104</ele>
        <time>2019-04-18T11:52:24.000Z</time>
      </trkpt>
      <trkpt lat="46.15322" lon="6.1946">
        <ele>1103.5999755859</ele>
        <time>2019-04-18T11:52:25.000Z</time>
      </trkpt>
      <trkpt lat="46.1531" lon="6.19472">
        <ele>1104.8000488281</ele>
        <time>2019-04-18T11:52:27.000Z</time>
      </trkpt>
      <trkpt lat="46.15293" lon="6.19488">
        <ele>1104.8000488281</ele>
        <time>2019-04-18T11:52:30.000Z</time>
      </trkpt>
      <trkpt lat="46.15288" lon="6.19494">
        <ele>1104.5999755859</ele>
        <time>2019-04-18T11:52:31.000Z</time>
      </trkpt>
      <trkpt lat="46.15283" lon="6.195">
        <ele>1104.4000244141</ele>
        <time>2019-04-18T11:52:32.000Z</time>
      </trkpt>
      <trkpt lat="46.15284" lon="6.19503">
        <ele>1104</ele>
        <time>2019-04-18T11:52:33.000Z</time>
      </trkpt>
      <trkpt lat="46.15287" lon="6.1951">
        <ele>1102.5999755859</ele>
        <time>2019-04-18T11:52:34.000Z</time>
      </trkpt>
      <trkpt lat="46.15289" lon="6.19518">
        <ele>1101.4000244141</ele>
        <time>2019-04-18T11:52:35.000Z</time>
      </trkpt>
      <trkpt lat="46.15291" lon="6.19523">
        <ele>1100.4000244141</ele>
        <time>2019-04-18T11:52:36.000Z</time>
      </trkpt>
      <trkpt lat="46.15303" lon="6.19523">
        <ele>1099</ele>
        <time>2019-04-18T11:52:38.000Z</time>
      </trkpt>
      <trkpt lat="46.15313" lon="6.19517">
        <ele>1098.5999755859</ele>
        <time>2019-04-18T11:52:40.000Z</time>
      </trkpt>
      <trkpt lat="46.15319" lon="6.19512">
        <ele>1098.5999755859</ele>
        <time>2019-04-18T11:52:41.000Z</time>
      </trkpt>
      <trkpt lat="46.15347" lon="6.19489">
        <ele>1097.1999511719</ele>
        <time>2019-04-18T11:52:46.000Z</time>
      </trkpt>
      <trkpt lat="46.15362" lon="6.19476">
        <ele>1095.5999755859</ele>
        <time>2019-04-18T11:52:49.000Z</time>
      </trkpt>
      <trkpt lat="46.15368" lon="6.19471">
        <ele>1095</ele>
        <time>2019-04-18T11:52:50.000Z</time>
      </trkpt>
      <trkpt lat="46.15379" lon="6.19461">
        <ele>1094</ele>
        <time>2019-04-18T11:52:52.000Z</time>
      </trkpt>
      <trkpt lat="46.15395" lon="6.19441">
        <ele>1092</ele>
        <time>2019-04-18T11:52:55.000Z</time>
      </trkpt>
      <trkpt lat="46.154" lon="6.19434">
        <ele>1091.5999755859</ele>
        <time>2019-04-18T11:52:56.000Z</time>
      </trkpt>
      <trkpt lat="46.15412" lon="6.19432">
        <ele>1089.5999755859</ele>
        <time>2019-04-18T11:52:58.000Z</time>
      </trkpt>
      <trkpt lat="46.15421" lon="6.19435">
        <ele>1087.8000488281</ele>
        <time>2019-04-18T11:53:00.000Z</time>
      </trkpt>
      <trkpt lat="46.15422" lon="6.19442">
        <ele>1087.1999511719</ele>
        <time>2019-04-18T11:53:01.000Z</time>
      </trkpt>
      <trkpt lat="46.15424" lon="6.19451">
        <ele>1086.4000244141</ele>
        <time>2019-04-18T11:53:02.000Z</time>
      </trkpt>
      <trkpt lat="46.15424" lon="6.19467">
        <ele>1085.4000244141</ele>
        <time>2019-04-18T11:53:04.000Z</time>
      </trkpt>
      <trkpt lat="46.15408" lon="6.19496">
        <ele>1087.1999511719</ele>
        <time>2019-04-18T11:53:08.000Z</time>
      </trkpt>
      <trkpt lat="46.15404" lon="6.19503">
        <ele>1087</ele>
        <time>2019-04-18T11:53:09.000Z</time>
      </trkpt>
      <trkpt lat="46.15391" lon="6.19525">
        <ele>1087.1999511719</ele>
        <time>2019-04-18T11:53:12.000Z</time>
      </trkpt>
      <trkpt lat="46.15388" lon="6.19533">
        <ele>1087.1999511719</ele>
        <time>2019-04-18T11:53:13.000Z</time>
      </trkpt>
      <trkpt lat="46.1538" lon="6.19564">
        <ele>1085.4000244141</ele>
        <time>2019-04-18T11:53:16.000Z</time>
      </trkpt>
      <trkpt lat="46.15362" lon="6.19625">
        <ele>1081.8000488281</ele>
        <time>2019-04-18T11:53:22.000Z</time>
      </trkpt>
      <trkpt lat="46.15351" lon="6.19638">
        <ele>1081.4000244141</ele>
        <time>2019-04-18T11:53:24.000Z</time>
      </trkpt>
      <trkpt lat="46.15345" lon="6.19646">
        <ele>1081</ele>
        <time>2019-04-18T11:53:25.000Z</time>
      </trkpt>
      <trkpt lat="46.15316" lon="6.1968">
        <ele>1080.4000244141</ele>
        <time>2019-04-18T11:53:30.000Z</time>
      </trkpt>
      <trkpt lat="46.15305" lon="6.19693">
        <ele>1080.4000244141</ele>
        <time>2019-04-18T11:53:32.000Z</time>
      </trkpt>
      <trkpt lat="46.15296" lon="6.19709">
        <ele>1079.8000488281</ele>
        <time>2019-04-18T11:53:34.000Z</time>
      </trkpt>
      <trkpt lat="46.15286" lon="6.19726">
        <ele>1078.1999511719</ele>
        <time>2019-04-18T11:53:36.000Z</time>
      </trkpt>
      <trkpt lat="46.15277" lon="6.19755">
        <ele>1075</ele>
        <time>2019-04-18T11:53:39.000Z</time>
      </trkpt>
      <trkpt lat="46.15258" lon="6.1982">
        <ele>1068.4000244141</ele>
        <time>2019-04-18T11:53:45.000Z</time>
      </trkpt>
      <trkpt lat="46.15249" lon="6.19852">
        <ele>1064.5999755859</ele>
        <time>2019-04-18T11:53:48.000Z</time>
      </trkpt>
      <trkpt lat="46.15239" lon="6.1987">
        <ele>1063.1999511719</ele>
        <time>2019-04-18T11:53:50.000Z</time>
      </trkpt>
      <trkpt lat="46.15209" lon="6.19911">
        <ele>1061.1999511719</ele>
        <time>2019-04-18T11:53:55.000Z</time>
      </trkpt>
      <trkpt lat="46.15186" lon="6.19938">
        <ele>1061</ele>
        <time>2019-04-18T11:53:59.000Z</time>
      </trkpt>
      <trkpt lat="46.15182" lon="6.19943">
        <ele>1061.4000244141</ele>
        <time>2019-04-18T11:54:00.000Z</time>
      </trkpt>
      <trkpt lat="46.15182" lon="6.19954">
        <ele>1060.8000488281</ele>
        <time>2019-04-18T11:54:01.000Z</time>
      </trkpt>
      <trkpt lat="46.15182" lon="6.19971">
        <ele>1059.5999755859</ele>
        <time>2019-04-18T11:54:03.000Z</time>
      </trkpt>
      <trkpt lat="46.15185" lon="6.19977">
        <ele>1058.8000488281</ele>
        <time>2019-04-18T11:54:05.000Z</time>
      </trkpt>
      <trkpt lat="46.1519" lon="6.19979">
        <ele>1057.8000488281</ele>
        <time>2019-04-18T11:54:06.000Z</time>
      </trkpt>
      <trkpt lat="46.15196" lon="6.19983">
        <ele>1056.4000244141</ele>
        <time>2019-04-18T11:54:07.000Z</time>
      </trkpt>
      <trkpt lat="46.15211" lon="6.19985">
        <ele>1053.5999755859</ele>
        <time>2019-04-18T11:54:09.000Z</time>
      </trkpt>
      <trkpt lat="46.15268" lon="6.19981">
        <ele>1048.8000488281</ele>
        <time>2019-04-18T11:54:16.000Z</time>
      </trkpt>
      <trkpt lat="46.15299" lon="6.19978">
        <ele>1047.5999755859</ele>
        <time>2019-04-18T11:54:20.000Z</time>
      </trkpt>
      <trkpt lat="46.15314" lon="6.19987">
        <ele>1045.8000488281</ele>
        <time>2019-04-18T11:54:22.000Z</time>
      </trkpt>
      <trkpt lat="46.15358" lon="6.20007">
        <ele>1040</ele>
        <time>2019-04-18T11:54:28.000Z</time>
      </trkpt>
      <trkpt lat="46.15398" lon="6.20012">
        <ele>1036.4000244141</ele>
        <time>2019-04-18T11:54:33.000Z</time>
      </trkpt>
      <trkpt lat="46.1544" lon="6.20009">
        <ele>1029.4000244141</ele>
        <time>2019-04-18T11:54:38.000Z</time>
      </trkpt>
      <trkpt lat="46.15452" lon="6.2">
        <ele>1027.8000488281</ele>
        <time>2019-04-18T11:54:40.000Z</time>
      </trkpt>
      <trkpt lat="46.15464" lon="6.19992">
        <ele>1026.4000244141</ele>
        <time>2019-04-18T11:54:42.000Z</time>
      </trkpt>
      <trkpt lat="46.15482" lon="6.19976">
        <ele>1024.4000244141</ele>
        <time>2019-04-18T11:54:46.000Z</time>
      </trkpt>
      <trkpt lat="46.15505" lon="6.19948">
        <ele>1021.200012207</ele>
        <time>2019-04-18T11:54:51.000Z</time>
      </trkpt>
      <trkpt lat="46.15511" lon="6.19946">
        <ele>1020.200012207</ele>
        <time>2019-04-18T11:54:52.000Z</time>
      </trkpt>
      <trkpt lat="46.15514" lon="6.19945">
        <ele>1019.4000244141</ele>
        <time>2019-04-18T11:54:53.000Z</time>
      </trkpt>
      <trkpt lat="46.15515" lon="6.19953">
        <ele>1018.5999755859</ele>
        <time>2019-04-18T11:54:54.000Z</time>
      </trkpt>
      <trkpt lat="46.15517" lon="6.19968">
        <ele>1016.799987793</ele>
        <time>2019-04-18T11:54:56.000Z</time>
      </trkpt>
      <trkpt lat="46.15506" lon="6.20004">
        <ele>1014.5999755859</ele>
        <time>2019-04-18T11:55:00.000Z</time>
      </trkpt>
      <trkpt lat="46.15502" lon="6.20013">
        <ele>1014.5999755859</ele>
        <time>2019-04-18T11:55:01.000Z</time>
      </trkpt>
      <trkpt lat="46.15486" lon="6.20054">
        <ele>1014.5999755859</ele>
        <time>2019-04-18T11:55:05.000Z</time>
      </trkpt>
      <trkpt lat="46.15473" lon="6.20069">
        <ele>1015.200012207</ele>
        <time>2019-04-18T11:55:07.000Z</time>
      </trkpt>
      <trkpt lat="46.15446" lon="6.20094">
        <ele>1014.5999755859</ele>
        <time>2019-04-18T11:55:11.000Z</time>
      </trkpt>
      <trkpt lat="46.15434" lon="6.20106">
        <ele>1014.4000244141</ele>
        <time>2019-04-18T11:55:13.000Z</time>
      </trkpt>
      <trkpt lat="46.15423" lon="6.20119">
        <ele>1014</ele>
        <time>2019-04-18T11:55:15.000Z</time>
      </trkpt>
      <trkpt lat="46.15417" lon="6.20127">
        <ele>1013.4000244141</ele>
        <time>2019-04-18T11:55:16.000Z</time>
      </trkpt>
      <trkpt lat="46.154" lon="6.2015">
        <ele>1012</ele>
        <time>2019-04-18T11:55:19.000Z</time>
      </trkpt>
      <trkpt lat="46.1539" lon="6.20175">
        <ele>1010</ele>
        <time>2019-04-18T11:55:22.000Z</time>
      </trkpt>
      <trkpt lat="46.15384" lon="6.20205">
        <ele>1006.200012207</ele>
        <time>2019-04-18T11:55:25.000Z</time>
      </trkpt>
      <trkpt lat="46.15379" lon="6.20227">
        <ele>1004</ele>
        <time>2019-04-18T11:55:27.000Z</time>
      </trkpt>
      <trkpt lat="46.15371" lon="6.20282">
        <ele>1001</ele>
        <time>2019-04-18T11:55:32.000Z</time>
      </trkpt>
      <trkpt lat="46.15369" lon="6.20293">
        <ele>1000.200012207</ele>
        <time>2019-04-18T11:55:33.000Z</time>
      </trkpt>
      <trkpt lat="46.15365" lon="6.20325">
        <ele>998.40002441406</ele>
        <time>2019-04-18T11:55:36.000Z</time>
      </trkpt>
      <trkpt lat="46.15354" lon="6.20393">
        <ele>993.20001220703</ele>
        <time>2019-04-18T11:55:42.000Z</time>
      </trkpt>
      <trkpt lat="46.15348" lon="6.20412">
        <ele>992.20001220703</ele>
        <time>2019-04-18T11:55:44.000Z</time>
      </trkpt>
      <trkpt lat="46.15339" lon="6.20428">
        <ele>991.59997558594</ele>
        <time>2019-04-18T11:55:46.000Z</time>
      </trkpt>
      <trkpt lat="46.15338" lon="6.20444">
        <ele>990</ele>
        <time>2019-04-18T11:55:48.000Z</time>
      </trkpt>
      <trkpt lat="46.1534" lon="6.20453">
        <ele>989</ele>
        <time>2019-04-18T11:55:49.000Z</time>
      </trkpt>
      <trkpt lat="46.15343" lon="6.20462">
        <ele>988.20001220703</ele>
        <time>2019-04-18T11:55:50.000Z</time>
      </trkpt>
      <trkpt lat="46.15349" lon="6.20477">
        <ele>986.59997558594</ele>
        <time>2019-04-18T11:55:52.000Z</time>
      </trkpt>
      <trkpt lat="46.15372" lon="6.205">
        <ele>983.20001220703</ele>
        <time>2019-04-18T11:55:56.000Z</time>
      </trkpt>
      <trkpt lat="46.15384" lon="6.20506">
        <ele>982.20001220703</ele>
        <time>2019-04-18T11:55:58.000Z</time>
      </trkpt>
      <trkpt lat="46.15396" lon="6.20507">
        <ele>981.20001220703</ele>
        <time>2019-04-18T11:56:00.000Z</time>
      </trkpt>
      <trkpt lat="46.15408" lon="6.20499">
        <ele>978.40002441406</ele>
        <time>2019-04-18T11:56:02.000Z</time>
      </trkpt>
      <trkpt lat="46.15414" lon="6.20495">
        <ele>977</ele>
        <time>2019-04-18T11:56:03.000Z</time>
      </trkpt>
      <trkpt lat="46.15419" lon="6.2049">
        <ele>976</ele>
        <time>2019-04-18T11:56:04.000Z</time>
      </trkpt>
      <trkpt lat="46.15426" lon="6.20475">
        <ele>976</ele>
        <time>2019-04-18T11:56:06.000Z</time>
      </trkpt>
      <trkpt lat="46.15434" lon="6.20459">
        <ele>974.40002441406</ele>
        <time>2019-04-18T11:56:08.000Z</time>
      </trkpt>
      <trkpt lat="46.15443" lon="6.2044">
        <ele>972.79998779297</ele>
        <time>2019-04-18T11:56:10.000Z</time>
      </trkpt>
      <trkpt lat="46.15452" lon="6.20401">
        <ele>973.79998779297</ele>
        <time>2019-04-18T11:56:14.000Z</time>
      </trkpt>
      <trkpt lat="46.15454" lon="6.20392">
        <ele>974</ele>
        <time>2019-04-18T11:56:15.000Z</time>
      </trkpt>
      <trkpt lat="46.15456" lon="6.20383">
        <ele>973.59997558594</ele>
        <time>2019-04-18T11:56:16.000Z</time>
      </trkpt>
      <trkpt lat="46.1546" lon="6.20376">
        <ele>972.79998779297</ele>
        <time>2019-04-18T11:56:17.000Z</time>
      </trkpt>
      <trkpt lat="46.15464" lon="6.20369">
        <ele>972.20001220703</ele>
        <time>2019-04-18T11:56:18.000Z</time>
      </trkpt>
      <trkpt lat="46.15474" lon="6.20353">
        <ele>970.59997558594</ele>
        <time>2019-04-18T11:56:20.000Z</time>
      </trkpt>
      <trkpt lat="46.1549" lon="6.20325">
        <ele>964.79998779297</ele>
        <time>2019-04-18T11:56:23.000Z</time>
      </trkpt>
      <trkpt lat="46.15507" lon="6.20296">
        <ele>961.40002441406</ele>
        <time>2019-04-18T11:56:27.000Z</time>
      </trkpt>
      <trkpt lat="46.15517" lon="6.20282">
        <ele>958.40002441406</ele>
        <time>2019-04-18T11:56:29.000Z</time>
      </trkpt>
      <trkpt lat="46.15523" lon="6.20278">
        <ele>956.79998779297</ele>
        <time>2019-04-18T11:56:30.000Z</time>
      </trkpt>
      <trkpt lat="46.15528" lon="6.20273">
        <ele>955.59997558594</ele>
        <time>2019-04-18T11:56:31.000Z</time>
      </trkpt>
      <trkpt lat="46.15539" lon="6.20264">
        <ele>954.20001220703</ele>
        <time>2019-04-18T11:56:33.000Z</time>
      </trkpt>
      <trkpt lat="46.15556" lon="6.20249">
        <ele>952</ele>
        <time>2019-04-18T11:56:36.000Z</time>
      </trkpt>
      <trkpt lat="46.15575" lon="6.20233">
        <ele>948</ele>
        <time>2019-04-18T11:56:39.000Z</time>
      </trkpt>
      <trkpt lat="46.15589" lon="6.20221">
        <ele>944.20001220703</ele>
        <time>2019-04-18T11:56:41.000Z</time>
      </trkpt>
      <trkpt lat="46.15603" lon="6.20209">
        <ele>940.79998779297</ele>
        <time>2019-04-18T11:56:43.000Z</time>
      </trkpt>
      <trkpt lat="46.15613" lon="6.20192">
        <ele>940</ele>
        <time>2019-04-18T11:56:45.000Z</time>
      </trkpt>
      <trkpt lat="46.15617" lon="6.20183">
        <ele>939.59997558594</ele>
        <time>2019-04-18T11:56:46.000Z</time>
      </trkpt>
      <trkpt lat="46.15631" lon="6.20157">
        <ele>938.20001220703</ele>
        <time>2019-04-18T11:56:49.000Z</time>
      </trkpt>
      <trkpt lat="46.15643" lon="6.20132">
        <ele>937.20001220703</ele>
        <time>2019-04-18T11:56:52.000Z</time>
      </trkpt>
      <trkpt lat="46.15648" lon="6.20124">
        <ele>937.20001220703</ele>
        <time>2019-04-18T11:56:53.000Z</time>
      </trkpt>
      <trkpt lat="46.15657" lon="6.20106">
        <ele>937.59997558594</ele>
        <time>2019-04-18T11:56:55.000Z</time>
      </trkpt>
      <trkpt lat="46.15669" lon="6.20083">
        <ele>938</ele>
        <time>2019-04-18T11:56:58.000Z</time>
      </trkpt>
      <trkpt lat="46.15672" lon="6.20077">
        <ele>937.79998779297</ele>
        <time>2019-04-18T11:56:59.000Z</time>
      </trkpt>
      <trkpt lat="46.15681" lon="6.20067">
        <ele>936.59997558594</ele>
        <time>2019-04-18T11:57:01.000Z</time>
      </trkpt>
      <trkpt lat="46.157" lon="6.20055">
        <ele>931.79998779297</ele>
        <time>2019-04-18T11:57:04.000Z</time>
      </trkpt>
      <trkpt lat="46.15705" lon="6.20052">
        <ele>930.40002441406</ele>
        <time>2019-04-18T11:57:05.000Z</time>
      </trkpt>
      <trkpt lat="46.15711" lon="6.20049">
        <ele>929</ele>
        <time>2019-04-18T11:57:06.000Z</time>
      </trkpt>
      <trkpt lat="46.15725" lon="6.20042">
        <ele>924.79998779297</ele>
        <time>2019-04-18T11:57:08.000Z</time>
      </trkpt>
      <trkpt lat="46.15748" lon="6.20012">
        <ele>922</ele>
        <time>2019-04-18T11:57:12.000Z</time>
      </trkpt>
      <trkpt lat="46.15758" lon="6.19995">
        <ele>921.79998779297</ele>
        <time>2019-04-18T11:57:14.000Z</time>
      </trkpt>
      <trkpt lat="46.15766" lon="6.1998">
        <ele>922.40002441406</ele>
        <time>2019-04-18T11:57:16.000Z</time>
      </trkpt>
      <trkpt lat="46.15769" lon="6.19975">
        <ele>922.59997558594</ele>
        <time>2019-04-18T11:57:17.000Z</time>
      </trkpt>
      <trkpt lat="46.15771" lon="6.1997">
        <ele>922.79998779297</ele>
        <time>2019-04-18T11:57:19.000Z</time>
      </trkpt>
      <trkpt lat="46.15774" lon="6.19964">
        <ele>923</ele>
        <time>2019-04-18T11:57:21.000Z</time>
      </trkpt>
      <trkpt lat="46.15775" lon="6.19962">
        <ele>923.20001220703</ele>
        <time>2019-04-18T11:57:23.000Z</time>
      </trkpt>
      <trkpt lat="46.15778" lon="6.19957">
        <ele>923.40002441406</ele>
        <time>2019-04-18T11:57:26.000Z</time>
      </trkpt>
      <trkpt lat="46.15779" lon="6.19955">
        <ele>923.40002441406</ele>
        <time>2019-04-18T11:57:27.000Z</time>
      </trkpt>
      <trkpt lat="46.1579" lon="6.19945">
        <ele>921.40002441406</ele>
        <time>2019-04-18T11:57:29.000Z</time>
      </trkpt>
      <trkpt lat="46.15797" lon="6.19941">
        <ele>919.79998779297</ele>
        <time>2019-04-18T11:57:30.000Z</time>
      </trkpt>
      <trkpt lat="46.15803" lon="6.19937">
        <ele>918.40002441406</ele>
        <time>2019-04-18T11:57:31.000Z</time>
      </trkpt>
      <trkpt lat="46.1582" lon="6.19928">
        <ele>914</ele>
        <time>2019-04-18T11:57:33.000Z</time>
      </trkpt>
      <trkpt lat="46.15833" lon="6.19921">
        <ele>911</ele>
        <time>2019-04-18T11:57:35.000Z</time>
      </trkpt>
      <trkpt lat="46.15846" lon="6.19913">
        <ele>908</ele>
        <time>2019-04-18T11:57:37.000Z</time>
      </trkpt>
      <trkpt lat="46.15877" lon="6.1989">
        <ele>902.79998779297</ele>
        <time>2019-04-18T11:57:41.000Z</time>
      </trkpt>
      <trkpt lat="46.15909" lon="6.19864">
        <ele>899</ele>
        <time>2019-04-18T11:57:45.000Z</time>
      </trkpt>
      <trkpt lat="46.15952" lon="6.19839">
        <ele>889.59997558594</ele>
        <time>2019-04-18T11:57:50.000Z</time>
      </trkpt>
      <trkpt lat="46.15982" lon="6.1983">
        <ele>878.59997558594</ele>
        <time>2019-04-18T11:57:54.000Z</time>
      </trkpt>
      <trkpt lat="46.16009" lon="6.19821">
        <ele>858.40002441406</ele>
        <time>2019-04-18T11:57:58.000Z</time>
      </trkpt>
      <trkpt lat="46.16014" lon="6.19823">
        <ele>854.79998779297</ele>
        <time>2019-04-18T11:57:59.000Z</time>
      </trkpt>
      <trkpt lat="46.16018" lon="6.19824">
        <ele>851.79998779297</ele>
        <time>2019-04-18T11:58:00.000Z</time>
      </trkpt>
      <trkpt lat="46.16018" lon="6.19826">
        <ele>851.40002441406</ele>
        <time>2019-04-18T11:58:01.000Z</time>
      </trkpt>
      <trkpt lat="46.16019" lon="6.19831">
        <ele>852</ele>
        <time>2019-04-18T11:58:02.000Z</time>
      </trkpt>
      <trkpt lat="46.16015" lon="6.19844">
        <ele>856.59997558594</ele>
        <time>2019-04-18T11:58:04.000Z</time>
      </trkpt>
      <trkpt lat="46.16003" lon="6.19851">
        <ele>863.79998779297</ele>
        <time>2019-04-18T11:58:07.000Z</time>
      </trkpt>
      <trkpt lat="46.15997" lon="6.19854">
        <ele>866</ele>
        <time>2019-04-18T11:58:08.000Z</time>
      </trkpt>
      <trkpt lat="46.15987" lon="6.1986">
        <ele>870.40002441406</ele>
        <time>2019-04-18T11:58:10.000Z</time>
      </trkpt>
      <trkpt lat="46.15975" lon="6.19867">
        <ele>875</ele>
        <time>2019-04-18T11:58:12.000Z</time>
      </trkpt>
      <trkpt lat="46.15963" lon="6.19874">
        <ele>878.79998779297</ele>
        <time>2019-04-18T11:58:14.000Z</time>
      </trkpt>
      <trkpt lat="46.15959" lon="6.1988">
        <ele>879</ele>
        <time>2019-04-18T11:58:15.000Z</time>
      </trkpt>
      <trkpt lat="46.15954" lon="6.19887">
        <ele>878.40002441406</ele>
        <time>2019-04-18T11:58:16.000Z</time>
      </trkpt>
      <trkpt lat="46.15944" lon="6.19904">
        <ele>876</ele>
        <time>2019-04-18T11:58:18.000Z</time>
      </trkpt>
      <trkpt lat="46.15938" lon="6.19913">
        <ele>874</ele>
        <time>2019-04-18T11:58:19.000Z</time>
      </trkpt>
      <trkpt lat="46.15922" lon="6.19934">
        <ele>872.20001220703</ele>
        <time>2019-04-18T11:58:22.000Z</time>
      </trkpt>
      <trkpt lat="46.15911" lon="6.19947">
        <ele>873.20001220703</ele>
        <time>2019-04-18T11:58:24.000Z</time>
      </trkpt>
      <trkpt lat="46.15898" lon="6.19964">
        <ele>874.40002441406</ele>
        <time>2019-04-18T11:58:27.000Z</time>
      </trkpt>
      <trkpt lat="46.15893" lon="6.1997">
        <ele>874.79998779297</ele>
        <time>2019-04-18T11:58:28.000Z</time>
      </trkpt>
      <trkpt lat="46.15881" lon="6.19977">
        <ele>877.79998779297</ele>
        <time>2019-04-18T11:58:30.000Z</time>
      </trkpt>
      <trkpt lat="46.15864" lon="6.19975">
        <ele>884.59997558594</ele>
        <time>2019-04-18T11:58:33.000Z</time>
      </trkpt>
      <trkpt lat="46.1586" lon="6.20004">
        <ele>878</ele>
        <time>2019-04-18T11:58:35.000Z</time>
      </trkpt>
      <trkpt lat="46.15856" lon="6.20008">
        <ele>878.40002441406</ele>
        <time>2019-04-18T11:58:36.000Z</time>
      </trkpt>
      <trkpt lat="46.15856" lon="6.20008">
        <ele>878.40002441406</ele>
        <time>2019-04-18T11:58:37.000Z</time>
      </trkpt>
      <trkpt lat="46.15854" lon="6.20028">
        <ele>873.40002441406</ele>
        <time>2019-04-18T11:58:39.000Z</time>
      </trkpt>
      <trkpt lat="46.15852" lon="6.20053">
        <ele>868.59997558594</ele>
        <time>2019-04-18T11:58:41.000Z</time>
      </trkpt>
      <trkpt lat="46.15846" lon="6.20074">
        <ele>864.79998779297</ele>
        <time>2019-04-18T11:58:43.000Z</time>
      </trkpt>
      <trkpt lat="46.15841" lon="6.20092">
        <ele>860.79998779297</ele>
        <time>2019-04-18T11:58:45.000Z</time>
      </trkpt>
      <trkpt lat="46.15833" lon="6.2011">
        <ele>860.59997558594</ele>
        <time>2019-04-18T11:58:47.000Z</time>
      </trkpt>
      <trkpt lat="46.15814" lon="6.20154">
        <ele>860</ele>
        <time>2019-04-18T11:58:52.000Z</time>
      </trkpt>
      <trkpt lat="46.15804" lon="6.20175">
        <ele>859.20001220703</ele>
        <time>2019-04-18T11:58:54.000Z</time>
      </trkpt>
      <trkpt lat="46.15796" lon="6.20195">
        <ele>857.79998779297</ele>
        <time>2019-04-18T11:58:56.000Z</time>
      </trkpt>
      <trkpt lat="46.15788" lon="6.20226">
        <ele>854.79998779297</ele>
        <time>2019-04-18T11:58:59.000Z</time>
      </trkpt>
      <trkpt lat="46.15787" lon="6.20236">
        <ele>853</ele>
        <time>2019-04-18T11:59:00.000Z</time>
      </trkpt>
      <trkpt lat="46.15785" lon="6.20255">
        <ele>849.79998779297</ele>
        <time>2019-04-18T11:59:02.000Z</time>
      </trkpt>
      <trkpt lat="46.15783" lon="6.20264">
        <ele>848.79998779297</ele>
        <time>2019-04-18T11:59:03.000Z</time>
      </trkpt>
      <trkpt lat="46.15773" lon="6.20303">
        <ele>844.40002441406</ele>
        <time>2019-04-18T11:59:07.000Z</time>
      </trkpt>
      <trkpt lat="46.1577" lon="6.20313">
        <ele>843.20001220703</ele>
        <time>2019-04-18T11:59:08.000Z</time>
      </trkpt>
      <trkpt lat="46.15764" lon="6.20335">
        <ele>840.79998779297</ele>
        <time>2019-04-18T11:59:10.000Z</time>
      </trkpt>
      <trkpt lat="46.15759" lon="6.20356">
        <ele>838.40002441406</ele>
        <time>2019-04-18T11:59:12.000Z</time>
      </trkpt>
      <trkpt lat="46.15746" lon="6.20408">
        <ele>831.79998779297</ele>
        <time>2019-04-18T11:59:17.000Z</time>
      </trkpt>
      <trkpt lat="46.15738" lon="6.20439">
        <ele>826.79998779297</ele>
        <time>2019-04-18T11:59:20.000Z</time>
      </trkpt>
      <trkpt lat="46.15731" lon="6.20455">
        <ele>825</ele>
        <time>2019-04-18T11:59:22.000Z</time>
      </trkpt>
      <trkpt lat="46.15716" lon="6.20483">
        <ele>826.20001220703</ele>
        <time>2019-04-18T11:59:25.000Z</time>
      </trkpt>
      <trkpt lat="46.15713" lon="6.20493">
        <ele>825</ele>
        <time>2019-04-18T11:59:26.000Z</time>
      </trkpt>
      <trkpt lat="46.15711" lon="6.20503">
        <ele>823.20001220703</ele>
        <time>2019-04-18T11:59:27.000Z</time>
      </trkpt>
      <trkpt lat="46.15708" lon="6.20524">
        <ele>819.59997558594</ele>
        <time>2019-04-18T11:59:29.000Z</time>
      </trkpt>
      <trkpt lat="46.15704" lon="6.20545">
        <ele>816.79998779297</ele>
        <time>2019-04-18T11:59:31.000Z</time>
      </trkpt>
      <trkpt lat="46.15701" lon="6.20566">
        <ele>816</ele>
        <time>2019-04-18T11:59:33.000Z</time>
      </trkpt>
      <trkpt lat="46.15693" lon="6.20614">
        <ele>812.79998779297</ele>
        <time>2019-04-18T11:59:37.000Z</time>
      </trkpt>
      <trkpt lat="46.15685" lon="6.20663">
        <ele>807.79998779297</ele>
        <time>2019-04-18T11:59:41.000Z</time>
      </trkpt>
      <trkpt lat="46.15683" lon="6.20675">
        <ele>807.40002441406</ele>
        <time>2019-04-18T11:59:42.000Z</time>
      </trkpt>
      <trkpt lat="46.15679" lon="6.20697">
        <ele>804.40002441406</ele>
        <time>2019-04-18T11:59:44.000Z</time>
      </trkpt>
      <trkpt lat="46.15675" lon="6.20719">
        <ele>800.20001220703</ele>
        <time>2019-04-18T11:59:46.000Z</time>
      </trkpt>
      <trkpt lat="46.15673" lon="6.2073">
        <ele>798.20001220703</ele>
        <time>2019-04-18T11:59:47.000Z</time>
      </trkpt>
      <trkpt lat="46.1567" lon="6.20753">
        <ele>795.40002441406</ele>
        <time>2019-04-18T11:59:49.000Z</time>
      </trkpt>
      <trkpt lat="46.15666" lon="6.20776">
        <ele>791.79998779297</ele>
        <time>2019-04-18T11:59:51.000Z</time>
      </trkpt>
      <trkpt lat="46.15664" lon="6.20787">
        <ele>790</ele>
        <time>2019-04-18T11:59:52.000Z</time>
      </trkpt>
      <trkpt lat="46.15654" lon="6.2083">
        <ele>785.20001220703</ele>
        <time>2019-04-18T11:59:56.000Z</time>
      </trkpt>
      <trkpt lat="46.15639" lon="6.20879">
        <ele>784</ele>
        <time>2019-04-18T12:00:01.000Z</time>
      </trkpt>
      <trkpt lat="46.15633" lon="6.20896">
        <ele>784.79998779297</ele>
        <time>2019-04-18T12:00:03.000Z</time>
      </trkpt>
      <trkpt lat="46.15625" lon="6.20916">
        <ele>785</ele>
        <time>2019-04-18T12:00:05.000Z</time>
      </trkpt>
      <trkpt lat="46.15617" lon="6.20936">
        <ele>785</ele>
        <time>2019-04-18T12:00:07.000Z</time>
      </trkpt>
      <trkpt lat="46.1561" lon="6.20955">
        <ele>785</ele>
        <time>2019-04-18T12:00:09.000Z</time>
      </trkpt>
      <trkpt lat="46.15603" lon="6.20971">
        <ele>785</ele>
        <time>2019-04-18T12:00:11.000Z</time>
      </trkpt>
      <trkpt lat="46.156" lon="6.20983">
        <ele>784.40002441406</ele>
        <time>2019-04-18T12:00:13.000Z</time>
      </trkpt>
      <trkpt lat="46.15603" lon="6.20998">
        <ele>781</ele>
        <time>2019-04-18T12:00:15.000Z</time>
      </trkpt>
      <trkpt lat="46.15605" lon="6.20998">
        <ele>779.40002441406</ele>
        <time>2019-04-18T12:00:17.000Z</time>
      </trkpt>
      <trkpt lat="46.15615" lon="6.20984">
        <ele>775.40002441406</ele>
        <time>2019-04-18T12:00:20.000Z</time>
      </trkpt>
      <trkpt lat="46.15623" lon="6.20971">
        <ele>772.59997558594</ele>
        <time>2019-04-18T12:00:22.000Z</time>
      </trkpt>
      <trkpt lat="46.15632" lon="6.20955">
        <ele>771.20001220703</ele>
        <time>2019-04-18T12:00:24.000Z</time>
      </trkpt>
      <trkpt lat="46.15635" lon="6.20947">
        <ele>771</ele>
        <time>2019-04-18T12:00:25.000Z</time>
      </trkpt>
      <trkpt lat="46.15642" lon="6.20931">
        <ele>770.79998779297</ele>
        <time>2019-04-18T12:00:27.000Z</time>
      </trkpt>
      <trkpt lat="46.15645" lon="6.20924">
        <ele>770.79998779297</ele>
        <time>2019-04-18T12:00:28.000Z</time>
      </trkpt>
      <trkpt lat="46.15648" lon="6.20917">
        <ele>771.20001220703</ele>
        <time>2019-04-18T12:00:29.000Z</time>
      </trkpt>
      <trkpt lat="46.15654" lon="6.20901">
        <ele>771.59997558594</ele>
        <time>2019-04-18T12:00:31.000Z</time>
      </trkpt>
      <trkpt lat="46.15663" lon="6.20886">
        <ele>769.79998779297</ele>
        <time>2019-04-18T12:00:33.000Z</time>
      </trkpt>
      <trkpt lat="46.15667" lon="6.20878">
        <ele>768.79998779297</ele>
        <time>2019-04-18T12:00:34.000Z</time>
      </trkpt>
      <trkpt lat="46.15672" lon="6.2087">
        <ele>767.79998779297</ele>
        <time>2019-04-18T12:00:35.000Z</time>
      </trkpt>
      <trkpt lat="46.15686" lon="6.20847">
        <ele>765.20001220703</ele>
        <time>2019-04-18T12:00:38.000Z</time>
      </trkpt>
      <trkpt lat="46.15695" lon="6.20831">
        <ele>764.20001220703</ele>
        <time>2019-04-18T12:00:40.000Z</time>
      </trkpt>
      <trkpt lat="46.15704" lon="6.20816">
        <ele>763</ele>
        <time>2019-04-18T12:00:42.000Z</time>
      </trkpt>
      <trkpt lat="46.15709" lon="6.20808">
        <ele>762.59997558594</ele>
        <time>2019-04-18T12:00:43.000Z</time>
      </trkpt>
      <trkpt lat="46.15722" lon="6.20785">
        <ele>760.59997558594</ele>
        <time>2019-04-18T12:00:45.000Z</time>
      </trkpt>
      <trkpt lat="46.1576" lon="6.20733">
        <ele>753.59997558594</ele>
        <time>2019-04-18T12:00:51.000Z</time>
      </trkpt>
      <trkpt lat="46.15785" lon="6.20701">
        <ele>746</ele>
        <time>2019-04-18T12:00:55.000Z</time>
      </trkpt>
      <trkpt lat="46.15791" lon="6.20692">
        <ele>744.40002441406</ele>
        <time>2019-04-18T12:00:56.000Z</time>
      </trkpt>
      <trkpt lat="46.15823" lon="6.2066">
        <ele>737.59997558594</ele>
        <time>2019-04-18T12:01:01.000Z</time>
      </trkpt>
      <trkpt lat="46.15838" lon="6.20645">
        <ele>733.59997558594</ele>
        <time>2019-04-18T12:01:03.000Z</time>
      </trkpt>
      <trkpt lat="46.1585" lon="6.20627">
        <ele>732.20001220703</ele>
        <time>2019-04-18T12:01:05.000Z</time>
      </trkpt>
      <trkpt lat="46.15868" lon="6.20605">
        <ele>729.20001220703</ele>
        <time>2019-04-18T12:01:08.000Z</time>
      </trkpt>
      <trkpt lat="46.15874" lon="6.206">
        <ele>727.40002441406</ele>
        <time>2019-04-18T12:01:09.000Z</time>
      </trkpt>
      <trkpt lat="46.15892" lon="6.20587">
        <ele>722.40002441406</ele>
        <time>2019-04-18T12:01:12.000Z</time>
      </trkpt>
      <trkpt lat="46.15898" lon="6.20582">
        <ele>721.79998779297</ele>
        <time>2019-04-18T12:01:13.000Z</time>
      </trkpt>
      <trkpt lat="46.15902" lon="6.20575">
        <ele>722.20001220703</ele>
        <time>2019-04-18T12:01:14.000Z</time>
      </trkpt>
      <trkpt lat="46.15913" lon="6.20557">
        <ele>721.59997558594</ele>
        <time>2019-04-18T12:01:17.000Z</time>
      </trkpt>
      <trkpt lat="46.15916" lon="6.20551">
        <ele>722</ele>
        <time>2019-04-18T12:01:18.000Z</time>
      </trkpt>
      <trkpt lat="46.15923" lon="6.2054">
        <ele>722.79998779297</ele>
        <time>2019-04-18T12:01:20.000Z</time>
      </trkpt>
      <trkpt lat="46.15931" lon="6.20527">
        <ele>723.79998779297</ele>
        <time>2019-04-18T12:01:22.000Z</time>
      </trkpt>
      <trkpt lat="46.15941" lon="6.20513">
        <ele>722.79998779297</ele>
        <time>2019-04-18T12:01:24.000Z</time>
      </trkpt>
      <trkpt lat="46.15965" lon="6.2048">
        <ele>717.59997558594</ele>
        <time>2019-04-18T12:01:28.000Z</time>
      </trkpt>
      <trkpt lat="46.1599" lon="6.20427">
        <ele>717</ele>
        <time>2019-04-18T12:01:33.000Z</time>
      </trkpt>
      <trkpt lat="46.15994" lon="6.20416">
        <ele>717.59997558594</ele>
        <time>2019-04-18T12:01:34.000Z</time>
      </trkpt>
      <trkpt lat="46.16006" lon="6.20386">
        <ele>717.20001220703</ele>
        <time>2019-04-18T12:01:37.000Z</time>
      </trkpt>
      <trkpt lat="46.16013" lon="6.20368">
        <ele>718.40002441406</ele>
        <time>2019-04-18T12:01:39.000Z</time>
      </trkpt>
      <trkpt lat="46.16018" lon="6.20363">
        <ele>718</ele>
        <time>2019-04-18T12:01:40.000Z</time>
      </trkpt>
      <trkpt lat="46.16022" lon="6.20359">
        <ele>717.59997558594</ele>
        <time>2019-04-18T12:01:41.000Z</time>
      </trkpt>
      <trkpt lat="46.16029" lon="6.20359">
        <ele>715.79998779297</ele>
        <time>2019-04-18T12:01:42.000Z</time>
      </trkpt>
      <trkpt lat="46.16037" lon="6.20363">
        <ele>713.40002441406</ele>
        <time>2019-04-18T12:01:43.000Z</time>
      </trkpt>
      <trkpt lat="46.16042" lon="6.20371">
        <ele>711.40002441406</ele>
        <time>2019-04-18T12:01:44.000Z</time>
      </trkpt>
      <trkpt lat="46.16043" lon="6.20391">
        <ele>708.59997558594</ele>
        <time>2019-04-18T12:01:46.000Z</time>
      </trkpt>
      <trkpt lat="46.16031" lon="6.20425">
        <ele>709.79998779297</ele>
        <time>2019-04-18T12:01:50.000Z</time>
      </trkpt>
      <trkpt lat="46.16021" lon="6.20451">
        <ele>710.20001220703</ele>
        <time>2019-04-18T12:01:53.000Z</time>
      </trkpt>
      <trkpt lat="46.16019" lon="6.20459">
        <ele>709.79998779297</ele>
        <time>2019-04-18T12:01:54.000Z</time>
      </trkpt>
      <trkpt lat="46.16019" lon="6.20478">
        <ele>707.59997558594</ele>
        <time>2019-04-18T12:01:56.000Z</time>
      </trkpt>
      <trkpt lat="46.1602" lon="6.20497">
        <ele>706.59997558594</ele>
        <time>2019-04-18T12:01:58.000Z</time>
      </trkpt>
      <trkpt lat="46.1602" lon="6.20507">
        <ele>706</ele>
        <time>2019-04-18T12:01:59.000Z</time>
      </trkpt>
      <trkpt lat="46.16023" lon="6.20547">
        <ele>702.40002441406</ele>
        <time>2019-04-18T12:02:03.000Z</time>
      </trkpt>
      <trkpt lat="46.16026" lon="6.20577">
        <ele>700.40002441406</ele>
        <time>2019-04-18T12:02:06.000Z</time>
      </trkpt>
      <trkpt lat="46.16024" lon="6.20587">
        <ele>700.40002441406</ele>
        <time>2019-04-18T12:02:07.000Z</time>
      </trkpt>
      <trkpt lat="46.16022" lon="6.20595">
        <ele>700.40002441406</ele>
        <time>2019-04-18T12:02:08.000Z</time>
      </trkpt>
      <trkpt lat="46.16009" lon="6.20617">
        <ele>700.79998779297</ele>
        <time>2019-04-18T12:02:11.000Z</time>
      </trkpt>
      <trkpt lat="46.15995" lon="6.20636">
        <ele>701.20001220703</ele>
        <time>2019-04-18T12:02:14.000Z</time>
      </trkpt>
      <trkpt lat="46.15987" lon="6.20648">
        <ele>701.40002441406</ele>
        <time>2019-04-18T12:02:16.000Z</time>
      </trkpt>
      <trkpt lat="46.15973" lon="6.20669">
        <ele>701.40002441406</ele>
        <time>2019-04-18T12:02:20.000Z</time>
      </trkpt>
      <trkpt lat="46.15968" lon="6.20682">
        <ele>701.20001220703</ele>
        <time>2019-04-18T12:02:22.000Z</time>
      </trkpt>
      <trkpt lat="46.15952" lon="6.20723">
        <ele>701</ele>
        <time>2019-04-18T12:02:28.000Z</time>
      </trkpt>
      <trkpt lat="46.1594" lon="6.20759">
        <ele>701.59997558594</ele>
        <time>2019-04-18T12:02:33.000Z</time>
      </trkpt>
      <trkpt lat="46.15934" lon="6.20782">
        <ele>701.40002441406</ele>
        <time>2019-04-18T12:02:36.000Z</time>
      </trkpt>
      <trkpt lat="46.15929" lon="6.20798">
        <ele>700.59997558594</ele>
        <time>2019-04-18T12:02:38.000Z</time>
      </trkpt>
      <trkpt lat="46.15912" lon="6.20855">
        <ele>697.79998779297</ele>
        <time>2019-04-18T12:02:44.000Z</time>
      </trkpt>
      <trkpt lat="46.15897" lon="6.20907">
        <ele>693.20001220703</ele>
        <time>2019-04-18T12:02:49.000Z</time>
      </trkpt>
      <trkpt lat="46.15879" lon="6.20971">
        <ele>690.59997558594</ele>
        <time>2019-04-18T12:02:55.000Z</time>
      </trkpt>
      <trkpt lat="46.15863" lon="6.21032">
        <ele>687.79998779297</ele>
        <time>2019-04-18T12:03:01.000Z</time>
      </trkpt>
      <trkpt lat="46.15852" lon="6.21083">
        <ele>685.79998779297</ele>
        <time>2019-04-18T12:03:06.000Z</time>
      </trkpt>
      <trkpt lat="46.15854" lon="6.21129">
        <ele>684</ele>
        <time>2019-04-18T12:03:10.000Z</time>
      </trkpt>
      <trkpt lat="46.15857" lon="6.2117">
        <ele>681.59997558594</ele>
        <time>2019-04-18T12:03:14.000Z</time>
      </trkpt>
      <trkpt lat="46.15863" lon="6.21221">
        <ele>679.20001220703</ele>
        <time>2019-04-18T12:03:19.000Z</time>
      </trkpt>
      <trkpt lat="46.15867" lon="6.21255">
        <ele>677.40002441406</ele>
        <time>2019-04-18T12:03:23.000Z</time>
      </trkpt>
      <trkpt lat="46.15872" lon="6.21302">
        <ele>674.40002441406</ele>
        <time>2019-04-18T12:03:28.000Z</time>
      </trkpt>
      <trkpt lat="46.15881" lon="6.2138">
        <ele>674.40002441406</ele>
        <time>2019-04-18T12:03:35.000Z</time>
      </trkpt>
      <trkpt lat="46.15884" lon="6.2142">
        <ele>673</ele>
        <time>2019-04-18T12:03:39.000Z</time>
      </trkpt>
      <trkpt lat="46.15883" lon="6.21429">
        <ele>672.79998779297</ele>
        <time>2019-04-18T12:03:40.000Z</time>
      </trkpt>
      <trkpt lat="46.15879" lon="6.21447">
        <ele>672.20001220703</ele>
        <time>2019-04-18T12:03:42.000Z</time>
      </trkpt>
      <trkpt lat="46.15875" lon="6.21466">
        <ele>671.59997558594</ele>
        <time>2019-04-18T12:03:44.000Z</time>
      </trkpt>
      <trkpt lat="46.15861" lon="6.21517">
        <ele>671.20001220703</ele>
        <time>2019-04-18T12:03:49.000Z</time>
      </trkpt>
      <trkpt lat="46.15848" lon="6.21561">
        <ele>669.20001220703</ele>
        <time>2019-04-18T12:03:54.000Z</time>
      </trkpt>
      <trkpt lat="46.15841" lon="6.21595">
        <ele>667.20001220703</ele>
        <time>2019-04-18T12:03:58.000Z</time>
      </trkpt>
      <trkpt lat="46.15839" lon="6.21605">
        <ele>666.59997558594</ele>
        <time>2019-04-18T12:03:59.000Z</time>
      </trkpt>
      <trkpt lat="46.15829" lon="6.21652">
        <ele>663.40002441406</ele>
        <time>2019-04-18T12:04:04.000Z</time>
      </trkpt>
      <trkpt lat="46.15818" lon="6.21704">
        <ele>660.40002441406</ele>
        <time>2019-04-18T12:04:09.000Z</time>
      </trkpt>
      <trkpt lat="46.15816" lon="6.21714">
        <ele>659.79998779297</ele>
        <time>2019-04-18T12:04:10.000Z</time>
      </trkpt>
      <trkpt lat="46.15799" lon="6.2177">
        <ele>656.79998779297</ele>
        <time>2019-04-18T12:04:16.000Z</time>
      </trkpt>
      <trkpt lat="46.15777" lon="6.21833">
        <ele>653</ele>
        <time>2019-04-18T12:04:23.000Z</time>
      </trkpt>
      <trkpt lat="46.15766" lon="6.21862">
        <ele>651.40002441406</ele>
        <time>2019-04-18T12:04:27.000Z</time>
      </trkpt>
      <trkpt lat="46.1576" lon="6.21886">
        <ele>651</ele>
        <time>2019-04-18T12:04:30.000Z</time>
      </trkpt>
      <trkpt lat="46.15759" lon="6.21905">
        <ele>650.59997558594</ele>
        <time>2019-04-18T12:04:32.000Z</time>
      </trkpt>
      <trkpt lat="46.15759" lon="6.21914">
        <ele>650.20001220703</ele>
        <time>2019-04-18T12:04:33.000Z</time>
      </trkpt>
      <trkpt lat="46.15757" lon="6.21941">
        <ele>649.20001220703</ele>
        <time>2019-04-18T12:04:36.000Z</time>
      </trkpt>
      <trkpt lat="46.15759" lon="6.2195">
        <ele>648.79998779297</ele>
        <time>2019-04-18T12:04:37.000Z</time>
      </trkpt>
      <trkpt lat="46.15761" lon="6.21957">
        <ele>648.59997558594</ele>
        <time>2019-04-18T12:04:38.000Z</time>
      </trkpt>
      <trkpt lat="46.15766" lon="6.21978">
        <ele>647.59997558594</ele>
        <time>2019-04-18T12:04:41.000Z</time>
      </trkpt>
      <trkpt lat="46.15788" lon="6.22034">
        <ele>646.20001220703</ele>
        <time>2019-04-18T12:04:47.000Z</time>
      </trkpt>
      <trkpt lat="46.15791" lon="6.22041">
        <ele>646</ele>
        <time>2019-04-18T12:04:48.000Z</time>
      </trkpt>
      <trkpt lat="46.15803" lon="6.22072">
        <ele>645.59997558594</ele>
        <time>2019-04-18T12:04:52.000Z</time>
      </trkpt>
      <trkpt lat="46.15824" lon="6.22123">
        <ele>646</ele>
        <time>2019-04-18T12:04:58.000Z</time>
      </trkpt>
      <trkpt lat="46.15847" lon="6.22175">
        <ele>645.20001220703</ele>
        <time>2019-04-18T12:05:04.000Z</time>
      </trkpt>
      <trkpt lat="46.15862" lon="6.22212">
        <ele>642.79998779297</ele>
        <time>2019-04-18T12:05:09.000Z</time>
      </trkpt>
      <trkpt lat="46.15862" lon="6.22231">
        <ele>640.20001220703</ele>
        <time>2019-04-18T12:05:11.000Z</time>
      </trkpt>
      <trkpt lat="46.1586" lon="6.22238">
        <ele>638.40002441406</ele>
        <time>2019-04-18T12:05:12.000Z</time>
      </trkpt>
      <trkpt lat="46.15857" lon="6.22245">
        <ele>636.20001220703</ele>
        <time>2019-04-18T12:05:13.000Z</time>
      </trkpt>
      <trkpt lat="46.15848" lon="6.22252">
        <ele>633.40002441406</ele>
        <time>2019-04-18T12:05:15.000Z</time>
      </trkpt>
      <trkpt lat="46.15837" lon="6.22257">
        <ele>630.79998779297</ele>
        <time>2019-04-18T12:05:17.000Z</time>
      </trkpt>
      <trkpt lat="46.15823" lon="6.22258">
        <ele>629.79998779297</ele>
        <time>2019-04-18T12:05:19.000Z</time>
      </trkpt>
      <trkpt lat="46.15805" lon="6.22253">
        <ele>630.40002441406</ele>
        <time>2019-04-18T12:05:22.000Z</time>
      </trkpt>
      <trkpt lat="46.15798" lon="6.22251">
        <ele>631.40002441406</ele>
        <time>2019-04-18T12:05:23.000Z</time>
      </trkpt>
      <trkpt lat="46.15795" lon="6.22253">
        <ele>631.40002441406</ele>
        <time>2019-04-18T12:05:24.000Z</time>
      </trkpt>
      <trkpt lat="46.15789" lon="6.22265">
        <ele>629.79998779297</ele>
        <time>2019-04-18T12:05:26.000Z</time>
      </trkpt>
      <trkpt lat="46.15791" lon="6.22277">
        <ele>627.59997558594</ele>
        <time>2019-04-18T12:05:28.000Z</time>
      </trkpt>
      <trkpt lat="46.15805" lon="6.22286">
        <ele>624.79998779297</ele>
        <time>2019-04-18T12:05:30.000Z</time>
      </trkpt>
      <trkpt lat="46.15812" lon="6.22292">
        <ele>623.40002441406</ele>
        <time>2019-04-18T12:05:31.000Z</time>
      </trkpt>
      <trkpt lat="46.15826" lon="6.22293">
        <ele>624</ele>
        <time>2019-04-18T12:05:33.000Z</time>
      </trkpt>
      <trkpt lat="46.15839" lon="6.22294">
        <ele>624.79998779297</ele>
        <time>2019-04-18T12:05:35.000Z</time>
      </trkpt>
      <trkpt lat="46.15846" lon="6.22295">
        <ele>625</ele>
        <time>2019-04-18T12:05:36.000Z</time>
      </trkpt>
      <trkpt lat="46.15852" lon="6.22295">
        <ele>625.40002441406</ele>
        <time>2019-04-18T12:05:37.000Z</time>
      </trkpt>
      <trkpt lat="46.15871" lon="6.22294">
        <ele>626.59997558594</ele>
        <time>2019-04-18T12:05:40.000Z</time>
      </trkpt>
      <trkpt lat="46.15883" lon="6.22302">
        <ele>626</ele>
        <time>2019-04-18T12:05:42.000Z</time>
      </trkpt>
      <trkpt lat="46.15887" lon="6.22309">
        <ele>625</ele>
        <time>2019-04-18T12:05:43.000Z</time>
      </trkpt>
      <trkpt lat="46.15892" lon="6.22317">
        <ele>623.79998779297</ele>
        <time>2019-04-18T12:05:44.000Z</time>
      </trkpt>
      <trkpt lat="46.15907" lon="6.22342">
        <ele>620</ele>
        <time>2019-04-18T12:05:47.000Z</time>
      </trkpt>
      <trkpt lat="46.1592" lon="6.22353">
        <ele>619.40002441406</ele>
        <time>2019-04-18T12:05:49.000Z</time>
      </trkpt>
      <trkpt lat="46.15927" lon="6.22358">
        <ele>619.40002441406</ele>
        <time>2019-04-18T12:05:50.000Z</time>
      </trkpt>
      <trkpt lat="46.15941" lon="6.22368">
        <ele>619.20001220703</ele>
        <time>2019-04-18T12:05:52.000Z</time>
      </trkpt>
      <trkpt lat="46.15961" lon="6.22392">
        <ele>617</ele>
        <time>2019-04-18T12:05:55.000Z</time>
      </trkpt>
      <trkpt lat="46.15997" lon="6.22436">
        <ele>611.40002441406</ele>
        <time>2019-04-18T12:06:01.000Z</time>
      </trkpt>
      <trkpt lat="46.16018" lon="6.22453">
        <ele>611.40002441406</ele>
        <time>2019-04-18T12:06:04.000Z</time>
      </trkpt>
      <trkpt lat="46.16032" lon="6.22464">
        <ele>611.59997558594</ele>
        <time>2019-04-18T12:06:06.000Z</time>
      </trkpt>
      <trkpt lat="46.16052" lon="6.22484">
        <ele>610.40002441406</ele>
        <time>2019-04-18T12:06:09.000Z</time>
      </trkpt>
      <trkpt lat="46.16057" lon="6.22492">
        <ele>609.20001220703</ele>
        <time>2019-04-18T12:06:10.000Z</time>
      </trkpt>
      <trkpt lat="46.16072" lon="6.22516">
        <ele>605.40002441406</ele>
        <time>2019-04-18T12:06:13.000Z</time>
      </trkpt>
      <trkpt lat="46.16082" lon="6.22532">
        <ele>603</ele>
        <time>2019-04-18T12:06:15.000Z</time>
      </trkpt>
      <trkpt lat="46.16097" lon="6.22556">
        <ele>599.20001220703</ele>
        <time>2019-04-18T12:06:18.000Z</time>
      </trkpt>
      <trkpt lat="46.16109" lon="6.22566">
        <ele>598.40002441406</ele>
        <time>2019-04-18T12:06:20.000Z</time>
      </trkpt>
      <trkpt lat="46.16138" lon="6.22581">
        <ele>598.79998779297</ele>
        <time>2019-04-18T12:06:24.000Z</time>
      </trkpt>
      <trkpt lat="46.16165" lon="6.22596">
        <ele>598.59997558594</ele>
        <time>2019-04-18T12:06:28.000Z</time>
      </trkpt>
      <trkpt lat="46.16176" lon="6.22609">
        <ele>595.79998779297</ele>
        <time>2019-04-18T12:06:30.000Z</time>
      </trkpt>
      <trkpt lat="46.16187" lon="6.22622">
        <ele>593</ele>
        <time>2019-04-18T12:06:32.000Z</time>
      </trkpt>
      <trkpt lat="46.16198" lon="6.22635">
        <ele>590.40002441406</ele>
        <time>2019-04-18T12:06:34.000Z</time>
      </trkpt>
      <trkpt lat="46.16211" lon="6.22646">
        <ele>589</ele>
        <time>2019-04-18T12:06:36.000Z</time>
      </trkpt>
      <trkpt lat="46.16224" lon="6.22651">
        <ele>589.59997558594</ele>
        <time>2019-04-18T12:06:38.000Z</time>
      </trkpt>
      <trkpt lat="46.16241" lon="6.22659">
        <ele>590.59997558594</ele>
        <time>2019-04-18T12:06:41.000Z</time>
      </trkpt>
      <trkpt lat="46.16245" lon="6.22662">
        <ele>590.40002441406</ele>
        <time>2019-04-18T12:06:42.000Z</time>
      </trkpt>
      <trkpt lat="46.16259" lon="6.2268">
        <ele>588.20001220703</ele>
        <time>2019-04-18T12:06:45.000Z</time>
      </trkpt>
      <trkpt lat="46.1627" lon="6.22694">
        <ele>586.20001220703</ele>
        <time>2019-04-18T12:06:47.000Z</time>
      </trkpt>
      <trkpt lat="46.16297" lon="6.22731">
        <ele>581.20001220703</ele>
        <time>2019-04-18T12:06:52.000Z</time>
      </trkpt>
      <trkpt lat="46.16317" lon="6.22778">
        <ele>578.20001220703</ele>
        <time>2019-04-18T12:06:57.000Z</time>
      </trkpt>
      <trkpt lat="46.16322" lon="6.22799">
        <ele>576.20001220703</ele>
        <time>2019-04-18T12:06:59.000Z</time>
      </trkpt>
      <trkpt lat="46.16325" lon="6.22817">
        <ele>574.20001220703</ele>
        <time>2019-04-18T12:07:01.000Z</time>
      </trkpt>
      <trkpt lat="46.16331" lon="6.22833">
        <ele>573.40002441406</ele>
        <time>2019-04-18T12:07:03.000Z</time>
      </trkpt>
      <trkpt lat="46.16336" lon="6.22847">
        <ele>573.40002441406</ele>
        <time>2019-04-18T12:07:05.000Z</time>
      </trkpt>
      <trkpt lat="46.1634" lon="6.2286">
        <ele>573.40002441406</ele>
        <time>2019-04-18T12:07:07.000Z</time>
      </trkpt>
      <trkpt lat="46.16338" lon="6.22873">
        <ele>572.79998779297</ele>
        <time>2019-04-18T12:07:09.000Z</time>
      </trkpt>
      <trkpt lat="46.16328" lon="6.22879">
        <ele>571.40002441406</ele>
        <time>2019-04-18T12:07:11.000Z</time>
      </trkpt>
      <trkpt lat="46.16321" lon="6.22871">
        <ele>571</ele>
        <time>2019-04-18T12:07:13.000Z</time>
      </trkpt>
      <trkpt lat="46.16316" lon="6.22865">
        <ele>570.59997558594</ele>
        <time>2019-04-18T12:07:14.000Z</time>
      </trkpt>
      <trkpt lat="46.16301" lon="6.22847">
        <ele>569.59997558594</ele>
        <time>2019-04-18T12:07:17.000Z</time>
      </trkpt>
      <trkpt lat="46.1629" lon="6.22837">
        <ele>568.79998779297</ele>
        <time>2019-04-18T12:07:19.000Z</time>
      </trkpt>
      <trkpt lat="46.16249" lon="6.22805">
        <ele>565.79998779297</ele>
        <time>2019-04-18T12:07:25.000Z</time>
      </trkpt>
      <trkpt lat="46.16228" lon="6.2279">
        <ele>564.59997558594</ele>
        <time>2019-04-18T12:07:28.000Z</time>
      </trkpt>
      <trkpt lat="46.16214" lon="6.2278">
        <ele>563.40002441406</ele>
        <time>2019-04-18T12:07:30.000Z</time>
      </trkpt>
      <trkpt lat="46.162" lon="6.22779">
        <ele>561.59997558594</ele>
        <time>2019-04-18T12:07:32.000Z</time>
      </trkpt>
      <trkpt lat="46.16185" lon="6.22779">
        <ele>559.79998779297</ele>
        <time>2019-04-18T12:07:34.000Z</time>
      </trkpt>
      <trkpt lat="46.16152" lon="6.22768">
        <ele>556.20001220703</ele>
        <time>2019-04-18T12:07:39.000Z</time>
      </trkpt>
      <trkpt lat="46.16111" lon="6.22744">
        <ele>552.20001220703</ele>
        <time>2019-04-18T12:07:45.000Z</time>
      </trkpt>
      <trkpt lat="46.16091" lon="6.22725">
        <ele>551.20001220703</ele>
        <time>2019-04-18T12:07:49.000Z</time>
      </trkpt>
      <trkpt lat="46.16083" lon="6.22724">
        <ele>550.40002441406</ele>
        <time>2019-04-18T12:07:51.000Z</time>
      </trkpt>
      <trkpt lat="46.16079" lon="6.22729">
        <ele>548.59997558594</ele>
        <time>2019-04-18T12:07:52.000Z</time>
      </trkpt>
      <trkpt lat="46.16073" lon="6.22734">
        <ele>547.40002441406</ele>
        <time>2019-04-18T12:07:53.000Z</time>
      </trkpt>
      <trkpt lat="46.16059" lon="6.22729">
        <ele>545.59997558594</ele>
        <time>2019-04-18T12:07:55.000Z</time>
      </trkpt>
      <trkpt lat="46.16052" lon="6.2272">
        <ele>546.20001220703</ele>
        <time>2019-04-18T12:07:57.000Z</time>
      </trkpt>
      <trkpt lat="46.16049" lon="6.22717">
        <ele>546.59997558594</ele>
        <time>2019-04-18T12:07:58.000Z</time>
      </trkpt>
      <trkpt lat="46.16028" lon="6.22689">
        <ele>548.79998779297</ele>
        <time>2019-04-18T12:08:05.000Z</time>
      </trkpt>
      <trkpt lat="46.16009" lon="6.22665">
        <ele>550.79998779297</ele>
        <time>2019-04-18T12:08:11.000Z</time>
      </trkpt>
      <trkpt lat="46.15996" lon="6.22648">
        <ele>552</ele>
        <time>2019-04-18T12:08:15.000Z</time>
      </trkpt>
      <trkpt lat="46.1599" lon="6.2264">
        <ele>552.79998779297</ele>
        <time>2019-04-18T12:08:17.000Z</time>
      </trkpt>
      <trkpt lat="46.15987" lon="6.22636">
        <ele>553.20001220703</ele>
        <time>2019-04-18T12:08:18.000Z</time>
      </trkpt>
      <trkpt lat="46.15977" lon="6.22625">
        <ele>553.59997558594</ele>
        <time>2019-04-18T12:08:21.000Z</time>
      </trkpt>
      <trkpt lat="46.15972" lon="6.22622">
        <ele>553.79998779297</ele>
        <time>2019-04-18T12:08:22.000Z</time>
      </trkpt>
      <trkpt lat="46.15953" lon="6.22607">
        <ele>554.40002441406</ele>
        <time>2019-04-18T12:08:27.000Z</time>
      </trkpt>
      <trkpt lat="46.15948" lon="6.22603">
        <ele>554.59997558594</ele>
        <time>2019-04-18T12:08:28.000Z</time>
      </trkpt>
      <trkpt lat="46.15937" lon="6.22594">
        <ele>555</ele>
        <time>2019-04-18T12:08:31.000Z</time>
      </trkpt>
      <trkpt lat="46.15925" lon="6.22585">
        <ele>555.20001220703</ele>
        <time>2019-04-18T12:08:34.000Z</time>
      </trkpt>
      <trkpt lat="46.159" lon="6.22571">
        <ele>555</ele>
        <time>2019-04-18T12:08:40.000Z</time>
      </trkpt>
      <trkpt lat="46.15897" lon="6.2257">
        <ele>554.59997558594</ele>
        <time>2019-04-18T12:08:41.000Z</time>
      </trkpt>
      <trkpt lat="46.15873" lon="6.22564">
        <ele>555</ele>
        <time>2019-04-18T12:08:46.000Z</time>
      </trkpt>
      <trkpt lat="46.15856" lon="6.22567">
        <ele>554.20001220703</ele>
        <time>2019-04-18T12:08:50.000Z</time>
      </trkpt>
      <trkpt lat="46.15847" lon="6.2257">
        <ele>553.20001220703</ele>
        <time>2019-04-18T12:08:52.000Z</time>
      </trkpt>
      <trkpt lat="46.15845" lon="6.22571">
        <ele>553</ele>
        <time>2019-04-18T12:08:53.000Z</time>
      </trkpt>
      <trkpt lat="46.15834" lon="6.22574">
        <ele>552</ele>
        <time>2019-04-18T12:08:55.000Z</time>
      </trkpt>
      <trkpt lat="46.15818" lon="6.2258">
        <ele>551.40002441406</ele>
        <time>2019-04-18T12:08:59.000Z</time>
      </trkpt>
      <trkpt lat="46.15809" lon="6.22582">
        <ele>551.59997558594</ele>
        <time>2019-04-18T12:09:01.000Z</time>
      </trkpt>
      <trkpt lat="46.15791" lon="6.2258">
        <ele>551.79998779297</ele>
        <time>2019-04-18T12:09:05.000Z</time>
      </trkpt>
      <trkpt lat="46.15761" lon="6.22572">
        <ele>552.79998779297</ele>
        <time>2019-04-18T12:09:12.000Z</time>
      </trkpt>
      <trkpt lat="46.15725" lon="6.22559">
        <ele>554.40002441406</ele>
        <time>2019-04-18T12:09:20.000Z</time>
      </trkpt>
      <trkpt lat="46.15687" lon="6.22547">
        <ele>556.59997558594</ele>
        <time>2019-04-18T12:09:29.000Z</time>
      </trkpt>
      <trkpt lat="46.15643" lon="6.22536">
        <ele>558.79998779297</ele>
        <time>2019-04-18T12:09:39.000Z</time>
      </trkpt>
      <trkpt lat="46.15608" lon="6.22528">
        <ele>559</ele>
        <time>2019-04-18T12:09:47.000Z</time>
      </trkpt>
      <trkpt lat="46.15571" lon="6.22519">
        <ele>560.59997558594</ele>
        <time>2019-04-18T12:09:55.000Z</time>
      </trkpt>
      <trkpt lat="46.15568" lon="6.22518">
        <ele>560.79998779297</ele>
        <time>2019-04-18T12:09:56.000Z</time>
      </trkpt>
      <trkpt lat="46.15548" lon="6.2251">
        <ele>561.59997558594</ele>
        <time>2019-04-18T12:10:00.000Z</time>
      </trkpt>
      <trkpt lat="46.1554" lon="6.22504">
        <ele>562</ele>
        <time>2019-04-18T12:10:02.000Z</time>
      </trkpt>
      <trkpt lat="46.15524" lon="6.2249">
        <ele>563</ele>
        <time>2019-04-18T12:10:06.000Z</time>
      </trkpt>
      <trkpt lat="46.15486" lon="6.22458">
        <ele>564.79998779297</ele>
        <time>2019-04-18T12:10:15.000Z</time>
      </trkpt>
      <trkpt lat="46.15462" lon="6.22438">
        <ele>566</ele>
        <time>2019-04-18T12:10:21.000Z</time>
      </trkpt>
      <trkpt lat="46.15429" lon="6.2241">
        <ele>567.40002441406</ele>
        <time>2019-04-18T12:10:29.000Z</time>
      </trkpt>
      <trkpt lat="46.15383" lon="6.22365">
        <ele>569.20001220703</ele>
        <time>2019-04-18T12:10:40.000Z</time>
      </trkpt>
      <trkpt lat="46.15355" lon="6.22325">
        <ele>569.79998779297</ele>
        <time>2019-04-18T12:10:48.000Z</time>
      </trkpt>
      <trkpt lat="46.15333" lon="6.22277">
        <ele>571</ele>
        <time>2019-04-18T12:10:56.000Z</time>
      </trkpt>
      <trkpt lat="46.15317" lon="6.22236">
        <ele>572</ele>
        <time>2019-04-18T12:11:03.000Z</time>
      </trkpt>
      <trkpt lat="46.15299" lon="6.22189">
        <ele>573.40002441406</ele>
        <time>2019-04-18T12:11:11.000Z</time>
      </trkpt>
      <trkpt lat="46.15291" lon="6.22173">
        <ele>573.79998779297</ele>
        <time>2019-04-18T12:11:14.000Z</time>
      </trkpt>
      <trkpt lat="46.15276" lon="6.22148">
        <ele>574</ele>
        <time>2019-04-18T12:11:19.000Z</time>
      </trkpt>
      <trkpt lat="46.15246" lon="6.22122">
        <ele>573.20001220703</ele>
        <time>2019-04-18T12:11:26.000Z</time>
      </trkpt>
      <trkpt lat="46.15216" lon="6.22098">
        <ele>572.79998779297</ele>
        <time>2019-04-18T12:11:33.000Z</time>
      </trkpt>
      <trkpt lat="46.15168" lon="6.22058">
        <ele>574</ele>
        <time>2019-04-18T12:11:44.000Z</time>
      </trkpt>
      <trkpt lat="46.15164" lon="6.22055">
        <ele>574.20001220703</ele>
        <time>2019-04-18T12:11:45.000Z</time>
      </trkpt>
      <trkpt lat="46.15131" lon="6.22029">
        <ele>575.79998779297</ele>
        <time>2019-04-18T12:11:53.000Z</time>
      </trkpt>
      <trkpt lat="46.15099" lon="6.22005">
        <ele>577</ele>
        <time>2019-04-18T12:12:00.000Z</time>
      </trkpt>
      <trkpt lat="46.15057" lon="6.21974">
        <ele>578.40002441406</ele>
        <time>2019-04-18T12:12:09.000Z</time>
      </trkpt>
      <trkpt lat="46.15023" lon="6.21948">
        <ele>579.79998779297</ele>
        <time>2019-04-18T12:12:16.000Z</time>
      </trkpt>
      <trkpt lat="46.14987" lon="6.2192">
        <ele>581.20001220703</ele>
        <time>2019-04-18T12:12:24.000Z</time>
      </trkpt>
      <trkpt lat="46.14952" lon="6.21901">
        <ele>583</ele>
        <time>2019-04-18T12:12:31.000Z</time>
      </trkpt>
      <trkpt lat="46.14922" lon="6.21899">
        <ele>582.79998779297</ele>
        <time>2019-04-18T12:12:37.000Z</time>
      </trkpt>
      <trkpt lat="46.1491" lon="6.21901">
        <ele>582.40002441406</ele>
        <time>2019-04-18T12:12:39.000Z</time>
      </trkpt>
      <trkpt lat="46.14894" lon="6.21905">
        <ele>581.59997558594</ele>
        <time>2019-04-18T12:12:42.000Z</time>
      </trkpt>
      <trkpt lat="46.14877" lon="6.21909">
        <ele>581.59997558594</ele>
        <time>2019-04-18T12:12:45.000Z</time>
      </trkpt>
      <trkpt lat="46.1486" lon="6.21912">
        <ele>581.59997558594</ele>
        <time>2019-04-18T12:12:48.000Z</time>
      </trkpt>
      <trkpt lat="46.14855" lon="6.21913">
        <ele>581.59997558594</ele>
        <time>2019-04-18T12:12:49.000Z</time>
      </trkpt>
      <trkpt lat="46.14829" lon="6.21916">
        <ele>582</ele>
        <time>2019-04-18T12:12:54.000Z</time>
      </trkpt>
      <trkpt lat="46.14818" lon="6.21912">
        <ele>582.79998779297</ele>
        <time>2019-04-18T12:12:56.000Z</time>
      </trkpt>
      <trkpt lat="46.14803" lon="6.21906">
        <ele>583.59997558594</ele>
        <time>2019-04-18T12:12:59.000Z</time>
      </trkpt>
      <trkpt lat="46.14764" lon="6.2189">
        <ele>584.40002441406</ele>
        <time>2019-04-18T12:13:06.000Z</time>
      </trkpt>
      <trkpt lat="46.14715" lon="6.21867">
        <ele>584.79998779297</ele>
        <time>2019-04-18T12:13:14.000Z</time>
      </trkpt>
      <trkpt lat="46.14684" lon="6.21852">
        <ele>584.59997558594</ele>
        <time>2019-04-18T12:13:19.000Z</time>
      </trkpt>
      <trkpt lat="46.14671" lon="6.21846">
        <ele>584.59997558594</ele>
        <time>2019-04-18T12:13:21.000Z</time>
      </trkpt>
      <trkpt lat="46.1462" lon="6.21821">
        <ele>584.20001220703</ele>
        <time>2019-04-18T12:13:29.000Z</time>
      </trkpt>
      <trkpt lat="46.1458" lon="6.21797">
        <ele>584.20001220703</ele>
        <time>2019-04-18T12:13:35.000Z</time>
      </trkpt>
      <trkpt lat="46.14531" lon="6.21763">
        <ele>585</ele>
        <time>2019-04-18T12:13:43.000Z</time>
      </trkpt>
      <trkpt lat="46.14505" lon="6.2175">
        <ele>585</ele>
        <time>2019-04-18T12:13:47.000Z</time>
      </trkpt>
      <trkpt lat="46.14491" lon="6.21748">
        <ele>584.59997558594</ele>
        <time>2019-04-18T12:13:49.000Z</time>
      </trkpt>
      <trkpt lat="46.14477" lon="6.21746">
        <ele>584.20001220703</ele>
        <time>2019-04-18T12:13:51.000Z</time>
      </trkpt>
      <trkpt lat="46.14457" lon="6.21743">
        <ele>584.40002441406</ele>
        <time>2019-04-18T12:13:54.000Z</time>
      </trkpt>
      <trkpt lat="46.14436" lon="6.2174">
        <ele>584.79998779297</ele>
        <time>2019-04-18T12:13:57.000Z</time>
      </trkpt>
      <trkpt lat="46.1441" lon="6.21735">
        <ele>585.40002441406</ele>
        <time>2019-04-18T12:14:01.000Z</time>
      </trkpt>
      <trkpt lat="46.1436" lon="6.21718">
        <ele>586</ele>
        <time>2019-04-18T12:14:08.000Z</time>
      </trkpt>
      <trkpt lat="46.14307" lon="6.21695">
        <ele>586.59997558594</ele>
        <time>2019-04-18T12:14:16.000Z</time>
      </trkpt>
      <trkpt lat="46.14294" lon="6.21689">
        <ele>586.40002441406</ele>
        <time>2019-04-18T12:14:18.000Z</time>
      </trkpt>
      <trkpt lat="46.14242" lon="6.21666">
        <ele>585</ele>
        <time>2019-04-18T12:14:26.000Z</time>
      </trkpt>
      <trkpt lat="46.14235" lon="6.21664">
        <ele>584.79998779297</ele>
        <time>2019-04-18T12:14:27.000Z</time>
      </trkpt>
      <trkpt lat="46.14187" lon="6.21644">
        <ele>584.59997558594</ele>
        <time>2019-04-18T12:14:34.000Z</time>
      </trkpt>
      <trkpt lat="46.14136" lon="6.21623">
        <ele>585.20001220703</ele>
        <time>2019-04-18T12:14:42.000Z</time>
      </trkpt>
      <trkpt lat="46.14087" lon="6.21604">
        <ele>587.40002441406</ele>
        <time>2019-04-18T12:14:50.000Z</time>
      </trkpt>
      <trkpt lat="46.1404" lon="6.216">
        <ele>589</ele>
        <time>2019-04-18T12:14:57.000Z</time>
      </trkpt>
      <trkpt lat="46.14002" lon="6.21598">
        <ele>590</ele>
        <time>2019-04-18T12:15:03.000Z</time>
      </trkpt>
      <trkpt lat="46.13965" lon="6.21595">
        <ele>589.79998779297</ele>
        <time>2019-04-18T12:15:09.000Z</time>
      </trkpt>
      <trkpt lat="46.13946" lon="6.21588">
        <ele>590.40002441406</ele>
        <time>2019-04-18T12:15:12.000Z</time>
      </trkpt>
      <trkpt lat="46.13934" lon="6.21582">
        <ele>591</ele>
        <time>2019-04-18T12:15:14.000Z</time>
      </trkpt>
      <trkpt lat="46.13899" lon="6.21559">
        <ele>593.40002441406</ele>
        <time>2019-04-18T12:15:20.000Z</time>
      </trkpt>
      <trkpt lat="46.1385" lon="6.21513">
        <ele>596.40002441406</ele>
        <time>2019-04-18T12:15:29.000Z</time>
      </trkpt>
      <trkpt lat="46.13819" lon="6.21484">
        <ele>598</ele>
        <time>2019-04-18T12:15:35.000Z</time>
      </trkpt>
      <trkpt lat="46.13815" lon="6.2148">
        <ele>598</ele>
        <time>2019-04-18T12:15:36.000Z</time>
      </trkpt>
      <trkpt lat="46.13798" lon="6.21469">
        <ele>598.59997558594</ele>
        <time>2019-04-18T12:15:39.000Z</time>
      </trkpt>
      <trkpt lat="46.13794" lon="6.21467">
        <ele>598.40002441406</ele>
        <time>2019-04-18T12:15:40.000Z</time>
      </trkpt>
      <trkpt lat="46.13767" lon="6.21458">
        <ele>597.40002441406</ele>
        <time>2019-04-18T12:15:44.000Z</time>
      </trkpt>
      <trkpt lat="46.13725" lon="6.21442">
        <ele>595.59997558594</ele>
        <time>2019-04-18T12:15:51.000Z</time>
      </trkpt>
      <trkpt lat="46.1372" lon="6.21437">
        <ele>596.20001220703</ele>
        <time>2019-04-18T12:15:52.000Z</time>
      </trkpt>
      <trkpt lat="46.13706" lon="6.2142">
        <ele>597.59997558594</ele>
        <time>2019-04-18T12:15:55.000Z</time>
      </trkpt>
      <trkpt lat="46.13701" lon="6.21414">
        <ele>598.20001220703</ele>
        <time>2019-04-18T12:15:56.000Z</time>
      </trkpt>
      <trkpt lat="46.13671" lon="6.21378">
        <ele>601</ele>
        <time>2019-04-18T12:16:03.000Z</time>
      </trkpt>
      <trkpt lat="46.13632" lon="6.21331">
        <ele>603.79998779297</ele>
        <time>2019-04-18T12:16:12.000Z</time>
      </trkpt>
      <trkpt lat="46.13601" lon="6.21296">
        <ele>605.20001220703</ele>
        <time>2019-04-18T12:16:19.000Z</time>
      </trkpt>
      <trkpt lat="46.13596" lon="6.21292">
        <ele>605</ele>
        <time>2019-04-18T12:16:20.000Z</time>
      </trkpt>
      <trkpt lat="46.13581" lon="6.21282">
        <ele>604.40002441406</ele>
        <time>2019-04-18T12:16:23.000Z</time>
      </trkpt>
      <trkpt lat="46.13553" lon="6.21263">
        <ele>603.59997558594</ele>
        <time>2019-04-18T12:16:29.000Z</time>
      </trkpt>
      <trkpt lat="46.13519" lon="6.2124">
        <ele>602.79998779297</ele>
        <time>2019-04-18T12:16:37.000Z</time>
      </trkpt>
      <trkpt lat="46.13503" lon="6.21229">
        <ele>602.40002441406</ele>
        <time>2019-04-18T12:16:41.000Z</time>
      </trkpt>
      <trkpt lat="46.13496" lon="6.21225">
        <ele>602.20001220703</ele>
        <time>2019-04-18T12:16:43.000Z</time>
      </trkpt>
      <trkpt lat="46.13482" lon="6.21216">
        <ele>602</ele>
        <time>2019-04-18T12:16:48.000Z</time>
      </trkpt>
      <trkpt lat="46.13471" lon="6.21209">
        <ele>601.59997558594</ele>
        <time>2019-04-18T12:16:54.000Z</time>
      </trkpt>
      <trkpt lat="46.1346" lon="6.21201">
        <ele>601.40002441406</ele>
        <time>2019-04-18T12:16:59.000Z</time>
      </trkpt>
      <trkpt lat="46.13444" lon="6.21189">
        <ele>601.20001220703</ele>
        <time>2019-04-18T12:17:04.000Z</time>
      </trkpt>
      <trkpt lat="46.13426" lon="6.21174">
        <ele>601</ele>
        <time>2019-04-18T12:17:09.000Z</time>
      </trkpt>
      <trkpt lat="46.13423" lon="6.2117">
        <ele>601.20001220703</ele>
        <time>2019-04-18T12:17:10.000Z</time>
      </trkpt>
      <trkpt lat="46.13411" lon="6.21155">
        <ele>601.59997558594</ele>
        <time>2019-04-18T12:17:14.000Z</time>
      </trkpt>
      <trkpt lat="46.13405" lon="6.21147">
        <ele>602</ele>
        <time>2019-04-18T12:17:16.000Z</time>
      </trkpt>
      <trkpt lat="46.13391" lon="6.2113">
        <ele>602.79998779297</ele>
        <time>2019-04-18T12:17:21.000Z</time>
      </trkpt>
      <trkpt lat="46.13374" lon="6.21115">
        <ele>603.59997558594</ele>
        <time>2019-04-18T12:17:26.000Z</time>
      </trkpt>
      <trkpt lat="46.1337" lon="6.21113">
        <ele>603.79998779297</ele>
        <time>2019-04-18T12:17:27.000Z</time>
      </trkpt>
      <trkpt lat="46.1335" lon="6.21102">
        <ele>604.20001220703</ele>
        <time>2019-04-18T12:17:32.000Z</time>
      </trkpt>
      <trkpt lat="46.13345" lon="6.21099">
        <ele>604.20001220703</ele>
        <time>2019-04-18T12:17:33.000Z</time>
      </trkpt>
      <trkpt lat="46.13313" lon="6.21085">
        <ele>604.79998779297</ele>
        <time>2019-04-18T12:17:40.000Z</time>
      </trkpt>
      <trkpt lat="46.13284" lon="6.21068">
        <ele>605.40002441406</ele>
        <time>2019-04-18T12:17:47.000Z</time>
      </trkpt>
      <trkpt lat="46.13258" lon="6.2104">
        <ele>606.40002441406</ele>
        <time>2019-04-18T12:17:54.000Z</time>
      </trkpt>
      <trkpt lat="46.13234" lon="6.2101">
        <ele>607.40002441406</ele>
        <time>2019-04-18T12:18:01.000Z</time>
      </trkpt>
      <trkpt lat="46.13204" lon="6.20973">
        <ele>608.59997558594</ele>
        <time>2019-04-18T12:18:09.000Z</time>
      </trkpt>
      <trkpt lat="46.13171" lon="6.20929">
        <ele>611</ele>
        <time>2019-04-18T12:18:19.000Z</time>
      </trkpt>
      <trkpt lat="46.13147" lon="6.20897">
        <ele>613</ele>
        <time>2019-04-18T12:18:26.000Z</time>
      </trkpt>
      <trkpt lat="46.13133" lon="6.20862">
        <ele>615.59997558594</ele>
        <time>2019-04-18T12:18:32.000Z</time>
      </trkpt>
      <trkpt lat="46.13118" lon="6.20825">
        <ele>618.40002441406</ele>
        <time>2019-04-18T12:18:38.000Z</time>
      </trkpt>
      <trkpt lat="46.13111" lon="6.20816">
        <ele>619</ele>
        <time>2019-04-18T12:18:40.000Z</time>
      </trkpt>
      <trkpt lat="46.13108" lon="6.20812">
        <ele>619.20001220703</ele>
        <time>2019-04-18T12:18:41.000Z</time>
      </trkpt>
      <trkpt lat="46.13102" lon="6.20803">
        <ele>619.79998779297</ele>
        <time>2019-04-18T12:18:43.000Z</time>
      </trkpt>
      <trkpt lat="46.13092" lon="6.20798">
        <ele>619.79998779297</ele>
        <time>2019-04-18T12:18:45.000Z</time>
      </trkpt>
      <trkpt lat="46.13089" lon="6.20796">
        <ele>619.79998779297</ele>
        <time>2019-04-18T12:18:46.000Z</time>
      </trkpt>
      <trkpt lat="46.13066" lon="6.20786">
        <ele>619.79998779297</ele>
        <time>2019-04-18T12:18:51.000Z</time>
      </trkpt>
      <trkpt lat="46.13025" lon="6.20766">
        <ele>619.20001220703</ele>
        <time>2019-04-18T12:19:00.000Z</time>
      </trkpt>
      <trkpt lat="46.12976" lon="6.20742">
        <ele>618.40002441406</ele>
        <time>2019-04-18T12:19:11.000Z</time>
      </trkpt>
      <trkpt lat="46.12934" lon="6.20722">
        <ele>619</ele>
        <time>2019-04-18T12:19:20.000Z</time>
      </trkpt>
      <trkpt lat="46.12895" lon="6.20703">
        <ele>619.79998779297</ele>
        <time>2019-04-18T12:19:28.000Z</time>
      </trkpt>
      <trkpt lat="46.12849" lon="6.20681">
        <ele>620.79998779297</ele>
        <time>2019-04-18T12:19:38.000Z</time>
      </trkpt>
      <trkpt lat="46.12845" lon="6.20679">
        <ele>620.79998779297</ele>
        <time>2019-04-18T12:19:39.000Z</time>
      </trkpt>
      <trkpt lat="46.12824" lon="6.20659">
        <ele>622.59997558594</ele>
        <time>2019-04-18T12:19:44.000Z</time>
      </trkpt>
      <trkpt lat="46.12793" lon="6.20625">
        <ele>625</ele>
        <time>2019-04-18T12:19:52.000Z</time>
      </trkpt>
      <trkpt lat="46.12762" lon="6.20589">
        <ele>626.40002441406</ele>
        <time>2019-04-18T12:20:00.000Z</time>
      </trkpt>
      <trkpt lat="46.12759" lon="6.20586">
        <ele>626.59997558594</ele>
        <time>2019-04-18T12:20:01.000Z</time>
      </trkpt>
      <trkpt lat="46.12744" lon="6.20579">
        <ele>626.40002441406</ele>
        <time>2019-04-18T12:20:04.000Z</time>
      </trkpt>
      <trkpt lat="46.12739" lon="6.20578">
        <ele>626.40002441406</ele>
        <time>2019-04-18T12:20:05.000Z</time>
      </trkpt>
      <trkpt lat="46.127" lon="6.20565">
        <ele>627.20001220703</ele>
        <time>2019-04-18T12:20:13.000Z</time>
      </trkpt>
      <trkpt lat="46.12667" lon="6.20554">
        <ele>628.79998779297</ele>
        <time>2019-04-18T12:20:20.000Z</time>
      </trkpt>
      <trkpt lat="46.12626" lon="6.2054">
        <ele>631.20001220703</ele>
        <time>2019-04-18T12:20:29.000Z</time>
      </trkpt>
      <trkpt lat="46.12616" lon="6.20536">
        <ele>631.59997558594</ele>
        <time>2019-04-18T12:20:31.000Z</time>
      </trkpt>
      <trkpt lat="46.12599" lon="6.20531">
        <ele>632.59997558594</ele>
        <time>2019-04-18T12:20:35.000Z</time>
      </trkpt>
      <trkpt lat="46.12564" lon="6.20521">
        <ele>634.40002441406</ele>
        <time>2019-04-18T12:20:42.000Z</time>
      </trkpt>
      <trkpt lat="46.12535" lon="6.20512">
        <ele>635.59997558594</ele>
        <time>2019-04-18T12:20:48.000Z</time>
      </trkpt>
      <trkpt lat="46.125" lon="6.20502">
        <ele>637</ele>
        <time>2019-04-18T12:20:55.000Z</time>
      </trkpt>
      <trkpt lat="46.12494" lon="6.20502">
        <ele>637.40002441406</ele>
        <time>2019-04-18T12:20:56.000Z</time>
      </trkpt>
      <trkpt lat="46.12472" lon="6.20508">
        <ele>638.20001220703</ele>
        <time>2019-04-18T12:21:00.000Z</time>
      </trkpt>
      <trkpt lat="46.12452" lon="6.2052">
        <ele>637.40002441406</ele>
        <time>2019-04-18T12:21:05.000Z</time>
      </trkpt>
      <trkpt lat="46.12444" lon="6.20525">
        <ele>637.20001220703</ele>
        <time>2019-04-18T12:21:07.000Z</time>
      </trkpt>
      <trkpt lat="46.12435" lon="6.20531">
        <ele>636.79998779297</ele>
        <time>2019-04-18T12:21:10.000Z</time>
      </trkpt>
      <trkpt lat="46.12419" lon="6.2054">
        <ele>636.20001220703</ele>
        <time>2019-04-18T12:21:15.000Z</time>
      </trkpt>
      <trkpt lat="46.12399" lon="6.20553">
        <ele>635.59997558594</ele>
        <time>2019-04-18T12:21:21.000Z</time>
      </trkpt>
      <trkpt lat="46.1238" lon="6.20565">
        <ele>636.20001220703</ele>
        <time>2019-04-18T12:21:27.000Z</time>
      </trkpt>
      <trkpt lat="46.12375" lon="6.20582">
        <ele>635.20001220703</ele>
        <time>2019-04-18T12:21:32.000Z</time>
      </trkpt>
      <trkpt lat="46.12375" lon="6.20585">
        <ele>635</ele>
        <time>2019-04-18T12:21:33.000Z</time>
      </trkpt>
      <trkpt lat="46.12375" lon="6.2059">
        <ele>634.79998779297</ele>
        <time>2019-04-18T12:21:36.000Z</time>
      </trkpt>
      <trkpt lat="46.12375" lon="6.2059">
        <ele>634.79998779297</ele>
        <time>2019-04-18T12:21:42.000Z</time>
      </trkpt>
      <trkpt lat="46.12375" lon="6.2059">
        <ele>634.79998779297</ele>
        <time>2019-04-18T12:21:45.000Z</time>
      </trkpt>
    </trkseg>
  </trk>
</gpx>